# Wetter Temperatur Luftdruck Luftfeuchtigkeit Sichtweite Windgeschwindigkeit Windrichtung Zeit
1 Clouds 20 1025 36 0 5.36 295 19:59 12.07.2020
2 Clouds 20 1025 36 0 1.34 293 19:39 12.07.2020
3 Clouds 21 1026 35 0 0.89 296 19:20 12.07.2020
4 Clouds 21 1026 36 0 1.34 309 18:44 12.07.2020
5 Clouds 21 1025 34 0 1.79 313 18:21 12.07.2020
6 Clouds 21 1026 35 0 1.79 7 17:59 12.07.2020
7 Clouds 21 1026 35 0 0.89 289 17:38 12.07.2020
8 Clouds 21 1026 36 0 4.02 316 17:20 12.07.2020
9 Clouds 22 1026 35 0 1.79 338 16:47 12.07.2020
10 Clouds 23 1026 33 0 4.02 335 16:22 12.07.2020
11 Clouds 22 1026 35 0 3.13 347 15:50 12.07.2020
12 Clouds 22 1026 33 0 0.45 316 15:30 12.07.2020
13 Clouds 21 1027 37 0 2.68 359 14:58 12.07.2020
14 Clouds 21 1027 35 0 0.89 234 14:40 12.07.2020
15 Clouds 21 1027 35 0 0.89 234 14:40 12.07.2020
16 Clear 21 1027 36 0 1.79 320 14:22 12.07.2020
17 Clouds 21 1027 39 0 3.8 298 13:40 12.07.2020
18 Clouds 21 1027 38 0 3.58 304 13:21 12.07.2020
19 Clouds 21 1027 41 0 1.34 341 12:57 12.07.2020
20 Clouds 21 1027 43 0 2.68 215 12:38 12.07.2020
21 Clear 19 1027 50 0 0.89 236 12:19 12.07.2020
22 Clear 19 1027 48 0 0.89 310 11:55 12.07.2020
23 Clear 19 1027 45 0 2.24 358 11:36 12.07.2020
24 Clear 19 1027 55 0 0.45 242 11:18 12.07.2020
25 Clear 18 1028 56 0 0.45 69 10:41 12.07.2020
26 Clear 18 1021 60 0 2.71 300 10:19 12.07.2020
27 Clear 17 1028 59 0 0.89 267 09:43 12.07.2020
28 Clear 14 1027 72 0 0.45 270 09:21 12.07.2020
29 Clear 15 1021 82 0 2.32 307 08:57 12.07.2020
30 Clear 15 1021 82 0 2.32 307 08:38 12.07.2020
31 Clear 14 1021 88 0 2.09 309 08:19 12.07.2020
32 Clear 12 1021 10 0 2.09 309 07:47 12.07.2020
33 Clear 13 1027 73 0 1.97 307 07:28 12.07.2020
34 Clear 13 1027 73 0 1.97 307 07:28 12.07.2020
35 Clear 11 1026 80 0 1.97 307 06:53 12.07.2020
36 Clear 10 1026 80 0 2.08 308 06:22 12.07.2020
37 Clear 9 1026 82 0 2.08 308 05:59 12.07.2020
38 Clear 9 1025 84 0 2.38 308 04:58 12.07.2020
39 Clear 9 1025 84 0 2.51 306 04:29 12.07.2020
40 Clear 9 1025 83 0 2.51 306 03:45 12.07.2020
41 Clear 10 1025 83 0 2.39 312 03:24 12.07.2020
42 Clear 11 1025 81 0 2.62 310 02:21 12.07.2020
43 Clouds 11 1025 79 0 2.75 304 01:28 12.07.2020
44 Clouds 12 1025 77 0 2.75 304 00:39 12.07.2020
45 Clouds 12 1025 76 0 2.54 293 00:20 12.07.2020
46 Clouds 13 1024 74 0 2.54 293 23:41 11.07.2020
47 Clouds 14 1024 71 0 2.3 295 23:21 11.07.2020
48 Clouds 14 1024 65 0 2.3 295 22:57 11.07.2020
49 Clouds 15 1024 62 0 2.43 302 22:38 11.07.2020
50 Clouds 15 1024 61 0 0.45 276 22:20 11.07.2020
51 Clouds 16 1024 58 0 2.43 302 21:56 11.07.2020
52 Clouds 16 1024 57 0 1.34 285 21:37 11.07.2020
53 Clouds 17 1024 54 0 1.34 330 21:19 11.07.2020
54 Clouds 18 1023 53 0 1.79 358 20:54 11.07.2020
55 Clouds 18 1023 53 0 4.02 313 20:36 11.07.2020
56 Rain 18 1023 50 0 5.36 311 20:18 11.07.2020
57 Rain 18 1023 48 0 2.68 14 19:46 11.07.2020
58 Clear 18 1023 49 0 2.24 347 19:27 11.07.2020
59 Clear 18 1023 50 0 1.79 319 18:58 11.07.2020
60 Clear 19 1023 43 0 6.26 273 18:39 11.07.2020
61 Clear 20 1022 35 0 1.34 324 18:21 11.07.2020
62 Clear 19 1017 57 0 3.98 305 17:57 11.07.2020
63 Clear 21 1022 38 0 4.47 290 17:38 11.07.2020
64 Rain 21 1022 37 0 1.34 338 17:19 11.07.2020
65 Rain 21 1022 38 0 2.24 323 16:56 11.07.2020
66 Rain 21 1022 38 0 1.34 248 16:37 11.07.2020
67 Rain 22 1022 33 0 3.13 293 16:18 11.07.2020
68 Rain 22 1017 41 0 4.81 299 15:42 11.07.2020
69 Clear 21 1022 36 0 2.24 309 15:21 11.07.2020
70 Clear 22 1022 36 0 1.34 15 14:59 11.07.2020
71 Clear 21 1022 37 0 0.89 295 14:40 11.07.2020
72 Rain 21 1022 36 0 2.68 321 14:22 11.07.2020
73 Rain 21 1022 35 0 2.68 307 13:44 11.07.2020
74 Rain 21 1022 37 0 5.36 299 13:23 11.07.2020
75 Rain 19 1023 55 0 0.89 63 12:59 11.07.2020
76 Rain 21 1022 39 0 1.34 213 12:41 11.07.2020
77 Clouds 19 1023 53 0 0.89 64 12:23 11.07.2020
78 Clouds 18 1023 56 0 1.34 326 11:57 11.07.2020
79 Clouds 19 1022 43 0 1.34 232 11:39 11.07.2020
80 Clouds 19 1022 44 0 4.47 320 11:19 11.07.2020
81 Clouds 17 1022 59 0 1.34 1 10:45 11.07.2020
82 Clear 17 1022 59 0 1.34 28 10:26 11.07.2020
83 Clear 19 1016 57 0 4.09 294 09:56 11.07.2020
84 Clear 16 1022 63 0 1.34 354 09:37 11.07.2020
85 Clear 14 1021 74 0 0.45 335 09:18 11.07.2020
86 Clear 15 1015 79 0 3.55 292 08:38 11.07.2020
87 Clear 14 1015 86 0 3.43 285 08:19 11.07.2020
88 Clear 12 1015 10 0 3.43 285 07:46 11.07.2020
89 Clear 12 1021 85 0 3.7 289 07:27 11.07.2020
90 Clear 13 1021 83 0 3.7 289 07:27 11.07.2020
91 Clear 11 1020 86 0 1.79 261 06:59 11.07.2020
92 Clear 10 1020 88 0 0.89 252 06:23 11.07.2020
93 Clear 10 1020 87 0 3.19 282 05:46 11.07.2020
94 Clear 10 1020 87 0 3.19 282 05:46 11.07.2020
95 Clear 10 1019 87 0 3.04 284 04:59 11.07.2020
96 Clear 10 1019 87 0 3.04 284 04:39 11.07.2020
97 Clear 11 1019 87 0 2.92 276 04:19 11.07.2020
98 Clear 11 1019 85 0 0.45 201 02:52 11.07.2020
99 Clouds 12 1019 82 0 3.06 282 01:56 11.07.2020
100 Clouds 12 1018 83 0 0.45 293 01:21 11.07.2020
101 Clouds 12 1012 10 0 2.91 279 00:55 11.07.2020
102 Clouds 12 1012 10 0 2.91 279 00:36 11.07.2020
103 Clouds 13 1012 10 0 2.27 274 00:18 11.07.2020
104 Clouds 14 1017 79 0 0.89 211 23:44 10.07.2020
105 Clouds 14 1017 79 0 2.31 299 23:26 10.07.2020
106 Clouds 14 1016 78 0 2.31 299 22:50 10.07.2020
107 Clouds 14 1016 77 0 2.29 313 22:25 10.07.2020
108 Clouds 14 1016 74 0 2.29 313 21:59 10.07.2020
109 Clouds 15 1015 71 0 2.29 313 21:38 10.07.2020
110 Clouds 15 1015 68 0 1.34 326 21:20 10.07.2020
111 Clouds 16 1015 66 0 2.24 269 20:55 10.07.2020
112 Clouds 17 1014 63 0 0.89 241 20:36 10.07.2020
113 Clouds 17 1014 62 0 3.58 314 20:18 10.07.2020
114 Clouds 17 1013 63 0 3.58 357 19:43 10.07.2020
115 Clouds 18 1013 59 0 2.24 320 19:22 10.07.2020
116 Clouds 18 1013 61 0 1.79 337 18:58 10.07.2020
117 Clouds 17 1013 64 0 1.34 276 18:38 10.07.2020
118 Clouds 18 1012 64 0 3.13 228 18:19 10.07.2020
119 Clouds 19 1012 64 0 4.02 302 17:55 10.07.2020
120 Clouds 19 1011 61 0 2.24 258 17:36 10.07.2020
121 Clouds 19 1011 62 0 4.92 237 17:18 10.07.2020
122 Clouds 22 1009 51 0 3.58 163 16:40 10.07.2020
123 Rain 23 1009 50 0 4.92 327 16:19 10.07.2020
124 Rain 23 1002 64 0 9.1 280 15:44 10.07.2020
125 Rain 23 1002 62 0 8.96 273 15:22 10.07.2020
126 Rain 24 1008 50 0 3.58 274 14:55 10.07.2020
127 Rain 24 1008 47 0 4.02 248 14:37 10.07.2020
128 Rain 25 1007 48 0 4.02 255 14:18 10.07.2020
129 Rain 24 1006 49 0 3.13 208 13:56 10.07.2020
130 Rain 24 1006 52 0 4.47 207 13:37 10.07.2020
131 Rain 25 1006 47 0 4.02 279 13:19 10.07.2020
132 Rain 26 1006 53 0 4.02 269 12:43 10.07.2020
133 Rain 21 1006 78 0 5.7 264 12:24 10.07.2020
134 Rain 21 1006 78 0 5.7 264 11:59 10.07.2020
135 Rain 26 1006 58 0 4.47 100 11:38 10.07.2020
136 Rain 21 1006 82 0 5.14 229 11:19 10.07.2020
137 Rain 23 1006 61 0 3.58 290 10:55 10.07.2020
138 Rain 21 1006 66 0 1.34 213 10:36 10.07.2020
139 Rain 21 1006 67 0 1.34 149 10:18 10.07.2020
140 Rain 19 1008 79 0 0.89 90 09:38 10.07.2020
141 Rain 19 1001 10 0 3.93 167 09:19 10.07.2020
142 Rain 18 1001 10 0 3.93 167 08:57 10.07.2020
143 Rain 17 1002 10 0 3.93 167 08:39 10.07.2020
144 Rain 19 1007 75 0 0.45 97 08:21 10.07.2020
145 Rain 17 1008 87 0 1.79 112 07:42 10.07.2020
146 Rain 17 1008 87 0 2.29 171 07:22 10.07.2020
147 Rain 17 1008 87 0 0.89 176 06:51 10.07.2020
148 Rain 16 1009 86 0 1.34 194 06:24 10.07.2020
149 Rain 16 1009 86 0 2.81 185 04:43 10.07.2020
150 Clouds 17 1010 86 0 2.96 166 03:39 10.07.2020
151 Clouds 17 1010 86 0 2.3 188 02:53 10.07.2020
152 Clouds 17 1011 86 0 2.42 193 01:50 10.07.2020
153 Clouds 18 1010 84 0 2.01 215 00:49 10.07.2020
154 Rain 18 1011 83 0 2.1 247 00:21 10.07.2020
155 Rain 17 1011 84 0 2.1 247 23:55 09.07.2020
156 Rain 17 1011 85 0 2.13 272 23:36 09.07.2020
157 Rain 17 1011 85 0 2.13 272 23:18 09.07.2020
158 Rain 18 1011 83 0 2.13 272 22:41 09.07.2020
159 Clouds 19 1011 83 0 3.5 280 22:21 09.07.2020
160 Clouds 19 1011 82 0 3.5 280 21:59 09.07.2020
161 Clouds 19 1011 82 0 3.5 280 21:39 09.07.2020
162 Clouds 19 1011 80 0 1.79 221 21:19 09.07.2020
163 Clouds 20 1011 80 0 1.79 289 20:58 09.07.2020
164 Clouds 20 1011 79 0 0.89 214 20:39 09.07.2020
165 Clouds 20 1011 79 0 3.13 320 20:21 09.07.2020
166 Clouds 21 1010 73 0 1.79 231 19:43 09.07.2020
167 Clouds 21 1010 74 0 2.68 237 19:21 09.07.2020
168 Clouds 22 1004 73 0 5.12 271 18:56 09.07.2020
169 Clouds 22 1004 73 0 5.12 271 18:38 09.07.2020
170 Rain 23 1010 57 0 2.24 242 18:18 09.07.2020
171 Rain 22 1004 77 0 5.25 275 17:42 09.07.2020
172 Rain 22 1004 77 0 5.64 256 17:22 09.07.2020
173 Rain 22 1010 62 0 1.79 225 16:56 09.07.2020
174 Rain 21 1005 85 0 5.64 256 16:38 09.07.2020
175 Rain 21 1005 85 0 6.44 242 16:19 09.07.2020
176 Rain 22 1011 57 0 4.92 210 15:57 09.07.2020
177 Rain 23 1011 57 0 3.58 187 15:37 09.07.2020
178 Rain 21 1012 82 0 1.34 256 15:18 09.07.2020
179 Rain 23 1011 60 0 1.34 235 14:57 09.07.2020
180 Rain 19 1013 83 0 1.79 295 14:39 09.07.2020
181 Rain 19 1013 83 0 1.79 295 14:39 09.07.2020
182 Rain 21 1011 69 0 0.89 153 14:20 09.07.2020
183 Rain 21 1012 70 0 0.45 278 13:56 09.07.2020
184 Rain 22 1012 61 0 1.79 218 13:38 09.07.2020
185 Rain 21 1012 60 0 6.26 167 13:18 09.07.2020
186 Rain 19 1012 66 0 4.02 149 12:41 09.07.2020
187 Rain 17 1006 10 0 4.75 186 12:23 09.07.2020
188 Rain 17 1006 10 0 4.75 186 11:57 09.07.2020
189 Rain 18 1006 94 0 4.75 186 11:38 09.07.2020
190 Rain 18 1007 97 0 4.04 171 11:18 09.07.2020
191 Rain 18 1007 98 0 4.04 171 10:55 09.07.2020
192 Rain 18 1015 80 0 1.34 214 10:37 09.07.2020
193 Clouds 18 1015 80 0 1.34 272 10:19 09.07.2020
194 Clouds 19 1015 80 0 2.24 261 09:42 09.07.2020
195 Clouds 17 1012 80 0 0.89 45 09:22 09.07.2020
196 Clouds 16 1015 78 0 0.45 103 08:49 09.07.2020
197 Clouds 15 1016 86 0 1.34 223 08:26 09.07.2020
198 Clouds 15 1008 10 0 2.58 164 07:56 09.07.2020
199 Clouds 15 1008 10 0 2.58 164 07:37 09.07.2020
200 Clouds 15 1008 10 0 2.49 154 07:19 09.07.2020
201 Clouds 14 1009 10 0 1.91 153 06:20 09.07.2020
202 Clouds 15 1015 80 0 1.34 134 05:50 09.07.2020
203 Clouds 14 1015 81 0 1.4 195 04:29 09.07.2020
204 Clouds 14 1016 81 0 1.17 185 03:19 09.07.2020
205 Clouds 14 1016 81 0 1.17 185 03:19 09.07.2020
206 Clouds 14 1016 79 0 1.41 235 01:55 09.07.2020
207 Clouds 14 1016 81 0 1.93 253 00:59 09.07.2020
208 Clouds 13 1010 10 0 1.93 253 00:40 09.07.2020
209 Clouds 13 1010 10 0 1.64 249 00:21 09.07.2020
210 Clouds 14 1010 10 0 1.64 249 23:43 08.07.2020
211 Clouds 14 1010 10 0 2.27 252 23:25 08.07.2020
212 Clouds 14 1010 10 0 2.27 252 22:56 08.07.2020
213 Clouds 14 1010 10 0 2.27 252 22:38 08.07.2020
214 Clouds 15 1010 10 0 2.42 257 22:19 08.07.2020
215 Clouds 17 1010 76 0 2.42 257 21:56 08.07.2020
216 Clouds 17 1010 76 0 2.39 264 21:36 08.07.2020
217 Clouds 17 1016 70 0 2.41 270 21:18 08.07.2020
218 Clouds 17 1010 75 0 2.41 270 20:41 08.07.2020
219 Clouds 17 1010 73 0 3.8 275 20:23 08.07.2020
220 Clouds 17 1016 74 0 1.79 288 19:56 08.07.2020
221 Clouds 17 1016 75 0 0.89 279 19:37 08.07.2020
222 Clouds 18 1016 75 0 0.89 308 19:19 08.07.2020
223 Clouds 18 1009 68 0 3.98 265 18:42 08.07.2020
224 Clouds 18 1009 70 0 4.01 264 18:21 08.07.2020
225 Clouds 18 1009 71 0 4.01 264 17:58 08.07.2020
226 Clouds 18 1009 66 0 4.01 264 17:39 08.07.2020
227 Clouds 17 1016 70 0 0.89 289 17:21 08.07.2020
228 Clouds 17 1016 71 0 1.34 356 16:58 08.07.2020
229 Clouds 18 1009 67 0 3.64 264 16:38 08.07.2020
230 Clouds 18 1009 67 0 3.34 258 16:19 08.07.2020
231 Clouds 17 1009 69 0 3.34 258 15:58 08.07.2020
232 Clouds 18 1016 70 0 0.89 356 15:38 08.07.2020
233 Clouds 16 1016 72 0 1.34 314 15:19 08.07.2020
234 Clouds 16 1016 77 0 0.89 42 14:44 08.07.2020
235 Clouds 16 1016 79 0 1.34 6 14:25 08.07.2020
236 Clouds 16 1016 82 0 1.34 20 13:58 08.07.2020
237 Clouds 16 1016 81 0 0.89 349 13:40 08.07.2020
238 Clouds 16 1016 82 0 0.45 36 13:20 08.07.2020
239 Clouds 15 1016 71 0 1.79 327 12:43 08.07.2020
240 Rain 15 1009 81 0 2.36 246 12:21 08.07.2020
241 Rain 16 1009 78 0 2.36 246 11:56 08.07.2020
242 Rain 14 1009 86 0 2.36 246 11:38 08.07.2020
243 Rain 14 1009 88 0 2.29 250 11:20 08.07.2020
244 Rain 15 1015 74 0 0.45 1 10:44 08.07.2020
245 Clouds 14 1009 91 0 2.42 247 10:26 08.07.2020
246 Clouds 15 1015 78 0 2.42 247 09:47 08.07.2020
247 Clouds 14 1009 96 0 2.32 243 09:26 08.07.2020
248 Rain 13 1009 10 0 2.07 221 08:58 08.07.2020
249 Rain 13 1009 10 0 2.07 221 08:39 08.07.2020
250 Rain 13 1009 10 0 2.21 223 08:20 08.07.2020
251 Rain 13 1009 10 0 2.21 223 07:46 08.07.2020
252 Rain 13 1009 10 0 2.37 229 07:23 08.07.2020
253 Rain 13 1015 79 0 2.37 229 06:54 08.07.2020
254 Clouds 13 1015 81 0 2.54 225 06:35 08.07.2020
255 Clouds 13 1015 82 0 2.54 225 05:54 08.07.2020
256 Clouds 13 1015 82 0 2.52 232 05:20 08.07.2020
257 Clouds 13 1015 81 0 2.7 234 04:27 08.07.2020
258 Clouds 14 1016 82 0 3.08 260 02:20 08.07.2020
259 Clouds 14 1016 82 0 2.74 268 01:45 08.07.2020
260 Clouds 14 1016 82 0 2.95 272 01:19 08.07.2020
261 Clouds 14 1016 77 0 2.6 266 00:25 08.07.2020
262 Clouds 15 1016 75 0 0.45 258 23:55 07.07.2020
263 Clouds 15 1016 73 0 0.45 208 23:37 07.07.2020
264 Clouds 15 1016 71 0 0.45 238 23:18 07.07.2020
265 Clouds 15 1016 69 0 2.46 268 22:41 07.07.2020
266 Rain 15 1016 67 0 0.45 255 22:22 07.07.2020
267 Rain 15 1016 66 0 0.89 262 21:59 07.07.2020
268 Rain 16 1016 64 0 3.77 277 21:40 07.07.2020
269 Clouds 16 1016 64 0 3.76 270 21:21 07.07.2020
270 Clouds 16 1016 66 0 0.89 263 20:57 07.07.2020
271 Clouds 16 1016 59 0 1.34 184 20:39 07.07.2020
272 Rain 16 1016 56 0 0.89 160 20:20 07.07.2020
273 Rain 19 1016 39 0 0.45 124 19:41 07.07.2020
274 Rain 20 1015 37 0 1.79 290 19:21 07.07.2020
275 Rain 21 1015 35 0 2.68 224 18:58 07.07.2020
276 Rain 22 1015 32 0 3.58 170 18:40 07.07.2020
277 Clouds 22 1016 32 0 1.34 328 18:21 07.07.2020
278 Clouds 22 1010 36 0 4.81 263 17:58 07.07.2020
279 Clouds 21 1017 37 0 1.34 305 17:38 07.07.2020
280 Clouds 22 1017 36 0 1.79 325 17:20 07.07.2020
281 Clouds 21 1017 38 0 1.79 75 16:58 07.07.2020
282 Clouds 22 1017 38 0 2.24 279 16:38 07.07.2020
283 Clear 22 1018 40 0 1.79 267 16:20 07.07.2020
284 Clear 21 1018 40 0 1.34 343 15:42 07.07.2020
285 Clear 20 1018 40 0 1.34 46 15:20 07.07.2020
286 Clear 20 1018 43 0 2.24 327 14:47 07.07.2020
287 Clouds 20 1012 42 0 4.84 271 14:27 07.07.2020
288 Clouds 21 1012 42 0 5.44 276 13:59 07.07.2020
289 Clouds 19 1012 44 0 5.44 276 13:40 07.07.2020
290 Clouds 20 1019 36 0 2.68 182 13:18 07.07.2020
291 Clouds 19 1019 37 0 4.02 299 12:41 07.07.2020
292 Clouds 18 1019 46 0 1.79 325 12:22 07.07.2020
293 Clouds 18 1019 46 0 1.79 325 12:22 07.07.2020
294 Clouds 18 1019 47 0 1.79 319 11:58 07.07.2020
295 Clouds 17 1019 51 0 2.24 273 11:40 07.07.2020
296 Clouds 17 1019 51 0 1.79 165 11:20 07.07.2020
297 Clouds 18 1013 51 0 4.6 271 10:57 07.07.2020
298 Clouds 17 1020 57 0 2.24 302 10:37 07.07.2020
299 Clouds 17 1020 55 0 1.34 281 10:18 07.07.2020
300 Clouds 17 1013 61 0 4.75 279 09:41 07.07.2020
301 Clear 15 1020 60 0 2.24 356 09:21 07.07.2020
302 Clear 14 1013 81 0 4.71 282 08:42 07.07.2020
303 Clear 14 1013 81 0 4.64 282 08:24 07.07.2020
304 Clear 13 1013 93 0 4.64 282 07:47 07.07.2020
305 Clear 14 1020 72 0 1.34 258 07:25 07.07.2020
306 Clear 12 1020 82 0 2.68 232 06:50 07.07.2020
307 Clear 12 1020 82 0 2.68 232 06:50 07.07.2020
308 Clear 11 1019 84 0 2.24 225 06:31 07.07.2020
309 Clear 11 1019 85 0 1.79 224 05:54 07.07.2020
310 Clear 11 1019 84 0 1.34 217 05:23 07.07.2020
311 Clear 11 1019 85 0 3.65 273 04:42 07.07.2020
312 Clear 12 1018 83 0 3.13 228 03:41 07.07.2020
313 Clear 12 1018 84 0 4.91 283 02:28 07.07.2020
314 Clear 12 1018 81 0 0.89 234 01:28 07.07.2020
315 Clear 13 1017 79 0 0.45 307 00:56 07.07.2020
316 Clear 13 1017 77 0 5.07 284 00:38 07.07.2020
317 Clear 13 1017 75 0 5.39 283 00:19 07.07.2020
318 Clear 14 1017 73 0 0.89 311 23:42 06.07.2020
319 Clear 14 1016 71 0 3.13 252 23:23 06.07.2020
320 Clear 14 1016 72 0 4.47 249 22:56 06.07.2020
321 Clear 14 1016 71 0 4.47 214 22:38 06.07.2020
322 Clouds 14 1016 71 0 2.68 221 22:18 06.07.2020
323 Clouds 14 1016 70 0 3.13 193 21:56 06.07.2020
324 Clouds 14 1015 68 0 3.58 259 21:36 06.07.2020
325 Clear 15 1015 67 0 0.89 86 21:18 06.07.2020
326 Clear 17 1015 65 0 2.68 152 20:40 06.07.2020
327 Clouds 17 1015 64 0 0.89 42 20:20 06.07.2020
328 Clouds 16 1014 62 0 0.45 55 19:58 06.07.2020
329 Clouds 16 1014 60 0 2.68 273 19:40 06.07.2020
330 Clouds 18 1014 54 0 4.47 220 19:22 06.07.2020
331 Clouds 17 1014 51 0 3.58 16 18:57 06.07.2020
332 Clouds 18 1013 46 0 4.02 189 18:39 06.07.2020
333 Clouds 19 1013 46 0 4.47 268 18:21 06.07.2020
334 Clouds 18 1013 45 0 1.79 53 17:54 06.07.2020
335 Clouds 17 1013 45 0 3.13 241 17:36 06.07.2020
336 Rain 19 1013 44 0 2.24 303 17:18 06.07.2020
337 Rain 20 1012 41 0 4.92 210 16:42 06.07.2020
338 Rain 21 1012 48 0 5.81 227 16:22 06.07.2020
339 Rain 19 1012 52 0 1.79 199 15:44 06.07.2020
340 Rain 18 1012 61 0 2.68 242 15:26 06.07.2020
341 Rain 18 1012 68 0 5.81 203 14:57 06.07.2020
342 Rain 18 1012 66 0 1.79 347 14:57 06.07.2020
343 Rain 20 1012 41 0 3.13 356 14:38 06.07.2020
344 Rain 20 1012 42 0 3.13 293 14:20 06.07.2020
345 Rain 19 1011 44 0 3.58 337 13:59 06.07.2020
346 Rain 19 1011 41 0 3.58 25 13:40 06.07.2020
347 Rain 18 1005 53 0 8.88 267 13:20 06.07.2020
348 Rain 20 1011 44 0 3.58 288 12:43 06.07.2020
349 Clouds 20 1011 44 0 3.58 342 12:20 06.07.2020
350 Clouds 20 1011 46 0 3.58 283 11:58 06.07.2020
351 Clouds 20 1011 44 0 3.58 309 11:40 06.07.2020
352 Clouds 19 1011 46 0 2.68 46 11:22 06.07.2020
353 Clouds 19 1011 47 0 3.13 333 10:58 06.07.2020
354 Clouds 19 1004 49 0 8.39 266 10:39 06.07.2020
355 Clouds 19 1004 49 0 8.05 266 10:18 06.07.2020
356 Clouds 18 1011 53 0 2.68 30 09:45 06.07.2020
357 Clouds 17 1011 54 0 3.13 321 09:22 06.07.2020
358 Clouds 17 1011 54 0 3.13 321 09:22 06.07.2020
359 Clouds 17 1010 54 0 2.68 15 08:59 06.07.2020
360 Clouds 17 1010 55 0 3.58 309 08:40 06.07.2020
361 Clouds 18 1010 57 0 2.24 314 08:20 06.07.2020
362 Clouds 17 1010 60 0 2.68 298 07:47 06.07.2020
363 Clouds 17 1010 64 0 2.24 285 07:29 06.07.2020
364 Clouds 16 1008 73 0 2.24 268 06:49 06.07.2020
365 Clouds 16 1008 76 0 0.45 231 06:31 06.07.2020
366 Clouds 15 1008 74 0 3.58 207 05:47 06.07.2020
367 Clouds 15 1008 74 0 1.79 251 05:26 06.07.2020
368 Clouds 16 1007 78 0 2.68 200 03:58 06.07.2020
369 Clouds 17 1007 83 0 0.89 227 02:32 06.07.2020
370 Clouds 18 1007 84 0 3.58 242 01:55 06.07.2020
371 Clouds 18 1007 85 0 3.27 239 00:49 06.07.2020
372 Clouds 19 1007 85 0 3.61 248 00:24 06.07.2020
373 Clouds 19 1007 84 0 1.34 223 23:57 05.07.2020
374 Clouds 19 1007 84 0 3.61 248 23:38 05.07.2020
375 Clouds 19 1007 82 0 3.87 259 23:20 05.07.2020
376 Clouds 20 1007 80 0 0.45 155 22:57 05.07.2020
377 Clouds 20 1007 79 0 2.24 224 22:37 05.07.2020
378 Clouds 20 1008 79 0 4.32 258 22:18 05.07.2020
379 Clouds 20 1007 80 0 4.32 258 21:41 05.07.2020
380 Clouds 21 1007 79 0 0.45 296 21:19 05.07.2020
381 Clouds 21 1007 76 0 1.34 163 20:59 05.07.2020
382 Clouds 22 1007 75 0 0.89 223 20:41 05.07.2020
383 Clouds 22 1007 76 0 0.45 323 20:22 05.07.2020
384 Clouds 22 1008 77 0 1.34 203 19:58 05.07.2020
385 Clouds 21 1008 77 0 1.79 279 19:40 05.07.2020
386 Clouds 21 1008 77 0 2.24 227 19:19 05.07.2020
387 Clouds 22 1008 72 0 1.79 335 18:42 05.07.2020
388 Clouds 23 1008 65 0 1.79 224 18:23 05.07.2020
389 Clouds 23 1008 60 0 2.24 295 17:59 05.07.2020
390 Clouds 24 1007 56 0 4.92 14 17:41 05.07.2020
391 Clouds 25 1007 54 0 0.89 272 17:19 05.07.2020
392 Clouds 26 1007 45 0 1.34 189 16:45 05.07.2020
393 Clouds 25 1010 60 0 1.34 45 16:26 05.07.2020
394 Clouds 25 1009 52 0 5.36 264 15:59 05.07.2020
395 Clouds 25 1010 53 0 5.81 250 15:40 05.07.2020
396 Clouds 24 1007 61 0 3.13 270 15:20 05.07.2020
397 Clouds 26 1010 56 0 4.92 315 14:43 05.07.2020
398 Clouds 26 1010 56 0 5.36 185 14:23 05.07.2020
399 Clouds 25 1011 60 0 4.92 290 13:59 05.07.2020
400 Clouds 25 1011 60 0 4.92 277 13:40 05.07.2020
401 Clouds 24 1011 60 0 4.92 290 13:20 05.07.2020
402 Clouds 26 1009 46 0 3.58 217 12:44 05.07.2020
403 Clouds 24 1011 62 0 4.92 293 12:20 05.07.2020
404 Clouds 24 1011 62 0 4.47 275 11:56 05.07.2020
405 Clouds 24 1011 63 0 4.47 250 11:38 05.07.2020
406 Clouds 24 1011 63 0 5.36 274 11:19 05.07.2020
407 Clouds 25 1009 52 0 1.34 29 10:55 05.07.2020
408 Clouds 24 1009 53 0 1.34 56 10:36 05.07.2020
409 Clouds 24 1009 52 0 3.58 234 10:18 05.07.2020
410 Clouds 24 1009 54 0 5.36 252 09:41 05.07.2020
411 Clouds 22 1011 68 0 0.89 115 09:20 05.07.2020
412 Clouds 21 1011 68 0 1.79 148 08:57 05.07.2020
413 Clouds 21 1011 67 0 1.79 140 08:38 05.07.2020
414 Clouds 21 1011 68 0 3.13 283 08:18 05.07.2020
415 Clouds 23 1009 58 0 4.47 170 07:40 05.07.2020
416 Clouds 22 1009 60 0 4.02 194 07:22 05.07.2020
417 Clouds 21 1009 65 0 3.13 199 06:45 05.07.2020
418 Clouds 20 1010 63 0 1.34 173 04:27 05.07.2020
419 Clouds 21 1010 61 0 3.63 215 03:19 05.07.2020
420 Clouds 21 1011 60 0 1.34 214 02:41 05.07.2020
421 Clouds 21 1011 60 0 1.34 214 02:41 05.07.2020
422 Rain 17 1013 82 0 4.06 223 01:59 05.07.2020
423 Clouds 21 1011 59 0 0.89 194 01:28 05.07.2020
424 Clouds 21 1011 61 0 3.53 220 00:53 05.07.2020
425 Clouds 21 1011 60 0 3.53 220 00:31 05.07.2020
426 Clouds 22 1011 59 0 3.55 222 23:58 04.07.2020
427 Clouds 22 1011 57 0 3.55 222 23:40 04.07.2020
428 Clouds 22 1012 56 0 3.59 234 23:22 04.07.2020
429 Clouds 22 1012 52 0 3.59 234 22:43 04.07.2020
430 Clouds 22 1012 52 0 3.92 229 22:25 04.07.2020
431 Clouds 21 1013 57 0 1.79 307 21:58 04.07.2020
432 Clouds 22 1013 58 0 1.79 282 21:40 04.07.2020
433 Clouds 22 1013 59 0 0.89 256 21:22 04.07.2020
434 Clouds 22 1013 58 0 2.24 248 20:54 04.07.2020
435 Clouds 23 1006 54 0 3.26 261 20:36 04.07.2020
436 Clouds 23 1006 54 0 3.76 282 20:18 04.07.2020
437 Clouds 23 1014 53 0 3.13 278 19:41 04.07.2020
438 Clouds 24 1006 46 0 2.21 264 19:21 04.07.2020
439 Clouds 24 1006 46 0 2.21 264 18:55 04.07.2020
440 Clouds 24 1013 43 0 3.58 264 18:37 04.07.2020
441 Clouds 25 1013 42 0 4.02 283 18:18 04.07.2020
442 Clouds 25 1013 39 0 4.47 233 17:42 04.07.2020
443 Clouds 26 1012 35 0 1.79 201 17:22 04.07.2020
444 Clouds 26 1014 42 0 2.68 201 16:57 04.07.2020
445 Clouds 26 1014 43 0 3.13 308 16:37 04.07.2020
446 Clouds 24 1014 43 0 3.58 132 16:19 04.07.2020
447 Clouds 24 1014 45 0 4.02 296 15:46 04.07.2020
448 Clouds 24 1014 44 0 3.58 283 15:27 04.07.2020
449 Clouds 25 1015 46 0 4.02 165 14:59 04.07.2020
450 Clouds 25 1015 46 0 4.02 165 14:59 04.07.2020
451 Clouds 25 1015 44 0 4.92 190 14:37 04.07.2020
452 Clouds 23 1008 47 0 4.53 240 14:19 04.07.2020
453 Clouds 23 1015 48 0 2.68 212 13:57 04.07.2020
454 Clouds 23 1015 47 0 5.36 244 13:39 04.07.2020
455 Clouds 23 1015 49 0 3.58 269 13:18 04.07.2020
456 Clouds 23 1016 50 0 3.13 210 12:42 04.07.2020
457 Clouds 23 1016 50 0 4.02 285 12:20 04.07.2020
458 Clouds 22 1016 53 0 3.13 298 11:54 04.07.2020
459 Clouds 22 1016 54 0 3.58 239 11:36 04.07.2020
460 Clouds 22 1016 54 0 4.02 281 11:18 04.07.2020
461 Clouds 22 1016 54 0 3.58 274 10:41 04.07.2020
462 Clear 22 1016 55 0 3.13 226 10:21 04.07.2020
463 Clear 22 1016 56 0 3.58 290 09:58 04.07.2020
464 Clear 23 1015 41 0 3.13 148 09:37 04.07.2020
465 Clouds 20 1016 58 0 2.24 281 09:19 04.07.2020
466 Clouds 20 1016 62 0 3.13 292 08:46 04.07.2020
467 Clouds 20 1016 65 0 2.24 313 08:27 04.07.2020
468 Clouds 18 1016 69 0 1.79 278 07:46 04.07.2020
469 Clouds 18 1016 73 0 2.24 240 07:28 04.07.2020
470 Clouds 17 1015 72 0 4.01 228 06:55 04.07.2020
471 Clouds 16 1015 76 0 3.67 230 06:22 04.07.2020
472 Clouds 13 1015 82 0 3.67 230 05:35 04.07.2020
473 Clouds 13 1015 81 0 3.54 224 04:43 04.07.2020
474 Clouds 14 1015 78 0 3.37 207 03:18 04.07.2020
475 Clouds 14 1015 75 0 3.14 216 02:23 04.07.2020
476 Clouds 15 1016 74 0 3.14 216 01:31 04.07.2020
477 Clouds 15 1016 72 0 0.45 177 00:44 04.07.2020
478 Clouds 16 1016 70 0 0.45 200 00:24 04.07.2020
479 Clouds 16 1016 68 0 2.87 219 23:40 03.07.2020
480 Clouds 17 1016 66 0 2.34 235 23:19 03.07.2020
481 Clouds 17 1015 65 0 2.34 235 22:58 03.07.2020
482 Clouds 17 1015 63 0 2.34 235 22:39 03.07.2020
483 Clouds 18 1015 61 0 1.87 249 22:21 03.07.2020
484 Clouds 19 1015 57 0 1.87 249 21:43 03.07.2020
485 Clear 20 1015 54 0 1.68 265 21:20 03.07.2020
486 Clear 21 1015 50 0 1.68 265 20:58 03.07.2020
487 Clear 21 1015 48 0 0.89 234 20:39 03.07.2020
488 Clouds 22 1015 46 0 2.43 277 20:21 03.07.2020
489 Clouds 23 1015 43 0 3.13 251 19:42 03.07.2020
490 Clouds 23 1015 41 0 0.45 218 19:21 03.07.2020
491 Clouds 24 1015 40 0 4.02 190 18:57 03.07.2020
492 Clouds 24 1014 39 0 2.24 220 18:39 03.07.2020
493 Clouds 24 1015 38 0 3.13 309 18:21 03.07.2020
494 Clouds 23 1016 46 0 2.24 281 17:44 03.07.2020
495 Clouds 23 1016 47 0 1.79 281 17:23 03.07.2020
496 Clouds 24 1016 48 0 1.34 331 16:51 03.07.2020
497 Clouds 23 1016 46 0 1.34 18 16:31 03.07.2020
498 Clouds 23 1016 46 0 1.34 303 15:57 03.07.2020
499 Clouds 23 1016 47 0 1.34 270 15:39 03.07.2020
500 Clouds 22 1016 49 0 1.34 58 15:20 03.07.2020
501 Clouds 23 1016 51 0 1.79 303 14:41 03.07.2020
502 Rain 22 1016 50 0 1.79 42 14:23 03.07.2020
503 Rain 23 1016 49 0 1.34 297 13:59 03.07.2020
504 Rain 22 1016 51 0 1.34 15 13:40 03.07.2020
505 Rain 21 1016 53 0 1.34 325 13:22 03.07.2020
506 Rain 24 1015 40 0 2.24 265 12:40 03.07.2020
507 Rain 21 1016 60 0 1.34 319 12:22 03.07.2020
508 Rain 21 1016 61 0 1.79 306 11:54 03.07.2020
509 Rain 21 1016 55 0 2.24 8 11:36 03.07.2020
510 Clear 20 1016 57 0 1.79 286 11:18 03.07.2020
511 Clear 20 1016 64 0 1.79 342 10:42 03.07.2020
512 Clear 19 1016 63 0 1.79 44 10:21 03.07.2020
513 Clear 19 1016 64 0 1.34 293 09:59 03.07.2020
514 Clear 19 1016 65 0 1.79 30 09:39 03.07.2020
515 Clear 18 1016 66 0 1.79 44 09:21 03.07.2020
516 Clear 18 1016 69 0 1.79 295 08:57 03.07.2020
517 Clear 18 1016 70 0 1.79 235 08:38 03.07.2020
518 Clouds 17 1016 74 0 1.79 52 08:18 03.07.2020
519 Clouds 17 1015 79 0 1.79 296 07:43 03.07.2020
520 Clouds 17 1014 72 0 1.34 176 07:22 03.07.2020
521 Clouds 16 1013 81 0 0.89 289 06:37 03.07.2020
522 Clouds 15 1013 84 0 3.59 267 05:53 03.07.2020
523 Clouds 16 1012 81 0 2.39 272 04:26 03.07.2020
524 Clouds 17 1012 80 0 0.45 191 02:57 03.07.2020
525 Clouds 17 1012 81 0 0.89 228 02:32 03.07.2020
526 Clouds 18 1011 67 0 3.06 269 01:43 03.07.2020
527 Rain 18 1011 68 0 2.14 274 01:20 03.07.2020
528 Rain 18 1011 68 0 2.14 274 01:20 03.07.2020
529 Rain 18 1011 69 0 0.45 259 00:42 03.07.2020
530 Rain 18 1011 69 0 2.5 271 23:59 02.07.2020
531 Rain 19 1011 68 0 1.79 249 23:39 02.07.2020
532 Rain 19 1011 67 0 2.1 281 23:19 02.07.2020
533 Rain 19 1011 66 0 2.1 281 22:56 02.07.2020
534 Rain 19 1010 65 0 2.1 281 22:38 02.07.2020
535 Rain 19 1010 63 0 0.45 122 22:19 02.07.2020
536 Rain 20 1010 62 0 1.34 302 21:42 02.07.2020
537 Rain 20 1010 61 0 2.85 320 21:21 02.07.2020
538 Rain 21 1009 62 0 0.89 265 20:59 02.07.2020
539 Rain 21 1009 63 0 2.79 293 20:41 02.07.2020
540 Rain 22 1009 61 0 2.7 294 20:20 02.07.2020
541 Rain 22 1009 53 0 2.7 294 19:56 02.07.2020
542 Rain 22 1009 52 0 2.7 294 19:38 02.07.2020
543 Rain 22 1009 52 0 2.7 294 19:38 02.07.2020
544 Rain 23 1009 48 0 2.44 297 19:19 02.07.2020
545 Rain 23 1009 45 0 2.44 297 18:55 02.07.2020
546 Rain 24 1009 43 0 0.89 287 18:37 02.07.2020
547 Clouds 24 1008 40 0 0.45 326 18:18 02.07.2020
548 Clouds 26 1008 36 0 0.45 232 17:39 02.07.2020
549 Clouds 26 1008 35 0 1.34 184 17:20 02.07.2020
550 Clouds 26 1008 37 0 3.58 334 16:56 02.07.2020
551 Clouds 26 1009 38 0 2.68 235 16:37 02.07.2020
552 Clouds 26 1009 36 0 1.34 306 16:19 02.07.2020
553 Clouds 25 1010 49 0 1.34 56 15:41 02.07.2020
554 Clouds 25 1010 51 0 1.34 46 15:21 02.07.2020
555 Clouds 24 1010 51 0 1.79 11 14:54 02.07.2020
556 Clouds 24 1010 53 0 1.34 356 14:36 02.07.2020
557 Clouds 23 1010 55 0 1.34 318 14:18 02.07.2020
558 Clouds 23 1010 54 0 1.79 330 13:40 02.07.2020
559 Clouds 26 1009 40 0 2.24 285 13:21 02.07.2020
560 Clouds 24 1009 43 0 3.13 206 12:59 02.07.2020
561 Clouds 23 1010 64 0 0.45 334 12:39 02.07.2020
562 Clouds 22 1010 65 0 0.89 29 12:21 02.07.2020
563 Clouds 22 1010 67 0 0.89 344 11:44 02.07.2020
564 Clouds 21 1010 72 0 0.89 16 11:26 02.07.2020
565 Clouds 21 1010 71 0 2.68 352 10:57 02.07.2020
566 Clouds 20 1010 75 0 1.34 280 10:39 02.07.2020
567 Clouds 20 1010 72 0 1.34 278 10:21 02.07.2020
568 Clouds 21 1009 66 0 0.45 118 09:42 02.07.2020
569 Clouds 20 1010 79 0 1.34 300 09:21 02.07.2020
570 Clouds 19 1010 82 0 1.34 302 08:57 02.07.2020
571 Clouds 19 1010 84 0 1.34 298 08:38 02.07.2020
572 Clouds 18 1010 87 0 0.89 269 08:19 02.07.2020
573 Clouds 17 1010 90 0 4.82 264 07:41 02.07.2020
574 Clouds 17 1009 92 0 3.67 258 07:20 02.07.2020
575 Clouds 18 1008 78 0 3.67 258 06:41 02.07.2020
576 Clouds 17 1008 85 0 2.81 243 06:20 02.07.2020
577 Clouds 17 1008 85 0 2.81 243 05:47 02.07.2020
578 Clouds 17 1007 84 0 0.89 261 04:49 02.07.2020
579 Clouds 17 1007 86 0 3.13 244 03:33 02.07.2020
580 Clouds 16 1007 86 0 3.02 258 01:49 02.07.2020
581 Clouds 17 1006 85 0 1.34 276 00:28 02.07.2020
582 Clouds 18 1006 84 0 0.89 211 23:57 01.07.2020
583 Clouds 18 1006 83 0 0.89 292 23:39 01.07.2020
584 Rain 18 1006 82 0 1.79 190 23:21 01.07.2020
585 Rain 18 1006 79 0 0.89 289 22:54 01.07.2020
586 Rain 19 1006 76 0 1.79 214 22:36 01.07.2020
587 Rain 19 1006 70 0 2.74 270 22:18 01.07.2020
588 Rain 19 1006 70 0 2.74 270 21:55 01.07.2020
589 Rain 19 1006 69 0 2.74 270 21:37 01.07.2020
590 Rain 20 1006 69 0 1.34 330 21:19 01.07.2020
591 Rain 20 1005 69 0 3.58 273 20:45 01.07.2020
592 Rain 20 1005 69 0 1.34 330 20:26 01.07.2020
593 Rain 21 1005 66 0 4.47 316 19:57 01.07.2020
594 Rain 20 1005 67 0 4.92 309 19:39 01.07.2020
595 Rain 23 1005 57 0 7.15 316 19:20 01.07.2020
596 Rain 23 1007 63 0 0.45 231 18:55 01.07.2020
597 Rain 23 1005 62 0 0.45 89 18:37 01.07.2020
598 Rain 24 1007 60 0 0.45 86 18:19 01.07.2020
599 Rain 23 1006 60 0 0.45 25 17:41 01.07.2020
600 Rain 24 1006 61 0 0.89 56 17:20 01.07.2020
601 Rain 24 1008 65 0 1.34 84 16:56 01.07.2020
602 Rain 23 1007 59 0 0.45 355 16:38 01.07.2020
603 Rain 23 1007 59 0 0.45 13 16:20 01.07.2020
604 Rain 24 1007 57 0 0.89 309 15:41 01.07.2020
605 Rain 25 1007 58 0 1.34 262 15:22 01.07.2020
606 Rain 24 1007 57 0 0.89 248 14:56 01.07.2020
607 Rain 23 1007 64 0 0.89 63 14:37 01.07.2020
608 Rain 24 1006 59 0 2.24 269 14:19 01.07.2020
609 Rain 23 1006 63 0 1.79 234 13:40 01.07.2020
610 Rain 23 1007 65 0 2.24 248 13:22 01.07.2020
611 Rain 22 1007 69 0 0.89 228 12:59 01.07.2020
612 Rain 22 1007 70 0 1.34 217 12:40 01.07.2020
613 Rain 19 1005 90 0 1.79 45 12:22 01.07.2020
614 Rain 19 1006 86 0 1.34 180 11:58 01.07.2020
615 Rain 21 1007 63 0 2.24 257 11:39 01.07.2020
616 Rain 19 1006 85 0 0.89 270 11:20 01.07.2020
617 Rain 20 1009 71 0 1.34 78 10:43 01.07.2020
618 Rain 21 1007 73 0 2.24 180 10:23 01.07.2020
619 Rain 20 1007 74 0 0.89 131 09:59 01.07.2020
620 Rain 20 1007 73 0 0.45 179 09:38 01.07.2020
621 Clouds 20 1007 71 0 4.71 227 09:20 01.07.2020
622 Clouds 22 1006 56 0 1.34 231 08:57 01.07.2020
623 Clouds 22 1006 57 0 0.89 162 08:38 01.07.2020
624 Clouds 21 1006 59 0 4.77 234 08:19 01.07.2020
625 Clouds 19 1008 66 0 2.68 276 07:41 01.07.2020
626 Clouds 20 1006 58 0 1.34 142 07:21 01.07.2020
627 Clouds 20 1006 59 0 1.34 151 06:54 01.07.2020
628 Clouds 18 1006 63 0 1.79 223 06:32 01.07.2020
629 Clouds 18 1006 61 0 1.34 328 05:35 01.07.2020
630 Clouds 18 1006 59 0 2.24 186 04:26 01.07.2020
631 Clouds 18 1006 61 0 3.56 226 03:40 01.07.2020
632 Clouds 17 1006 62 0 0.45 121 03:20 01.07.2020
633 Clouds 18 1006 59 0 4.92 196 01:56 01.07.2020
634 Clouds 19 1006 55 0 2.24 176 00:48 01.07.2020
635 Clouds 18 1006 56 0 1.79 190 00:27 01.07.2020
636 Clouds 19 1008 58 0 1.34 301 23:59 30.06.2020
637 Clouds 19 1008 56 0 0.89 276 23:39 30.06.2020
638 Clouds 19 1009 55 0 1.34 268 23:19 30.06.2020
639 Clouds 20 1009 52 0 1.79 267 22:42 30.06.2020
640 Clouds 20 1007 47 0 2.46 271 22:19 30.06.2020
641 Clouds 21 1008 50 0 2.24 283 21:43 30.06.2020
642 Clouds 21 1007 42 0 1.34 232 21:19 30.06.2020
643 Clouds 22 1007 39 0 0.89 338 20:59 30.06.2020
644 Clouds 22 1007 38 0 3.15 262 20:41 30.06.2020
645 Clouds 22 1007 36 0 3.58 203 20:20 30.06.2020
646 Clouds 22 1008 44 0 3.13 356 19:44 30.06.2020
647 Clouds 23 1007 33 0 2.68 248 19:21 30.06.2020
648 Clouds 23 1007 33 0 2.68 248 19:21 30.06.2020
649 Clouds 23 1007 33 0 2.68 248 19:21 30.06.2020
650 Clouds 22 1009 40 0 0.89 102 18:57 30.06.2020
651 Clouds 22 1008 37 0 2.24 24 18:38 30.06.2020
652 Clouds 23 1008 38 0 1.34 290 18:20 30.06.2020
653 Clouds 23 1008 38 0 3.13 246 17:39 30.06.2020
654 Clouds 23 1008 38 0 4.02 333 17:20 30.06.2020
655 Clouds 24 1008 37 0 3.58 314 16:57 30.06.2020
656 Clouds 23 1008 37 0 3.58 8 16:39 30.06.2020
657 Clouds 24 1007 30 0 1.79 235 16:19 30.06.2020
658 Clouds 24 1007 29 0 1.79 213 15:56 30.06.2020
659 Clouds 23 1008 38 0 4.47 298 15:37 30.06.2020
660 Clear 23 1008 39 0 4.02 276 15:19 30.06.2020
661 Clear 23 1009 39 0 4.02 330 14:43 30.06.2020
662 Clouds 22 1009 40 0 4.47 293 14:21 30.06.2020
663 Clouds 22 1009 40 0 4.02 250 13:54 30.06.2020
664 Clouds 21 1009 42 0 4.92 284 13:36 30.06.2020
665 Clouds 22 1009 41 0 4.02 340 13:18 30.06.2020
666 Clouds 21 1009 41 0 4.92 295 12:54 30.06.2020
667 Clouds 19 1010 58 0 7.16 247 12:36 30.06.2020
668 Clouds 21 1009 44 0 4.02 328 12:18 30.06.2020
669 Clouds 21 1009 45 0 4.02 275 11:56 30.06.2020
670 Clouds 20 1009 47 0 3.58 290 11:37 30.06.2020
671 Clouds 20 1009 48 0 4.02 248 11:18 30.06.2020
672 Clouds 26 1010 45 0 1.79 287 16:47 28.06.2020
673 Rain 26 1010 45 0 2.24 359 16:28 28.06.2020
674 Rain 26 1010 44 0 0.89 43 15:59 28.06.2020
675 Rain 27 1010 42 0 6.93 292 15:39 28.06.2020
676 Clouds 27 1010 42 0 1.34 309 15:20 28.06.2020
677 Clouds 24 1012 78 0 2.24 222 14:57 28.06.2020
678 Clouds 24 1012 85 0 1.79 237 14:38 28.06.2020
679 Rain 23 1012 86 0 1.79 282 14:20 28.06.2020
680 Rain 23 1010 54 0 2.24 0 13:40 28.06.2020
681 Rain 23 1012 78 0 6.5 261 13:21 28.06.2020
682 Rain 23 1013 85 0 2.24 291 12:58 28.06.2020
683 Rain 25 1012 72 0 2.24 322 12:38 28.06.2020
684 Rain 26 1012 62 0 2.68 301 12:19 28.06.2020
685 Rain 25 1012 62 0 3.13 271 11:58 28.06.2020
686 Rain 26 1012 62 0 3.13 298 11:40 28.06.2020
687 Rain 25 1012 62 0 3.13 243 11:20 28.06.2020
688 Rain 25 1012 64 0 1.79 278 10:58 28.06.2020
689 Rain 24 1010 54 0 0.89 122 10:39 28.06.2020
690 Rain 26 1010 53 0 2.24 187 10:21 28.06.2020
691 Rain 24 1010 60 0 2.68 172 09:41 28.06.2020
692 Clouds 22 1012 77 0 4.4 217 09:23 28.06.2020
693 Clouds 22 1012 77 0 4.4 217 08:56 28.06.2020
694 Clouds 22 1012 77 0 4.4 217 08:36 28.06.2020
695 Clouds 23 1014 68 0 0.45 109 08:18 28.06.2020
696 Clouds 22 1012 71 0 1.34 248 07:33 28.06.2020
697 Clouds 21 1009 70 0 0.89 203 06:56 28.06.2020
698 Clouds 20 1009 73 0 3 222 06:32 28.06.2020
699 Clouds 19 1009 77 0 2.63 219 05:45 28.06.2020
700 Clouds 19 1009 75 0 2.72 250 04:27 28.06.2020
701 Clouds 21 1009 69 0 2.55 247 02:58 28.06.2020
702 Clouds 21 1009 69 0 2.68 208 02:21 28.06.2020
703 Clear 22 1009 66 0 1.34 237 01:30 28.06.2020
704 Clear 21 1008 67 0 3.06 240 00:56 28.06.2020
705 Clear 21 1008 66 0 0.45 145 00:30 28.06.2020
706 Clear 22 1008 65 0 1.34 285 23:58 27.06.2020
707 Clear 22 1008 65 0 3.58 266 23:39 27.06.2020
708 Clouds 22 1008 67 0 2.24 228 23:21 27.06.2020
709 Clouds 22 1008 70 0 1.79 252 22:42 27.06.2020
710 Rain 23 1008 71 0 2.32 251 22:23 27.06.2020
711 Rain 23 1008 70 0 2.32 251 22:23 27.06.2020
712 Rain 23 1008 69 0 2.32 251 21:59 27.06.2020
713 Rain 23 1007 67 0 2.32 251 21:41 27.06.2020
714 Rain 24 1007 62 0 2.43 243 21:20 27.06.2020
715 Rain 25 1007 59 0 2.43 243 20:55 27.06.2020
716 Rain 26 1007 57 0 2.43 243 20:37 27.06.2020
717 Rain 26 1007 55 0 2.66 261 20:18 27.06.2020
718 Rain 27 1007 55 0 2.66 261 19:38 27.06.2020
719 Rain 27 1007 54 0 4.01 279 19:19 27.06.2020
720 Rain 27 1006 49 0 4.01 279 18:57 27.06.2020
721 Rain 29 1006 43 0 4.01 279 18:38 27.06.2020
722 Rain 29 1006 43 0 4.01 279 18:38 27.06.2020
723 Rain 28 1007 47 0 4.2 280 18:19 27.06.2020
724 Rain 28 1007 54 0 1.34 218 17:41 27.06.2020
725 Rain 28 1007 54 0 1.34 218 17:41 27.06.2020
726 Rain 25 1007 62 0 4.28 263 17:21 27.06.2020
727 Rain 28 1007 43 0 0.45 203 16:57 27.06.2020
728 Rain 29 1007 43 0 3.13 220 16:39 27.06.2020
729 Clear 30 1009 47 0 3.58 117 16:20 27.06.2020
730 Clear 30 1009 44 0 4.02 294 15:45 27.06.2020
731 Clear 30 1009 44 0 2.24 285 15:24 27.06.2020
732 Clear 30 1009 41 0 1.79 293 14:59 27.06.2020
733 Clear 31 1009 40 0 2.24 246 14:39 27.06.2020
734 Clouds 31 1009 40 0 3.13 283 14:20 27.06.2020
735 Clouds 31 1009 40 0 1.79 288 13:55 27.06.2020
736 Clouds 30 1009 39 0 1.79 266 13:37 27.06.2020
737 Clouds 31 1008 28 0 3.13 172 13:19 27.06.2020
738 Clouds 31 1008 28 0 1.78 234 12:41 27.06.2020
739 Clouds 27 1009 52 0 1.62 231 12:22 27.06.2020
740 Clouds 28 1011 50 0 0.45 89 11:59 27.06.2020
741 Clouds 28 1011 50 0 0.45 89 11:59 27.06.2020
742 Clouds 28 1011 50 0 0.45 89 11:59 27.06.2020
743 Clouds 28 1010 42 0 2.68 308 11:40 27.06.2020
744 Clouds 28 1010 42 0 2.68 308 11:40 27.06.2020
745 Clouds 26 1012 54 0 0.45 216 11:22 27.06.2020
746 Clouds 26 1012 54 0 0.45 216 11:22 27.06.2020
747 Clouds 27 1010 45 0 1.34 261 10:42 27.06.2020
748 Clouds 26 1010 49 0 1.34 247 10:20 27.06.2020
749 Clouds 28 1010 52 0 0.45 179 09:59 27.06.2020
750 Clouds 25 1010 56 0 0.45 210 09:39 27.06.2020
751 Clouds 19 1012 78 0 2.02 186 09:21 27.06.2020
752 Clear 22 1010 63 0 0.45 214 08:44 27.06.2020
753 Clear 22 1010 66 0 2.93 187 08:23 27.06.2020
754 Clear 20 1010 77 0 0.89 217 07:50 27.06.2020
755 Clear 19 1010 77 0 0.89 219 07:30 27.06.2020
756 Clear 19 1008 78 0 2.45 180 06:55 27.06.2020
757 Clear 17 1009 78 0 2.45 180 06:34 27.06.2020
758 Clear 17 1009 82 0 2.42 185 05:31 27.06.2020
759 Clear 17 1009 82 0 2.16 189 04:19 27.06.2020
760 Clear 17 1009 81 0 2.16 189 03:51 27.06.2020
761 Clear 18 1009 78 0 0.95 169 02:45 27.06.2020
762 Clouds 18 1009 77 0 0.58 208 02:26 27.06.2020
763 Clouds 19 1009 75 0 0.58 208 01:39 27.06.2020
764 Clouds 19 1009 72 0 1.14 234 00:52 27.06.2020
765 Clouds 20 1009 68 0 1.58 258 23:58 26.06.2020
766 Clouds 20 1009 67 0 1.58 258 23:40 26.06.2020
767 Clouds 21 1009 66 0 1.99 253 23:21 26.06.2020
768 Clouds 22 1010 62 0 1.99 253 22:45 26.06.2020
769 Clouds 22 1010 60 0 2.43 231 22:26 26.06.2020
770 Clouds 23 1010 57 0 2.43 231 21:58 26.06.2020
771 Clouds 23 1010 56 0 2.43 231 21:40 26.06.2020
772 Clouds 23 1010 56 0 2.43 231 21:40 26.06.2020
773 Clear 24 1010 54 0 1.86 230 21:21 26.06.2020
774 Clear 25 1010 52 0 1.79 32 20:59 26.06.2020
775 Clear 26 1010 50 0 0.45 1 20:40 26.06.2020
776 Clouds 26 1009 47 0 2.68 40 20:18 26.06.2020
777 Clouds 27 1009 44 0 2.24 16 19:41 26.06.2020
778 Clouds 28 1009 41 0 2.68 46 19:23 26.06.2020
779 Clouds 29 1009 34 0 0.45 95 18:44 26.06.2020
780 Clouds 29 1009 33 0 2.86 145 18:26 26.06.2020
781 Clouds 29 1011 48 0 1.34 91 17:58 26.06.2020
782 Clouds 29 1012 48 0 0.89 72 17:40 26.06.2020
783 Clouds 29 1010 34 0 0.89 124 17:22 26.06.2020
784 Clouds 29 1011 35 0 1.79 67 16:46 26.06.2020
785 Clouds 28 1012 50 0 1.34 98 16:23 26.06.2020
786 Clouds 29 1011 37 0 2.68 87 15:54 26.06.2020
787 Clouds 28 1012 40 0 2.24 135 15:36 26.06.2020
788 Rain 28 1012 42 0 4.02 35 15:18 26.06.2020
789 Rain 29 1014 40 0 1.34 75 14:40 26.06.2020
790 Clouds 29 1014 42 0 1.34 113 14:22 26.06.2020
791 Clouds 29 1014 43 0 1.34 118 13:59 26.06.2020
792 Clouds 28 1014 43 0 1.79 108 13:41 26.06.2020
793 Clear 28 1014 43 0 2.24 162 13:18 26.06.2020
794 Clear 27 1015 47 0 2.24 153 12:41 26.06.2020
795 Clear 27 1015 48 0 2.24 162 12:23 26.06.2020
796 Clear 27 1015 48 0 2.24 162 12:23 26.06.2020
797 Clear 27 1015 49 0 1.79 155 11:59 26.06.2020
798 Clear 27 1015 49 0 1.79 188 11:39 26.06.2020
799 Clear 26 1016 50 0 1.79 101 11:21 26.06.2020
800 Clear 26 1016 55 0 1.79 78 10:58 26.06.2020
801 Clear 25 1016 55 0 1.79 124 10:39 26.06.2020
802 Clear 25 1016 63 0 0.89 113 10:19 26.06.2020
803 Clear 25 1016 66 0 0.89 127 09:45 26.06.2020
804 Clear 22 1019 69 0 0.89 194 09:26 26.06.2020
805 Clear 22 1017 74 0 1.34 113 08:59 26.06.2020
806 Clear 22 1011 71 0 2.8 120 08:41 26.06.2020
807 Clouds 21 1011 75 0 2.47 131 08:23 26.06.2020
808 Clear 19 1011 86 0 2.37 135 07:44 26.06.2020
809 Clear 19 1016 59 0 2.33 138 07:22 26.06.2020
810 Clear 17 1016 74 0 2.33 138 06:47 26.06.2020
811 Clear 16 1016 76 0 2.36 128 06:28 26.06.2020
812 Clear 15 1016 79 0 2.36 128 05:49 26.06.2020
813 Clear 15 1016 79 0 2.34 119 04:44 26.06.2020
814 Clear 17 1017 69 0 2.41 117 02:27 26.06.2020
815 Clear 18 1017 67 0 2.38 111 01:25 26.06.2020
816 Clear 18 1017 64 0 2.38 111 00:42 26.06.2020
817 Clear 19 1017 63 0 1.99 120 00:22 26.06.2020
818 Clear 19 1017 60 0 1.99 120 23:46 25.06.2020
819 Clear 20 1017 59 0 1.68 129 23:21 25.06.2020
820 Clear 20 1017 57 0 1.68 129 22:57 25.06.2020
821 Clear 21 1017 55 0 1.68 129 22:38 25.06.2020
822 Clear 22 1017 52 0 1.49 139 22:20 25.06.2020
823 Clear 23 1017 49 0 1.49 139 21:57 25.06.2020
824 Clear 23 1017 47 0 0.89 100 21:39 25.06.2020
825 Clear 24 1017 45 0 1.51 126 21:20 25.06.2020
826 Clear 25 1017 42 0 1.79 131 20:57 25.06.2020
827 Clear 26 1017 41 0 0.89 104 20:37 25.06.2020
828 Clouds 26 1017 39 0 1.79 135 20:19 25.06.2020
829 Clouds 27 1017 35 0 1.79 138 19:41 25.06.2020
830 Clouds 27 1017 35 0 3.13 139 19:20 25.06.2020
831 Clouds 27 1017 34 0 3.13 131 18:59 25.06.2020
832 Clouds 27 1017 33 0 1.79 151 18:39 25.06.2020
833 Clouds 28 1017 33 0 4.47 111 18:20 25.06.2020
834 Clouds 29 1013 42 0 3.9 134 17:44 25.06.2020
835 Clear 28 1018 31 0 3.13 83 17:20 25.06.2020
836 Clear 28 1018 32 0 5.81 87 17:20 25.06.2020
837 Clear 28 1018 31 0 5.36 100 16:58 25.06.2020
838 Clear 28 1020 39 0 2.24 171 16:38 25.06.2020
839 Clear 28 1020 41 0 2.24 108 16:19 25.06.2020
840 Clear 27 1019 37 0 1.79 42 15:43 25.06.2020
841 Clear 27 1020 44 0 2.68 230 15:25 25.06.2020
842 Clear 27 1020 47 0 3.13 155 14:55 25.06.2020
843 Clear 27 1020 47 0 3.13 119 14:37 25.06.2020
844 Clouds 27 1020 49 0 2.68 160 14:18 25.06.2020
845 Clouds 27 1019 44 0 3.13 121 13:42 25.06.2020
846 Clouds 26 1020 51 0 3.58 122 13:20 25.06.2020
847 Clouds 26 1020 48 0 2.24 62 12:59 25.06.2020
848 Clouds 26 1020 50 0 3.58 83 12:59 25.06.2020
849 Clouds 26 1020 52 0 1.34 103 12:40 25.06.2020
850 Clouds 24 1020 56 0 4.92 81 12:20 25.06.2020
851 Clouds 23 1020 62 0 0.89 83 11:43 25.06.2020
852 Clouds 22 1020 65 0 2.24 47 11:22 25.06.2020
853 Clouds 23 1020 62 0 1.34 42 10:45 25.06.2020
854 Clouds 23 1020 61 0 2.24 33 10:26 25.06.2020
855 -273 0 0 0 0 0 09:59 25.06.2020
856 Clouds 23 1020 57 0 1.79 55 09:40 25.06.2020
857 Clouds 21 1021 82 0 1.34 105 09:20 25.06.2020
858 Clouds 21 1020 63 0 1.34 2 08:43 25.06.2020
859 Clouds 21 1020 64 0 1.79 7 08:19 25.06.2020
860 Clouds 19 1015 82 0 3.6 37 07:45 25.06.2020
861 Clouds 20 1020 64 0 2.24 335 07:26 25.06.2020
862 Clouds 18 1020 71 0 1.34 8 06:48 25.06.2020
863 Rain 18 1020 70 0 1.34 4 06:27 25.06.2020
864 Rain 17 1020 70 0 1.79 341 05:51 25.06.2020
865 Clouds 17 1021 70 0 1.34 344 03:58 25.06.2020
866 Clouds 17 1021 70 0 2.24 16 03:32 25.06.2020
867 Clouds 17 1017 89 0 2.3 38 02:42 25.06.2020
868 Clouds 18 1022 69 0 0.45 355 01:55 25.06.2020
869 Clouds 18 1022 69 0 2.85 31 01:21 25.06.2020
870 Clouds 18 1022 69 0 1.34 351 00:44 25.06.2020
871 Clouds 18 1022 69 0 2.98 37 00:21 25.06.2020
872 Clouds 19 1022 67 0 2.98 37 23:44 24.06.2020
873 Clouds 19 1022 65 0 2.56 23 23:26 24.06.2020
874 Clouds 20 1022 62 0 2.56 23 22:59 24.06.2020
875 Clouds 20 1022 61 0 0.45 63 22:41 24.06.2020
876 Clouds 20 1022 60 0 2.26 23 22:20 24.06.2020
877 Clouds 21 1022 59 0 2.26 23 21:56 24.06.2020
878 Clouds 21 1022 58 0 0.45 8 21:37 24.06.2020
879 Clouds 22 1022 56 0 1.79 36 21:18 24.06.2020
880 Clouds 23 1022 52 0 1.34 40 20:58 24.06.2020
881 Clouds 23 1022 50 0 1.79 36 20:39 24.06.2020
882 Clouds 24 1022 48 0 2.24 22 20:20 24.06.2020
883 Clouds 24 1022 46 0 3.58 25 19:57 24.06.2020
884 Clouds 24 1022 45 0 4.02 23 19:37 24.06.2020
885 Clouds 24 1022 44 0 1.34 87 19:18 24.06.2020
886 Clouds 24 1022 45 0 5.81 69 18:58 24.06.2020
887 Clouds 24 1022 47 0 2.68 57 18:39 24.06.2020
888 Clouds 24 1022 47 0 2.68 57 18:39 24.06.2020
889 Clouds 25 1022 43 0 1.34 18 18:20 24.06.2020
890 Clouds 26 1023 41 0 0.89 86 17:54 24.06.2020
891 Clouds 26 1023 41 0 2.68 79 17:36 24.06.2020
892 Clouds 26 1023 40 0 3.58 83 17:18 24.06.2020
893 Clouds 26 1023 39 0 0.89 167 16:54 24.06.2020
894 Clouds 26 1023 39 0 3.58 32 16:36 24.06.2020
895 Clouds 26 1023 37 0 1.34 46 16:18 24.06.2020
896 Clouds 26 1023 37 0 4.47 16 15:39 24.06.2020
897 Clouds 26 1023 36 0 2.24 49 15:20 24.06.2020
898 Clouds 26 1024 50 0 1.79 48 14:59 24.06.2020
899 Clouds 25 1024 50 0 1.79 63 14:40 24.06.2020
900 Clouds 25 1024 50 0 1.79 63 14:40 24.06.2020
901 Clouds 25 1024 47 0 1.34 93 14:21 24.06.2020
902 Clouds 26 1024 46 0 1.34 44 13:42 24.06.2020
903 Clouds 26 1023 37 0 5.81 357 13:21 24.06.2020
904 Clouds 25 1024 38 0 3.13 25 12:44 24.06.2020
905 Clouds 24 1025 49 0 2.24 65 12:21 24.06.2020
906 Clouds 23 1025 50 0 0.89 96 11:58 24.06.2020
907 Clouds 23 1025 50 0 1.34 15 11:40 24.06.2020
908 Clouds 22 1025 54 0 1.34 106 11:21 24.06.2020
909 Clouds 22 1026 57 0 0.45 234 10:47 24.06.2020
910 Clouds 21 1026 57 0 2.25 50 10:20 24.06.2020
911 Clouds 21 1025 58 0 1.34 125 09:57 24.06.2020
912 Clouds 21 1025 58 0 1.34 169 09:39 24.06.2020
913 Clouds 19 1027 62 0 1.8 66 09:20 24.06.2020
914 Clouds 19 1019 66 0 1.8 66 08:40 24.06.2020
915 Clear 18 1019 71 0 1.77 66 08:19 24.06.2020
916 Clear 17 1019 76 0 1.77 66 07:50 24.06.2020
917 Clear 16 1019 82 0 1.26 56 07:26 24.06.2020
918 Clear 14 1024 68 0 1.34 21 06:46 24.06.2020
919 Clear 12 1019 94 0 1.26 50 06:24 24.06.2020
920 Clear 13 1024 74 0 1.26 50 05:46 24.06.2020
921 Clear 13 1024 73 0 1.28 45 04:41 24.06.2020
922 Clear 13 1024 69 0 0.45 310 03:41 24.06.2020
923 Clear 13 1024 68 0 1.44 46 03:19 24.06.2020
924 Clear 14 1024 66 0 0.45 317 02:41 24.06.2020
925 Clear 15 1024 61 0 0.89 327 01:19 24.06.2020
926 Clear 15 1024 61 0 1.81 47 00:41 24.06.2020
927 Clear 16 1024 59 0 2.07 37 00:21 24.06.2020
928 Clear 16 1024 55 0 2.07 37 23:41 23.06.2020
929 Clear 17 1024 53 0 2.31 38 23:19 23.06.2020
930 Clear 18 1018 58 0 2.31 38 22:42 23.06.2020
931 Clear 18 1023 53 0 1.34 4 22:19 23.06.2020
932 Clear 20 1023 48 0 2.68 45 21:59 23.06.2020
933 Clear 20 1023 46 0 2.68 45 21:39 23.06.2020
934 Clear 21 1023 44 0 2.3 32 21:19 23.06.2020
935 Clear 23 1023 39 0 2.68 11 20:55 23.06.2020
936 Clear 23 1018 40 0 2.3 32 20:37 23.06.2020
937 Clear 23 1022 34 0 2.68 297 20:18 23.06.2020
938 Clear 24 1023 30 0 3.13 18 19:44 23.06.2020
939 Clear 24 1023 29 0 1.79 302 19:25 23.06.2020
940 Clear 24 1023 40 0 0.89 0 18:42 23.06.2020
941 Clear 25 1024 33 0 1.79 40 18:19 23.06.2020
942 Clear 24 1024 31 0 2.24 347 17:57 23.06.2020
943 Clear 25 1024 32 0 2.24 46 17:38 23.06.2020
944 Clear 25 1024 31 0 1.79 2 17:20 23.06.2020
945 Clear 25 1024 31 0 1.79 2 17:20 23.06.2020
946 Clear 25 1024 35 0 1.34 69 16:55 23.06.2020
947 Clear 22 1024 49 0 3.36 353 16:36 23.06.2020
948 Clear 25 1024 34 0 1.34 53 16:18 23.06.2020
949 Clear 25 1024 33 0 2.24 342 15:43 23.06.2020
950 Clear 25 1024 35 0 1.34 344 15:24 23.06.2020
951 Clear 24 1024 37 0 1.79 158 14:58 23.06.2020
952 Clear 25 1024 27 0 2.68 357 14:40 23.06.2020
953 Clear 24 1025 38 0 1.79 35 14:18 23.06.2020
954 Clear 24 1025 34 0 1.34 26 13:54 23.06.2020
955 Clear 24 1025 34 0 1.34 26 13:54 23.06.2020
956 Clear 24 1024 28 0 3.13 340 13:36 23.06.2020
957 Clear 24 1024 30 0 2.68 255 13:18 23.06.2020
958 Clear 24 1024 33 0 0.89 115 12:40 23.06.2020
959 Clear 23 1024 34 0 2.68 283 12:22 23.06.2020
960 Clear 23 1024 39 0 6.71 296 11:44 23.06.2020
961 Clear 23 1024 39 0 6.71 296 11:44 23.06.2020
962 Clear 23 1024 39 0 0.89 324 11:23 23.06.2020
963 Clear 21 1025 54 0 0.89 6 10:59 23.06.2020
964 Clear 21 1025 54 0 0.89 4 10:41 23.06.2020
965 Clear 21 1026 55 0 0.45 358 10:22 23.06.2020
966 Clear 21 1026 55 0 0.45 65 09:58 23.06.2020
967 Clear 20 1026 57 0 0.45 71 09:39 23.06.2020
968 Clear 18 1026 64 0 0.45 27 09:20 23.06.2020
969 Clear 18 1019 70 0 1.76 307 08:47 23.06.2020
970 Clouds 18 1019 70 0 1.26 305 08:27 23.06.2020
971 Clouds 16 1019 82 0 1.26 305 07:56 23.06.2020
972 Clouds 16 1019 82 0 1.26 305 07:38 23.06.2020
973 Clouds 17 1025 61 0 1.01 338 07:19 23.06.2020
974 Clouds 15 1025 70 0 1.01 338 06:47 23.06.2020
975 Clouds 13 1019 95 0 1.27 0 06:29 23.06.2020
976 Clouds 14 1024 75 0 1.27 0 05:39 23.06.2020
977 Clear 14 1024 71 0 1.32 338 03:29 23.06.2020
978 Clear 15 1024 69 0 1.17 353 02:55 23.06.2020
979 Clear 15 1024 67 0 1.17 353 02:36 23.06.2020
980 Clouds 16 1023 61 0 0.89 357 01:47 23.06.2020
981 Clouds 16 1023 60 0 2.24 314 01:29 23.06.2020
982 Clouds 16 1023 60 0 1.79 309 00:56 23.06.2020
983 Clouds 16 1023 57 0 1.79 282 00:24 23.06.2020
984 Clouds 16 1018 72 0 2.31 8 23:56 22.06.2020
985 Clouds 16 1017 70 0 2.31 8 23:38 22.06.2020
986 Clouds 17 1022 58 0 0.89 313 23:19 22.06.2020
987 Clouds 18 1022 59 0 2.44 6 22:56 22.06.2020
988 Clouds 18 1022 58 0 0.45 317 22:37 22.06.2020
989 Clouds 18 1022 57 0 2.44 5 22:19 22.06.2020
990 Clouds 20 1022 52 0 0.45 334 21:57 22.06.2020
991 Clouds 21 1022 49 0 0.45 328 21:38 22.06.2020
992 Clouds 21 1022 46 0 1.34 319 21:20 22.06.2020
993 Clouds 21 1022 46 0 1.34 319 21:20 22.06.2020
994 Clouds 23 1022 40 0 2.68 324 20:42 22.06.2020
995 Clouds 23 1022 38 0 1.34 19 20:24 22.06.2020
996 Clouds 24 1022 37 0 1.34 290 19:57 22.06.2020
997 Clouds 24 1022 34 0 2.68 323 19:37 22.06.2020
998 Clouds 24 1022 34 0 6.71 313 19:18 22.06.2020
999 Clouds 25 1021 33 0 3.13 303 18:41 22.06.2020
1000 Clear 26 1021 31 0 3.13 331 18:23 22.06.2020
1001 Clear 26 1021 31 0 1.34 321 17:57 22.06.2020
1002 Clear 26 1021 31 0 2.24 261 17:38 22.06.2020
1003 Clear 24 1021 34 0 4.47 293 17:20 22.06.2020
1004 Clear 25 1022 32 0 4.02 296 16:57 22.06.2020
1005 Clear 25 1023 47 0 2.24 14 16:38 22.06.2020
1006 Clear 26 1022 32 0 1.34 254 16:18 22.06.2020
1007 Clear 25 1023 49 0 1.34 330 15:44 22.06.2020
1008 Clear 24 1023 49 0 2.24 342 15:26 22.06.2020
1009 Clear 26 1022 38 0 1.79 304 14:58 22.06.2020
1010 Clear 26 1022 38 0 4.02 16 14:39 22.06.2020
1011 Clear 24 1023 55 0 0.89 298 14:20 22.06.2020
1012 Clear 23 1023 57 0 1.79 69 13:54 22.06.2020
1013 Clear 23 1023 56 0 1.79 348 13:36 22.06.2020
1014 Clear 23 1023 54 0 1.79 14 13:18 22.06.2020
1015 Clear 24 1022 43 0 0.89 163 12:41 22.06.2020
1016 Clear 24 1022 48 0 2.24 33 12:22 22.06.2020
1017 Clear 24 1022 48 0 2.24 33 12:22 22.06.2020
1018 Clear 23 1016 54 0 5.91 306 11:39 22.06.2020
1019 Clear 23 1016 54 0 5.73 303 11:20 22.06.2020
1020 Clear 24 1015 51 0 5.73 303 10:57 22.06.2020
1021 Clear 24 1015 51 0 5.73 303 10:57 22.06.2020
1022 Clear 24 1015 51 0 5.73 303 10:39 22.06.2020
1023 Clear 23 1015 52 0 5.59 305 10:19 22.06.2020
1024 Clear 22 1021 63 0 1.79 39 09:59 22.06.2020
1025 Clear 21 1021 63 0 2.24 43 09:41 22.06.2020
1026 Clear 20 1021 67 0 1.79 10 09:20 22.06.2020
1027 Clear 20 1021 67 0 1.79 10 09:20 22.06.2020
1028 Clear 19 1021 69 0 1.79 2 08:58 22.06.2020
1029 Clear 18 1021 73 0 0.89 20 08:38 22.06.2020
1030 Clouds 19 1014 73 0 5.07 293 08:20 22.06.2020
1031 Clouds 18 1014 76 0 5.07 293 07:52 22.06.2020
1032 Clouds 18 1014 78 0 5.07 293 07:33 22.06.2020
1033 Clouds 16 1019 73 0 3.02 280 06:45 22.06.2020
1034 Clouds 15 1019 75 0 2.52 278 06:26 22.06.2020
1035 Clouds 14 1019 75 0 2.52 278 05:58 22.06.2020
1036 Clouds 14 1018 78 0 2.41 265 04:59 22.06.2020
1037 Clear 14 1018 76 0 1.43 228 02:55 22.06.2020
1038 Clear 15 1018 73 0 0.96 232 01:25 22.06.2020
1039 Clear 15 1018 71 0 0.96 232 00:41 22.06.2020
1040 Clear 16 1018 68 0 1.11 257 23:59 21.06.2020
1041 Clear 16 1018 68 0 1.11 257 23:59 21.06.2020
1042 Clear 17 1018 67 0 1.11 257 23:40 21.06.2020
1043 Clear 17 1018 65 0 1.78 268 23:21 21.06.2020
1044 Clear 18 1018 62 0 1.78 268 22:57 21.06.2020
1045 Clear 19 1018 60 0 1.78 268 22:38 21.06.2020
1046 Clear 19 1018 57 0 1.79 271 22:19 21.06.2020
1047 Clear 20 1018 54 0 1.79 271 21:59 21.06.2020
1048 Clear 21 1018 52 0 1.79 271 21:40 21.06.2020
1049 Clear 22 1017 44 0 0.45 311 21:21 21.06.2020
1050 Clear 23 1017 39 0 1.82 279 20:59 21.06.2020
1051 Clear 23 1017 40 0 0.89 271 20:38 21.06.2020
1052 Clear 23 1017 37 0 0.89 321 20:19 21.06.2020
1053 Clear 24 1017 35 0 0.89 324 19:57 21.06.2020
1054 Clear 24 1017 35 0 0.89 324 19:57 21.06.2020
1055 Clear 24 1017 35 0 0.89 286 19:38 21.06.2020
1056 Clear 24 1018 42 0 1.34 74 19:20 21.06.2020
1057 Clear 24 1017 43 0 1.34 45 18:55 21.06.2020
1058 Clear 24 1018 40 0 1.79 2 18:37 21.06.2020
1059 Clear 24 1018 40 0 1.79 2 18:37 21.06.2020
1060 Clear 25 1018 40 0 1.79 19 18:19 21.06.2020
1061 Clear 25 1018 40 0 1.34 30 17:40 21.06.2020
1062 Clear 24 1018 43 0 1.79 16 17:21 21.06.2020
1063 Clear 25 1018 44 0 0.89 46 16:57 21.06.2020
1064 Clear 25 1018 42 0 1.79 238 16:38 21.06.2020
1065 Clear 24 1019 43 0 2.24 13 16:20 21.06.2020
1066 Clear 24 1019 44 0 1.79 43 15:39 21.06.2020
1067 Clear 23 1019 45 0 1.34 316 15:21 21.06.2020
1068 Clear 24 1019 47 0 1.79 37 14:55 21.06.2020
1069 Clear 23 1019 47 0 1.79 359 14:36 21.06.2020
1070 Clouds 23 1019 52 0 1.79 341 14:18 21.06.2020
1071 Clouds 22 1019 52 0 1.34 60 13:42 21.06.2020
1072 Clouds 22 1019 49 0 1.34 333 13:42 21.06.2020
1073 Clouds 22 1019 54 0 1.79 53 13:23 21.06.2020
1074 Clouds 23 1019 39 0 4.92 359 12:59 21.06.2020
1075 Clouds 22 1019 39 0 5.36 306 12:41 21.06.2020
1076 Clouds 20 1018 60 0 2.24 270 12:23 21.06.2020
1077 Clouds 20 1020 55 0 0.89 270 11:43 21.06.2020
1078 Clouds 20 1020 57 0 0.89 216 11:24 21.06.2020
1079 Clouds 19 1020 65 0 1.79 20 10:59 21.06.2020
1080 Clouds 19 1020 66 0 1.79 72 10:40 21.06.2020
1081 Clouds 19 1020 69 0 1.79 343 10:22 21.06.2020
1082 Clouds 18 1020 71 0 1.79 4 09:44 21.06.2020
1083 Clouds 14 1020 83 0 3.74 307 09:25 21.06.2020
1084 Clouds 17 1020 76 0 1.79 38 08:59 21.06.2020
1085 Clouds 16 1019 77 0 1.34 336 08:41 21.06.2020
1086 Clouds 16 1019 78 0 1.34 333 08:20 21.06.2020
1087 Clouds 16 1019 78 0 1.34 37 07:59 21.06.2020
1088 Clouds 16 1019 78 0 1.34 354 07:39 21.06.2020
1089 Clouds 16 1013 86 0 3.71 306 07:19 21.06.2020
1090 Clouds 16 1019 70 0 6.26 321 06:46 21.06.2020
1091 Clouds 16 1013 84 0 3.4 302 05:57 21.06.2020
1092 Clouds 16 1019 79 0 0.89 27 04:49 21.06.2020
1093 Clouds 17 1019 78 0 0.45 352 03:20 21.06.2020
1094 Clouds 17 1019 78 0 0.45 39 02:49 21.06.2020
1095 Clouds 17 1019 78 0 0.45 24 01:48 21.06.2020
1096 Clouds 17 1019 69 0 2.86 306 01:21 21.06.2020
1097 Clouds 17 1019 69 0 2.86 306 00:55 21.06.2020
1098 Clouds 12 1019 89 0 2.86 306 00:36 21.06.2020
1099 Clouds 18 1019 79 0 0.45 18 00:18 21.06.2020
1100 Clouds 13 1019 89 0 2.93 318 23:41 20.06.2020
1101 Clouds 14 1019 88 0 2.4 323 23:21 20.06.2020
1102 Clouds 14 1019 88 0 2.4 323 22:55 20.06.2020
1103 Clouds 14 1019 88 0 2.4 323 22:37 20.06.2020
1104 Clouds 18 1019 79 0 2.27 339 22:18 20.06.2020
1105 Clouds 18 1019 78 0 2.27 339 21:56 20.06.2020
1106 Clouds 20 1012 63 0 2.27 339 21:37 20.06.2020
1107 Clouds 21 1017 56 0 2.68 350 21:19 20.06.2020
1108 Clouds 21 1017 54 0 2.68 259 20:55 20.06.2020
1109 Clouds 21 1017 53 0 2.24 334 20:37 20.06.2020
1110 Rain 21 1017 51 0 6.26 328 20:19 20.06.2020
1111 Rain 22 1012 58 0 2.27 34 19:43 20.06.2020
1112 Rain 22 1017 45 0 2.68 359 19:22 20.06.2020
1113 Rain 23 1017 45 0 3.58 316 18:55 20.06.2020
1114 Rain 23 1017 45 0 5.81 307 18:37 20.06.2020
1115 Clouds 23 1017 44 0 7.6 289 18:18 20.06.2020
1116 Clouds 24 1017 45 0 3.13 316 17:55 20.06.2020
1117 Clouds 24 1017 47 0 3.13 359 17:37 20.06.2020
1118 Clouds 23 1017 47 0 3.13 4 17:18 20.06.2020
1119 Clouds 22 1012 69 0 4.82 309 16:39 20.06.2020
1120 Clouds 20 1012 75 0 5.81 306 16:18 20.06.2020
1121 Clouds 21 1012 71 0 5.81 306 15:54 20.06.2020
1122 Clouds 23 1012 53 0 5.81 306 15:36 20.06.2020
1123 Clouds 23 1012 53 0 6.12 304 15:18 20.06.2020
1124 Clouds 23 1012 51 0 6.12 304 14:42 20.06.2020
1125 Clouds 23 1018 53 0 2.24 30 14:19 20.06.2020
1126 Clouds 23 1018 54 0 2.68 355 13:41 20.06.2020
1127 Clouds 22 1018 56 0 2.24 304 13:20 20.06.2020
1128 Clouds 22 1018 55 0 2.24 49 12:56 20.06.2020
1129 Clouds 23 1017 46 0 4.02 232 12:37 20.06.2020
1130 Clouds 21 1018 58 0 2.24 327 12:18 20.06.2020
1131 Clouds 21 1018 59 0 2.68 356 11:39 20.06.2020
1132 Clouds 20 1018 62 0 2.24 20 11:20 20.06.2020
1133 Clouds 21 1018 59 0 3.58 6 10:57 20.06.2020
1134 Clouds 21 1018 62 0 2.68 43 10:39 20.06.2020
1135 Clouds 20 1018 63 0 2.68 12 10:20 20.06.2020
1136 Clouds 19 1018 65 0 2.68 51 09:43 20.06.2020
1137 Clouds 17 1018 71 0 0.89 180 09:25 20.06.2020
1138 Clouds 18 1018 71 0 0.89 148 08:58 20.06.2020
1139 Clouds 17 1018 73 0 0.89 229 08:39 20.06.2020
1140 Clouds 18 1012 76 0 5.36 306 08:21 20.06.2020
1141 Clouds 17 1011 80 0 5.36 306 07:50 20.06.2020
1142 Clouds 17 1011 81 0 5.08 305 07:25 20.06.2020
1143 Clouds 17 1017 67 0 0.89 292 06:44 20.06.2020
1144 Clouds 15 1011 89 0 4.83 303 06:20 20.06.2020
1145 Clouds 15 1011 90 0 4.83 303 05:47 20.06.2020
1146 Clouds 16 1010 90 0 4.55 294 03:53 20.06.2020
1147 Clouds 17 1016 76 0 0.45 23 01:55 20.06.2020
1148 Clouds 16 1016 77 0 0.45 13 01:37 20.06.2020
1149 Clouds 17 1016 77 0 0.89 357 00:47 20.06.2020
1150 Clouds 17 1010 81 0 3.16 297 00:20 20.06.2020
1151 Clouds 17 1010 78 0 3.16 297 23:44 19.06.2020
1152 Clouds 18 1015 66 0 1.34 344 23:20 19.06.2020
1153 Clouds 18 1014 67 0 0.89 333 22:56 19.06.2020
1154 Clouds 19 1014 75 0 1.34 231 22:38 19.06.2020
1155 Clouds 19 1014 77 0 2.38 301 22:20 19.06.2020
1156 Clouds 19 1014 76 0 2.38 301 21:55 19.06.2020
1157 Clouds 19 1013 73 0 0.45 11 21:37 19.06.2020
1158 Clouds 20 1013 66 0 2.04 311 21:18 19.06.2020
1159 Clouds 20 1013 63 0 1.34 337 20:56 19.06.2020
1160 Clouds 20 1013 62 0 1.34 21 20:38 19.06.2020
1161 Rain 20 1013 60 0 0.89 337 20:20 19.06.2020
1162 Rain 20 1013 59 0 5.36 323 19:55 19.06.2020
1163 Rain 21 1013 58 0 3.13 326 19:36 19.06.2020
1164 Rain 21 1013 57 0 1.34 321 19:18 19.06.2020
1165 Rain 22 1013 54 0 1.79 1 18:40 19.06.2020
1166 Rain 22 1013 52 0 1.34 310 18:21 19.06.2020
1167 Rain 21 1008 81 0 3.5 325 17:54 19.06.2020
1168 Rain 23 1012 51 0 4.47 311 17:36 19.06.2020
1169 Clouds 21 1008 81 0 3.48 328 17:18 19.06.2020
1170 Clouds 20 1015 71 0 0.45 100 16:41 19.06.2020
1171 Clouds 20 1015 70 0 0.89 213 16:23 19.06.2020
1172 Clouds 20 1013 75 0 1.34 15 15:58 19.06.2020
1173 Clouds 20 1013 77 0 0.89 28 15:40 19.06.2020
1174 Clouds 19 1015 75 0 0.89 342 15:19 19.06.2020
1175 Clouds 19 1014 75 0 0.89 199 14:55 19.06.2020
1176 Clouds 19 1014 74 0 0.45 182 14:37 19.06.2020
1177 Clouds 19 1014 79 0 0.89 31 14:18 19.06.2020
1178 Clouds 19 1014 79 0 1.79 41 13:41 19.06.2020
1179 Clouds 19 1008 97 0 3.51 310 13:23 19.06.2020
1180 Clouds 20 1013 61 0 2.68 286 12:46 19.06.2020
1181 Rain 18 1014 76 0 0.45 84 12:22 19.06.2020
1182 Rain 18 1014 76 0 3.99 302 11:57 19.06.2020
1183 Rain 18 1014 77 0 0.45 278 11:38 19.06.2020
1184 Rain 18 1013 76 0 4.93 295 11:18 19.06.2020
1185 Rain 18 1013 77 0 0.45 277 10:45 19.06.2020
1186 Rain 18 1006 10 0 5.29 289 10:26 19.06.2020
1187 Rain 18 1006 10 0 5.29 289 09:59 19.06.2020
1188 Rain 17 1006 10 0 5.29 289 09:41 19.06.2020
1189 Clouds 18 1006 10 0 4.99 287 09:20 19.06.2020
1190 Clouds 18 1011 77 0 1.79 303 08:44 19.06.2020
1191 Clouds 18 1011 75 0 4.97 285 08:26 19.06.2020
1192 Clouds 18 1011 77 0 4.97 285 07:56 19.06.2020
1193 Clouds 18 1011 78 0 0.89 217 07:38 19.06.2020
1194 Clouds 17 1011 81 0 1.34 220 07:20 19.06.2020
1195 Clouds 17 1011 84 0 0.89 172 06:25 19.06.2020
1196 Clouds 16 1011 85 0 2.24 160 05:46 19.06.2020
1197 Rain 16 1011 85 0 3.79 288 04:27 19.06.2020
1198 Rain 16 1011 87 0 1.34 286 02:51 19.06.2020
1199 Rain 16 1011 86 0 3.68 275 00:59 19.06.2020
1200 Rain 17 1011 86 0 3.68 275 00:40 19.06.2020
1201 Rain 17 1010 86 0 0.45 285 00:21 19.06.2020
1202 Rain 17 1010 86 0 0.89 179 23:41 18.06.2020
1203 Clouds 17 1011 86 0 3.54 275 23:23 18.06.2020
1204 Clouds 17 1011 86 0 3.54 275 22:59 18.06.2020
1205 Clouds 17 1011 86 0 3.54 275 22:39 18.06.2020
1206 Rain 18 1010 86 0 3.55 290 22:19 18.06.2020
1207 Rain 18 1010 85 0 3.55 290 21:55 18.06.2020
1208 Rain 18 1010 83 0 3.55 290 21:36 18.06.2020
1209 Rain 18 1010 81 0 0.89 49 21:18 18.06.2020
1210 Rain 18 1005 97 0 3.82 286 20:40 18.06.2020
1211 Rain 19 1011 93 0 0.89 33 20:20 18.06.2020
1212 Rain 18 1011 92 0 1.34 352 19:56 18.06.2020
1213 Rain 18 1011 91 0 1.34 320 19:37 18.06.2020
1214 Rain 19 1011 91 0 1.34 323 19:18 18.06.2020
1215 Rain 19 1011 89 0 1.79 300 18:38 18.06.2020
1216 Rain 20 1010 86 0 1.79 290 18:19 18.06.2020
1217 Rain 22 1017 85 0 5.27 289 17:45 18.06.2020
1218 Rain 22 1011 70 0 0.45 118 17:26 18.06.2020
1219 Rain 22 1011 70 0 0.45 98 17:26 18.06.2020
1220 Rain 22 1012 70 0 0.45 112 16:57 18.06.2020
1221 Rain 22 1011 69 0 0.45 90 16:39 18.06.2020
1222 Rain 23 1011 64 0 5.64 281 16:20 18.06.2020
1223 Rain 24 1011 60 0 5.64 281 15:57 18.06.2020
1224 Rain 24 1011 59 0 0.45 76 15:39 18.06.2020
1225 Rain 24 1004 61 0 5 274 15:19 18.06.2020
1226 Rain 24 1010 63 0 1.34 330 14:56 18.06.2020
1227 Rain 25 1011 55 0 0.45 240 14:37 18.06.2020
1228 Rain 24 1009 58 0 1.34 121 14:19 18.06.2020
1229 Rain 25 1009 57 0 2.24 201 13:47 18.06.2020
1230 Rain 24 1004 63 0 4.47 262 13:28 18.06.2020
1231 Rain 24 1004 61 0 4.47 262 12:57 18.06.2020
1232 Rain 23 1004 63 0 4.47 262 12:39 18.06.2020
1233 Rain 24 1004 58 0 3.62 232 12:19 18.06.2020
1234 Rain 23 1004 62 0 3.62 232 11:57 18.06.2020
1235 Rain 23 1004 61 0 3.62 232 11:37 18.06.2020
1236 Rain 23 1004 69 0 2.11 200 11:18 18.06.2020
1237 Rain 21 1003 74 0 2.11 200 10:39 18.06.2020
1238 Rain 21 1008 57 0 0.45 303 10:18 18.06.2020
1239 Rain 21 1008 60 0 0.89 327 09:45 18.06.2020
1240 Clouds 21 1008 60 0 1.34 344 09:27 18.06.2020
1241 Clouds 21 1008 59 0 1.79 9 08:57 18.06.2020
1242 Clouds 21 1008 58 0 1.34 15 08:37 18.06.2020
1243 Clouds 21 1008 59 0 1.79 350 08:37 18.06.2020
1244 Clouds 21 1008 59 0 0.89 327 08:19 18.06.2020
1245 Clouds 20 1007 60 0 1.79 334 07:44 18.06.2020
1246 Rain 20 1007 58 0 2.68 359 07:25 18.06.2020
1247 Rain 19 1007 61 0 0.45 358 06:37 18.06.2020
1248 Rain 17 1002 85 0 2.2 36 05:31 18.06.2020
1249 Rain 19 1008 72 0 1.98 28 04:20 18.06.2020
1250 Clouds 20 1008 71 0 2.54 60 01:48 18.06.2020
1251 Clouds 19 1009 67 0 0.45 104 01:27 18.06.2020
1252 Clouds 20 1009 73 0 2.7 45 00:54 18.06.2020
1253 Clouds 20 1009 69 0 2.7 45 00:32 18.06.2020
1254 Clouds 21 1009 66 0 2.61 34 23:56 17.06.2020
1255 Clouds 20 1003 67 0 2.61 34 23:38 17.06.2020
1256 Clouds 20 1003 67 0 2.26 31 23:19 17.06.2020
1257 Clouds 20 1003 65 0 2.26 31 22:57 17.06.2020
1258 Clouds 22 1008 47 0 2.26 31 22:37 17.06.2020
1259 Clouds 22 1003 55 0 2.26 31 22:37 17.06.2020
1260 Clouds 22 1008 48 0 2.25 22 22:19 17.06.2020
1261 Clouds 22 1008 61 0 2.25 22 21:40 17.06.2020
1262 Rain 24 1008 44 0 1.34 14 21:22 17.06.2020
1263 Rain 24 1009 50 0 2.38 19 20:57 17.06.2020
1264 Rain 25 1009 48 0 2.38 19 20:38 17.06.2020
1265 Rain 26 1008 46 0 2.48 23 20:19 17.06.2020
1266 Rain 27 1008 43 0 0.45 66 19:44 17.06.2020
1267 Rain 27 1008 41 0 0.89 85 19:23 17.06.2020
1268 Rain 22 1009 77 0 2.5 27 18:58 17.06.2020
1269 Rain 22 1009 77 0 2.5 27 18:40 17.06.2020
1270 Rain 22 1009 77 0 2.5 27 18:40 17.06.2020
1271 Rain 23 1009 73 0 3.06 35 18:21 17.06.2020
1272 Rain 23 1009 73 0 3.06 35 17:43 17.06.2020
1273 Rain 28 1009 37 0 1.34 176 17:22 17.06.2020
1274 Rain 28 1009 37 0 1.34 176 17:22 17.06.2020
1275 Rain 28 1009 39 0 1.34 65 16:57 17.06.2020
1276 Rain 28 1010 40 0 1.34 102 16:38 17.06.2020
1277 Rain 28 1010 41 0 1.79 109 16:20 17.06.2020
1278 Rain 28 1010 42 0 0.45 356 15:56 17.06.2020
1279 Rain 27 1010 44 0 0.89 68 15:38 17.06.2020
1280 Rain 27 1010 49 0 0.45 46 15:18 17.06.2020
1281 Rain 26 1010 52 0 0.45 49 14:56 17.06.2020
1282 Rain 27 1011 51 0 0.89 45 14:38 17.06.2020
1283 Rain 27 1011 49 0 0.89 55 14:19 17.06.2020
1284 Rain 26 1011 52 0 0.89 33 13:42 17.06.2020
1285 Rain 27 1011 57 0 0.89 68 13:22 17.06.2020
1286 Rain 26 1011 54 0 1.34 67 12:59 17.06.2020
1287 Rain 27 1011 49 0 0.89 69 12:40 17.06.2020
1288 Rain 23 1012 65 0 3.29 54 12:20 17.06.2020
1289 Rain 26 1012 48 0 0.89 62 11:44 17.06.2020
1290 Rain 26 1012 53 0 0.45 120 11:26 17.06.2020
1291 Rain 24 1012 54 0 0.45 67 10:58 17.06.2020
1292 Rain 24 1012 59 0 0.45 181 10:38 17.06.2020
1293 Rain 24 1012 62 0 0.45 88 10:19 17.06.2020
1294 Rain 24 1012 59 0 0.45 79 10:19 17.06.2020
1295 Rain 24 1012 66 0 2.53 46 09:55 17.06.2020
1296 Rain 23 1012 71 0 2.53 46 09:37 17.06.2020
1297 Rain 21 1012 75 0 0.45 266 09:18 17.06.2020
1298 Clouds 19 1006 91 0 2.06 25 08:44 17.06.2020
1299 Clouds 18 1006 95 0 1.79 8 08:19 17.06.2020
1300 Clouds 17 1006 10 0 1.79 8 07:44 17.06.2020
1301 Clouds 18 1011 72 0 0.89 286 07:24 17.06.2020
1302 Clouds 17 1011 82 0 1.64 346 06:59 17.06.2020
1303 Clouds 17 1011 84 0 1.64 346 06:41 17.06.2020
1304 Clouds 16 1011 87 0 1.39 337 06:22 17.06.2020
1305 Clouds 15 1011 88 0 1.39 337 05:56 17.06.2020
1306 Clouds 15 1011 87 0 0.94 327 04:39 17.06.2020
1307 Clouds 16 1011 86 0 0.79 16 02:44 17.06.2020
1308 Clouds 18 1012 85 0 0.45 187 01:20 17.06.2020
1309 Clouds 18 1012 84 0 1.6 34 00:37 17.06.2020
1310 Clouds 19 1012 83 0 1.31 22 00:18 17.06.2020
1311 Clouds 20 1007 96 0 1.31 22 23:41 16.06.2020
1312 Clouds 20 1012 79 0 1.21 15 23:23 16.06.2020
1313 Clouds 20 1012 78 0 1.21 15 22:58 16.06.2020
1314 Clouds 20 1012 78 0 1.21 15 22:39 16.06.2020
1315 Clouds 20 1012 78 0 1.36 14 22:19 16.06.2020
1316 Clouds 21 1012 76 0 1.36 14 21:58 16.06.2020
1317 Clouds 21 1011 73 0 1.36 14 21:40 16.06.2020
1318 Clouds 21 1011 70 0 1.58 358 21:22 16.06.2020
1319 Clouds 22 1011 66 0 0.89 8 20:55 16.06.2020
1320 Clouds 22 1011 63 0 0.89 292 20:36 16.06.2020
1321 Rain 23 1011 62 0 1.1 327 20:18 16.06.2020
1322 Rain 23 1011 63 0 1.1 327 19:56 16.06.2020
1323 Rain 23 1011 62 0 1.34 307 19:37 16.06.2020
1324 Rain 23 1011 61 0 3.13 299 19:18 16.06.2020
1325 Rain 24 1012 60 0 2.24 311 18:41 16.06.2020
1326 Rain 23 1011 61 0 0.45 122 18:21 16.06.2020
1327 Rain 23 1012 61 0 0.45 74 17:58 16.06.2020
1328 Rain 24 1012 61 0 0.72 277 17:39 16.06.2020
1329 Rain 25 1012 60 0 0.45 121 17:21 16.06.2020
1330 Rain 25 1012 58 0 2.68 245 16:58 16.06.2020
1331 Rain 25 1012 56 0 4.02 207 16:39 16.06.2020
1332 Clouds 26 1012 54 0 4.47 255 16:19 16.06.2020
1333 Clouds 27 1007 50 0 0.76 232 15:57 16.06.2020
1334 Clouds 27 1007 50 0 0.76 232 15:39 16.06.2020
1335 Clouds 26 1013 46 0 1.34 19 15:21 16.06.2020
1336 Clouds 26 1013 43 0 0.66 217 14:56 16.06.2020
1337 Clouds 24 1013 47 0 0.66 217 14:37 16.06.2020
1338 Clouds 26 1013 48 0 1.34 328 14:19 16.06.2020
1339 Clouds 25 1013 50 0 2.24 300 13:45 16.06.2020
1340 Clouds 26 1013 49 0 2.24 163 13:24 16.06.2020
1341 Clouds 28 1008 52 0 0.83 186 12:43 16.06.2020
1342 Clouds 23 1015 56 0 0.71 292 12:23 16.06.2020
1343 Clouds 24 1015 57 0 0.45 90 11:59 16.06.2020
1344 Clouds 24 1009 67 0 0.71 292 11:40 16.06.2020
1345 Clouds 23 1009 71 0 1.39 322 11:22 16.06.2020
1346 Clouds 23 1009 69 0 1.39 322 10:59 16.06.2020
1347 Clouds 23 1009 71 0 1.39 322 10:39 16.06.2020
1348 Clouds 23 1009 71 0 1.74 317 10:20 16.06.2020
1349 Clouds 20 1017 74 0 0.45 294 09:45 16.06.2020
1350 Clouds 19 1015 86 0 0.45 78 09:24 16.06.2020
1351 Clouds 18 1015 93 0 0.89 205 08:58 16.06.2020
1352 Clouds 17 1015 96 0 0.45 277 08:40 16.06.2020
1353 Clouds 17 1015 96 0 0.45 295 08:22 16.06.2020
1354 Clouds 19 1009 10 0 2.24 315 07:42 16.06.2020
1355 Clouds 17 1009 10 0 2.35 311 07:24 16.06.2020
1356 Clouds 17 1014 88 0 2.35 311 06:34 16.06.2020
1357 Clouds 15 1014 89 0 2.01 302 05:52 16.06.2020
1358 Clouds 14 1014 89 0 1.75 299 05:26 16.06.2020
1359 Clear 15 1014 88 0 1.5 293 04:26 16.06.2020
1360 Clear 16 1014 87 0 0.95 307 02:47 16.06.2020
1361 Clouds 16 1015 87 0 1.18 99 01:44 16.06.2020
1362 Clouds 17 1015 86 0 1.19 66 01:19 16.06.2020
1363 Clouds 17 1015 84 0 1.19 66 00:37 16.06.2020
1364 Clouds 18 1015 83 0 0.89 177 00:18 16.06.2020
1365 Clouds 19 1015 81 0 0.89 286 23:41 15.06.2020
1366 Clouds 19 1014 79 0 1.79 344 23:21 15.06.2020
1367 Clouds 19 1014 77 0 2.68 1 22:55 15.06.2020
1368 Clouds 20 1014 75 0 1.34 344 22:36 15.06.2020
1369 Clouds 20 1014 73 0 4.02 292 22:18 15.06.2020
1370 Clouds 21 1014 63 0 0.89 302 21:55 15.06.2020
1371 Clouds 21 1013 57 0 0.89 304 21:36 15.06.2020
1372 Clouds 22 1013 52 0 1.97 65 21:18 15.06.2020
1373 Clouds 22 1013 50 0 0.89 352 20:54 15.06.2020
1374 Clouds 22 1013 50 0 0.89 352 20:54 15.06.2020
1375 Clouds 24 1013 45 0 2.24 31 20:36 15.06.2020
1376 Rain 24 1013 45 0 0.89 12 20:18 15.06.2020
1377 Rain 24 1013 39 0 1.79 338 19:41 15.06.2020
1378 Rain 25 1013 38 0 3.58 1 19:22 15.06.2020
1379 Rain 26 1013 38 0 2.68 2 18:58 15.06.2020
1380 Rain 26 1013 39 0 1.79 79 18:40 15.06.2020
1381 Rain 26 1013 40 0 2.24 9 18:21 15.06.2020
1382 Rain 26 1013 43 0 0.45 45 17:58 15.06.2020
1383 Rain 26 1013 45 0 0.89 65 17:40 15.06.2020
1384 Rain 26 1012 39 0 0.45 330 17:19 15.06.2020
1385 Rain 26 1013 39 0 3.13 355 16:57 15.06.2020
1386 Rain 26 1013 40 0 1.79 348 16:38 15.06.2020
1387 Rain 27 1013 43 0 0.45 6 16:18 15.06.2020
1388 Rain 26 1013 43 0 0.45 48 15:41 15.06.2020
1389 Rain 26 1013 45 0 1.34 352 15:21 15.06.2020
1390 Rain 26 1013 44 0 1.34 92 14:59 15.06.2020
1391 Rain 26 1013 46 0 0.89 114 14:40 15.06.2020
1392 Rain 26 1013 43 0 0.89 313 14:20 15.06.2020
1393 Rain 25 1013 46 0 2.24 134 13:57 15.06.2020
1394 Rain 26 1013 45 0 4.02 79 13:38 15.06.2020
1395 Rain 25 1014 51 0 1.34 60 13:18 15.06.2020
1396 Rain 26 1013 45 0 3.58 31 12:43 15.06.2020
1397 Clouds 21 1014 71 0 1.25 69 12:22 15.06.2020
1398 -273 0 0 0 0 0 12:00 15.06.2020
1399 Clouds 24 1014 53 0 0.89 86 11:41 15.06.2020
1400 Rain 23 1014 53 0 0.89 30 11:23 15.06.2020
1401 Rain 22 1014 61 0 0.45 43 10:43 15.06.2020
1402 Clouds 21 1014 61 0 0.93 78 10:22 15.06.2020
1403 Clouds 20 1014 64 0 0.45 53 09:45 15.06.2020
1404 Clouds 19 1014 67 0 0.45 39 09:25 15.06.2020
1405 Clouds 19 1014 72 0 0.89 87 08:57 15.06.2020
1406 Clouds 19 1014 73 0 0.89 165 08:39 15.06.2020
1407 Clouds 18 1008 79 0 1.85 34 08:20 15.06.2020
1408 Clouds 17 1008 88 0 1.85 34 07:45 15.06.2020
1409 Clouds 16 1013 75 0 2.24 47 07:22 15.06.2020
1410 Clouds 16 1012 78 0 1.34 11 06:42 15.06.2020
1411 Clouds 15 1012 81 0 0.89 14 06:20 15.06.2020
1412 Clouds 15 1012 83 0 1.34 307 05:43 15.06.2020
1413 Clouds 15 1012 84 0 2.68 278 05:24 15.06.2020
1414 Clouds 15 1012 79 0 1.79 357 04:19 15.06.2020
1415 Clouds 16 1012 77 0 0.45 307 03:40 15.06.2020
1416 Clouds 17 1012 73 0 1.79 5 02:34 15.06.2020
1417 Clouds 17 1012 74 0 0.89 83 01:53 15.06.2020
1418 Clouds 18 1012 73 0 1.34 351 01:31 15.06.2020
1419 Clouds 17 1012 73 0 2.68 338 00:58 15.06.2020
1420 Clouds 18 1012 75 0 1.79 1 00:39 15.06.2020
1421 Clouds 18 1012 79 0 2.24 0 00:19 15.06.2020
1422 Clouds 18 1012 89 0 1.34 18 23:46 14.06.2020
1423 Clouds 19 1011 91 0 0.89 15 23:24 14.06.2020
1424 Clouds 19 1011 90 0 0.45 319 22:58 14.06.2020
1425 Clouds 19 1011 89 0 3.3 41 22:39 14.06.2020
1426 Clouds 19 1011 88 0 2.93 43 22:19 14.06.2020
1427 Clouds 20 1011 87 0 2.93 43 21:57 14.06.2020
1428 Clouds 20 1011 87 0 2.93 43 21:57 14.06.2020
1429 Clouds 20 1011 86 0 2.93 43 21:38 14.06.2020
1430 Clouds 21 1011 89 0 3.03 53 21:19 14.06.2020
1431 Clouds 21 1011 89 0 3.03 53 21:19 14.06.2020
1432 Clouds 21 1011 90 0 3.03 53 20:58 14.06.2020
1433 Clouds 22 1011 88 0 0.45 355 20:38 14.06.2020
1434 Rain 22 1011 88 0 3.13 56 20:20 14.06.2020
1435 Rain 22 1011 88 0 1.34 328 19:59 14.06.2020
1436 Rain 22 1011 88 0 1.34 330 19:59 14.06.2020
1437 Rain 22 1010 88 0 0.89 0 19:38 14.06.2020
1438 Rain 22 1010 83 0 0.89 300 19:19 14.06.2020
1439 Rain 22 1010 83 0 0.89 300 19:19 14.06.2020
1440 Rain 22 1010 83 0 0.89 300 19:19 14.06.2020
1441 Rain 22 1011 81 0 2.24 285 18:57 14.06.2020
1442 Rain 22 1011 81 0 2.24 285 18:57 14.06.2020
1443 Rain 22 1010 77 0 1.79 32 18:38 14.06.2020
1444 Rain 23 1010 72 0 1.79 331 18:20 14.06.2020
1445 Rain 22 1010 100 0 1.79 311 17:58 14.06.2020
1446 Rain 22 1011 100 0 1.79 327 17:38 14.06.2020
1447 Rain 23 1011 100 0 1.34 302 17:19 14.06.2020
1448 Rain 23 1011 100 0 1.34 307 16:41 14.06.2020
1449 Rain 22 1011 100 0 2.68 359 16:22 14.06.2020
1450 Rain 22 1011 100 0 5.69 62 15:59 14.06.2020
1451 Rain 21 1011 100 0 0.89 77 15:40 14.06.2020
1452 Rain 21 1011 100 0 0.45 50 15:19 14.06.2020
1453 Rain 21 1011 100 0 1.79 11 14:59 14.06.2020
1454 Clouds 21 1011 100 0 3.13 57 14:40 14.06.2020
1455 Clouds 21 1011 100 0 2.24 352 14:21 14.06.2020
1456 Clouds 21 1011 100 0 3.13 23 13:57 14.06.2020
1457 Clouds 21 1011 100 0 3.13 22 13:39 14.06.2020
1458 Clouds 21 1011 100 0 1.79 11 13:21 14.06.2020
1459 Clouds 21 1011 100 0 0.45 334 12:55 14.06.2020
1460 Clouds 21 1011 100 0 4.02 5 12:37 14.06.2020
1461 Clouds 21 1011 100 0 5.81 299 12:18 14.06.2020
1462 Clouds 20 1011 100 0 1.34 354 11:56 14.06.2020
1463 Clouds 20 1011 100 0 1.79 340 11:37 14.06.2020
1464 Clouds 20 1011 100 0 1.34 357 11:18 14.06.2020
1465 Clouds 19 1011 100 0 1.79 359 10:42 14.06.2020
1466 Clouds 19 1011 100 0 1.79 63 10:19 14.06.2020
1467 Clouds 19 1011 100 0 2.24 2 09:48 14.06.2020
1468 Clouds 19 1010 100 0 1.34 60 09:25 14.06.2020
1469 Clouds 19 1010 100 0 0.45 40 08:57 14.06.2020
1470 Clouds 20 1010 92 0 2.68 16 08:39 14.06.2020
1471 Clouds 20 1010 94 0 1.79 359 08:18 14.06.2020
1472 Clouds 20 1010 94 0 1.79 0 07:50 14.06.2020
1473 Clouds 19 1010 94 0 1.79 317 07:32 14.06.2020
1474 Clouds 18 1011 100 0 5.14 72 06:35 14.06.2020
1475 Rain 18 1010 100 0 0.89 335 05:44 14.06.2020
1476 Rain 17 1010 100 0 1.34 341 04:58 14.06.2020
1477 Rain 17 1010 100 0 2.24 352 04:31 14.06.2020
1478 Rain 18 1010 100 0 3.13 32 03:27 14.06.2020
1479 Rain 18 1011 24 0 0.89 33 02:30 14.06.2020
1480 Rain 19 1009 95 0 3.99 51 01:47 14.06.2020
1481 Rain 19 1009 95 0 3.16 67 01:24 14.06.2020
1482 Rain 18 1009 95 0 3.16 67 00:40 14.06.2020
1483 Rain 18 1010 96 0 0.89 338 00:19 14.06.2020
1484 Rain 18 1010 96 0 2.92 46 23:44 13.06.2020
1485 Rain 18 1010 95 0 0.89 25 23:24 13.06.2020
1486 Rain 18 1011 95 0 0.89 32 22:58 13.06.2020
1487 Rain 19 1010 95 0 2.24 59 22:37 13.06.2020
1488 Rain 19 1010 94 0 2.68 338 22:18 13.06.2020
1489 Rain 19 1010 94 0 4.02 359 21:56 13.06.2020
1490 Rain 19 1010 94 0 4.47 355 21:38 13.06.2020
1491 Rain 19 1010 93 0 1.79 0 21:20 13.06.2020
1492 Rain 19 1010 93 0 0.89 341 20:43 13.06.2020
1493 Rain 19 1011 92 0 2.24 244 20:19 13.06.2020
1494 Rain 19 1011 92 0 2.68 350 19:57 13.06.2020
1495 Rain 19 1009 92 0 4.02 357 19:36 13.06.2020
1496 Rain 19 1009 88 0 6.71 313 19:18 13.06.2020
1497 Rain 19 1009 88 0 4.92 309 18:55 13.06.2020
1498 Rain 20 1008 88 0 2.68 297 18:37 13.06.2020
1499 Rain 23 1008 73 0 2.24 55 18:18 13.06.2020
1500 Rain 25 1008 66 0 3.13 52 17:55 13.06.2020
1501 Rain 25 1008 59 0 3.58 63 17:36 13.06.2020
1502 Rain 28 1003 64 0 0.73 348 17:18 13.06.2020
1503 Rain 28 1003 64 0 0.73 348 16:41 13.06.2020
1504 Rain 29 1007 55 0 1.34 75 16:20 13.06.2020
1505 Rain 30 1007 49 0 0.45 98 15:59 13.06.2020
1506 Rain 32 1007 41 0 2.24 359 15:39 13.06.2020
1507 Rain 31 1008 46 0 0.45 202 15:20 13.06.2020
1508 Rain 30 1008 45 0 0.45 145 14:43 13.06.2020
1509 Clouds 31 1008 42 0 3.13 4 14:23 13.06.2020
1510 Clouds 31 1009 43 0 1.79 180 13:57 13.06.2020
1511 Clouds 30 1009 44 0 3.58 52 13:37 13.06.2020
1512 Rain 30 1009 44 0 3.58 35 13:18 13.06.2020
1513 Rain 26 1010 53 0 0.89 103 12:43 13.06.2020
1514 Rain 25 1011 71 0 3.54 73 12:25 13.06.2020
1515 Rain 28 1010 47 0 0.89 132 11:57 13.06.2020
1516 Rain 28 1010 49 0 1.79 359 11:37 13.06.2020
1517 Rain 28 1010 51 0 2.68 25 11:19 13.06.2020
1518 Rain 28 1010 49 0 3.58 47 10:55 13.06.2020
1519 Rain 24 1012 80 0 2.44 76 10:37 13.06.2020
1520 Clouds 27 1005 66 0 2.56 95 10:18 13.06.2020
1521 Clouds 25 1005 74 0 2.56 95 09:42 13.06.2020
1522 Clouds 22 1005 86 0 2.55 97 09:20 13.06.2020
1523 Clouds 21 1010 79 0 0.89 98 08:46 13.06.2020
1524 Clear 22 1005 88 0 1.97 74 08:28 13.06.2020
1525 Clear 22 1005 93 0 1.97 74 07:50 13.06.2020
1526 Clear 20 1005 10 0 1.73 63 07:27 13.06.2020
1527 Clear 20 1010 78 0 1.79 359 06:47 13.06.2020
1528 Clear 18 1005 10 0 1.66 45 06:27 13.06.2020
1529 Clear 19 1010 85 0 0.89 21 05:42 13.06.2020
1530 Clear 18 1010 85 0 2.68 11 05:23 13.06.2020
1531 Clear 19 1009 83 0 1.34 5 03:47 13.06.2020
1532 Clear 19 1009 81 0 0.45 9 02:53 13.06.2020
1533 Clear 19 1009 79 0 1.34 43 02:29 13.06.2020
1534 Clear 20 1009 77 0 3.13 77 01:41 13.06.2020
1535 Clear 20 1009 75 0 1.79 60 01:18 13.06.2020
1536 Clear 21 1009 73 0 1.79 53 00:42 13.06.2020
1537 Clear 21 1009 72 0 1.79 33 00:23 13.06.2020
1538 Clear 21 1010 74 0 2.99 56 23:41 12.06.2020
1539 Clear 21 1009 69 0 3.07 57 23:19 12.06.2020
1540 Clear 21 1009 67 0 1.79 344 22:58 12.06.2020
1541 Clear 22 1009 66 0 1.34 317 22:39 12.06.2020
1542 Clear 22 1009 65 0 1.34 21 22:19 12.06.2020
1543 Clear 23 1009 61 0 3.42 64 21:47 12.06.2020
1544 Rain 24 1009 58 0 3.58 28 21:24 12.06.2020
1545 Rain 25 1009 55 0 0.45 80 20:58 12.06.2020
1546 Rain 25 1009 52 0 1.79 9 20:40 12.06.2020
1547 Clear 25 1008 52 0 3.13 28 20:22 12.06.2020
1548 Clear 27 1009 45 0 3.13 91 19:56 12.06.2020
1549 Clear 27 1008 48 0 2.68 66 19:38 12.06.2020
1550 Clear 27 1008 48 0 2.24 115 19:18 12.06.2020
1551 Clear 27 1008 49 0 6.26 45 18:39 12.06.2020
1552 Clear 27 1008 47 0 2.24 86 18:19 12.06.2020
1553 Clear 28 1008 45 0 6.26 79 17:58 12.06.2020
1554 Clear 27 1008 39 0 1.79 69 17:38 12.06.2020
1555 Clear 28 1009 42 0 2.24 110 17:18 12.06.2020
1556 Clear 27 1009 42 0 2.24 19 16:41 12.06.2020
1557 Clear 27 1009 42 0 1.79 22 16:20 12.06.2020
1558 Clear 27 1009 46 0 1.34 97 15:48 12.06.2020
1559 Clear 26 1009 49 0 4.02 103 15:25 12.06.2020
1560 Clear 26 1010 53 0 2.24 63 14:56 12.06.2020
1561 Clear 25 1010 54 0 3.13 45 14:38 12.06.2020
1562 Clouds 25 1010 56 0 4.02 69 14:20 12.06.2020
1563 Clouds 23 1011 61 0 3.58 15 13:42 12.06.2020
1564 Clouds 24 1011 57 0 0.45 40 13:21 12.06.2020
1565 Clouds 22 1011 64 0 2.24 9 12:41 12.06.2020
1566 Clouds 22 1011 64 0 2.24 9 12:41 12.06.2020
1567 Clouds 22 1011 64 0 2.24 9 12:41 12.06.2020
1568 Clouds 21 1011 67 0 0.89 36 12:20 12.06.2020
1569 Clouds 20 1012 70 0 0.45 71 11:58 12.06.2020
1570 Clouds 20 1012 73 0 2.76 91 11:40 12.06.2020
1571 Clouds 20 1012 73 0 2.24 40 11:21 12.06.2020
1572 Clouds 19 1012 76 0 2.68 67 10:46 12.06.2020
1573 Clouds 19 1012 76 0 0.45 358 10:25 12.06.2020
1574 Clouds 18 1011 78 0 0.89 52 09:47 12.06.2020
1575 Clouds 18 1011 79 0 1.34 50 09:22 12.06.2020
1576 Clouds 17 1011 82 0 2.68 50 08:46 12.06.2020
1577 Clouds 16 1011 83 0 1.79 42 08:25 12.06.2020
1578 Clouds 16 1011 83 0 1.79 338 07:57 12.06.2020
1579 Clouds 16 1011 83 0 1.85 63 07:39 12.06.2020
1580 Clouds 16 1011 83 0 0.45 46 07:21 12.06.2020
1581 Clouds 16 1011 86 0 1.34 45 06:40 12.06.2020
1582 Clouds 16 1011 87 0 2.24 359 06:19 12.06.2020
1583 Clouds 16 1011 87 0 1.79 359 05:49 12.06.2020
1584 Clouds 16 1011 87 0 1.34 7 05:23 12.06.2020
1585 Clouds 16 1011 86 0 2.68 338 03:47 12.06.2020
1586 Clouds 16 1011 87 0 3.13 343 02:25 12.06.2020
1587 Clouds 16 1011 88 0 0.89 307 01:35 12.06.2020
1588 Clouds 16 1011 89 0 0.45 307 00:59 12.06.2020
1589 Clouds 16 1011 88 0 2.86 54 00:39 12.06.2020
1590 Clouds 16 1011 88 0 3.23 46 00:20 12.06.2020
1591 Clouds 16 1011 88 0 3.23 46 23:56 11.06.2020
1592 Clouds 16 1011 87 0 1.79 323 23:38 11.06.2020
1593 Rain 17 1011 87 0 1.34 316 23:19 11.06.2020
1594 Rain 17 1011 86 0 0.89 327 22:54 11.06.2020
1595 Rain 17 1011 85 0 3.22 45 22:36 11.06.2020
1596 Clouds 18 1011 83 0 2.83 33 22:18 11.06.2020
1597 Clouds 18 1011 80 0 2.83 33 21:42 11.06.2020
1598 Rain 18 1010 78 0 2.89 29 21:20 11.06.2020
1599 Rain 19 1010 74 0 3.18 37 20:57 11.06.2020
1600 Rain 19 1010 73 0 0.89 7 20:39 11.06.2020
1601 Rain 20 1010 71 0 1.34 347 20:20 11.06.2020
1602 Rain 20 1010 67 0 2.24 11 19:43 11.06.2020
1603 Rain 21 1010 65 0 1.34 357 19:22 11.06.2020
1604 Rain 21 1010 63 0 1.79 16 18:57 11.06.2020
1605 Rain 21 1010 64 0 3.13 314 18:39 11.06.2020
1606 Rain 21 1010 63 0 1.34 347 18:19 11.06.2020
1607 Rain 21 1010 64 0 0.45 43 17:55 11.06.2020
1608 Rain 21 1010 63 0 1.79 283 17:37 11.06.2020
1609 Rain 21 1010 62 0 2.24 31 17:18 11.06.2020
1610 Rain 22 1010 56 0 0.45 326 16:43 11.06.2020
1611 Rain 21 1010 56 0 1.79 328 16:25 11.06.2020
1612 Rain 21 1010 61 0 2.68 14 15:58 11.06.2020
1613 Rain 21 1011 59 0 1.34 352 15:39 11.06.2020
1614 Rain 21 1010 59 0 1.34 26 15:21 11.06.2020
1615 Rain 21 1011 56 0 3.13 359 14:46 11.06.2020
1616 Rain 21 1011 56 0 3.13 359 14:46 11.06.2020
1617 Clouds 19 1005 83 0 3.11 14 14:21 11.06.2020
1618 Clouds 18 1005 92 0 2.5 11 13:57 11.06.2020
1619 Clouds 19 1010 62 0 1.34 293 13:39 11.06.2020
1620 Clouds 19 1010 62 0 2.68 348 13:21 11.06.2020
1621 Clouds 19 1011 64 0 2.68 4 12:59 11.06.2020
1622 Clouds 19 1011 66 0 1.34 327 12:39 11.06.2020
1623 Clouds 18 1005 95 0 2.01 18 12:20 11.06.2020
1624 Clouds 17 1011 71 0 0.89 352 11:58 11.06.2020
1625 Clouds 17 1010 71 0 2.01 18 11:40 11.06.2020
1626 Clouds 17 1010 72 0 0.45 323 11:21 11.06.2020
1627 Clouds 17 1010 72 0 0.45 323 11:21 11.06.2020
1628 Clouds 17 1010 74 0 1.34 42 10:57 11.06.2020
1629 Clouds 16 1010 80 0 1.94 15 10:38 11.06.2020
1630 Clouds 15 1010 80 0 2.07 2 10:18 11.06.2020
1631 Clouds 15 1011 81 0 0.45 331 09:42 11.06.2020
1632 Clouds 15 1011 81 0 2.6 348 09:24 11.06.2020
1633 Clouds 15 1011 82 0 0.45 245 08:44 11.06.2020
1634 Clouds 14 1011 81 0 0.45 310 08:21 11.06.2020
1635 Clouds 14 1011 77 0 1.34 319 07:59 11.06.2020
1636 Clouds 14 1011 75 0 2.24 307 07:41 11.06.2020
1637 Rain 14 1011 75 0 1.79 309 07:20 11.06.2020
1638 Rain 14 1011 76 0 1.34 350 06:29 11.06.2020
1639 Rain 13 1011 79 0 0.45 334 05:46 11.06.2020
1640 Clouds 14 1011 76 0 1.34 317 03:59 11.06.2020
1641 Clouds 14 1011 76 0 0.45 314 03:24 11.06.2020
1642 Clouds 14 1011 76 0 0.89 292 02:40 11.06.2020
1643 Rain 14 1011 76 0 1.79 310 01:55 11.06.2020
1644 Clouds 15 1012 65 0 0.89 306 01:31 11.06.2020
1645 Clouds 15 1012 63 0 0.89 28 00:51 11.06.2020
1646 Clouds 15 1012 63 0 1.34 319 00:30 11.06.2020
1647 Clouds 16 1012 61 0 1.79 321 23:50 10.06.2020
1648 Clouds 16 1012 61 0 2.68 2 23:27 10.06.2020
1649 Clouds 16 1012 59 0 2.24 1 22:59 10.06.2020
1650 Clouds 16 1012 58 0 0.89 328 22:40 10.06.2020
1651 Clouds 18 1012 54 0 1.34 52 22:22 10.06.2020
1652 Clouds 18 1012 52 0 4.47 341 21:58 10.06.2020
1653 Clouds 18 1012 51 0 1.79 348 21:40 10.06.2020
1654 Clouds 19 1012 48 0 6.26 359 21:19 10.06.2020
1655 Clouds 19 1012 46 0 2.24 316 20:58 10.06.2020
1656 Clouds 19 1012 44 0 2.68 282 20:40 10.06.2020
1657 Clouds 20 1011 43 0 2.68 4 20:21 10.06.2020
1658 Clouds 20 1011 41 0 5.81 331 19:58 10.06.2020
1659 Clouds 21 1011 38 0 4.02 341 19:38 10.06.2020
1660 Clouds 21 1012 40 0 1.79 335 19:18 10.06.2020
1661 Clouds 21 1011 41 0 0.89 320 18:42 10.06.2020
1662 Clouds 21 1012 42 0 2.68 344 18:22 10.06.2020
1663 Clouds 21 1012 41 0 1.79 324 17:59 10.06.2020
1664 Clouds 21 1012 43 0 2.24 12 17:41 10.06.2020
1665 Clouds 21 1012 45 0 4.02 4 17:20 10.06.2020
1666 Clouds 21 1012 45 0 1.34 344 16:59 10.06.2020
1667 Clouds 21 1013 44 0 2.68 14 16:41 10.06.2020
1668 Rain 21 1013 44 0 1.79 5 16:22 10.06.2020
1669 Rain 21 1013 41 0 2.68 357 15:57 10.06.2020
1670 Rain 22 1013 42 0 2.68 304 15:38 10.06.2020
1671 Rain 22 1013 41 0 0.89 22 15:20 10.06.2020
1672 Rain 22 1013 46 0 2.24 343 14:41 10.06.2020
1673 Rain 22 1013 46 0 3.58 84 14:22 10.06.2020
1674 Rain 22 1013 44 0 5.36 66 13:58 10.06.2020
1675 Rain 23 1008 43 0 4.63 36 13:39 10.06.2020
1676 Rain 21 1014 60 0 1.34 126 13:21 10.06.2020
1677 Rain 21 1014 60 0 1.34 37 12:42 10.06.2020
1678 Clouds 21 1014 61 0 1.79 33 12:20 10.06.2020
1679 Clouds 20 1014 61 0 1.34 34 11:56 10.06.2020
1680 Clouds 20 1014 60 0 1.34 50 11:38 10.06.2020
1681 Clouds 20 1014 62 0 1.34 25 11:19 10.06.2020
1682 Clouds 20 1014 61 0 1.34 346 11:19 10.06.2020
1683 Clouds 19 1014 61 0 1.34 56 10:55 10.06.2020
1684 Clouds 19 1014 62 0 1.34 75 10:36 10.06.2020
1685 Clouds 19 1015 61 0 0.89 67 10:18 10.06.2020
1686 Clouds 18 1015 64 0 1.34 41 09:39 10.06.2020
1687 Clouds 14 1016 81 0 3.9 23 09:21 10.06.2020
1688 Clouds 14 1016 81 0 3.9 23 08:44 10.06.2020
1689 Clouds 13 1015 85 0 3.44 20 08:23 10.06.2020
1690 Clouds 15 1015 65 0 0.89 61 07:54 10.06.2020
1691 Clouds 15 1015 68 0 0.45 51 07:36 10.06.2020
1692 Clouds 15 1015 68 0 0.89 27 07:18 10.06.2020
1693 Clouds 15 1016 60 0 3.58 340 06:44 10.06.2020
1694 Clouds 11 1016 91 0 2.58 7 06:20 10.06.2020
1695 Clouds 11 1016 91 0 2.58 7 05:55 10.06.2020
1696 Clouds 14 1015 70 0 2.45 10 05:23 10.06.2020
1697 Clouds 14 1015 68 0 2.45 10 04:32 10.06.2020
1698 Clouds 15 1015 62 0 2.66 28 02:55 10.06.2020
1699 Clouds 11 1016 87 0 3.05 35 01:59 10.06.2020
1700 Clouds 16 1016 63 0 3.05 35 01:35 10.06.2020
1701 Clouds 17 1016 61 0 3.25 40 00:39 10.06.2020
1702 Clouds 17 1016 60 0 3.5 39 00:21 10.06.2020
1703 Clouds 17 1016 62 0 0.45 47 23:56 09.06.2020
1704 Clouds 17 1016 62 0 0.45 35 23:37 09.06.2020
1705 Clouds 17 1016 63 0 3.21 26 23:19 09.06.2020
1706 Clouds 17 1016 63 0 3.21 26 22:55 09.06.2020
1707 Clouds 17 1016 62 0 3.21 26 22:37 09.06.2020
1708 Rain 18 1016 61 0 3 1 22:18 09.06.2020
1709 Rain 18 1016 60 0 3 1 21:55 09.06.2020
1710 Rain 18 1015 59 0 3 1 21:37 09.06.2020
1711 Rain 19 1015 50 0 0.45 306 21:19 09.06.2020
1712 Rain 19 1015 49 0 3.88 7 20:56 09.06.2020
1713 Rain 19 1015 48 0 3.88 7 20:37 09.06.2020
1714 Rain 20 1015 46 0 2.72 352 20:18 09.06.2020
1715 Rain 20 1015 46 0 1.34 9 19:55 09.06.2020
1716 Rain 20 1015 45 0 1.34 7 19:37 09.06.2020
1717 Clouds 20 1015 44 0 0.45 21 19:18 09.06.2020
1718 Clouds 21 1015 44 0 2.24 14 18:45 09.06.2020
1719 Clouds 21 1009 48 0 1 65 18:26 09.06.2020
1720 Clouds 21 1009 43 0 1 65 17:57 09.06.2020
1721 Clouds 22 1009 42 0 1 65 17:39 09.06.2020
1722 Rain 22 1010 40 0 2.86 104 17:21 09.06.2020
1723 Rain 24 1009 37 0 2.86 104 16:57 09.06.2020
1724 Rain 22 1015 45 0 0.89 120 16:39 09.06.2020
1725 Rain 22 1015 39 0 0.89 33 16:20 09.06.2020
1726 Rain 23 1010 42 0 4.01 70 15:40 09.06.2020
1727 Rain 23 1016 33 0 0.89 21 15:22 09.06.2020
1728 Rain 23 1016 33 0 0.89 21 15:22 09.06.2020
1729 Rain 23 1016 35 0 4.47 317 14:59 09.06.2020
1730 Rain 23 1016 37 0 3.58 309 14:39 09.06.2020
1731 Clouds 23 1016 35 0 1.79 14 14:19 09.06.2020
1732 Rain 22 1015 44 0 0.45 315 13:55 09.06.2020
1733 Rain 21 1016 50 0 1.34 50 13:37 09.06.2020
1734 Rain 21 1017 51 0 1.79 101 13:19 09.06.2020
1735 Rain 21 1017 52 0 2.24 27 12:42 09.06.2020
1736 Clouds 21 1016 52 0 1.79 100 12:20 09.06.2020
1737 Clouds 21 1016 53 0 1.34 97 11:58 09.06.2020
1738 Clouds 20 1016 54 0 1.34 46 11:40 09.06.2020
1739 Rain 20 1017 54 0 1.34 120 11:20 09.06.2020
1740 Rain 19 1017 57 0 0.89 94 10:55 09.06.2020
1741 Rain 19 1017 57 0 0.89 94 10:55 09.06.2020
1742 Rain 19 1017 57 0 0.89 94 10:55 09.06.2020
1743 Rain 19 1017 59 0 0.89 59 10:36 09.06.2020
1744 Rain 19 1016 59 0 0.89 115 10:18 09.06.2020
1745 Rain 18 1016 67 0 2.38 11 09:41 09.06.2020
1746 Clouds 17 1016 71 0 2.32 353 09:22 09.06.2020
1747 Clear 16 1015 67 0 2.09 350 08:56 09.06.2020
1748 Clear 15 1016 76 0 2.09 350 08:37 09.06.2020
1749 Clouds 16 1016 61 0 2.05 331 08:19 09.06.2020
1750 Clouds 15 1016 68 0 0.89 285 07:38 09.06.2020
1751 Clouds 14 1016 69 0 1.34 344 07:19 09.06.2020
1752 Clouds 13 1016 72 0 1.57 318 06:53 09.06.2020
1753 Clouds 12 1016 73 0 1.34 290 06:33 09.06.2020
1754 Clouds 11 1015 79 0 0.89 321 05:23 09.06.2020
1755 Clouds 12 1015 76 0 0.9 338 03:19 09.06.2020
1756 Clouds 12 1015 75 0 0.1 183 01:42 09.06.2020
1757 Clouds 12 1015 74 0 1.34 310 01:19 09.06.2020
1758 Clouds 13 1015 74 0 0.34 129 00:49 09.06.2020
1759 Clouds 13 1015 72 0 0.6 99 00:20 09.06.2020
1760 Clouds 14 1015 70 0 0.6 99 23:58 08.06.2020
1761 Clouds 14 1015 69 0 0.6 99 23:38 08.06.2020
1762 Clear 14 1015 68 0 0.48 75 23:19 08.06.2020
1763 Clear 15 1015 65 0 0.48 75 22:42 08.06.2020
1764 Clear 16 1015 63 0 0.26 20 22:23 08.06.2020
1765 Clear 16 1014 61 0 0.26 20 21:58 08.06.2020
1766 Clear 16 1015 61 0 0.26 20 21:58 08.06.2020
1767 Clear 17 1014 58 0 0.26 20 21:40 08.06.2020
1768 Clear 17 1014 56 0 0.34 22 21:22 08.06.2020
1769 Clear 18 1014 53 0 0.89 326 20:57 08.06.2020
1770 Clear 19 1014 50 0 1.79 330 20:39 08.06.2020
1771 Clear 19 1014 51 0 1.79 299 20:39 08.06.2020
1772 Rain 19 1014 47 0 0.89 282 20:20 08.06.2020
1773 Rain 19 1013 45 0 2.68 344 19:59 08.06.2020
1774 Rain 20 1014 42 0 0.68 197 19:41 08.06.2020
1775 Rain 21 1013 41 0 0.92 189 19:20 08.06.2020
1776 Rain 21 1014 37 0 0.45 344 18:41 08.06.2020
1777 Rain 21 1013 37 0 0.97 174 18:19 08.06.2020
1778 Rain 21 1014 39 0 0.97 174 17:57 08.06.2020
1779 Rain 22 1014 37 0 0.97 174 17:39 08.06.2020
1780 Rain 22 1014 36 0 1.26 206 17:19 08.06.2020
1781 Rain 22 1014 37 0 1.26 206 16:46 08.06.2020
1782 Rain 21 1014 37 0 1.58 213 16:25 08.06.2020
1783 Rain 22 1014 38 0 1.58 213 15:59 08.06.2020
1784 Rain 21 1014 38 0 1.79 328 15:41 08.06.2020
1785 Rain 21 1013 37 0 4.02 299 15:20 08.06.2020
1786 Rain 21 1008 44 0 1.72 228 14:56 08.06.2020
1787 Rain 21 1008 44 0 1.72 228 14:38 08.06.2020
1788 Rain 21 1007 45 0 1.86 258 14:18 08.06.2020
1789 Rain 21 1007 45 0 1.86 258 13:42 08.06.2020
1790 Clouds 21 1007 45 0 2.06 269 13:21 08.06.2020
1791 Clouds 21 1013 38 0 2.06 269 12:42 08.06.2020
1792 Clear 20 1014 46 0 0.89 68 12:20 08.06.2020
1793 Clear 20 1014 46 0 0.89 76 11:58 08.06.2020
1794 Clear 19 1014 47 0 0.45 126 11:40 08.06.2020
1795 Clear 20 1014 48 0 0.45 345 11:21 08.06.2020
1796 Clear 19 1014 50 0 2.45 270 10:56 08.06.2020
1797 Clear 19 1014 49 0 0.45 337 10:37 08.06.2020
1798 Clear 19 1014 53 0 0.45 281 10:19 08.06.2020
1799 Clear 18 1014 54 0 0.45 63 09:47 08.06.2020
1800 Clear 16 1013 62 0 1.92 287 09:23 08.06.2020
1801 Clear 15 1012 65 0 1.92 287 08:57 08.06.2020
1802 Clear 14 1012 70 0 1.92 287 08:39 08.06.2020
1803 Clouds 16 1007 68 0 1.76 283 08:19 08.06.2020
1804 Clouds 12 1007 90 0 1.76 283 07:39 08.06.2020
1805 Clouds 14 1013 65 0 1.56 271 07:21 08.06.2020
1806 Clouds 10 1012 77 0 1.56 271 06:41 08.06.2020
1807 Clouds 9 1012 79 0 1.38 264 06:21 08.06.2020
1808 Clouds 9 1012 80 0 1.38 264 05:42 08.06.2020
1809 Clouds 10 1011 74 0 1.85 279 03:29 08.06.2020
1810 Clouds 10 1011 74 0 0.89 177 02:27 08.06.2020
1811 Clouds 10 1011 73 0 2.62 275 01:45 08.06.2020
1812 Clouds 10 1011 72 0 2.54 264 01:20 08.06.2020
1813 Clouds 11 1011 71 0 2.21 264 00:28 08.06.2020
1814 Clouds 12 1011 68 0 2.21 264 23:40 07.06.2020
1815 Clouds 12 1011 66 0 1.62 265 23:19 07.06.2020
1816 Clouds 12 1011 65 0 1.62 265 22:58 07.06.2020
1817 Clouds 14 1011 62 0 1.62 265 22:38 07.06.2020
1818 Clouds 14 1010 61 0 1.29 284 22:19 07.06.2020
1819 Clouds 15 1010 58 0 1.29 284 21:58 07.06.2020
1820 Clouds 16 1010 52 0 1.77 300 21:37 07.06.2020
1821 Clouds 16 1010 48 0 1.77 300 21:19 07.06.2020
1822 Clouds 18 1009 41 0 0.89 285 20:54 07.06.2020
1823 Clouds 18 1009 40 0 2.24 245 20:36 07.06.2020
1824 Clouds 19 1003 40 0 1.44 266 20:18 07.06.2020
1825 Clouds 18 1009 52 0 0.45 294 19:54 07.06.2020
1826 Clouds 20 1003 38 0 1.44 266 19:36 07.06.2020
1827 Clouds 20 1008 38 0 1.75 283 19:18 07.06.2020
1828 Clouds 20 1008 37 0 0.89 324 18:40 07.06.2020
1829 Clouds 20 1008 38 0 3.58 293 18:21 07.06.2020
1830 Clouds 21 1008 36 0 2.68 307 17:58 07.06.2020
1831 Clouds 21 1008 33 0 3.58 29 17:40 07.06.2020
1832 Clouds 20 1008 62 0 1.34 106 17:21 07.06.2020
1833 Clouds 22 1001 34 0 4.1 274 16:44 07.06.2020
1834 Clouds 19 1008 60 0 1.79 247 16:22 07.06.2020
1835 Clouds 22 1001 38 0 3.67 237 15:44 07.06.2020
1836 Clouds 22 1001 34 0 3.89 215 15:23 07.06.2020
1837 Clouds 19 1008 58 0 1.79 323 14:59 07.06.2020
1838 Clouds 19 1008 58 0 1.79 323 14:59 07.06.2020
1839 Clouds 19 1008 56 0 1.34 225 14:36 07.06.2020
1840 Clouds 22 1001 37 0 4.19 215 14:18 07.06.2020
1841 Clouds 22 1001 37 0 4.19 215 14:18 07.06.2020
1842 Clouds 19 1008 56 0 4.19 215 13:44 07.06.2020
1843 Clouds 19 1008 56 0 4.19 215 13:44 07.06.2020
1844 Clouds 19 1008 56 0 4.19 215 13:44 07.06.2020
1845 Clouds 19 1008 56 0 4.19 215 13:44 07.06.2020
1846 Clouds 22 1000 35 0 4.41 220 13:19 07.06.2020
1847 Clouds 20 1007 52 0 2.24 260 12:44 07.06.2020
1848 Clouds 19 1007 58 0 2.24 288 12:25 07.06.2020
1849 Clouds 20 1000 37 0 4.52 220 11:56 07.06.2020
1850 Clouds 19 1007 100 0 4.52 220 11:38 07.06.2020
1851 Clouds 20 1000 37 0 4.52 220 11:38 07.06.2020
1852 Clouds 18 1005 52 0 1.34 98 11:20 07.06.2020
1853 Clouds 20 1000 45 0 4.22 224 10:57 07.06.2020
1854 Clouds 17 1007 72 0 1.79 176 10:39 07.06.2020
1855 Clouds 16 1007 77 0 0.89 290 10:19 07.06.2020
1856 Clouds 16 1007 77 0 0.89 290 10:19 07.06.2020
1857 Clouds 15 1007 80 0 1.34 244 09:56 07.06.2020
1858 Clouds 14 1007 83 0 0.45 271 09:37 07.06.2020
1859 Clouds 13 1007 84 0 0.89 136 09:19 07.06.2020
1860 Clouds 12 1000 99 0 2.98 192 08:44 07.06.2020
1861 Clouds 12 1000 99 0 2.66 205 08:23 07.06.2020
1862 Clouds 12 1000 99 0 2.66 205 08:23 07.06.2020
1863 Clouds 13 1005 78 0 0.45 132 07:46 07.06.2020
1864 Clouds 12 1005 80 0 0.45 118 07:28 07.06.2020
1865 Clouds 10 1005 83 0 2.46 199 06:25 07.06.2020
1866 Clouds 10 1005 84 0 0.45 118 05:34 07.06.2020
1867 Clear 8 1004 87 0 3.05 193 04:19 07.06.2020
1868 Clear 10 1005 84 0 3.43 187 02:31 07.06.2020
1869 Clear 10 1005 81 0 3.45 174 01:44 07.06.2020
1870 Clear 11 1005 81 0 3.34 168 01:24 07.06.2020
1871 Clear 11 1004 80 0 0.45 112 00:41 07.06.2020
1872 Clear 12 1004 80 0 2.69 178 00:18 07.06.2020
1873 Clear 11 1004 80 0 0.45 159 00:18 07.06.2020
1874 Clear 12 1004 81 0 2.69 178 23:57 06.06.2020
1875 Clear 12 1004 80 0 1.79 183 23:36 06.06.2020
1876 Clear 12 1004 80 0 3.13 170 23:18 06.06.2020
1877 Clear 12 1004 78 0 2.68 210 22:56 06.06.2020
1878 Clear 12 1004 76 0 0.89 196 22:37 06.06.2020
1879 Clear 12 1004 74 0 0.45 179 22:18 06.06.2020
1880 Clear 13 1004 71 0 0.45 193 21:43 06.06.2020
1881 Clear 14 1003 67 0 1.34 95 21:22 06.06.2020
1882 Clear 16 1003 61 0 0.89 235 20:56 06.06.2020
1883 Clear 16 1003 57 0 2.24 186 20:37 06.06.2020
1884 Clouds 17 1003 54 0 2.07 223 20:18 06.06.2020
1885 Clouds 17 1003 50 0 0.89 16 19:56 06.06.2020
1886 Clouds 18 1003 49 0 0.45 172 19:37 06.06.2020
1887 Clouds 17 1003 50 0 1.34 158 19:19 06.06.2020
1888 Clouds 14 1003 83 0 1.34 229 18:43 06.06.2020
1889 Rain 18 1003 50 0 1.79 129 18:24 06.06.2020
1890 Rain 18 1003 50 0 5.09 236 17:58 06.06.2020
1891 Rain 18 1002 51 0 1.79 135 17:39 06.06.2020
1892 Rain 16 1002 49 0 2.24 180 17:19 06.06.2020
1893 Rain 16 1002 46 0 1.79 186 16:44 06.06.2020
1894 Rain 15 1002 54 0 1.79 254 16:22 06.06.2020
1895 Rain 15 1002 52 0 4.92 324 15:58 06.06.2020
1896 Rain 16 996 58 0 6.79 230 15:40 06.06.2020
1897 Rain 18 995 46 0 6.77 218 15:20 06.06.2020
1898 Rain 17 1002 51 0 4.47 286 14:44 06.06.2020
1899 Rain 14 995 64 0 6.16 208 14:25 06.06.2020
1900 Rain 18 1001 43 0 3.58 156 13:59 06.06.2020
1901 Rain 18 1003 58 0 4.47 259 13:41 06.06.2020
1902 Rain 18 1002 52 0 4.92 242 13:18 06.06.2020
1903 Rain 18 995 42 0 5.21 224 12:43 06.06.2020
1904 Rain 18 995 42 0 5.21 224 12:43 06.06.2020
1905 Rain 17 1002 59 0 5.32 213 12:24 06.06.2020
1906 Rain 17 995 45 0 5.32 213 11:59 06.06.2020
1907 Rain 16 1002 56 0 4.02 285 11:39 06.06.2020
1908 Clear 17 995 41 0 4.99 211 11:20 06.06.2020
1909 Clear 15 1002 56 0 3.58 243 10:59 06.06.2020
1910 Clear 17 995 42 0 4.99 211 10:40 06.06.2020
1911 Clear 17 995 43 0 4.87 219 10:21 06.06.2020
1912 Clear 14 1002 65 0 3.13 20 09:58 06.06.2020
1913 Clear 17 995 42 0 4.87 219 09:40 06.06.2020
1914 Clear 13 1002 71 0 2.24 257 09:21 06.06.2020
1915 Clear 13 994 65 0 5.75 225 08:45 06.06.2020
1916 Clear 12 994 69 0 5.85 217 08:24 06.06.2020
1917 Clear 11 994 84 0 5.85 217 07:55 06.06.2020
1918 Clear 11 994 85 0 5.85 217 07:36 06.06.2020
1919 Clear 10 999 80 0 2.68 234 07:18 06.06.2020
1920 Clear 9 999 82 0 0.89 194 06:42 06.06.2020
1921 Clear 8 999 86 0 2.24 167 06:23 06.06.2020
1922 Clear 8 999 88 0 4.91 208 05:32 06.06.2020
1923 Clear 7 998 87 0 4.42 208 04:47 06.06.2020
1924 Clear 8 998 85 0 4.44 217 03:28 06.06.2020
1925 Clouds 9 998 82 0 0.89 208 01:59 06.06.2020
1926 Clouds 9 997 81 0 4.47 239 01:21 06.06.2020
1927 Clouds 10 997 81 0 3.13 200 00:56 06.06.2020
1928 Clouds 10 996 80 0 2.24 254 00:37 06.06.2020
1929 Clouds 10 996 80 0 3.58 232 00:19 06.06.2020
1930 Clouds 11 995 81 0 3.58 232 23:39 05.06.2020
1931 Clouds 10 995 82 0 0.89 207 23:19 05.06.2020
1932 Clouds 11 994 81 0 1.79 155 22:56 05.06.2020
1933 Clouds 11 994 81 0 1.34 148 22:38 05.06.2020
1934 Clouds 11 994 81 0 4.94 219 22:19 05.06.2020
1935 Clouds 11 994 81 0 4.94 219 22:19 05.06.2020
1936 Clouds 11 994 81 0 4.94 219 22:19 05.06.2020
1937 Clouds 12 994 84 0 1.79 279 21:43 05.06.2020
1938 Rain 12 993 82 0 0.89 203 21:23 05.06.2020
1939 Rain 13 993 81 0 0.45 204 20:58 05.06.2020
1940 Rain 13 993 80 0 3.58 98 20:40 05.06.2020
1941 Rain 13 993 79 0 1.34 121 20:21 05.06.2020
1942 Rain 14 993 71 0 2.68 146 19:44 05.06.2020
1943 Rain 16 993 52 0 4.92 190 19:24 05.06.2020
1944 Rain 17 993 50 0 1.79 180 18:59 05.06.2020
1945 Rain 18 993 46 0 4.92 156 18:39 05.06.2020
1946 Rain 18 993 44 0 3.58 88 18:20 05.06.2020
1947 Rain 18 993 45 0 2.68 124 17:58 05.06.2020
1948 Rain 18 993 45 0 2.68 124 17:58 05.06.2020
1949 Rain 19 993 44 0 2.68 200 17:40 05.06.2020
1950 Rain 18 994 47 0 4.47 179 17:19 05.06.2020
1951 Rain 18 994 47 0 6.71 184 16:41 05.06.2020
1952 Rain 19 994 42 0 6.36 203 16:23 05.06.2020
1953 Rain 20 994 35 0 3.13 213 15:57 05.06.2020
1954 Rain 20 994 31 0 6.36 203 15:38 05.06.2020
1955 Clouds 18 996 47 0 4.47 276 15:20 05.06.2020
1956 Clouds 19 989 39 0 4.46 202 14:56 05.06.2020
1957 Clouds 17 996 54 0 4.02 285 14:38 05.06.2020
1958 Clouds 17 996 57 0 3.13 284 14:19 05.06.2020
1959 Clouds 19 989 41 0 4.25 212 13:44 05.06.2020
1960 Clouds 18 990 46 0 4.29 222 13:26 05.06.2020
1961 Clouds 16 990 52 0 4.29 222 12:55 05.06.2020
1962 Clouds 18 995 43 0 2.68 244 12:37 05.06.2020
1963 Clouds 14 997 74 0 2.24 89 12:18 05.06.2020
1964 Clouds 16 996 53 0 1.79 323 11:42 05.06.2020
1965 Clouds 15 996 56 0 2.24 242 11:23 05.06.2020
1966 Clouds 13 990 72 0 4.62 253 10:57 05.06.2020
1967 Clouds 14 991 71 0 4.62 253 10:38 05.06.2020
1968 Clouds 14 991 71 0 4.83 266 10:19 05.06.2020
1969 Clouds 14 991 77 0 4.83 266 09:56 05.06.2020
1970 Clouds 12 997 93 0 0.89 320 09:37 05.06.2020
1971 Clouds 12 997 93 0 0.89 320 09:37 05.06.2020
1972 Clouds 11 997 93 0 0.45 0 09:18 05.06.2020
1973 Clouds 12 990 89 0 5.43 276 08:56 05.06.2020
1974 Clouds 12 990 96 0 5.43 276 08:38 05.06.2020
1975 Clouds 12 990 95 0 5.4 278 08:18 05.06.2020
1976 Clouds 12 995 77 0 5.81 184 07:44 05.06.2020
1977 Rain 12 995 79 0 0.45 203 07:25 05.06.2020
1978 Rain 11 995 83 0 0.45 165 06:37 05.06.2020
1979 Clouds 12 994 82 0 4.47 22 05:22 05.06.2020
1980 Clouds 13 993 81 0 3.25 264 04:27 05.06.2020
1981 Clouds 13 993 81 0 2.78 280 03:29 05.06.2020
1982 Clouds 13 993 79 0 3.59 290 02:28 05.06.2020
1983 Clouds 13 988 10 0 3.59 290 01:58 05.06.2020
1984 Clouds 13 987 10 0 3.59 290 01:30 05.06.2020
1985 Clouds 14 993 79 0 0.45 8 00:43 05.06.2020
1986 Clouds 15 993 79 0 3.13 292 00:21 05.06.2020
1987 Clouds 14 987 10 0 5.38 286 23:47 04.06.2020
1988 Clouds 15 993 79 0 4.68 276 23:29 04.06.2020
1989 Clouds 15 992 80 0 4.68 276 22:57 04.06.2020
1990 Clouds 15 992 80 0 4.68 276 22:57 04.06.2020
1991 Clouds 15 992 82 0 3.58 211 22:38 04.06.2020
1992 Clouds 15 992 82 0 3.59 264 22:20 04.06.2020
1993 Clouds 15 992 81 0 0.45 255 21:57 04.06.2020
1994 Clouds 15 992 79 0 3.59 264 21:38 04.06.2020
1995 Rain 15 992 78 0 4.1 271 21:19 04.06.2020
1996 Rain 16 992 74 0 4.1 271 20:55 04.06.2020
1997 Rain 16 992 73 0 1.79 255 20:37 04.06.2020
1998 Rain 16 992 73 0 0.89 247 20:19 04.06.2020
1999 Rain 17 992 73 0 3.42 265 19:41 04.06.2020
2000 Rain 18 992 70 0 2.24 306 19:21 04.06.2020
2001 Rain 18 992 77 0 4.27 239 18:57 04.06.2020
2002 Rain 18 992 74 0 0.45 196 18:38 04.06.2020
2003 Rain 18 992 74 0 3.1 205 18:20 04.06.2020
2004 Rain 18 992 74 0 3.1 205 17:43 04.06.2020
2005 Rain 19 992 72 0 2.1 152 17:22 04.06.2020
2006 Rain 19 992 71 0 0.89 252 16:58 04.06.2020
2007 Rain 19 992 71 0 2.1 152 16:40 04.06.2020
2008 Rain 19 993 73 0 1.34 254 16:20 04.06.2020
2009 Rain 19 993 71 0 1.62 110 15:44 04.06.2020
2010 Rain 19 993 69 0 1.19 51 15:26 04.06.2020
2011 Rain 20 993 63 0 1.19 51 14:42 04.06.2020
2012 Rain 21 993 56 0 2.68 293 14:22 04.06.2020
2013 Rain 22 993 53 0 0.89 166 13:58 04.06.2020
2014 Rain 21 994 56 0 1.34 122 13:40 04.06.2020
2015 Rain 22 994 50 0 0.45 182 13:20 04.06.2020
2016 Rain 22 994 48 0 1.79 213 12:59 04.06.2020
2017 Rain 22 994 47 0 3.13 201 12:40 04.06.2020
2018 Rain 21 988 61 0 3.59 143 12:22 04.06.2020
2019 Rain 22 994 51 0 1.34 158 11:55 04.06.2020
2020 Rain 21 994 49 0 1.34 175 11:37 04.06.2020
2021 Rain 21 994 47 0 0.89 93 11:19 04.06.2020
2022 Rain 21 989 63 0 4.03 144 10:42 04.06.2020
2023 Rain 22 989 62 0 3.92 126 10:23 04.06.2020
2024 Rain 22 989 66 0 3.92 126 09:58 04.06.2020
2025 Clouds 22 995 46 0 3.13 79 09:40 04.06.2020
2026 Clouds 16 996 79 0 0.89 110 09:22 04.06.2020
2027 Clouds 17 990 10 0 3.22 116 08:44 04.06.2020
2028 Clouds 16 990 10 0 2.84 119 08:26 04.06.2020
2029 Clouds 16 996 70 0 0.45 97 07:47 04.06.2020
2030 Clouds 17 996 67 0 2.24 87 07:27 04.06.2020
2031 Clouds 15 996 80 0 2.35 127 06:44 04.06.2020
2032 Clouds 15 996 80 0 0.89 81 06:25 04.06.2020
2033 Clouds 15 996 80 0 0.89 81 06:25 04.06.2020
2034 Clouds 14 997 81 0 0.45 50 05:39 04.06.2020
2035 Clouds 14 997 82 0 1.3 146 05:20 04.06.2020
2036 Clouds 14 998 81 0 1.04 154 03:25 04.06.2020
2037 Clouds 15 999 78 0 1.34 100 01:56 04.06.2020
2038 Clouds 15 999 78 0 0.45 90 01:20 04.06.2020
2039 Clouds 15 1000 71 0 2 82 00:48 04.06.2020
2040 Clouds 15 1001 71 0 1.53 95 23:44 03.06.2020
2041 Clouds 15 1001 71 0 1.29 155 23:21 03.06.2020
2042 Clouds 15 1001 70 0 1.29 155 22:59 03.06.2020
2043 Clouds 15 1001 70 0 1.29 155 22:39 03.06.2020
2044 Rain 16 1001 70 0 1.76 227 22:19 03.06.2020
2045 Rain 17 1001 68 0 1.76 227 21:57 03.06.2020
2046 Rain 17 1001 66 0 1.76 227 21:39 03.06.2020
2047 Rain 18 1001 61 0 2.68 115 21:21 03.06.2020
2048 Rain 19 1002 57 0 0.45 79 20:56 03.06.2020
2049 Rain 19 1002 55 0 2.24 107 20:38 03.06.2020
2050 Rain 20 1002 54 0 2.24 42 20:19 03.06.2020
2051 Rain 21 1002 51 0 2.68 43 19:56 03.06.2020
2052 Rain 20 1002 56 0 2.24 93 19:37 03.06.2020
2053 Clouds 20 1002 55 0 3.58 66 19:19 03.06.2020
2054 Clouds 20 1002 55 0 1.79 47 18:54 03.06.2020
2055 Clouds 21 1002 54 0 4.02 4 18:36 03.06.2020
2056 Rain 21 1002 48 0 5.36 359 18:18 03.06.2020
2057 Rain 23 1002 40 0 1.79 19 17:41 03.06.2020
2058 Rain 24 1002 36 0 2.24 5 17:21 03.06.2020
2059 Rain 24 1002 33 0 0.45 340 16:55 03.06.2020
2060 Rain 25 1002 32 0 4.02 268 16:37 03.06.2020
2061 Clouds 26 1002 30 0 5.36 223 16:18 03.06.2020
2062 Clouds 24 1003 50 0 2.37 123 15:41 03.06.2020
2063 Clouds 27 1003 34 0 0.45 123 15:21 03.06.2020
2064 Clouds 27 1003 34 0 2.44 126 14:57 03.06.2020
2065 Clouds 26 1003 33 0 0.89 47 14:38 03.06.2020
2066 Clouds 24 1005 49 0 2.53 105 14:20 03.06.2020
2067 Clouds 24 1004 51 0 2.82 118 13:38 03.06.2020
2068 Clouds 23 1005 54 0 2.87 112 13:19 03.06.2020
2069 Clouds 26 1005 37 0 0.89 270 12:43 03.06.2020
2070 Rain 26 1005 37 0 1.34 117 12:22 03.06.2020
2071 Rain 25 1006 39 0 0.89 41 11:57 03.06.2020
2072 Rain 25 1006 39 0 0.89 129 11:38 03.06.2020
2073 Rain 23 1006 45 0 1.67 104 11:20 03.06.2020
2074 Rain 23 1007 45 0 0.89 150 10:41 03.06.2020
2075 Clouds 22 1007 43 0 0.89 212 10:22 03.06.2020
2076 Clouds 22 1007 53 0 0.89 129 09:45 03.06.2020
2077 Rain 18 1007 60 0 1.41 140 09:21 03.06.2020
2078 Rain 18 1008 62 0 1.41 140 08:59 03.06.2020
2079 Rain 18 1008 62 0 0.45 154 08:40 03.06.2020
2080 Rain 18 1008 66 0 1.6 151 08:19 03.06.2020
2081 Rain 17 1008 67 0 1.6 151 07:43 03.06.2020
2082 Rain 15 1008 71 0 0.45 143 07:20 03.06.2020
2083 Rain 15 1008 67 0 1.39 137 06:54 03.06.2020
2084 Rain 14 1008 70 0 1.28 138 06:32 03.06.2020
2085 Rain 14 1008 70 0 1.28 138 05:47 03.06.2020
2086 Rain 13 1008 71 0 1.76 120 04:59 03.06.2020
2087 Rain 14 1009 69 0 2.09 96 03:51 03.06.2020
2088 Clouds 14 1009 67 0 1.19 97 03:21 03.06.2020
2089 Clouds 15 1009 65 0 0.85 109 02:24 03.06.2020
2090 Clouds 17 1010 60 0 0.57 90 00:49 03.06.2020
2091 Clouds 17 1010 58 0 0.99 68 00:26 03.06.2020
2092 Clouds 18 1011 55 0 0.99 68 23:52 02.06.2020
2093 Clouds 19 1011 52 0 1.53 39 23:28 02.06.2020
2094 Clouds 19 1011 53 0 1.53 39 22:58 02.06.2020
2095 Clouds 19 1012 59 0 1.53 39 22:39 02.06.2020
2096 Clouds 20 1011 46 0 1.34 269 22:19 02.06.2020
2097 Clouds 20 1011 46 0 1.81 13 21:57 02.06.2020
2098 Clouds 21 1011 46 0 1.81 13 21:38 02.06.2020
2099 Clouds 22 1011 43 0 1.4 11 21:20 02.06.2020
2100 Clouds 22 1011 41 0 1.4 11 20:58 02.06.2020
2101 Clouds 23 1011 37 0 1.4 11 20:40 02.06.2020
2102 Clouds 24 1012 34 0 0.89 232 20:21 02.06.2020
2103 Clouds 25 1011 36 0 0.45 0 19:44 02.06.2020
2104 Clouds 25 1011 34 0 0.45 0 19:26 02.06.2020
2105 Clouds 25 1011 38 0 0.45 45 19:26 02.06.2020
2106 Clouds 26 1011 33 0 0.89 0 18:58 02.06.2020
2107 Clouds 26 1011 34 0 0.45 315 18:58 02.06.2020
2108 Clouds 26 1012 34 0 0.45 270 18:40 02.06.2020
2109 Clouds 23 1014 49 0 1.31 344 18:20 02.06.2020
2110 Clouds 23 1014 49 0 1.31 344 17:57 02.06.2020
2111 Clouds 23 1014 49 0 1.31 344 17:39 02.06.2020
2112 Clouds 24 1015 46 0 1.22 343 17:20 02.06.2020
2113 Clouds 24 1015 46 0 1.22 343 16:55 02.06.2020
2114 Clouds 24 1015 46 0 1.22 343 16:37 02.06.2020
2115 Clouds 24 1016 46 0 1.14 2 16:19 02.06.2020
2116 Clouds 24 1016 46 0 1.14 2 15:40 02.06.2020
2117 Clear 24 1017 45 0 1.28 14 15:22 02.06.2020
2118 Clear 26 1016 33 0 0.89 54 14:48 02.06.2020
2119 Clear 26 1017 35 0 0.45 157 14:28 02.06.2020
2120 Clear 26 1017 35 0 0.45 157 13:57 02.06.2020
2121 Clear 25 1018 27 0 2.68 36 13:37 02.06.2020
2122 Clear 25 1018 28 0 1.79 354 13:19 02.06.2020
2123 Clear 24 1018 28 0 0.89 83 12:57 02.06.2020
2124 Clear 24 1019 28 0 2.68 218 12:38 02.06.2020
2125 Clear 22 1019 49 0 0.81 18 12:20 02.06.2020
2126 Clear 23 1018 38 0 0.45 157 11:54 02.06.2020
2127 Clear 23 1019 31 0 3.13 25 11:36 02.06.2020
2128 Clear 22 1019 39 0 0.89 23 11:18 02.06.2020
2129 Clear 21 1019 44 0 0.54 32 10:44 02.06.2020
2130 Clear 21 1020 42 0 0.45 52 10:25 02.06.2020
2131 Clear 21 1020 44 0 0.45 337 09:55 02.06.2020
2132 Clear 20 1020 46 0 0.45 51 09:36 02.06.2020
2133 Clear 17 1020 53 0 1.02 61 09:18 02.06.2020
2134 Clear 16 1020 55 0 1.02 61 08:45 02.06.2020
2135 Clear 16 1021 57 0 0.89 98 08:20 02.06.2020
2136 Clear 15 1021 59 0 0.97 46 07:39 02.06.2020
2137 Clear 14 1021 64 0 1.02 22 07:20 02.06.2020
2138 Clear 14 1021 60 0 0.89 317 06:43 02.06.2020
2139 Clear 10 1021 63 0 0.99 21 05:54 02.06.2020
2140 Clear 10 1021 82 0 1.27 44 04:57 02.06.2020
2141 Clear 13 1021 63 0 2.18 53 03:20 02.06.2020
2142 Clear 14 1021 62 0 0.45 88 02:20 02.06.2020
2143 Clear 14 1021 64 0 2.48 59 00:58 02.06.2020
2144 Clear 16 1022 53 0 0.45 2 00:25 02.06.2020
2145 Clear 15 1021 59 0 2.96 55 23:54 01.06.2020
2146 Clear 12 1023 74 0 2.96 55 23:36 01.06.2020
2147 Clear 12 1023 74 0 2.96 55 23:36 01.06.2020
2148 Clear 16 1021 53 0 3.62 52 23:18 01.06.2020
2149 Clear 13 1023 73 0 3.62 52 22:41 01.06.2020
2150 Clear 18 1022 50 0 0.45 53 22:21 01.06.2020
2151 Clear 17 1021 52 0 3.92 49 22:21 01.06.2020
2152 Clear 18 1021 46 0 0.45 0 21:58 01.06.2020
2153 Clear 19 1021 46 0 0.45 270 21:39 01.06.2020
2154 Clear 21 1021 40 0 2.24 31 21:19 01.06.2020
2155 Clear 21 1021 36 0 4.02 25 20:55 01.06.2020
2156 Clear 21 1021 36 0 4.02 25 20:55 01.06.2020
2157 Clear 21 1020 43 0 0.89 135 20:37 01.06.2020
2158 Clear 23 1021 28 0 3.13 350 20:19 01.06.2020
2159 Clear 22 1020 44 0 0.45 270 19:43 01.06.2020
2160 Clear 24 1021 24 0 2.68 49 19:21 01.06.2020
2161 Clear 23 1020 35 0 1.34 90 18:59 01.06.2020
2162 Clear 23 1020 33 0 0.89 90 18:39 01.06.2020
2163 Clear 24 1021 28 0 1.79 117 18:20 01.06.2020
2164 Clear 21 1023 53 0 4.16 47 17:58 01.06.2020
2165 Clear 21 1023 53 0 4.16 47 17:40 01.06.2020
2166 Clear 24 1021 29 0 2.24 54 17:19 01.06.2020
2167 Clear 24 1022 30 0 1.34 32 16:42 01.06.2020
2168 Clear 24 1022 31 0 1.79 60 16:22 01.06.2020
2169 Clear 24 1022 33 0 1.79 136 15:56 01.06.2020
2170 Clear 24 1022 34 0 1.79 126 15:38 01.06.2020
2171 Clear 23 1022 34 0 2.24 66 15:19 01.06.2020
2172 Clear 23 1022 37 0 1.79 56 14:57 01.06.2020
2173 Clear 23 1022 36 0 1.79 66 14:38 01.06.2020
2174 Clear 23 1023 36 0 1.79 27 14:20 01.06.2020
2175 Clear 22 1023 38 0 1.79 38 13:44 01.06.2020
2176 Clear 23 1024 34 0 4.47 354 13:22 01.06.2020
2177 Clear 22 1024 34 0 4.92 4 12:59 01.06.2020
2178 Clear 22 1024 34 0 0.89 215 12:40 01.06.2020
2179 Clear 18 1024 51 0 0.45 292 12:22 01.06.2020
2180 Clear 18 1024 51 0 0.45 292 11:59 01.06.2020
2181 Clear 20 1024 43 0 1.34 28 11:38 01.06.2020
2182 Clear 19 1025 47 0 2.68 328 11:19 01.06.2020
2183 Clear 19 1025 46 0 1.79 313 10:57 01.06.2020
2184 Clear 19 1025 44 0 1.79 26 10:37 01.06.2020
2185 Clear 18 1024 58 0 0.89 5 10:18 01.06.2020
2186 Clear 17 1024 60 0 0.45 331 09:46 01.06.2020
2187 Clear 14 1024 68 0 0.45 202 09:27 01.06.2020
2188 Clear 14 1024 66 0 0.45 58 08:59 01.06.2020
2189 Clear 13 1024 68 0 0.45 349 08:40 01.06.2020
2190 Clear 13 1024 70 0 0.45 48 08:22 01.06.2020
2191 Clear 12 1024 76 0 2.17 30 07:42 01.06.2020
2192 Clear 12 1024 76 0 0.45 27 07:24 01.06.2020
2193 Clear 12 1024 74 0 1.79 31 06:51 01.06.2020
2194 Clear 9 1024 83 0 2.08 24 06:20 01.06.2020
2195 Clear 9 1024 83 0 2.08 24 05:49 01.06.2020
2196 Clear 9 1023 83 0 2.38 20 04:18 01.06.2020
2197 Clear 10 1023 72 0 2.38 20 03:44 01.06.2020
2198 Clear 10 1023 73 0 2.74 23 02:59 01.06.2020
2199 Clear 11 1023 68 0 3.1 27 01:47 01.06.2020
2200 Clear 12 1023 66 0 3.34 24 01:27 01.06.2020
2201 Clear 12 1023 63 0 3.34 24 00:57 01.06.2020
2202 Clear 12 1023 63 0 3.34 24 00:57 01.06.2020
2203 Clear 13 1023 60 0 0.45 61 00:38 01.06.2020
2204 Clear 13 1024 53 0 2.24 11 00:20 01.06.2020
2205 Clear 14 1023 56 0 0.45 50 23:54 31.05.2020
2206 Clear 13 1023 52 0 3.63 22 23:36 31.05.2020
2207 Clear 15 1023 50 0 3.13 328 23:18 31.05.2020
2208 Clear 15 1022 55 0 0.89 45 22:42 31.05.2020
2209 Clear 17 1023 46 0 2.24 352 22:24 31.05.2020
2210 Clear 17 1023 46 0 3.13 292 21:57 31.05.2020
2211 Clear 16 1022 51 0 0.45 90 21:39 31.05.2020
2212 Clouds 18 1022 41 0 3.58 359 21:21 31.05.2020
2213 Clouds 17 1021 50 0 0.89 0 20:48 31.05.2020
2214 Clouds 21 1021 37 0 3.13 21 20:25 31.05.2020
2215 Clouds 21 1021 35 0 1.34 25 19:57 31.05.2020
2216 Clouds 20 1021 42 0 1.34 270 19:38 31.05.2020
2217 Clouds 22 1021 32 0 4.02 359 19:20 31.05.2020
2218 Clouds 22 1021 30 0 1.34 73 18:58 31.05.2020
2219 Clouds 22 1021 32 0 4.02 25 18:39 31.05.2020
2220 Clouds 22 1020 37 0 2.68 27 18:21 31.05.2020
2221 Clouds 19 1022 59 0 5 11 17:43 31.05.2020
2222 Clouds 22 1020 40 0 2.24 18 17:24 31.05.2020
2223 Clouds 19 1022 58 0 4.39 8 16:42 31.05.2020
2224 Clouds 22 1021 41 0 1.79 23 16:22 31.05.2020
2225 Clouds 22 1021 41 0 1.34 41 15:57 31.05.2020
2226 Clouds 22 1021 41 0 1.34 9 15:38 31.05.2020
2227 Clouds 18 1022 59 0 4.48 26 15:20 31.05.2020
2228 Clouds 18 1022 59 0 4.48 26 14:45 31.05.2020
2229 Clouds 17 1023 62 0 4.94 25 14:20 31.05.2020
2230 Clouds 18 1022 53 0 1.34 17 13:56 31.05.2020
2231 Clouds 18 1022 54 0 1.34 49 13:37 31.05.2020
2232 Clouds 18 1022 56 0 1.79 49 13:19 31.05.2020
2233 Clouds 20 1023 42 0 5.36 341 12:55 31.05.2020
2234 Clouds 20 1023 43 0 3.58 2 12:37 31.05.2020
2235 Clouds 17 1022 61 0 1.34 79 12:18 31.05.2020
2236 Clouds 17 1022 61 0 1.34 79 12:18 31.05.2020
2237 Clouds 17 1022 64 0 1.34 13 11:44 31.05.2020
2238 Clouds 16 1023 66 0 1.34 55 11:21 31.05.2020
2239 Clouds 17 1023 65 0 1.34 49 10:55 31.05.2020
2240 Clouds 17 1023 65 0 2.24 338 10:37 31.05.2020
2241 Clouds 16 1023 65 0 1.79 74 10:18 31.05.2020
2242 Clouds 16 1023 56 0 4.02 359 09:42 31.05.2020
2243 Clouds 13 1023 71 0 2.24 34 09:22 31.05.2020
2244 Clouds 13 1023 72 0 1.34 112 08:57 31.05.2020
2245 Clouds 13 1023 74 0 1.34 49 08:37 31.05.2020
2246 Clouds 12 1023 75 0 1.34 350 08:19 31.05.2020
2247 Clouds 11 1023 79 0 1.34 53 07:42 31.05.2020
2248 Clouds 13 1023 59 0 0.89 347 07:20 31.05.2020
2249 Clouds 11 1023 70 0 1.34 351 06:53 31.05.2020
2250 Clouds 9 1023 83 0 1.34 66 06:31 31.05.2020
2251 Clouds 9 1022 83 0 0.89 25 05:43 31.05.2020
2252 Clouds 9 1023 80 0 0.89 72 04:27 31.05.2020
2253 Clouds 9 1023 78 0 0.89 54 03:48 31.05.2020
2254 Clouds 10 1023 75 0 0.89 51 02:59 31.05.2020
2255 Clouds 11 1024 64 0 2.68 338 01:49 31.05.2020
2256 Clouds 11 1024 63 0 2.68 357 01:27 31.05.2020
2257 Clouds 11 1023 59 0 1.79 5 00:30 31.05.2020
2258 Clouds 12 1023 58 0 1.34 285 23:57 30.05.2020
2259 Clouds 11 1023 66 0 0.45 60 23:38 30.05.2020
2260 Clouds 12 1023 58 0 2.24 348 23:19 30.05.2020
2261 Clouds 13 1023 61 0 3.44 23 22:41 30.05.2020
2262 Clouds 14 1023 52 0 0.45 340 22:23 30.05.2020
2263 Clouds 14 1023 50 0 1.34 345 21:56 30.05.2020
2264 Clouds 15 1023 55 0 0.89 53 21:38 30.05.2020
2265 Clear 15 1023 48 0 1.34 306 21:20 30.05.2020
2266 Clear 16 1023 44 0 3.13 359 20:56 30.05.2020
2267 Clear 16 1023 44 0 4.02 7 20:38 30.05.2020
2268 Clouds 16 1023 43 0 1.79 14 20:20 30.05.2020
2269 Clouds 17 1023 41 0 1.34 55 19:43 30.05.2020
2270 Clouds 17 1023 39 0 2.68 345 19:22 30.05.2020
2271 Clouds 18 1023 38 0 2.68 59 18:54 30.05.2020
2272 Clouds 18 1023 38 0 4.92 55 18:36 30.05.2020
2273 Clouds 19 1023 36 0 2.68 355 18:18 30.05.2020
2274 Clouds 19 1023 37 0 2.68 43 17:38 30.05.2020
2275 Clouds 19 1023 35 0 3.13 86 17:19 30.05.2020
2276 Clouds 20 1023 32 0 1.79 21 16:44 30.05.2020
2277 Clouds 17 1023 47 0 1.34 32 16:23 30.05.2020
2278 Clouds 18 1023 46 0 1.79 98 15:58 30.05.2020
2279 Clouds 18 1023 46 0 1.79 92 15:39 30.05.2020
2280 Clouds 19 1024 33 0 2.68 88 15:21 30.05.2020
2281 Clouds 19 1024 34 0 4.92 351 14:42 30.05.2020
2282 Clouds 19 1024 35 0 6.26 359 14:22 30.05.2020
2283 Clouds 19 1024 34 0 4.02 9 13:42 30.05.2020
2284 Clouds 19 1024 33 0 4.02 351 13:20 30.05.2020
2285 Clouds 19 1025 34 0 2.68 330 12:42 30.05.2020
2286 Clouds 17 1025 44 0 3.13 97 12:20 30.05.2020
2287 Clouds 17 1025 42 0 3.13 108 11:56 30.05.2020
2288 Clouds 17 1025 40 0 3.13 84 11:38 30.05.2020
2289 Clouds 18 1025 41 0 2.24 87 11:20 30.05.2020
2290 Clouds 17 1025 40 0 2.68 52 10:39 30.05.2020
2291 Clouds 17 1025 41 0 2.24 44 10:21 30.05.2020
2292 Clouds 17 1025 43 0 2.24 77 09:48 30.05.2020
2293 Clouds 17 1025 47 0 2.24 22 09:30 30.05.2020
2294 Clouds 17 1025 47 0 2.24 22 09:30 30.05.2020
2295 Clouds 13 1020 58 0 2.98 44 08:51 30.05.2020
2296 Clouds 13 1020 58 0 2.98 44 08:51 30.05.2020
2297 Clouds 13 1020 58 0 2.98 44 08:32 30.05.2020
2298 Clouds 13 1020 58 0 2.77 39 07:45 30.05.2020
2299 Clouds 13 1021 62 0 2.72 36 07:24 30.05.2020
2300 Clouds 12 1021 59 0 2.72 36 06:51 30.05.2020
2301 Clear 7 1026 86 0 2.52 31 06:23 30.05.2020
2302 Clear 7 1026 86 0 2.52 31 05:49 30.05.2020
2303 Clear 7 1021 93 0 2.83 35 03:46 30.05.2020
2304 Clouds 9 1026 69 0 2.79 36 02:30 30.05.2020
2305 Clouds 9 1021 80 0 2.46 33 01:49 30.05.2020
2306 Clouds 11 1026 62 0 2.67 43 00:38 30.05.2020
2307 Clouds 12 1026 62 0 2.6 48 00:19 30.05.2020
2308 Clouds 12 1026 61 0 2.6 48 23:58 29.05.2020
2309 Clouds 12 1026 60 0 2.6 48 23:38 29.05.2020
2310 Clouds 13 1026 58 0 2.71 50 23:18 29.05.2020
2311 Clouds 14 1026 52 0 2.71 50 22:41 29.05.2020
2312 Clouds 14 1026 49 0 3.1 43 22:21 29.05.2020
2313 Clouds 15 1026 47 0 3.1 43 21:59 29.05.2020
2314 Clouds 15 1020 50 0 3.1 43 21:39 29.05.2020
2315 Clouds 17 1025 39 0 1.34 28 21:20 29.05.2020
2316 Clouds 19 1020 38 0 3.24 49 20:55 29.05.2020
2317 Clouds 19 1020 38 0 3.24 49 20:37 29.05.2020
2318 Clouds 19 1025 34 0 3.13 35 20:18 29.05.2020
2319 Clouds 19 1026 34 0 1.79 40 19:42 29.05.2020
2320 Clouds 19 1026 36 0 3.42 27 19:23 29.05.2020
2321 Clouds 21 1020 31 0 3.42 27 18:47 29.05.2020
2322 Clouds 21 1026 28 0 0.89 347 18:22 29.05.2020
2323 Clouds 21 1026 28 0 2.24 22 17:58 29.05.2020
2324 Clouds 21 1026 29 0 3.13 81 17:38 29.05.2020
2325 Clouds 21 1026 27 0 2.24 46 17:20 29.05.2020
2326 Clouds 21 1027 28 0 1.34 64 16:46 29.05.2020
2327 Clouds 19 1027 35 0 0.45 75 16:28 29.05.2020
2328 Clouds 22 1021 30 0 3.4 49 15:58 29.05.2020
2329 Clouds 20 1027 36 0 0.89 103 15:40 29.05.2020
2330 Clouds 22 1022 28 0 3.15 60 15:20 29.05.2020
2331 Clouds 21 1027 33 0 3.15 60 14:54 29.05.2020
2332 Clouds 21 1028 36 0 0.89 321 14:36 29.05.2020
2333 Clear 21 1028 35 0 1.34 30 14:18 29.05.2020
2334 Clear 20 1029 35 0 1.34 342 13:41 29.05.2020
2335 Clear 20 1029 35 0 1.34 313 13:21 29.05.2020
2336 Clear 20 1029 35 0 2.24 74 12:46 29.05.2020
2337 Clear 18 1029 36 0 1.79 78 12:26 29.05.2020
2338 Clear 18 1030 38 0 1.34 84 11:59 29.05.2020
2339 Clear 18 1030 37 0 1.34 77 11:41 29.05.2020
2340 Clear 17 1030 39 0 1.79 80 11:22 29.05.2020
2341 Clear 17 1030 45 0 0.89 65 10:43 29.05.2020
2342 Clear 16 1030 51 0 1.34 150 10:23 29.05.2020
2343 Clear 16 1030 52 0 1.79 205 09:56 29.05.2020
2344 Clear 15 1030 55 0 1.34 105 09:38 29.05.2020
2345 Clear 13 1029 61 0 1.76 90 09:19 29.05.2020
2346 Clear 13 1030 68 0 0.89 99 08:46 29.05.2020
2347 Clouds 13 1025 70 0 1.75 68 08:22 29.05.2020
2348 Clouds 9 1025 85 0 1.75 68 07:47 29.05.2020
2349 Clouds 9 1025 85 0 1.75 68 07:29 29.05.2020
2350 Clouds 9 1031 72 0 0.89 84 06:55 29.05.2020
2351 Clouds 8 1031 74 0 1.34 9 06:37 29.05.2020
2352 Clouds 6 1025 10 0 1.8 25 06:18 29.05.2020
2353 Clouds 7 1030 77 0 1.8 25 05:37 29.05.2020
2354 Clouds 8 1025 89 0 2.44 27 01:53 29.05.2020
2355 Clouds 11 1030 67 0 2.24 9 01:27 29.05.2020
2356 Clouds 11 1030 66 0 0.89 357 00:51 29.05.2020
2357 Clouds 12 1030 65 0 2.65 26 00:29 29.05.2020
2358 Clouds 13 1030 61 0 2.89 24 23:57 28.05.2020
2359 Clouds 9 1031 92 0 2.89 24 23:38 28.05.2020
2360 Clouds 13 1028 58 0 3.32 17 23:18 28.05.2020
2361 Clouds 10 1030 90 0 3.32 17 22:42 28.05.2020
2362 Clouds 15 1029 52 0 0.89 344 22:23 28.05.2020
2363 Clouds 15 1028 53 0 3.72 6 21:56 28.05.2020
2364 Clouds 16 1029 47 0 3.13 1 21:37 28.05.2020
2365 Clouds 16 1029 46 0 3.58 359 21:19 28.05.2020
2366 Clouds 17 1029 44 0 1.34 340 20:56 28.05.2020
2367 Clouds 18 1023 42 0 4.04 4 20:37 28.05.2020
2368 Clear 18 1029 40 0 3.13 9 20:18 28.05.2020
2369 Clear 18 1029 39 0 3.58 359 19:43 28.05.2020
2370 Clear 19 1029 35 0 4.47 11 19:21 28.05.2020
2371 Clear 19 1029 35 0 3.58 357 18:57 28.05.2020
2372 Clear 20 1028 31 0 2.68 90 18:39 28.05.2020
2373 Clear 20 1029 32 0 8.05 345 18:21 28.05.2020
2374 Clear 20 1028 39 0 2.68 58 17:41 28.05.2020
2375 Clear 20 1028 40 0 1.79 61 17:22 28.05.2020
2376 Clear 21 1029 31 0 4.02 330 16:56 28.05.2020
2377 Clear 20 1029 38 0 2.68 53 16:37 28.05.2020
2378 Clear 21 1029 32 0 4.92 352 16:18 28.05.2020
2379 Clear 20 1024 36 0 5.86 357 15:42 28.05.2020
2380 Clear 21 1024 35 0 5.47 352 15:23 28.05.2020
2381 Clear 20 1029 38 0 1.79 47 14:55 28.05.2020
2382 Clear 20 1030 40 0 2.24 61 14:36 28.05.2020
2383 Clear 19 1030 41 0 2.68 63 14:18 28.05.2020
2384 Clear 19 1031 35 0 1.79 343 13:40 28.05.2020
2385 Clear 19 1031 35 0 2.68 343 13:20 28.05.2020
2386 Clear 19 1031 35 0 1.79 31 12:42 28.05.2020
2387 Clear 17 1031 47 0 1.79 22 12:19 28.05.2020
2388 Clear 17 1031 45 0 7.15 300 11:44 28.05.2020
2389 Clear 17 1031 46 0 3.13 5 11:25 28.05.2020
2390 Clear 16 1031 47 0 4.92 293 10:57 28.05.2020
2391 Clear 16 1031 48 0 2.24 316 10:39 28.05.2020
2392 Clouds 15 1031 61 0 1.79 53 10:20 28.05.2020
2393 Clouds 14 1031 69 0 1.79 25 09:39 28.05.2020
2394 Clear 11 1032 78 0 4.03 331 09:21 28.05.2020
2395 Clear 12 1031 77 0 2.68 52 08:50 28.05.2020
2396 Clouds 12 1026 76 0 4.15 332 08:27 28.05.2020
2397 Clouds 12 1026 79 0 4.15 332 07:46 28.05.2020
2398 Clouds 11 1026 85 0 4.21 332 07:26 28.05.2020
2399 Clouds 11 1032 74 0 1.79 15 06:59 28.05.2020
2400 Clouds 11 1032 76 0 3.13 348 06:38 28.05.2020
2401 Clouds 9 1030 79 0 3.73 322 06:20 28.05.2020
2402 Clouds 10 1026 91 0 3.73 322 05:36 28.05.2020
2403 Clouds 11 1026 89 0 3.47 323 04:33 28.05.2020
2404 Clouds 11 1030 91 0 0.45 31 03:48 28.05.2020
2405 Clouds 13 1031 82 0 0.89 302 02:47 28.05.2020
2406 Clouds 13 1031 88 0 0.89 266 01:56 28.05.2020
2407 Rain 14 1031 88 0 5.7 17 01:27 28.05.2020
2408 Rain 14 1031 82 0 0.89 296 00:46 28.05.2020
2409 Rain 16 1030 66 0 5.36 354 00:19 28.05.2020
2410 Rain 15 1030 61 0 0.45 206 23:54 27.05.2020
2411 Rain 17 1025 62 0 6.23 8 23:36 27.05.2020
2412 Rain 17 1025 62 0 5.54 359 23:18 27.05.2020
2413 Rain 17 1025 62 0 5.54 359 23:18 27.05.2020
2414 Rain 17 1024 60 0 5.54 359 22:41 27.05.2020
2415 Clouds 17 1024 60 0 3.76 337 22:22 27.05.2020
2416 Clouds 17 1028 61 0 0.45 283 21:56 27.05.2020
2417 Clouds 18 1024 54 0 3.76 337 21:37 27.05.2020
2418 Clouds 19 1029 45 0 0.89 310 21:19 27.05.2020
2419 Rain 19 1023 48 0 2.51 329 20:56 27.05.2020
2420 Rain 20 1029 41 0 0.89 327 20:36 27.05.2020
2421 Rain 21 1029 39 0 1.79 297 20:18 27.05.2020
2422 Rain 21 1029 38 0 4.02 313 19:42 27.05.2020
2423 Clouds 21 1029 36 0 3.13 330 19:20 27.05.2020
2424 Clouds 22 1024 38 0 1.91 312 18:44 27.05.2020
2425 Rain 22 1024 39 0 2.05 315 18:20 27.05.2020
2426 Rain 22 1024 38 0 2.05 315 17:58 27.05.2020
2427 Rain 22 1024 38 0 2.05 315 17:39 27.05.2020
2428 Rain 22 1024 37 0 3.43 307 17:20 27.05.2020
2429 Rain 22 1030 43 0 1.34 335 16:56 27.05.2020
2430 Rain 22 1030 42 0 1.34 359 16:38 27.05.2020
2431 Rain 23 1030 40 0 1.34 6 16:19 27.05.2020
2432 Rain 23 1031 40 0 2.24 44 15:47 27.05.2020
2433 Rain 23 1031 41 0 1.79 310 15:22 27.05.2020
2434 Rain 23 1031 40 0 1.34 8 14:46 27.05.2020
2435 Rain 23 1031 40 0 1.34 8 14:46 27.05.2020
2436 Rain 23 1031 40 0 1.34 291 14:46 27.05.2020
2437 Clouds 22 1031 41 0 0.45 43 14:22 27.05.2020
2438 Clouds 22 1031 41 0 0.45 43 14:22 27.05.2020
2439 Clouds 22 1032 43 0 1.34 86 13:58 27.05.2020
2440 Clouds 22 1026 41 0 2.73 283 13:39 27.05.2020
2441 Clouds 22 1026 41 0 2.63 279 13:21 27.05.2020
2442 Clouds 22 1026 44 0 2.63 279 12:42 27.05.2020
2443 Rain 22 1027 43 0 2.32 281 12:23 27.05.2020
2444 Rain 22 1027 45 0 2.32 281 11:56 27.05.2020
2445 Rain 21 1033 48 0 0.89 9 11:37 27.05.2020
2446 Clouds 21 1033 47 0 1.34 10 11:18 27.05.2020
2447 Clouds 20 1033 52 0 0.45 63 10:43 27.05.2020
2448 Rain 20 1033 59 0 0.45 46 10:24 27.05.2020
2449 Rain 19 1033 63 0 0.45 142 09:57 27.05.2020
2450 Rain 18 1034 65 0 0.45 222 09:39 27.05.2020
2451 Clouds 15 1032 69 0 1.8 281 09:20 27.05.2020
2452 Clouds 15 1034 71 0 1.8 281 08:42 27.05.2020
2453 Clouds 15 1034 71 0 1.8 281 08:42 27.05.2020
2454 Clouds 14 1028 87 0 1.68 280 08:24 27.05.2020
2455 Clouds 13 1028 91 0 1.68 280 07:53 27.05.2020
2456 Clouds 11 1028 10 0 1.68 280 07:34 27.05.2020
2457 Clouds 11 1034 79 0 1.58 285 06:56 27.05.2020
2458 Clouds 10 1034 81 0 1.58 285 06:31 27.05.2020
2459 Clouds 8 1034 84 0 1.55 294 05:50 27.05.2020
2460 Clouds 8 1034 84 0 1.55 294 05:30 27.05.2020
2461 Clouds 9 1034 83 0 1.4 294 04:18 27.05.2020
2462 Clouds 11 1034 80 0 1.25 289 02:30 27.05.2020
2463 Clouds 10 1029 10 0 1.17 286 01:45 27.05.2020
2464 Clouds 11 1029 10 0 1.09 289 00:59 27.05.2020
2465 Clouds 12 1029 99 0 1.09 289 00:41 27.05.2020
2466 Clouds 12 1029 99 0 0.92 302 00:19 27.05.2020
2467 Clouds 12 1029 10 0 0.92 302 23:42 26.05.2020
2468 Clouds 13 1035 73 0 0.88 325 23:24 26.05.2020
2469 Clouds 14 1035 73 0 0.88 325 22:59 26.05.2020
2470 Clouds 14 1035 71 0 0.88 325 22:38 26.05.2020
2471 Clear 14 1034 71 0 1.08 342 22:20 26.05.2020
2472 Clear 14 1034 70 0 1.08 342 21:57 26.05.2020
2473 Clear 15 1034 69 0 1.08 342 21:39 26.05.2020
2474 Clouds 15 1034 68 0 0.91 329 21:20 26.05.2020
2475 Clouds 16 1034 61 0 0.91 329 20:42 26.05.2020
2476 Clouds 17 1034 57 0 1.19 357 20:21 26.05.2020
2477 Clouds 18 1034 53 0 1.19 357 19:56 26.05.2020
2478 Clouds 18 1034 51 0 0.45 331 19:37 26.05.2020
2479 Clouds 18 1034 50 0 0.89 326 19:18 26.05.2020
2480 Clouds 19 1034 47 0 0.89 348 18:43 26.05.2020
2481 Rain 19 1034 57 0 1.79 123 18:22 26.05.2020
2482 Rain 21 1033 53 0 1.52 16 17:57 26.05.2020
2483 Rain 21 1034 49 0 0.89 33 17:38 26.05.2020
2484 Rain 21 1033 53 0 2.68 0 17:20 26.05.2020
2485 Rain 21 1028 46 0 1.8 12 16:42 26.05.2020
2486 Rain 19 1034 63 0 2.06 357 16:20 26.05.2020
2487 Rain 19 1034 68 0 0.45 19 15:55 26.05.2020
2488 Rain 20 1034 55 0 1.34 58 15:37 26.05.2020
2489 Rain 20 1035 44 0 0.89 331 15:18 26.05.2020
2490 Rain 19 1034 56 0 0.89 23 14:43 26.05.2020
2491 Rain 20 1034 54 0 0.89 39 14:23 26.05.2020
2492 Rain 19 1034 55 0 0.89 38 13:56 26.05.2020
2493 Rain 19 1030 53 0 2.04 335 13:37 26.05.2020
2494 Rain 19 1035 46 0 2.24 292 13:18 26.05.2020
2495 Rain 19 1030 53 0 1.61 351 12:42 26.05.2020
2496 Clouds 19 1033 54 0 0.45 332 12:22 26.05.2020
2497 Clouds 18 1035 63 0 0.45 278 11:58 26.05.2020
2498 Clouds 18 1035 63 0 0.45 278 11:58 26.05.2020
2499 Clouds 17 1035 64 0 1.34 332 11:40 26.05.2020
2500 Clouds 17 1035 62 0 0.89 11 11:18 26.05.2020
2501 Clouds 17 1035 69 0 0.89 336 10:43 26.05.2020
2502 Clouds 16 1035 71 0 0.89 59 10:19 26.05.2020
2503 Clouds 20 1030 53 0 2.24 338 09:40 26.05.2020
2504 Clouds 13 1033 77 0 0.45 295 09:20 26.05.2020
2505 Clouds 13 1030 87 0 2.68 322 08:44 26.05.2020
2506 Clouds 12 1030 93 0 2.8 325 08:23 26.05.2020
2507 Clouds 11 1030 97 0 2.8 325 07:59 26.05.2020
2508 Clouds 11 1030 97 0 2.8 325 07:40 26.05.2020
2509 Clouds 11 1030 97 0 2.8 325 07:40 26.05.2020
2510 Clouds 10 1029 10 0 3.11 323 07:22 26.05.2020
2511 Clouds 10 1035 82 0 0.45 310 06:47 26.05.2020
2512 Clouds 8 1029 10 0 2.92 312 06:23 26.05.2020
2513 Clouds 8 1035 87 0 2.92 312 05:35 26.05.2020
2514 Clouds 8 1034 86 0 2.96 308 04:58 26.05.2020
2515 Clouds 9 1034 86 0 2.96 308 04:40 26.05.2020
2516 Clouds 9 1034 85 0 3.06 305 04:21 26.05.2020
2517 Clouds 10 1034 82 0 3.14 307 03:28 26.05.2020
2518 Clouds 11 1028 89 0 3.37 311 02:32 26.05.2020
2519 Clouds 12 1028 87 0 3.58 306 01:41 26.05.2020
2520 Clouds 12 1028 83 0 3.79 306 00:39 26.05.2020
2521 Clouds 13 1034 70 0 1.34 271 00:20 26.05.2020
2522 Clouds 13 1034 70 0 2.24 297 23:58 25.05.2020
2523 Clouds 13 1033 69 0 1.79 344 23:38 25.05.2020
2524 Clouds 13 1033 69 0 1.79 344 23:38 25.05.2020
2525 Clouds 13 1033 69 0 0.89 350 23:19 25.05.2020
2526 Clouds 13 1033 69 0 0.89 210 22:55 25.05.2020
2527 Clouds 14 1033 68 0 0.45 343 22:37 25.05.2020
2528 Clouds 14 1033 67 0 2.68 354 22:19 25.05.2020
2529 Clouds 14 1033 67 0 1.34 256 21:58 25.05.2020
2530 Clouds 14 1033 66 0 1.34 307 21:37 25.05.2020
2531 Clouds 14 1033 65 0 3.13 319 21:18 25.05.2020
2532 Clouds 14 1032 64 0 2.68 309 20:57 25.05.2020
2533 Clouds 14 1032 63 0 2.68 296 20:38 25.05.2020
2534 Clouds 15 1032 62 0 3.89 304 20:20 25.05.2020
2535 Clouds 15 1032 61 0 1.34 335 19:42 25.05.2020
2536 Clouds 15 1031 60 0 1.79 306 19:20 25.05.2020
2537 Clouds 15 1031 60 0 4.02 282 18:58 25.05.2020
2538 Clouds 15 1031 59 0 4.47 293 18:40 25.05.2020
2539 Clouds 16 1031 59 0 1.79 285 18:21 25.05.2020
2540 Clouds 16 1031 56 0 3.13 265 17:54 25.05.2020
2541 Clouds 17 1031 55 0 5.81 289 17:36 25.05.2020
2542 Clouds 17 1031 55 0 6.04 312 17:18 25.05.2020
2543 Clouds 17 1030 55 0 0.89 261 16:41 25.05.2020
2544 Clouds 17 1030 52 0 2.68 296 16:22 25.05.2020
2545 Clouds 17 1030 53 0 4.47 307 15:58 25.05.2020
2546 Clouds 16 1024 60 0 6.04 312 15:40 25.05.2020
2547 Clouds 16 1030 57 0 5.36 337 15:18 25.05.2020
2548 Clouds 16 1030 54 0 2.24 2 14:43 25.05.2020
2549 Clouds 16 1024 62 0 5.97 310 14:24 25.05.2020
2550 Clouds 15 1024 66 0 5.97 310 13:57 25.05.2020
2551 Clouds 16 1030 58 0 2.68 337 13:37 25.05.2020
2552 Clouds 14 1030 63 0 4.47 324 13:19 25.05.2020
2553 Clouds 14 1030 61 0 9.83 307 12:54 25.05.2020
2554 Clouds 14 1030 63 0 2.24 290 12:36 25.05.2020
2555 Rain 14 1029 63 0 3.58 251 12:18 25.05.2020
2556 Rain 13 1023 75 0 6.24 309 11:38 25.05.2020
2557 Clouds 13 1023 71 0 6.31 308 11:19 25.05.2020
2558 Clouds 13 1029 67 0 1.79 327 10:44 25.05.2020
2559 Rain 13 1029 70 0 4.92 300 10:21 25.05.2020
2560 Rain 13 1028 69 0 1.79 311 09:59 25.05.2020
2561 Rain 12 1028 76 0 3.13 300 09:40 25.05.2020
2562 Rain 13 1028 75 0 3.13 317 09:19 25.05.2020
2563 Clouds 12 1028 77 0 1.79 314 08:59 25.05.2020
2564 Clouds 12 1028 78 0 6.26 304 08:37 25.05.2020
2565 Clouds 12 1028 79 0 4.02 311 08:18 25.05.2020
2566 Clouds 12 1027 85 0 2.24 309 07:45 25.05.2020
2567 Rain 12 1027 83 0 1.34 321 07:21 25.05.2020
2568 Rain 12 1027 89 0 5.99 298 06:54 25.05.2020
2569 Clouds 11 1027 91 0 0.45 340 06:33 25.05.2020
2570 Clouds 12 1026 80 0 4.47 351 04:19 25.05.2020
2571 Clouds 11 1026 86 0 1.79 200 03:23 25.05.2020
2572 Clouds 12 1026 85 0 5.16 286 02:45 25.05.2020
2573 Clouds 12 1026 85 0 0.89 191 01:58 25.05.2020
2574 Clouds 12 1026 87 0 0.45 225 01:30 25.05.2020
2575 Clouds 11 1026 88 0 4.59 279 00:45 25.05.2020
2576 Clouds 11 1026 87 0 4.22 278 00:23 25.05.2020
2577 Clouds 12 1026 87 0 0.89 128 23:57 24.05.2020
2578 Clouds 12 1026 86 0 1.79 225 23:38 24.05.2020
2579 Clouds 12 1026 85 0 0.89 251 23:19 24.05.2020
2580 Clouds 12 1026 85 0 2.24 232 22:42 24.05.2020
2581 Clouds 12 1026 85 0 2.24 232 22:42 24.05.2020
2582 Clouds 12 1026 84 0 0.89 197 22:20 24.05.2020
2583 Clouds 13 1026 82 0 0.89 214 21:59 24.05.2020
2584 Clouds 13 1026 82 0 2.24 201 21:40 24.05.2020
2585 Clouds 13 1026 79 0 3.58 232 21:22 24.05.2020
2586 Clouds 13 1026 77 0 0.89 241 20:57 24.05.2020
2587 Clouds 14 1025 75 0 1.79 235 20:38 24.05.2020
2588 Rain 14 1025 73 0 4.02 258 20:18 24.05.2020
2589 Rain 15 1025 67 0 0.45 319 19:56 24.05.2020
2590 Rain 15 1025 65 0 1.79 101 19:36 24.05.2020
2591 Rain 15 1025 63 0 3.13 293 19:18 24.05.2020
2592 Rain 15 1025 63 0 3.13 293 19:18 24.05.2020
2593 Rain 16 1025 63 0 3.58 225 18:42 24.05.2020
2594 Rain 16 1025 59 0 2.24 319 18:23 24.05.2020
2595 Rain 17 1025 50 0 1.79 337 17:57 24.05.2020
2596 Rain 17 1019 63 0 7.3 285 17:38 24.05.2020
2597 Rain 16 1019 63 0 7.84 284 17:19 24.05.2020
2598 Rain 18 1025 48 0 3.13 208 16:54 24.05.2020
2599 Rain 17 1024 48 0 3.13 306 16:36 24.05.2020
2600 Rain 17 1025 42 0 3.58 279 16:18 24.05.2020
2601 Rain 17 1024 45 0 1.79 31 15:55 24.05.2020
2602 Rain 14 1019 79 0 7.56 279 15:36 24.05.2020
2603 Rain 18 1018 51 0 7.56 279 15:18 24.05.2020
2604 Rain 16 1025 53 0 1.79 335 14:41 24.05.2020
2605 Rain 16 1024 54 0 2.24 56 14:41 24.05.2020
2606 Rain 17 1018 55 0 8.15 276 14:22 24.05.2020
2607 Rain 16 1024 67 0 0.89 48 13:56 24.05.2020
2608 Rain 17 1023 47 0 0.89 306 13:38 24.05.2020
2609 Rain 17 1023 47 0 0.89 306 13:38 24.05.2020
2610 Rain 15 1019 72 0 8.48 276 13:19 24.05.2020
2611 Rain 18 1018 59 0 8.48 276 12:57 24.05.2020
2612 Rain 17 1018 69 0 8.48 276 12:38 24.05.2020
2613 Rain 14 1019 85 0 8.03 270 12:19 24.05.2020
2614 Rain 15 1019 77 0 8.03 270 11:55 24.05.2020
2615 Rain 14 1025 65 0 0.45 279 11:37 24.05.2020
2616 Rain 13 1025 70 0 3.13 111 11:19 24.05.2020
2617 Rain 16 1019 66 0 8.4 267 10:43 24.05.2020
2618 Rain 17 1025 52 0 1.34 319 10:24 24.05.2020
2619 Rain 15 1025 58 0 1.34 307 09:59 24.05.2020
2620 Rain 15 1025 55 0 10.28 224 09:41 24.05.2020
2621 Clouds 14 1019 71 0 6.72 264 09:18 24.05.2020
2622 Clouds 14 1025 60 0 4.47 170 08:54 24.05.2020
2623 Clouds 13 1019 74 0 6.72 264 08:36 24.05.2020
2624 Clouds 13 1019 80 0 6.29 260 08:18 24.05.2020
2625 Clouds 11 1019 90 0 6.29 260 07:41 24.05.2020
2626 Clouds 12 1024 67 0 0.89 302 07:22 24.05.2020
2627 Clouds 11 1024 75 0 4.99 251 06:47 24.05.2020
2628 Clear 10 1024 80 0 0.45 175 06:25 24.05.2020
2629 Clear 8 1024 82 0 4.37 251 04:52 24.05.2020
2630 Clear 9 1024 80 0 1.34 234 03:41 24.05.2020
2631 Clear 10 1024 80 0 2.24 215 02:31 24.05.2020
2632 Clouds 9 1024 83 0 3.66 253 01:46 24.05.2020
2633 Clouds 10 1023 79 0 1.34 278 00:39 24.05.2020
2634 Clouds 10 1023 78 0 0.45 179 00:21 24.05.2020
2635 Clouds 11 1023 78 0 3.17 246 23:44 23.05.2020
2636 Clouds 11 1023 77 0 0.89 207 23:24 23.05.2020
2637 Clouds 11 1023 75 0 0.89 238 22:58 23.05.2020
2638 Clouds 11 1023 74 0 2.78 253 22:38 23.05.2020
2639 Clouds 12 1023 73 0 3.28 273 22:20 23.05.2020
2640 Clouds 12 1023 69 0 3.28 273 21:58 23.05.2020
2641 Clouds 13 1023 66 0 0.45 4 21:40 23.05.2020
2642 Clouds 13 1023 68 0 1.34 331 21:20 23.05.2020
2643 Clouds 13 1022 68 0 0.45 299 21:20 23.05.2020
2644 Clouds 13 1023 68 0 1.34 331 21:20 23.05.2020
2645 Clouds 13 1023 68 0 1.34 331 21:20 23.05.2020
2646 Clouds 14 1022 66 0 2.24 266 20:58 23.05.2020
2647 Clouds 15 1022 64 0 0.45 148 20:38 23.05.2020
2648 Clouds 15 1022 64 0 0.45 148 20:38 23.05.2020
2649 Clouds 15 1022 62 0 3.58 208 20:19 23.05.2020
2650 Clouds 15 1022 59 0 1.79 258 19:54 23.05.2020
2651 Clouds 15 1021 56 0 3.95 269 19:36 23.05.2020
2652 Clouds 16 1021 55 0 0.45 93 19:18 23.05.2020
2653 Clouds 15 1021 58 0 4.22 264 18:40 23.05.2020
2654 Clouds 15 1021 59 0 2.24 326 18:22 23.05.2020
2655 Clouds 14 1016 65 0 5.03 262 17:56 23.05.2020
2656 Clouds 14 1016 65 0 5.03 262 17:56 23.05.2020
2657 Clouds 15 1016 60 0 5.03 262 17:38 23.05.2020
2658 Clouds 16 1018 69 0 2.68 90 17:19 23.05.2020
2659 Clouds 16 1018 60 0 2.24 180 16:57 23.05.2020
2660 Clouds 19 1014 50 0 3.09 282 16:39 23.05.2020
2661 Rain 19 1014 50 0 7.2 289 16:19 23.05.2020
2662 Rain 19 1014 50 0 7.2 289 15:43 23.05.2020
2663 Rain 20 1019 43 0 2.24 175 15:24 23.05.2020
2664 Rain 20 1019 42 0 0.89 170 14:58 23.05.2020
2665 Rain 20 1019 42 0 2.68 196 14:40 23.05.2020
2666 Clouds 19 1014 50 0 6.63 263 14:22 23.05.2020
2667 Clouds 19 1020 48 0 2.68 319 13:41 23.05.2020
2668 Clouds 19 1020 56 0 2.24 292 13:19 23.05.2020
2669 Clouds 19 1020 56 0 2.24 292 13:19 23.05.2020
2670 Clouds 19 1020 66 0 0.89 302 12:56 23.05.2020
2671 Clouds 18 1020 67 0 0.89 249 12:38 23.05.2020
2672 Clouds 18 1014 55 0 6.89 270 12:19 23.05.2020
2673 Clouds 19 1020 57 0 3.13 225 11:43 23.05.2020
2674 Clouds 18 1020 59 0 6.02 269 11:22 23.05.2020
2675 Clouds 18 1014 55 0 6.02 269 10:57 23.05.2020
2676 Clouds 18 1014 64 0 6.02 269 10:39 23.05.2020
2677 Clouds 18 1019 58 0 2.24 108 10:20 23.05.2020
2678 Clouds 17 1019 76 0 1.34 307 09:59 23.05.2020
2679 Clouds 17 1019 76 0 1.34 307 09:59 23.05.2020
2680 Clouds 17 1020 76 0 0.89 281 09:40 23.05.2020
2681 Clouds 17 1020 79 0 0.89 20 09:21 23.05.2020
2682 Clouds 16 1020 89 0 1.34 278 08:44 23.05.2020
2683 Clouds 16 1019 77 0 1.34 138 08:20 23.05.2020
2684 Clouds 16 1019 77 0 2.24 231 07:59 23.05.2020
2685 Clouds 16 1019 78 0 0.89 238 07:39 23.05.2020
2686 Clouds 16 1019 79 0 1.34 221 07:21 23.05.2020
2687 Clouds 16 1019 84 0 3.13 186 06:39 23.05.2020
2688 Clouds 15 1013 10 0 3.58 265 05:46 23.05.2020
2689 Clouds 16 1018 87 0 3.59 275 03:48 23.05.2020
2690 Clouds 16 1018 87 0 3.77 277 03:21 23.05.2020
2691 Clouds 16 1018 87 0 3.63 242 01:59 23.05.2020
2692 Clouds 16 1018 87 0 3.63 242 01:59 23.05.2020
2693 Clouds 16 1018 87 0 3.97 204 01:27 23.05.2020
2694 Clouds 16 1018 87 0 3.97 204 00:49 23.05.2020
2695 Rain 17 1018 87 0 0.45 101 00:29 23.05.2020
2696 Rain 17 1018 86 0 1.34 307 23:58 22.05.2020
2697 Rain 17 1018 87 0 0.45 132 23:40 22.05.2020
2698 Rain 17 1018 86 0 0.89 134 23:20 22.05.2020
2699 Rain 17 1018 86 0 3.73 180 22:57 22.05.2020
2700 Rain 17 1018 85 0 1.79 103 22:38 22.05.2020
2701 Rain 17 1018 84 0 0.45 118 22:19 22.05.2020
2702 Rain 17 1018 82 0 2.47 184 21:45 22.05.2020
2703 Rain 17 1018 81 0 2.18 186 21:22 22.05.2020
2704 Rain 18 1012 80 0 2.18 186 20:55 22.05.2020
2705 Rain 15 1020 95 0 2.18 186 20:37 22.05.2020
2706 Rain 19 1018 63 0 1.34 148 20:18 22.05.2020
2707 Rain 19 1011 70 0 1.55 192 19:44 22.05.2020
2708 Rain 21 1018 58 0 0.89 105 19:25 22.05.2020
2709 Rain 22 1011 55 0 1.86 222 18:41 22.05.2020
2710 Rain 22 1011 55 0 1.86 222 18:21 22.05.2020
2711 Rain 22 1012 52 0 1.86 222 17:59 22.05.2020
2712 Rain 21 1018 56 0 1.86 222 17:39 22.05.2020
2713 Rain 22 1018 54 0 1.79 186 17:19 22.05.2020
2714 Rain 22 1018 47 0 1.34 167 16:55 22.05.2020
2715 Rain 23 1019 43 0 2.68 159 16:37 22.05.2020
2716 Rain 23 1019 41 0 3.13 167 16:19 22.05.2020
2717 Rain 24 1019 39 0 3.13 218 15:42 22.05.2020
2718 Rain 24 1019 39 0 3.13 218 15:42 22.05.2020
2719 Clouds 24 1014 36 0 4.88 143 15:22 22.05.2020
2720 Clouds 24 1013 36 0 4.88 143 14:45 22.05.2020
2721 Clouds 24 1013 36 0 4.88 143 14:45 22.05.2020
2722 Clouds 22 1020 43 0 1.79 226 14:26 22.05.2020
2723 Clouds 22 1014 40 0 5.17 133 13:56 22.05.2020
2724 Clouds 23 1020 37 0 2.68 132 13:37 22.05.2020
2725 Clouds 23 1019 35 0 2.24 118 13:19 22.05.2020
2726 Clouds 23 1020 33 0 4.02 101 12:40 22.05.2020
2727 Clouds 21 1021 42 0 1.79 131 12:21 22.05.2020
2728 Clouds 22 1014 42 0 5.23 138 11:45 22.05.2020
2729 Clouds 21 1014 42 0 4.92 140 11:22 22.05.2020
2730 Clouds 20 1021 55 0 1.34 141 10:58 22.05.2020
2731 Clouds 20 1020 41 0 6.26 167 10:38 22.05.2020
2732 Clouds 20 1020 43 0 3.58 170 10:20 22.05.2020
2733 Clouds 19 1020 44 0 4.92 110 09:55 22.05.2020
2734 Clouds 18 1020 45 0 1.79 93 09:36 22.05.2020
2735 Clouds 14 1021 66 0 0.89 82 09:18 22.05.2020
2736 Clouds 13 1015 60 0 4.04 141 08:41 22.05.2020
2737 Clouds 15 1021 52 0 3.58 26 08:19 22.05.2020
2738 Clouds 14 1021 56 0 2.24 135 07:52 22.05.2020
2739 Clouds 13 1021 59 0 2.24 142 07:23 22.05.2020
2740 Clouds 12 1021 59 0 1.34 115 06:53 22.05.2020
2741 Clouds 12 1021 60 0 2.24 179 06:31 22.05.2020
2742 Clouds 10 1021 61 0 0.45 93 05:37 22.05.2020
2743 Clouds 10 1021 61 0 3.15 137 04:50 22.05.2020
2744 Clouds 10 1021 61 0 2.89 143 03:57 22.05.2020
2745 Clouds 10 1021 60 0 2.89 143 03:39 22.05.2020
2746 Clear 11 1021 58 0 2.98 147 02:59 22.05.2020
2747 Clouds 11 1022 54 0 0.45 146 01:49 22.05.2020
2748 Clouds 12 1022 54 0 0.89 131 01:24 22.05.2020
2749 Clouds 13 1022 49 0 2.41 161 00:34 22.05.2020
2750 Clouds 12 1017 62 0 2.58 158 23:59 21.05.2020
2751 Clouds 12 1017 62 0 2.58 158 23:40 21.05.2020
2752 Clear 13 1017 58 0 3.09 149 23:22 21.05.2020
2753 Clear 13 1017 56 0 3.09 149 22:57 21.05.2020
2754 Clear 14 1017 55 0 3.09 149 22:37 21.05.2020
2755 Clear 16 1022 44 0 2.26 126 22:19 21.05.2020
2756 Clear 16 1016 45 0 2.26 126 21:49 21.05.2020
2757 Clear 17 1022 40 0 1.62 67 21:27 21.05.2020
2758 Clear 18 1021 39 0 1.62 67 20:59 21.05.2020
2759 Clear 19 1021 36 0 1.62 67 20:40 21.05.2020
2760 Clouds 20 1021 33 0 0.45 59 20:21 21.05.2020
2761 Clouds 22 1021 30 0 0.89 88 19:40 21.05.2020
2762 Clouds 22 1021 29 0 0.87 48 19:20 21.05.2020
2763 Clouds 22 1021 28 0 0.87 48 18:58 21.05.2020
2764 Clouds 21 1021 34 0 0.45 0 18:37 21.05.2020
2765 Clouds 22 1022 28 0 1.34 324 18:18 21.05.2020
2766 Clouds 19 1022 49 0 0.62 53 17:55 21.05.2020
2767 Clouds 19 1022 49 0 0.62 53 17:37 21.05.2020
2768 Clouds 22 1022 35 0 1.79 293 17:19 21.05.2020
2769 Clouds 22 1022 33 0 0.89 253 16:44 21.05.2020
2770 Clouds 22 1022 36 0 1.79 285 16:22 21.05.2020
2771 Clouds 21 1023 35 0 0.89 60 15:44 21.05.2020
2772 Clouds 22 1023 37 0 1.34 259 15:23 21.05.2020
2773 Clouds 21 1023 39 0 0.45 89 14:43 21.05.2020
2774 Clouds 21 1023 38 0 1.34 345 14:23 21.05.2020
2775 Clouds 21 1023 39 0 0.89 98 14:00 21.05.2020
2776 Clouds 21 1024 39 0 1.34 47 13:38 21.05.2020
2777 Clouds 21 1024 39 0 0.45 33 13:20 21.05.2020
2778 Clouds 20 1024 41 0 0.89 282 12:55 21.05.2020
2779 Clouds 20 1024 40 0 1.34 53 12:36 21.05.2020
2780 Clouds 19 1024 42 0 1.34 62 12:18 21.05.2020
2781 Clouds 19 1024 36 0 3.58 359 11:40 21.05.2020
2782 Clouds 18 1024 43 0 0.89 96 11:22 21.05.2020
2783 Clouds 19 1024 39 0 0.45 8 10:55 21.05.2020
2784 Clouds 17 1024 49 0 0.89 81 10:37 21.05.2020
2785 Clouds 17 1024 52 0 1.35 59 10:18 21.05.2020
2786 Clouds 16 1024 54 0 0.89 45 09:42 21.05.2020
2787 Clouds 13 1024 59 0 0.45 213 09:24 21.05.2020
2788 Clouds 14 1024 58 0 0.45 159 09:24 21.05.2020
2789 Clouds 15 1019 54 0 1.01 54 08:58 21.05.2020
2790 Clouds 15 1019 54 0 1.01 54 08:40 21.05.2020
2791 Clouds 13 1024 63 0 0.89 98 08:22 21.05.2020
2792 Clouds 11 1018 68 0 1.26 43 07:43 21.05.2020
2793 Clouds 11 1024 60 0 1.06 24 07:24 21.05.2020
2794 Clouds 9 1024 68 0 1.06 24 06:45 21.05.2020
2795 Clouds 8 1023 72 0 0.58 23 05:52 21.05.2020
2796 Clouds 8 1023 72 0 0.63 54 04:29 21.05.2020
2797 Clouds 9 1023 67 0 1.16 60 03:21 21.05.2020
2798 Clouds 10 1023 65 0 1.16 60 02:37 21.05.2020
2799 Clouds 10 1023 63 0 1.92 41 02:18 21.05.2020
2800 Clouds 11 1023 59 0 1.92 41 01:42 21.05.2020
2801 Clouds 11 1018 64 0 2.33 31 01:18 21.05.2020
2802 Clouds 11 1018 61 0 2.33 31 00:44 21.05.2020
2803 Clouds 12 1023 58 0 2.59 32 00:21 21.05.2020
2804 Clouds 13 1018 55 0 2.59 32 23:41 20.05.2020
2805 Clouds 13 1023 56 0 3.11 30 23:20 20.05.2020
2806 Clouds 14 1023 59 0 3.11 30 22:55 20.05.2020
2807 Clouds 16 1017 49 0 3.11 30 22:37 20.05.2020
2808 Clouds 15 1022 55 0 3.1 28 22:19 20.05.2020
2809 Clouds 16 1022 54 0 3.1 28 21:40 20.05.2020
2810 Clouds 16 1022 49 0 3.19 27 21:20 20.05.2020
2811 Clouds 18 1022 44 0 0.45 351 20:44 20.05.2020
2812 Clouds 19 1021 42 0 1.34 338 20:24 20.05.2020
2813 Clouds 19 1021 39 0 2.24 15 19:56 20.05.2020
2814 Clouds 19 1021 36 0 0.89 71 19:37 20.05.2020
2815 Clouds 20 1021 35 0 3.06 28 19:19 20.05.2020
2816 Clouds 21 1021 33 0 3.13 316 18:43 20.05.2020
2817 Clouds 21 1021 30 0 1.79 60 18:23 20.05.2020
2818 Clouds 18 1021 56 0 3.5 20 17:43 20.05.2020
2819 Clouds 18 1021 53 0 3.54 16 17:24 20.05.2020
2820 Clouds 18 1021 53 0 3.54 16 17:24 20.05.2020
2821 Clouds 21 1021 32 0 0.45 67 16:58 20.05.2020
2822 Clouds 21 1021 33 0 0.89 14 16:39 20.05.2020
2823 Clouds 21 1021 34 0 1.34 39 16:21 20.05.2020
2824 Clouds 21 1021 39 0 1.79 300 15:55 20.05.2020
2825 Clouds 21 1022 42 0 1.34 7 15:36 20.05.2020
2826 Clouds 21 1022 43 0 0.89 345 15:18 20.05.2020
2827 Clouds 21 1022 45 0 0.89 39 14:38 20.05.2020
2828 Clouds 21 1022 46 0 0.89 56 14:19 20.05.2020
2829 Clouds 20 1022 49 0 0.89 49 13:40 20.05.2020
2830 Clouds 20 1022 48 0 0.89 349 13:19 20.05.2020
2831 Clouds 19 1022 50 0 0.89 15 12:42 20.05.2020
2832 Clouds 19 1022 51 0 0.45 55 12:21 20.05.2020
2833 Clouds 18 1023 53 0 0.45 53 11:57 20.05.2020
2834 Clouds 17 1023 53 0 0.45 6 11:36 20.05.2020
2835 Clouds 17 1023 52 0 0.45 70 11:18 20.05.2020
2836 Clouds 19 1017 44 0 2.15 9 10:42 20.05.2020
2837 Clouds 16 1023 62 0 0.45 51 10:19 20.05.2020
2838 Clouds 16 1022 63 0 0.89 82 09:44 20.05.2020
2839 Clouds 16 1021 66 0 1.7 14 09:21 20.05.2020
2840 Clouds 15 1022 66 0 0.89 64 08:42 20.05.2020
2841 Clouds 14 1022 70 0 0.45 62 08:20 20.05.2020
2842 Clouds 14 1022 72 0 0.45 66 07:55 20.05.2020
2843 Clouds 14 1016 64 0 1.71 8 07:37 20.05.2020
2844 Clouds 14 1016 62 0 1.37 353 07:19 20.05.2020
2845 Clouds 9 1022 93 0 0.83 346 06:34 20.05.2020
2846 Clouds 12 1020 72 0 0.45 0 05:22 20.05.2020
2847 Clouds 12 1020 65 0 1.12 354 04:26 20.05.2020
2848 Clouds 13 1020 67 0 1.12 354 03:38 20.05.2020
2849 Clouds 10 1022 94 0 2.14 320 02:23 20.05.2020
2850 Clouds 15 1021 73 0 2.6 310 01:28 20.05.2020
2851 Clouds 14 1021 72 0 2.6 310 00:44 20.05.2020
2852 Clouds 14 1021 72 0 2.51 308 00:23 20.05.2020
2853 Clouds 14 1021 74 0 2.51 308 23:42 19.05.2020
2854 Clouds 15 1021 72 0 2.27 310 23:19 19.05.2020
2855 Clouds 15 1021 70 0 2.27 310 22:56 19.05.2020
2856 Clouds 15 1021 72 0 2.27 310 22:38 19.05.2020
2857 Clouds 15 1021 72 0 2.41 308 22:19 19.05.2020
2858 Clouds 15 1021 71 0 2.41 308 21:57 19.05.2020
2859 Clouds 15 1021 70 0 2.41 308 21:37 19.05.2020
2860 Clouds 16 1021 68 0 2.52 314 21:19 19.05.2020
2861 Clouds 17 1020 61 0 2.52 314 20:57 19.05.2020
2862 Clouds 13 1021 79 0 2.52 314 20:39 19.05.2020
2863 Clouds 14 1020 79 0 2.99 309 20:20 19.05.2020
2864 Clouds 14 1020 79 0 2.99 309 19:55 19.05.2020
2865 Clouds 14 1020 79 0 2.99 309 19:36 19.05.2020
2866 Clouds 20 1018 48 0 3.56 304 19:18 19.05.2020
2867 Clouds 19 1020 55 0 1.34 36 18:40 19.05.2020
2868 Clouds 19 1020 55 0 0.89 341 18:20 19.05.2020
2869 Clouds 19 1020 55 0 0.89 341 18:20 19.05.2020
2870 Clouds 19 1020 56 0 1.79 52 17:43 19.05.2020
2871 Clouds 20 1020 55 0 1.79 51 17:21 19.05.2020
2872 Clouds 20 1020 54 0 1.79 356 16:59 19.05.2020
2873 Clouds 19 1014 50 0 5.34 302 16:38 19.05.2020
2874 Clouds 20 1019 45 0 5.36 258 16:20 19.05.2020
2875 Clouds 19 1014 49 0 5.44 298 15:47 19.05.2020
2876 Clouds 19 1014 49 0 5.77 295 15:23 19.05.2020
2877 Clouds 20 1020 57 0 2.24 13 14:58 19.05.2020
2878 Clouds 20 1020 57 0 1.79 243 14:39 19.05.2020
2879 Clouds 19 1020 59 0 1.79 338 14:20 19.05.2020
2880 Clouds 19 1020 57 0 1.79 13 13:58 19.05.2020
2881 Clouds 19 1020 59 0 2.24 346 13:39 19.05.2020
2882 Clouds 19 1020 59 0 1.79 323 13:21 19.05.2020
2883 Clouds 20 1020 60 0 1.79 39 12:57 19.05.2020
2884 Clouds 19 1020 60 0 1.34 13 12:38 19.05.2020
2885 Clouds 15 1021 74 0 4.28 276 12:20 19.05.2020
2886 Clouds 18 1018 63 0 1.79 0 11:55 19.05.2020
2887 Clouds 18 1018 60 0 1.34 45 11:37 19.05.2020
2888 Clouds 17 1021 64 0 2.24 9 11:19 19.05.2020
2889 Clouds 17 1021 65 0 1.34 62 10:45 19.05.2020
2890 Clouds 17 1021 66 0 1.79 323 10:27 19.05.2020
2891 Clouds 16 1021 69 0 1.34 352 09:58 19.05.2020
2892 Clouds 16 1021 67 0 1.34 37 09:40 19.05.2020
2893 Clouds 16 1021 67 0 1.79 359 09:20 19.05.2020
2894 Clouds 15 1020 73 0 1.34 39 08:43 19.05.2020
2895 Clouds 15 1020 76 0 1.34 338 08:23 19.05.2020
2896 Clouds 14 1020 79 0 0.89 347 07:44 19.05.2020
2897 Clouds 14 1019 71 0 3.26 282 07:26 19.05.2020
2898 Clouds 13 1019 73 0 3.26 282 06:50 19.05.2020
2899 Clouds 10 1014 10 0 2.66 279 06:25 19.05.2020
2900 Clouds 11 1019 81 0 2.66 279 05:41 19.05.2020
2901 Clouds 10 1019 80 0 2.78 282 04:56 19.05.2020
2902 Clouds 11 1019 77 0 2.56 281 04:18 19.05.2020
2903 Clouds 14 1019 68 0 2.83 281 01:31 19.05.2020
2904 Clouds 14 1019 65 0 3.04 279 00:44 19.05.2020
2905 Clouds 14 1018 63 0 1.34 242 00:24 19.05.2020
2906 Clouds 14 1018 62 0 0.45 190 23:58 18.05.2020
2907 Clouds 14 1018 60 0 1.79 241 23:39 18.05.2020
2908 Clouds 15 1018 59 0 1.34 259 23:19 18.05.2020
2909 Clouds 16 1018 57 0 3.03 270 22:41 18.05.2020
2910 Clouds 16 1018 56 0 2.95 271 22:22 18.05.2020
2911 Clouds 18 1018 53 0 2.95 271 21:56 18.05.2020
2912 Clouds 18 1019 52 0 2.95 271 21:38 18.05.2020
2913 Clouds 18 1018 50 0 2.7 273 21:19 18.05.2020
2914 Clouds 21 1014 44 0 2.7 273 20:43 18.05.2020
2915 Clouds 20 1018 43 0 3.13 331 20:22 18.05.2020
2916 Clouds 21 1020 45 0 0.45 358 19:59 18.05.2020
2917 Clouds 21 1020 44 0 2.84 278 19:41 18.05.2020
2918 Clouds 21 1020 43 0 1.79 320 19:19 18.05.2020
2919 Clouds 22 1020 44 0 0.89 22 18:46 18.05.2020
2920 Clouds 22 1020 42 0 0.89 14 18:25 18.05.2020
2921 Clouds 22 1018 41 0 1.34 315 17:55 18.05.2020
2922 Clouds 18 1020 66 0 5.15 285 17:37 18.05.2020
2923 Clouds 22 1018 41 0 1.34 180 17:18 18.05.2020
2924 Clouds 23 1020 39 0 1.34 303 16:43 18.05.2020
2925 Clouds 19 1020 59 0 5.7 274 16:22 18.05.2020
2926 Clouds 22 1020 40 0 1.79 278 15:59 18.05.2020
2927 Clouds 22 1020 39 0 2.24 271 15:41 18.05.2020
2928 Clouds 22 1020 39 0 1.79 12 15:22 18.05.2020
2929 Clouds 22 1021 41 0 2.24 330 14:58 18.05.2020
2930 Clouds 21 1021 42 0 2.24 267 14:39 18.05.2020
2931 Clouds 21 1021 41 0 2.24 167 14:20 18.05.2020
2932 Clouds 21 1021 42 0 2.24 302 13:42 18.05.2020
2933 Clouds 21 1022 41 0 2.24 266 13:21 18.05.2020
2934 Clouds 21 1022 42 0 2.24 357 13:21 18.05.2020
2935 Clouds 21 1022 41 0 2.24 266 13:21 18.05.2020
2936 Clouds 21 1022 41 0 2.24 336 12:58 18.05.2020
2937 Clouds 21 1022 42 0 1.34 359 12:40 18.05.2020
2938 Clouds 18 1022 60 0 4.88 276 12:20 18.05.2020
2939 Clouds 18 1022 43 0 1.79 335 11:59 18.05.2020
2940 Clouds 18 1022 45 0 2.24 352 11:40 18.05.2020
2941 Clouds 18 1022 45 0 1.79 307 11:22 18.05.2020
2942 Clouds 18 1023 44 0 1.34 332 10:46 18.05.2020
2943 Clouds 18 1023 44 0 1.34 332 10:46 18.05.2020
2944 Clouds 18 1023 47 0 1.79 335 10:24 18.05.2020
2945 Clouds 17 1023 51 0 1.79 276 09:46 18.05.2020
2946 Clouds 14 1022 69 0 4.17 257 09:27 18.05.2020
2947 Clouds 15 1023 57 0 1.79 349 08:59 18.05.2020
2948 Clouds 14 1023 61 0 1.34 297 08:39 18.05.2020
2949 Clouds 13 1023 65 0 0.89 297 08:21 18.05.2020
2950 Clouds 12 1016 66 0 3.73 248 07:43 18.05.2020
2951 Clouds 13 1021 58 0 0.89 224 07:23 18.05.2020
2952 Clouds 10 1021 69 0 3.38 240 06:47 18.05.2020
2953 Clouds 9 1021 72 0 0.89 186 06:23 18.05.2020
2954 Clouds 8 1021 76 0 3.26 237 05:44 18.05.2020
2955 Clouds 8 1021 72 0 0.45 141 03:53 18.05.2020
2956 Clouds 9 1021 70 0 2.91 260 03:22 18.05.2020
2957 Clear 10 1021 68 0 3.06 260 01:46 18.05.2020
2958 Clear 11 1021 63 0 3.25 255 00:49 18.05.2020
2959 Clear 11 1021 61 0 0.45 261 00:19 18.05.2020
2960 Clear 11 1021 60 0 1.34 261 23:55 17.05.2020
2961 Clear 12 1021 59 0 3.44 248 23:37 17.05.2020
2962 Clear 12 1021 58 0 0.89 256 23:18 17.05.2020
2963 Clear 12 1021 56 0 1.34 261 22:40 17.05.2020
2964 Clear 13 1021 55 0 1.79 215 22:22 17.05.2020
2965 Clear 13 1021 52 0 2.24 248 21:59 17.05.2020
2966 Clear 13 1021 51 0 3.27 259 21:41 17.05.2020
2967 Clear 14 1021 49 0 0.45 200 21:20 17.05.2020
2968 Clear 15 1020 45 0 3.12 259 20:56 17.05.2020
2969 Clear 16 1020 42 0 3.12 259 20:38 17.05.2020
2970 Clouds 16 1020 39 0 0.45 326 20:19 17.05.2020
2971 Clouds 17 1020 37 0 3.34 267 19:47 17.05.2020
2972 Clouds 18 1020 36 0 2.68 310 19:28 17.05.2020
2973 Clouds 18 1020 35 0 2.24 237 18:58 17.05.2020
2974 Clouds 18 1020 34 0 3.95 274 18:38 17.05.2020
2975 Clouds 18 1020 33 0 6.26 289 18:20 17.05.2020
2976 Clouds 19 1022 34 0 1.79 331 17:41 17.05.2020
2977 Clouds 19 1022 34 0 1.79 30 17:23 17.05.2020
2978 Clouds 18 1022 34 0 1.79 358 16:57 17.05.2020
2979 Clouds 19 1022 36 0 1.34 3 16:39 17.05.2020
2980 Clouds 18 1022 38 0 1.34 39 16:20 17.05.2020
2981 Clouds 18 1022 38 0 1.34 39 16:20 17.05.2020
2982 Clouds 18 1016 35 0 5.3 276 15:47 17.05.2020
2983 Clear 19 1016 36 0 5.06 273 15:25 17.05.2020
2984 Clear 19 1016 36 0 5.06 273 14:58 17.05.2020
2985 Clear 19 1016 36 0 5.06 273 14:58 17.05.2020
2986 Clear 18 1017 36 0 5.06 273 14:40 17.05.2020
2987 Clear 18 1023 46 0 1.34 252 14:22 17.05.2020
2988 Clear 18 1023 45 0 1.34 50 13:43 17.05.2020
2989 Clear 17 1023 47 0 1.79 65 13:21 17.05.2020
2990 Clear 14 1023 55 0 0.89 1 10:50 17.05.2020
2991 Clouds 10 1020 70 0 3.18 297 04:19 17.05.2020
2992 Clouds 11 1018 68 0 3.16 281 02:29 17.05.2020
2993 Clouds 11 1018 67 0 0.89 278 01:55 17.05.2020
2994 Clouds 10 1018 68 0 3.36 252 00:58 17.05.2020
2995 Clouds 11 1018 67 0 3.36 252 00:39 17.05.2020
2996 Clouds 11 1018 66 0 3.17 248 23:57 16.05.2020
2997 Clouds 11 1018 64 0 3.17 248 23:39 16.05.2020
2998 Clouds 10 1018 64 0 2.73 252 23:20 16.05.2020
2999 Clouds 11 1018 63 0 2.73 252 22:58 16.05.2020
3000 Clouds 11 1014 64 0 2.73 252 22:39 16.05.2020
3001 Clouds 11 1018 62 0 2.25 262 22:19 16.05.2020
3002 Clouds 12 1019 60 0 2.25 262 21:45 16.05.2020
3003 Clouds 12 1018 59 0 2.42 258 21:27 16.05.2020
3004 Clouds 13 1018 54 0 0.45 261 20:58 16.05.2020
3005 Clouds 14 1018 51 0 0.89 230 20:39 16.05.2020
3006 Clouds 15 1018 47 0 1.34 227 20:21 16.05.2020
3007 Clouds 16 1018 43 0 0.89 302 19:58 16.05.2020
3008 Clouds 15 1020 44 0 3.02 264 19:39 16.05.2020
3009 Clouds 16 1020 42 0 0.45 357 19:21 16.05.2020
3010 Clouds 16 1020 39 0 1.34 287 18:42 16.05.2020
3011 Clouds 17 1014 38 0 4.57 272 18:24 16.05.2020
3012 Clouds 17 1021 38 0 1.79 34 17:57 16.05.2020
3013 Clouds 17 1021 37 0 1.34 354 17:38 16.05.2020
3014 Clouds 17 1021 38 0 2.24 22 17:19 16.05.2020
3015 Clouds 17 1021 39 0 1.34 301 16:41 16.05.2020
3016 Clouds 17 1021 40 0 1.34 269 16:22 16.05.2020
3017 Clouds 16 1021 40 0 1.79 323 15:58 16.05.2020
3018 Clouds 16 1021 40 0 2.24 311 15:40 16.05.2020
3019 Clouds 16 1021 41 0 1.79 16 15:19 16.05.2020
3020 Clouds 15 1022 42 0 1.79 19 14:48 16.05.2020
3021 Clouds 16 1016 39 0 5.54 267 14:21 16.05.2020
3022 Clouds 16 1016 41 0 5.71 269 13:59 16.05.2020
3023 Clouds 16 1016 41 0 5.71 269 13:59 16.05.2020
3024 Clouds 15 1016 40 0 5.71 269 13:40 16.05.2020
3025 Clouds 15 1016 40 0 5.5 264 13:22 16.05.2020
3026 Clouds 14 1016 42 0 5.5 264 12:55 16.05.2020
3027 Clouds 14 1016 44 0 5.5 264 12:37 16.05.2020
3028 Clouds 15 1023 44 0 1.79 266 12:18 16.05.2020
3029 Clouds 15 1016 42 0 5.23 262 11:39 16.05.2020
3030 Clear 14 1016 47 0 5.05 267 11:20 16.05.2020
3031 Clear 14 1023 47 0 1.34 335 10:56 16.05.2020
3032 Clear 14 1017 49 0 5.05 267 10:37 16.05.2020
3033 Clear 14 1017 47 0 4.88 272 10:19 16.05.2020
3034 Clear 15 1017 45 0 4.88 272 09:45 16.05.2020
3035 Clear 11 1020 62 0 0.89 347 09:27 16.05.2020
3036 Clear 9 1020 68 0 0.89 143 08:46 16.05.2020
3037 Clear 11 1017 67 0 4.11 265 08:23 16.05.2020
3038 Clear 9 1016 74 0 4.11 265 07:58 16.05.2020
3039 Clear 8 1017 75 0 4.11 265 07:40 16.05.2020
3040 Clear 8 1022 73 0 1.79 230 07:21 16.05.2020
3041 Clear 6 1021 78 0 1.79 224 06:46 16.05.2020
3042 Clear 5 1016 90 0 3.1 250 06:19 16.05.2020
3043 Clear 4 1016 91 0 3.1 250 05:41 16.05.2020
3044 Clear 6 1021 77 0 3.2 254 04:53 16.05.2020
3045 Clear 7 1016 79 0 3.18 266 03:26 16.05.2020
3046 Clear 4 1022 93 0 3.18 266 02:42 16.05.2020
3047 Clouds 4 1022 92 0 3.25 276 02:18 16.05.2020
3048 Clouds 4 1022 92 0 3.25 276 01:39 16.05.2020
3049 Clouds 9 1022 66 0 3.25 279 00:57 16.05.2020
3050 Clouds 5 1022 90 0 3.25 279 00:39 16.05.2020
3051 Clouds 11 1021 61 0 0.45 234 00:19 16.05.2020
3052 Clouds 11 1015 61 0 3.19 281 23:39 15.05.2020
3053 Clouds 11 1020 59 0 1.79 280 23:19 15.05.2020
3054 Clouds 11 1015 59 0 3.19 282 22:42 15.05.2020
3055 Clouds 11 1020 55 0 3.45 283 22:20 15.05.2020
3056 Clouds 12 1020 53 0 0.89 326 21:57 15.05.2020
3057 Clouds 11 1015 53 0 3.45 283 21:39 15.05.2020
3058 Clouds 12 1020 50 0 0.45 1 21:20 15.05.2020
3059 Clouds 13 1019 49 0 3.13 293 20:56 15.05.2020
3060 Clouds 13 1019 48 0 3.37 291 20:37 15.05.2020
3061 Clouds 13 1019 48 0 1.79 323 20:19 15.05.2020
3062 Clouds 14 1019 46 0 3.13 280 19:43 15.05.2020
3063 Clouds 14 1019 45 0 1.34 289 19:24 15.05.2020
3064 Clouds 14 1019 42 0 5.36 258 18:58 15.05.2020
3065 Clouds 15 1018 41 0 2.68 314 18:38 15.05.2020
3066 Clouds 15 1018 39 0 3.58 278 18:18 15.05.2020
3067 Clouds 16 1018 36 0 4.92 306 17:39 15.05.2020
3068 Clouds 16 1013 36 0 4.16 278 17:19 15.05.2020
3069 Clouds 16 1013 36 0 4.51 289 16:56 15.05.2020
3070 Clouds 16 1013 37 0 4.16 278 16:38 15.05.2020
3071 Clouds 16 1019 39 0 1.34 28 16:19 15.05.2020
3072 Clouds 16 1018 35 0 2.24 141 15:41 15.05.2020
3073 Clouds 15 1019 40 0 2.24 53 15:22 15.05.2020
3074 Clouds 15 1019 39 0 1.79 18 14:59 15.05.2020
3075 Clouds 15 1019 41 0 1.79 68 14:41 15.05.2020
3076 Clouds 16 1019 42 0 2.24 326 14:23 15.05.2020
3077 Clouds 16 1019 39 0 0.89 1 13:58 15.05.2020
3078 Clouds 15 1013 36 0 4.3 306 13:38 15.05.2020
3079 Clouds 15 1019 41 0 1.79 316 13:19 15.05.2020
3080 Clouds 14 1019 41 0 0.89 347 12:39 15.05.2020
3081 Clear 14 1019 41 0 1.34 85 12:18 15.05.2020
3082 Clear 13 1019 41 0 1.79 27 11:56 15.05.2020
3083 Clear 13 1019 42 0 1.34 330 11:38 15.05.2020
3084 Clear 12 1019 42 0 1.34 303 11:19 15.05.2020
3085 Clear 13 1018 39 0 0.89 300 10:57 15.05.2020
3086 Clear 13 1018 40 0 1.34 347 10:38 15.05.2020
3087 Clear 13 1018 40 0 1.34 347 10:38 15.05.2020
3088 Clear 12 1019 47 0 1.34 27 10:20 15.05.2020
3089 Clear 12 1019 49 0 0.45 58 09:57 15.05.2020
3090 Clear 12 1019 50 0 0.45 58 09:36 15.05.2020
3091 Clear 9 1018 54 0 0.45 119 09:18 15.05.2020
3092 Clear 9 1014 56 0 1.56 319 08:38 15.05.2020
3093 Clear 8 1014 62 0 1.65 331 08:20 15.05.2020
3094 Clear 8 1014 62 0 1.65 331 08:20 15.05.2020
3095 -273 0 0 0 0 0 07:59 15.05.2020
3096 Clear 4 1014 79 0 1.65 331 07:40 15.05.2020
3097 Clear 5 1019 73 0 1.34 285 07:21 15.05.2020
3098 Clear 2 1018 78 0 1.45 331 06:32 15.05.2020
3099 Clear 1 1018 80 0 1.27 342 05:33 15.05.2020
3100 Clear 3 1018 75 0 1.08 52 03:52 15.05.2020
3101 Clear 3 1018 75 0 1.56 61 02:58 15.05.2020
3102 Clear 4 1018 72 0 1.45 55 01:37 15.05.2020
3103 Clear 4 1018 70 0 2 51 01:19 15.05.2020
3104 Clear 5 1018 69 0 2 51 00:43 15.05.2020
3105 Clear 5 1018 69 0 2.42 48 00:22 15.05.2020
3106 Clear 4 1014 73 0 2.42 48 23:41 14.05.2020
3107 Clear 6 1018 59 0 0.45 335 23:20 14.05.2020
3108 Clear 6 1018 61 0 2.67 41 22:55 14.05.2020
3109 Clear 7 1018 62 0 2.67 41 22:37 14.05.2020
3110 Clear 7 1018 57 0 2.74 34 22:19 14.05.2020
3111 Clear 8 1018 59 0 2.74 34 21:42 14.05.2020
3112 Clear 8 1018 59 0 2.74 34 21:42 14.05.2020
3113 Clear 9 1018 57 0 2.66 32 21:20 14.05.2020
3114 Clear 10 1018 50 0 2.88 32 20:59 14.05.2020
3115 Clear 11 1017 45 0 2.88 32 20:40 14.05.2020
3116 Clouds 12 1017 42 0 2.79 29 20:20 14.05.2020
3117 Clouds 13 1017 39 0 0.45 46 19:57 14.05.2020
3118 Clouds 13 1017 37 0 1.34 32 19:39 14.05.2020
3119 Clouds 13 1017 39 0 3.13 21 19:20 14.05.2020
3120 Clouds 13 1017 39 0 0.89 317 18:58 14.05.2020
3121 Clouds 14 1017 39 0 1.34 345 18:38 14.05.2020
3122 Clouds 14 1017 38 0 3.13 15 18:19 14.05.2020
3123 Clouds 14 1017 37 0 3.84 11 17:57 14.05.2020
3124 Clouds 15 1017 34 0 2.24 359 17:37 14.05.2020
3125 Clouds 15 1017 36 0 3.58 355 17:18 14.05.2020
3126 Clouds 14 1018 43 0 1.79 55 16:57 14.05.2020
3127 Clouds 15 1017 34 0 5.81 327 16:37 14.05.2020
3128 Clouds 15 1017 35 0 1.79 334 16:18 14.05.2020
3129 Clouds 15 1017 36 0 0.45 330 15:55 14.05.2020
3130 Clouds 15 1017 37 0 4.02 309 15:36 14.05.2020
3131 Clouds 15 1017 36 0 4.92 306 15:18 14.05.2020
3132 Clouds 14 1018 40 0 1.34 2 14:40 14.05.2020
3133 Clouds 14 1018 42 0 2.68 300 14:20 14.05.2020
3134 Clouds 14 1018 43 0 1.34 300 13:57 14.05.2020
3135 Clouds 14 1018 44 0 2.68 19 13:38 14.05.2020
3136 Clouds 13 1018 49 0 2.68 16 13:20 14.05.2020
3137 Clouds 13 1019 65 0 1.34 68 12:58 14.05.2020
3138 Clouds 13 1018 52 0 1.34 334 12:39 14.05.2020
3139 Clouds 13 1013 45 0 3.46 332 12:20 14.05.2020
3140 Clouds 13 1018 57 0 1.79 347 11:57 14.05.2020
3141 Clouds 11 1018 66 0 1.34 18 11:39 14.05.2020
3142 Clouds 11 1018 66 0 2.68 338 11:20 14.05.2020
3143 Clouds 11 1018 70 0 0.89 23 10:55 14.05.2020
3144 Clouds 12 1018 69 0 1.34 341 10:36 14.05.2020
3145 Clouds 10 1013 78 0 3.18 341 10:18 14.05.2020
3146 Clouds 10 1017 74 0 2.68 16 09:42 14.05.2020
3147 Clouds 9 1016 76 0 0.45 324 09:22 14.05.2020
3148 Clouds 9 1017 78 0 1.34 72 08:42 14.05.2020
3149 Clouds 8 1012 10 0 4.02 332 08:21 14.05.2020
3150 Clouds 8 1011 10 0 4.02 332 07:46 14.05.2020
3151 Clouds 8 1016 79 0 0.89 47 07:25 14.05.2020
3152 Clouds 8 1015 80 0 0.45 18 06:55 14.05.2020
3153 Clouds 8 1015 82 0 4.25 326 06:31 14.05.2020
3154 Clouds 7 1015 83 0 3.13 311 05:57 14.05.2020
3155 Clouds 6 1014 84 0 1.34 292 05:35 14.05.2020
3156 Clouds 7 1014 82 0 1.79 320 04:34 14.05.2020
3157 Clouds 6 1009 98 0 3.96 315 03:30 14.05.2020
3158 Clouds 7 1008 95 0 2.91 318 02:43 14.05.2020
3159 Clouds 6 1008 96 0 2.27 337 02:19 14.05.2020
3160 Clouds 7 1008 92 0 2.27 337 01:35 14.05.2020
3161 Clouds 8 1012 75 0 3.13 309 00:50 14.05.2020
3162 Clouds 8 1012 73 0 3.13 319 00:25 14.05.2020
3163 Clouds 8 1011 69 0 1.79 344 23:45 13.05.2020
3164 Clouds 8 1011 68 0 0.89 333 23:22 13.05.2020
3165 Clouds 8 1011 69 0 1.34 314 22:58 13.05.2020
3166 Clouds 8 1011 67 0 0.89 300 22:39 13.05.2020
3167 Clouds 9 1011 65 0 2.24 340 22:21 13.05.2020
3168 Clouds 9 1010 62 0 3.13 321 21:57 13.05.2020
3169 Clouds 10 1010 60 0 4.92 33 21:38 13.05.2020
3170 Clouds 10 1010 60 0 4.92 33 21:38 13.05.2020
3171 Clouds 10 1010 56 0 1.29 330 21:19 13.05.2020
3172 Clouds 11 1010 50 0 0.45 289 20:41 13.05.2020
3173 Clouds 13 1010 47 0 0.45 15 20:23 13.05.2020
3174 Clouds 14 1010 43 0 0.93 308 19:57 13.05.2020
3175 Clouds 14 1010 42 0 0.93 308 19:39 13.05.2020
3176 Clouds 14 1010 40 0 1.34 16 19:21 13.05.2020
3177 Clouds 14 1005 37 0 1.35 304 18:42 13.05.2020
3178 Clouds 15 1010 37 0 1.79 40 18:22 13.05.2020
3179 Clouds 15 1010 37 0 1.79 40 18:20 13.05.2020
3180 Clouds 14 1006 38 0 1.22 293 17:39 13.05.2020
3181 Clouds 14 1006 36 0 1.37 277 17:20 13.05.2020
3182 Clouds 14 1006 40 0 1.37 277 16:56 13.05.2020
3183 Clouds 15 1006 38 0 1.37 277 16:37 13.05.2020
3184 Clouds 14 1012 38 0 0.45 150 16:18 13.05.2020
3185 Clouds 14 1012 39 0 1.42 256 15:42 13.05.2020
3186 Clouds 14 1012 39 0 1.42 256 15:42 13.05.2020
3187 Clouds 14 1012 40 0 2.01 243 15:20 13.05.2020
3188 Clouds 14 1012 42 0 0.89 58 14:57 13.05.2020
3189 Clouds 13 1012 43 0 1.34 58 14:39 13.05.2020
3190 Clouds 15 1007 35 0 2.09 230 14:21 13.05.2020
3191 Clouds 14 1007 37 0 2.01 243 13:57 13.05.2020
3192 Clouds 14 1007 37 0 2.01 243 13:57 13.05.2020
3193 Clouds 13 1013 41 0 1.34 288 13:39 13.05.2020
3194 Clouds 13 1013 43 0 0.89 289 13:20 13.05.2020
3195 Clouds 14 1007 37 0 2.43 251 12:54 13.05.2020
3196 Clouds 13 1014 47 0 0.89 292 12:36 13.05.2020
3197 Clouds 13 1014 49 0 0.45 298 12:18 13.05.2020
3198 Clouds 13 1007 42 0 2.95 269 11:54 13.05.2020
3199 Clouds 13 1007 42 0 2.95 269 11:36 13.05.2020
3200 Clouds 12 1014 52 0 0.45 65 11:18 13.05.2020
3201 Clouds 12 1012 51 0 0.89 316 10:54 13.05.2020
3202 Clouds 12 1012 53 0 0.45 12 10:36 13.05.2020
3203 Clouds 12 1014 52 0 3.62 274 10:18 13.05.2020
3204 Clouds 11 1014 56 0 0.45 38 09:40 13.05.2020
3205 Clouds 9 1014 60 0 2.61 268 09:22 13.05.2020
3206 Clouds 9 1008 70 0 2.61 268 08:43 13.05.2020
3207 Clouds 9 1008 72 0 2.28 258 08:22 13.05.2020
3208 Clouds 8 1013 70 0 2.28 258 07:59 13.05.2020
3209 Clouds 7 1013 74 0 2.28 258 07:37 13.05.2020
3210 Clouds 6 1013 77 0 2.26 250 06:59 13.05.2020
3211 Clouds 6 1013 79 0 2.26 250 06:41 13.05.2020
3212 Clouds 1 1014 91 0 2.23 235 05:51 13.05.2020
3213 Clouds 5 1008 93 0 2.33 238 04:41 13.05.2020
3214 Clouds 5 1008 91 0 2.21 243 02:59 13.05.2020
3215 Clear 5 1013 78 0 0.89 214 02:26 13.05.2020
3216 Clouds 5 1013 77 0 0.45 177 01:26 13.05.2020
3217 Clouds 5 1014 76 0 0.45 189 00:41 13.05.2020
3218 Clouds 6 1014 77 0 0.45 151 00:19 13.05.2020
3219 Clouds 6 1014 77 0 0.45 179 23:40 12.05.2020
3220 Clouds 6 1014 78 0 2.34 290 23:21 12.05.2020
3221 Clouds 7 1014 76 0 2.34 290 22:57 12.05.2020
3222 Clouds 7 1014 75 0 2.34 290 22:39 12.05.2020
3223 Clouds 7 1014 70 0 2.62 292 22:20 12.05.2020
3224 Clouds 9 1014 67 0 2.62 292 21:55 12.05.2020
3225 Clouds 9 1014 63 0 2.62 292 21:37 12.05.2020
3226 Clouds 10 1014 58 0 0.45 235 21:18 12.05.2020
3227 Clouds 10 1014 57 0 0.45 237 20:56 12.05.2020
3228 Clouds 10 1014 55 0 0.45 190 20:38 12.05.2020
3229 Rain 11 1014 53 0 0.89 313 20:20 12.05.2020
3230 Rain 11 1014 51 0 3.71 288 19:56 12.05.2020
3231 Rain 11 1014 49 0 1.34 225 19:37 12.05.2020
3232 Clouds 11 1014 48 0 1.79 211 19:18 12.05.2020
3233 Clouds 12 1014 45 0 4.33 269 18:42 12.05.2020
3234 Clouds 12 1014 44 0 1.34 193 18:24 12.05.2020
3235 Clouds 13 1014 41 0 0.89 285 17:58 12.05.2020
3236 Clouds 13 1015 40 0 1.79 247 17:39 12.05.2020
3237 Clouds 13 1015 41 0 1.79 156 17:21 12.05.2020
3238 Clouds 13 1015 41 0 4.02 268 16:43 12.05.2020
3239 Clouds 13 1015 40 0 3.13 275 16:23 12.05.2020
3240 Clouds 13 1015 45 0 6.26 272 15:56 12.05.2020
3241 Clouds 14 1016 42 0 2.24 211 15:37 12.05.2020
3242 Clouds 11 1018 54 0 1.79 30 15:18 12.05.2020
3243 Clouds 11 1018 54 0 1.79 30 15:18 12.05.2020
3244 Clouds 12 1016 47 0 2.68 151 14:55 12.05.2020
3245 Clouds 12 1017 47 0 5.58 270 14:36 12.05.2020
3246 Clouds 12 1017 45 0 3.13 117 14:18 12.05.2020
3247 Clouds 11 1017 52 0 2.24 252 13:55 12.05.2020
3248 Clouds 10 1017 57 0 2.24 241 13:37 12.05.2020
3249 Clouds 10 1017 65 0 2.24 220 13:18 12.05.2020
3250 Clouds 10 1017 68 0 1.34 263 12:57 12.05.2020
3251 Clouds 12 1017 50 0 0.45 215 12:38 12.05.2020
3252 Clouds 11 1012 51 0 5.75 274 12:20 12.05.2020
3253 Clouds 10 1017 53 0 1.79 272 11:57 12.05.2020
3254 Clouds 10 1017 53 0 1.34 8 11:37 12.05.2020
3255 Rain 10 1018 60 0 1.34 259 11:19 12.05.2020
3256 Rain 10 1012 55 0 5.63 278 10:56 12.05.2020
3257 Rain 10 1017 55 0 1.34 272 10:37 12.05.2020
3258 Rain 10 1012 58 0 5.16 278 10:18 12.05.2020
3259 Rain 11 1012 57 0 5.16 278 09:57 12.05.2020
3260 Rain 8 1018 69 0 1.34 335 09:38 12.05.2020
3261 Clear 6 1015 66 0 0.45 28 09:20 12.05.2020
3262 Clear 7 1012 75 0 4.52 282 08:41 12.05.2020
3263 Clear 6 1012 76 0 4.4 283 08:21 12.05.2020
3264 Clear 4 1011 81 0 4.4 283 07:57 12.05.2020
3265 Clear 4 1011 81 0 4.4 283 07:39 12.05.2020
3266 Clouds 3 1017 84 0 4.48 286 07:19 12.05.2020
3267 Clouds 2 1016 88 0 1.34 194 06:38 12.05.2020
3268 Clouds 2 1016 88 0 1.34 194 06:38 12.05.2020
3269 Clouds 2 1016 89 0 2.24 170 06:19 12.05.2020
3270 Clouds 2 1016 89 0 0.45 207 05:45 12.05.2020
3271 Clouds 1 1015 86 0 3.84 283 04:41 12.05.2020
3272 Clouds 1 1014 82 0 3.72 284 03:22 12.05.2020
3273 Clouds 1 1014 84 0 3.5 289 02:27 12.05.2020
3274 Clouds 1 1014 85 0 3.5 289 01:46 12.05.2020
3275 Clouds 1 1014 84 0 3.37 297 00:59 12.05.2020
3276 Clouds 2 1013 83 0 3.46 309 00:24 12.05.2020
3277 Clouds 2 1013 83 0 3.46 309 23:57 11.05.2020
3278 Clouds 2 1013 82 0 3.46 309 23:38 11.05.2020
3279 Clouds 2 1013 79 0 3.54 329 23:20 11.05.2020
3280 Clouds 4 1012 63 0 3.54 329 22:58 11.05.2020
3281 Clouds 4 1012 63 0 1.79 321 22:40 11.05.2020
3282 Clouds 5 1012 60 0 2.24 282 22:19 11.05.2020
3283 Clouds 5 1011 59 0 2.68 302 21:55 11.05.2020
3284 Clear 6 1011 59 0 5.36 316 21:37 11.05.2020
3285 Clear 6 1011 60 0 0.89 310 21:19 11.05.2020
3286 Clear 7 1010 54 0 1.79 359 20:57 11.05.2020
3287 Clear 7 1010 53 0 4.92 328 20:38 11.05.2020
3288 Clouds 8 1010 54 0 2.68 334 20:19 11.05.2020
3289 Clouds 9 1009 58 0 2.68 335 19:54 11.05.2020
3290 Clouds 8 1009 60 0 1.79 8 19:36 11.05.2020
3291 Clouds 8 1009 62 0 2.68 323 19:18 11.05.2020
3292 Clouds 9 1008 57 0 4.47 359 18:54 11.05.2020
3293 Clouds 9 1008 54 0 3.58 18 18:36 11.05.2020
3294 Clouds 8 1009 59 0 6.71 359 18:18 11.05.2020
3295 Clouds 8 1008 67 0 7.6 330 17:40 11.05.2020
3296 Clouds 8 1008 72 0 3.58 351 17:22 11.05.2020
3297 Clouds 7 1008 75 0 5.81 320 16:58 11.05.2020
3298 Clouds 8 1008 81 0 6.71 330 16:38 11.05.2020
3299 Rain 7 1008 92 0 4.02 317 16:20 11.05.2020
3300 Rain 7 1007 95 0 2.24 335 15:57 11.05.2020
3301 Rain 7 1008 95 0 4.92 344 15:38 11.05.2020
3302 Rain 7 1008 94 0 5.36 334 15:18 11.05.2020
3303 Rain 7 1008 95 0 6.26 323 14:42 11.05.2020
3304 Rain 7 1008 95 0 6.26 323 14:42 11.05.2020
3305 Rain 7 1008 90 0 3.13 347 14:22 11.05.2020
3306 Rain 7 1008 91 0 7.15 278 13:59 11.05.2020
3307 Rain 7 1008 91 0 3.13 279 13:41 11.05.2020
3308 Rain 7 1007 91 0 2.24 320 13:19 11.05.2020
3309 Rain 7 1007 91 0 4.02 21 12:58 11.05.2020
3310 Rain 7 1007 92 0 2.68 321 12:39 11.05.2020
3311 Rain 7 1007 92 0 2.68 8 12:21 11.05.2020
3312 Rain 7 1007 92 0 4.02 320 11:56 11.05.2020
3313 Rain 6 1007 91 0 4.47 320 11:37 11.05.2020
3314 Rain 6 1007 92 0 5.81 266 11:18 11.05.2020
3315 Rain 6 1007 91 0 6.26 303 10:54 11.05.2020
3316 Rain 6 1007 90 0 2.68 309 10:36 11.05.2020
3317 Rain 6 1007 89 0 6.26 300 10:18 11.05.2020
3318 Rain 6 1007 89 0 4.47 314 09:42 11.05.2020
3319 Rain 6 1007 88 0 2.68 330 09:22 11.05.2020
3320 Rain 6 1007 87 0 1.79 289 08:59 11.05.2020
3321 Rain 6 1006 87 0 3.13 273 08:39 11.05.2020
3322 Rain 6 1006 86 0 1.79 317 08:19 11.05.2020
3323 Rain 6 1006 87 0 4.02 320 07:50 11.05.2020
3324 Rain 6 1006 86 0 3.13 317 07:32 11.05.2020
3325 Rain 6 1007 82 0 2.68 359 06:53 11.05.2020
3326 Rain 7 1006 80 0 5.36 335 06:26 11.05.2020
3327 Rain 9 1005 55 0 4.02 309 05:30 11.05.2020
3328 Rain 9 1001 60 0 5.81 340 04:44 11.05.2020
3329 Rain 10 1001 63 0 6.18 342 03:46 11.05.2020
3330 Clouds 11 1000 78 0 5.8 343 02:35 11.05.2020
3331 Rain 12 1000 71 0 6.53 341 01:47 11.05.2020
3332 Rain 13 999 72 0 6.89 348 00:54 11.05.2020
3333 Rain 15 1004 72 0 6.82 347 00:27 11.05.2020
3334 Rain 15 1004 72 0 6.82 347 23:56 10.05.2020
3335 Rain 16 1003 73 0 6.82 347 23:36 10.05.2020
3336 Clouds 17 1003 73 0 6.6 351 23:18 10.05.2020
3337 Clouds 17 1004 70 0 6.6 351 22:42 10.05.2020
3338 Clouds 17 1003 66 0 5.26 345 22:24 10.05.2020
3339 Clouds 17 1002 65 0 5.26 345 21:55 10.05.2020
3340 Clouds 17 1002 64 0 5.26 345 21:37 10.05.2020
3341 Rain 18 1002 62 0 0.45 170 21:18 10.05.2020
3342 Rain 18 1002 58 0 5.1 352 20:41 10.05.2020
3343 Rain 18 1002 56 0 2.45 333 20:23 10.05.2020
3344 Rain 19 1002 56 0 1.79 321 19:56 10.05.2020
3345 Rain 19 1002 60 0 2.24 330 19:38 10.05.2020
3346 Rain 19 1002 59 0 2.28 324 19:20 10.05.2020
3347 Rain 20 1002 58 0 2.28 324 18:54 10.05.2020
3348 Rain 21 1002 57 0 2.68 324 18:36 10.05.2020
3349 Clouds 21 1002 56 0 0.89 326 18:18 10.05.2020
3350 Clouds 20 1002 61 0 4.02 304 17:57 10.05.2020
3351 Clouds 20 1003 67 0 1.79 327 17:37 10.05.2020
3352 Clouds 20 1003 64 0 1.34 261 17:19 10.05.2020
3353 Clouds 22 1002 46 0 0.45 261 16:43 10.05.2020
3354 Rain 23 1003 40 0 0.87 244 16:21 10.05.2020
3355 Rain 24 1003 39 0 1.79 213 15:58 10.05.2020
3356 Rain 24 1003 39 0 1.34 197 15:39 10.05.2020
3357 Rain 24 1003 39 0 0.87 244 15:39 10.05.2020
3358 Clouds 24 1003 38 0 2.24 201 15:20 10.05.2020
3359 Clouds 26 998 36 0 0.5 205 14:55 10.05.2020
3360 Clouds 27 998 34 0 0.5 205 14:37 10.05.2020
3361 Clouds 26 999 34 0 2.07 156 14:19 10.05.2020
3362 Clouds 26 999 35 0 2.07 156 13:57 10.05.2020
3363 Clouds 26 999 35 0 2.07 156 13:57 10.05.2020
3364 Clouds 26 999 35 0 2.07 156 13:36 10.05.2020
3365 Clouds 24 1004 38 0 0.45 88 13:18 10.05.2020
3366 Clouds 24 1003 40 0 0.89 135 13:18 10.05.2020
3367 Clouds 24 1004 40 0 2.01 151 12:42 10.05.2020
3368 Clouds 22 1004 45 0 1.34 270 12:23 10.05.2020
3369 Clouds 19 1005 66 0 2.09 142 11:59 10.05.2020
3370 Clouds 21 1005 48 0 0.45 194 11:40 10.05.2020
3371 Clouds 22 1000 44 0 2.18 135 11:21 10.05.2020
3372 Clouds 21 1001 45 0 2.18 135 10:58 10.05.2020
3373 Clouds 21 1001 45 0 2.18 135 10:40 10.05.2020
3374 Clouds 21 1005 39 0 0.45 28 10:22 10.05.2020
3375 Clouds 19 1006 42 0 2.68 159 09:42 10.05.2020
3376 Clouds 15 1007 58 0 1.97 127 09:23 10.05.2020
3377 Clouds 16 1001 53 0 1.97 127 08:59 10.05.2020
3378 Clouds 16 1001 53 0 1.97 127 08:41 10.05.2020
3379 Clouds 15 1002 67 0 1.81 130 08:22 10.05.2020
3380 Clouds 13 1002 73 0 1.81 130 07:43 10.05.2020
3381 Clouds 12 1006 68 0 1.71 117 07:19 10.05.2020
3382 Clouds 10 1006 71 0 1.71 117 06:51 10.05.2020
3383 Clouds 10 1007 73 0 1.98 123 06:27 10.05.2020
3384 Clouds 9 1007 75 0 1.98 123 05:48 10.05.2020
3385 Clear 9 1007 74 0 1.89 125 04:48 10.05.2020
3386 Clear 10 1007 73 0 1.89 125 04:29 10.05.2020
3387 Clouds 9 1008 72 0 1.55 118 03:51 10.05.2020
3388 Clouds 10 1008 71 0 0.45 326 03:30 10.05.2020
3389 Clouds 11 1009 70 0 1.88 98 02:25 10.05.2020
3390 Clouds 11 1009 68 0 1.37 101 01:59 10.05.2020
3391 Clouds 11 1009 67 0 1.37 101 01:40 10.05.2020
3392 Clouds 11 1009 66 0 1.58 100 01:19 10.05.2020
3393 Clouds 12 1009 66 0 1.58 100 00:53 10.05.2020
3394 Clouds 12 1009 65 0 1.89 88 00:23 10.05.2020
3395 Clouds 13 1009 63 0 1.89 88 23:57 09.05.2020
3396 Clouds 13 1009 63 0 1.89 88 23:57 09.05.2020
3397 Clouds 14 1010 62 0 1.7 59 23:38 09.05.2020
3398 Clouds 14 1010 61 0 1.7 59 23:19 09.05.2020
3399 Clouds 14 1010 59 0 1.7 59 22:42 09.05.2020
3400 Clouds 15 1010 57 0 1.12 78 22:23 09.05.2020
3401 Clouds 15 1010 55 0 1.12 78 21:58 09.05.2020
3402 Clouds 19 1005 42 0 1.12 78 21:40 09.05.2020
3403 Clouds 18 1010 50 0 1.35 130 21:21 09.05.2020
3404 Clouds 19 1010 44 0 1.35 130 20:58 09.05.2020
3405 Clouds 19 1005 42 0 1.35 130 20:38 09.05.2020
3406 Clouds 21 1010 38 0 1.42 140 20:20 09.05.2020
3407 Clouds 21 1010 32 0 1.42 140 19:56 09.05.2020
3408 Clouds 23 1005 32 0 1.42 140 19:38 09.05.2020
3409 Clouds 22 1010 28 0 0.89 187 19:19 09.05.2020
3410 Clouds 23 1011 26 0 0.89 167 18:44 09.05.2020
3411 Clouds 23 1011 32 0 0.89 90 18:26 09.05.2020
3412 Clouds 20 1012 53 0 1.72 122 17:46 09.05.2020
3413 Clouds 20 1013 48 0 2.03 115 17:23 09.05.2020
3414 Clouds 20 1013 48 0 2.03 115 17:23 09.05.2020
3415 Clouds 20 1013 48 0 2.03 115 16:58 09.05.2020
3416 Clouds 23 1011 31 0 0.89 90 16:40 09.05.2020
3417 Clouds 23 1012 36 0 0.89 90 16:19 09.05.2020
3418 Clouds 21 1013 45 0 2.14 113 15:45 09.05.2020
3419 Clouds 21 1013 45 0 2.14 113 15:45 09.05.2020
3420 Clouds 20 1014 45 0 2.35 107 15:26 09.05.2020
3421 Clouds 20 1014 45 0 2.35 107 14:59 09.05.2020
3422 Clouds 20 1014 45 0 2.35 107 14:40 09.05.2020
3423 Clouds 20 1015 46 0 2.19 109 14:19 09.05.2020
3424 Clouds 20 1015 46 0 2.19 109 13:56 09.05.2020
3425 Clouds 23 1014 36 0 0.45 202 13:38 09.05.2020
3426 Clouds 23 1014 37 0 0.45 172 13:19 09.05.2020
3427 Clouds 22 1015 41 0 0.45 94 12:42 09.05.2020
3428 Clouds 20 1015 44 0 0.45 225 12:22 09.05.2020
3429 Clouds 19 1015 45 0 0.45 249 11:56 09.05.2020
3430 Clouds 19 1015 47 0 0.45 112 11:37 09.05.2020
3431 Clouds 18 1016 48 0 0.45 218 11:18 09.05.2020
3432 Clouds 18 1016 52 0 2.27 109 10:43 09.05.2020
3433 Clouds 18 1016 54 0 2.24 110 10:23 09.05.2020
3434 Clouds 18 1016 53 0 2.24 110 09:57 09.05.2020
3435 Clouds 17 1016 55 0 2.24 110 09:38 09.05.2020
3436 Clouds 14 1017 66 0 2 119 09:19 09.05.2020
3437 Clouds 13 1011 54 0 2 119 08:51 09.05.2020
3438 Clouds 13 1011 54 0 2 119 08:31 09.05.2020
3439 Clouds 9 1011 68 0 1.41 130 07:50 09.05.2020
3440 Clouds 11 1016 62 0 0.89 11 07:31 09.05.2020
3441 Clouds 8 1016 73 0 1.3 127 06:49 09.05.2020
3442 Clouds 7 1016 74 0 1.26 126 06:24 09.05.2020
3443 Clouds 7 1016 73 0 1.26 126 05:45 09.05.2020
3444 Clouds 9 1016 71 0 1.42 88 03:59 09.05.2020
3445 Clouds 9 1016 69 0 1.42 88 03:38 09.05.2020
3446 Clouds 9 1016 68 0 1.05 85 02:42 09.05.2020
3447 Clouds 10 1016 64 0 0.8 113 01:54 09.05.2020
3448 Clouds 11 1016 61 0 0.86 103 01:24 09.05.2020
3449 Clouds 10 1016 59 0 0.86 103 00:55 09.05.2020
3450 Clouds 9 1012 63 0 0.86 103 00:37 09.05.2020
3451 Clouds 12 1016 56 0 1.15 76 23:54 08.05.2020
3452 Clouds 11 1012 60 0 1.15 76 23:36 08.05.2020
3453 Clouds 12 1016 49 0 1.17 68 23:18 08.05.2020
3454 Clouds 11 1012 58 0 1.17 68 22:42 08.05.2020
3455 Clouds 14 1016 47 0 1.39 48 22:20 08.05.2020
3456 Clouds 13 1011 50 0 1.39 48 21:59 08.05.2020
3457 Clouds 13 1011 48 0 1.39 48 21:41 08.05.2020
3458 Clouds 17 1016 39 0 1.55 28 21:19 08.05.2020
3459 Clouds 18 1011 31 0 1.55 28 20:59 08.05.2020
3460 Clouds 18 1011 31 0 1.55 28 20:40 08.05.2020
3461 Clouds 18 1015 31 0 1.59 5 20:22 08.05.2020
3462 Clouds 19 1015 28 0 0.89 352 19:46 08.05.2020
3463 Clouds 20 1015 28 0 1.79 307 19:24 08.05.2020
3464 Clouds 20 1015 27 0 1.8 341 19:24 08.05.2020
3465 Clouds 19 1015 27 0 0.89 0 18:58 08.05.2020
3466 Clouds 19 1015 30 0 0.89 0 18:40 08.05.2020
3467 Clouds 20 1015 28 0 1.34 270 18:22 08.05.2020
3468 Clouds 18 1017 55 0 2.55 329 17:42 08.05.2020
3469 Clouds 18 1017 51 0 3.17 314 17:19 08.05.2020
3470 Clouds 18 1017 51 0 3.17 314 16:54 08.05.2020
3471 Clouds 18 1017 51 0 3.17 314 16:36 08.05.2020
3472 Clouds 18 1017 51 0 3.47 308 16:18 08.05.2020
3473 Clouds 18 1017 51 0 3.47 308 15:42 08.05.2020
3474 Clouds 18 1018 51 0 3.74 302 15:19 08.05.2020
3475 Clouds 18 1018 51 0 3.74 302 14:55 08.05.2020
3476 Clouds 18 1018 51 0 3.74 302 14:37 08.05.2020
3477 Clouds 18 1018 50 0 3.4 294 14:18 08.05.2020
3478 Clouds 18 1018 50 0 3.4 294 13:41 08.05.2020
3479 Clouds 21 1016 33 0 0.45 237 13:20 08.05.2020
3480 Clouds 21 1016 32 0 3.13 288 12:56 08.05.2020
3481 Clouds 20 1016 35 0 3.13 288 12:38 08.05.2020
3482 Clouds 17 1018 52 0 2.47 296 12:20 08.05.2020
3483 Clouds 18 1017 44 0 0.45 253 11:44 08.05.2020
3484 Clouds 17 1017 46 0 0.45 202 11:23 08.05.2020
3485 Clouds 17 1017 49 0 1.94 302 10:58 08.05.2020
3486 Clouds 17 1017 54 0 1.94 302 10:40 08.05.2020
3487 Clouds 17 1017 58 0 1.54 297 10:19 08.05.2020
3488 Clouds 15 1017 61 0 1.54 297 09:56 08.05.2020
3489 Clouds 14 1017 63 0 1.54 297 09:38 08.05.2020
3490 Clouds 13 1017 66 0 1.05 290 09:18 08.05.2020
3491 Clouds 13 1013 68 0 0.81 253 08:42 08.05.2020
3492 Clouds 12 1013 71 0 0.3 230 08:21 08.05.2020
3493 Clouds 8 1013 91 0 0.3 230 07:43 08.05.2020
3494 Clouds 8 1013 91 0 0.3 230 07:43 08.05.2020
3495 Clouds 8 1018 72 0 0.28 229 07:24 08.05.2020
3496 Clouds 7 1018 78 0 0.28 229 06:51 08.05.2020
3497 Clouds 6 1018 81 0 0.38 276 06:24 08.05.2020
3498 Clouds 6 1018 82 0 0.38 276 05:51 08.05.2020
3499 Clouds 6 1018 80 0 0.66 277 04:38 08.05.2020
3500 Clouds 8 1019 74 0 0.45 179 02:34 08.05.2020
3501 Clouds 9 1019 73 0 1.35 280 01:53 08.05.2020
3502 Clouds 9 1019 73 0 0.45 163 01:28 08.05.2020
3503 Clouds 9 1020 71 0 1.99 284 00:53 08.05.2020
3504 Clouds 9 1020 70 0 2.17 273 00:30 08.05.2020
3505 Clouds 9 1020 70 0 0.89 207 23:59 07.05.2020
3506 Clouds 10 1020 70 0 0.45 187 23:40 07.05.2020
3507 Clouds 10 1020 69 0 2.09 267 23:22 07.05.2020
3508 Clouds 11 1020 69 0 2.09 267 22:56 07.05.2020
3509 Clouds 11 1020 68 0 2.09 267 22:38 07.05.2020
3510 Clouds 11 1020 67 0 0.45 200 22:19 07.05.2020
3511 Clouds 12 1020 64 0 0.45 213 21:55 07.05.2020
3512 Clouds 13 1020 62 0 2.56 271 21:37 07.05.2020
3513 Clouds 13 1020 60 0 2.42 264 21:19 07.05.2020
3514 Clouds 15 1020 55 0 2.42 264 20:42 07.05.2020
3515 Clear 16 1020 51 0 2.48 270 20:23 07.05.2020
3516 Clear 17 1020 47 0 0.45 289 19:58 07.05.2020
3517 Clear 17 1020 42 0 2.48 270 19:39 07.05.2020
3518 Clear 18 1020 42 0 2.24 290 19:21 07.05.2020
3519 Clear 18 1020 38 0 3.13 289 18:45 07.05.2020
3520 Clear 18 1020 38 0 1.79 273 18:27 07.05.2020
3521 Clear 18 1021 39 0 1.34 351 17:57 07.05.2020
3522 Clear 19 1021 38 0 0.45 217 17:37 07.05.2020
3523 Clear 19 1020 42 0 2.68 45 17:18 07.05.2020
3524 Clear 19 1021 47 0 3.73 303 16:40 07.05.2020
3525 Clear 19 1022 39 0 5.36 323 16:18 07.05.2020
3526 Clear 18 1022 41 0 1.34 333 15:56 07.05.2020
3527 Clear 18 1022 41 0 3.13 323 15:37 07.05.2020
3528 Clear 18 1021 44 0 1.79 270 15:18 07.05.2020
3529 Clear 18 1021 44 0 1.79 270 15:18 07.05.2020
3530 Clear 18 1022 42 0 4.47 26 14:45 07.05.2020
3531 Clear 18 1022 43 0 5.81 285 14:22 07.05.2020
3532 Clear 18 1022 43 0 5.81 285 14:22 07.05.2020
3533 Clear 17 1022 45 0 1.34 265 13:54 07.05.2020
3534 Clear 17 1023 46 0 2.24 258 13:36 07.05.2020
3535 Clear 17 1023 49 0 4.92 351 13:18 07.05.2020
3536 Clear 16 1023 51 0 4.02 266 12:39 07.05.2020
3537 Clear 14 1022 56 0 0.45 330 12:19 07.05.2020
3538 Clear 14 1023 54 0 1.34 302 11:39 07.05.2020
3539 Clear 14 1023 54 0 6.26 304 11:21 07.05.2020
3540 Clear 13 1023 52 0 3.58 211 10:55 07.05.2020
3541 Clear 13 1023 55 0 1.79 352 10:37 07.05.2020
3542 Clear 12 1023 56 0 0.45 194 10:18 07.05.2020
3543 Clear 11 1023 63 0 1.34 300 09:39 07.05.2020
3544 Clouds 9 1022 69 0 0.45 266 09:19 07.05.2020
3545 Clouds 9 1018 78 0 4.85 291 08:46 07.05.2020
3546 Clouds 9 1018 76 0 4.94 287 08:24 07.05.2020
3547 Clouds 8 1018 77 0 4.94 287 07:59 07.05.2020
3548 Clouds 9 1023 72 0 0.89 307 07:41 07.05.2020
3549 Clouds 8 1023 74 0 0.45 135 07:20 07.05.2020
3550 Clouds 8 1023 76 0 0.45 152 06:38 07.05.2020
3551 Clouds 6 1023 78 0 4.07 281 06:19 07.05.2020
3552 Clouds 6 1023 78 0 1.34 247 04:41 07.05.2020
3553 Clouds 6 1023 77 0 3.85 287 03:47 07.05.2020
3554 Clouds 6 1023 75 0 4.47 310 03:20 07.05.2020
3555 Clouds 7 1023 68 0 2.68 338 02:36 07.05.2020
3556 Clouds 8 1018 66 0 3.81 290 01:40 07.05.2020
3557 Clouds 7 1023 61 0 1.34 307 01:22 07.05.2020
3558 Clouds 8 1022 55 0 3.78 293 00:44 07.05.2020
3559 Clouds 9 1022 52 0 2.24 276 00:25 07.05.2020
3560 Clouds 9 1022 50 0 0.89 285 23:45 06.05.2020
3561 Clouds 9 1022 50 0 3.99 306 23:24 06.05.2020
3562 Clouds 10 1022 47 0 0.45 5 22:57 06.05.2020
3563 Clouds 10 1022 45 0 0.89 278 22:38 06.05.2020
3564 Clouds 11 1022 43 0 0.45 313 22:19 06.05.2020
3565 Clouds 11 1021 43 0 1.34 303 21:56 06.05.2020
3566 Clouds 11 1017 50 0 3.91 306 21:38 06.05.2020
3567 Clouds 12 1021 43 0 3.83 306 21:18 06.05.2020
3568 Clouds 14 1021 41 0 2.24 314 20:42 06.05.2020
3569 Clouds 15 1021 39 0 0.45 287 20:23 06.05.2020
3570 Clouds 15 1021 38 0 0.89 317 20:23 06.05.2020
3571 Clouds 16 1021 36 0 3.13 276 19:57 06.05.2020
3572 Clouds 16 1021 34 0 2.24 297 19:39 06.05.2020
3573 Clouds 17 1021 30 0 3.13 302 19:19 06.05.2020
3574 Clouds 17 1021 31 0 0.89 285 18:59 06.05.2020
3575 Clouds 17 1021 32 0 4.02 310 18:39 06.05.2020
3576 Clouds 17 1021 31 0 2.24 327 18:21 06.05.2020
3577 Clouds 18 1020 30 0 1.79 45 17:59 06.05.2020
3578 Clouds 18 1021 38 0 4.7 303 17:39 06.05.2020
3579 Clouds 15 1022 55 0 4.8 299 17:21 06.05.2020
3580 Clouds 15 1022 55 0 4.8 299 17:21 06.05.2020
3581 Clouds 15 1022 55 0 4.8 299 16:58 06.05.2020
3582 Clouds 15 1022 55 0 4.8 299 16:40 06.05.2020
3583 Clouds 15 1023 55 0 4.63 294 16:21 06.05.2020
3584 Clouds 15 1023 55 0 4.63 294 15:58 06.05.2020
3585 Clouds 15 1023 55 0 4.63 294 15:40 06.05.2020
3586 Clouds 15 1023 53 0 4.44 299 15:21 06.05.2020
3587 Clouds 15 1023 53 0 4.44 299 14:56 06.05.2020
3588 Clouds 15 1023 53 0 4.44 299 14:37 06.05.2020
3589 Clouds 14 1024 51 0 4.17 311 14:18 06.05.2020
3590 Clouds 17 1023 31 0 4.47 4 13:43 06.05.2020
3591 Clouds 16 1023 33 0 5.36 303 13:24 06.05.2020
3592 Clouds 16 1023 36 0 4.02 304 12:58 06.05.2020
3593 Clouds 16 1023 36 0 8.94 256 12:39 06.05.2020
3594 Clear 15 1023 40 0 0.89 236 12:21 06.05.2020
3595 Clear 14 1024 38 0 3.58 280 11:41 06.05.2020
3596 Clear 14 1023 39 0 0.45 324 11:21 06.05.2020
3597 Clear 13 1023 41 0 4.92 348 10:58 06.05.2020
3598 Clear 13 1024 41 0 4.47 23 10:38 06.05.2020
3599 Clear 13 1022 53 0 0.89 219 10:19 06.05.2020
3600 Clear 13 1022 48 0 1.34 0 09:45 06.05.2020
3601 Clear 8 1024 66 0 3.44 312 09:24 06.05.2020
3602 Clear 8 1024 66 0 3.44 312 08:55 06.05.2020
3603 Clear 8 1024 66 0 3.44 312 08:55 06.05.2020
3604 Clear 7 1019 71 0 3.44 312 08:36 06.05.2020
3605 Clear 7 1019 71 0 3.48 309 08:18 06.05.2020
3606 Clear 6 1019 79 0 3.48 309 07:40 06.05.2020
3607 Clear 5 1023 70 0 0.89 280 07:21 06.05.2020
3608 Clear 4 1023 73 0 0.89 269 06:58 06.05.2020
3609 Clear 3 1023 78 0 0.89 307 06:40 06.05.2020
3610 Clear 3 1023 82 0 3.13 303 06:19 06.05.2020
3611 Clear 2 1023 83 0 3.13 303 05:37 06.05.2020
3612 Clear 2 1022 82 0 2.97 308 04:41 06.05.2020
3613 Clear 2 1022 81 0 3 310 03:47 06.05.2020
3614 Clear 2 1022 81 0 3 308 03:22 06.05.2020
3615 Clear 3 1022 79 0 3.15 310 02:38 06.05.2020
3616 Clear 3 1022 79 0 3.15 310 02:20 06.05.2020
3617 Clear 4 1022 75 0 3.15 310 01:41 06.05.2020
3618 Clear 4 1022 78 0 3.09 314 00:56 06.05.2020
3619 Clear 4 1022 78 0 3.09 314 00:31 06.05.2020
3620 Clear 4 1021 78 0 3.17 320 23:58 05.05.2020
3621 Clear 5 1021 77 0 3.17 320 23:39 05.05.2020
3622 Clear 5 1021 75 0 3.35 328 23:19 05.05.2020
3623 Clear 5 1021 75 0 3.35 328 23:19 05.05.2020
3624 Clear 6 1021 74 0 3.35 328 22:42 05.05.2020
3625 Clear 6 1021 73 0 3.69 332 22:21 05.05.2020
3626 Clear 6 1021 71 0 3.69 332 21:59 05.05.2020
3627 Clear 7 1021 68 0 3.69 332 21:41 05.05.2020
3628 Clear 9 1020 60 0 0.45 300 21:21 05.05.2020
3629 Clear 9 1020 58 0 0.89 328 20:59 05.05.2020
3630 Clear 10 1020 55 0 0.89 333 20:40 05.05.2020
3631 Clouds 11 1020 51 0 5.36 290 20:19 05.05.2020
3632 Clouds 11 1020 49 0 3.58 321 19:59 05.05.2020
3633 Clouds 12 1019 49 0 2.68 309 19:38 05.05.2020
3634 Clouds 12 1019 47 0 3.58 320 19:20 05.05.2020
3635 Clouds 12 1019 47 0 4.92 313 18:56 05.05.2020
3636 Clouds 12 1019 51 0 6.71 348 18:38 05.05.2020
3637 Rain 12 1019 50 0 2.24 338 18:19 05.05.2020
3638 Rain 12 1019 58 0 3.58 314 17:44 05.05.2020
3639 Rain 13 1019 55 0 5.6 340 17:25 05.05.2020
3640 Rain 14 1019 41 0 6.71 309 16:59 05.05.2020
3641 Rain 14 1014 39 0 5.54 337 16:38 05.05.2020
3642 Rain 14 1014 39 0 5.54 337 16:19 05.05.2020
3643 Rain 15 1019 34 0 2.24 343 15:57 05.05.2020
3644 Rain 14 1019 35 0 4.92 1 15:38 05.05.2020
3645 Rain 14 1019 37 0 4.02 309 15:20 05.05.2020
3646 Rain 14 1019 35 0 2.24 359 14:55 05.05.2020
3647 Rain 13 1018 39 0 0.89 299 14:37 05.05.2020
3648 Clouds 13 1018 39 0 0.89 299 14:37 05.05.2020
3649 Clear 14 1019 36 0 2.24 104 14:18 05.05.2020
3650 Clear 13 1019 38 0 1.34 242 13:55 05.05.2020
3651 Clear 13 1019 43 0 4.47 348 13:36 05.05.2020
3652 Clear 12 1019 51 0 4.02 1 13:18 05.05.2020
3653 Clear 14 1019 36 0 3.58 331 12:54 05.05.2020
3654 Clear 12 1019 39 0 0.89 213 12:36 05.05.2020
3655 Clear 12 1019 44 0 2.68 313 12:18 05.05.2020
3656 Clear 12 1018 52 0 0.89 108 11:40 05.05.2020
3657 Clear 12 1019 49 0 4.02 354 11:20 05.05.2020
3658 Clear 12 1019 50 0 2.68 21 10:56 05.05.2020
3659 Clear 12 1019 51 0 2.68 53 10:37 05.05.2020
3660 Clear 11 1018 66 0 0.45 254 10:18 05.05.2020
3661 Clear 10 1018 72 0 0.45 283 09:44 05.05.2020
3662 Clear 8 1018 72 0 0.45 251 09:26 05.05.2020
3663 Clear 7 1018 75 0 0.45 314 08:59 05.05.2020
3664 Clear 7 1018 75 0 0.45 225 08:59 05.05.2020
3665 Clear 7 1015 85 0 3.7 314 08:39 05.05.2020
3666 Clear 6 1014 86 0 3.85 313 08:18 05.05.2020
3667 Clear 5 1014 94 0 3.85 313 07:44 05.05.2020
3668 Clear 6 1019 77 0 1.34 295 07:23 05.05.2020
3669 Clear 5 1019 79 0 4.18 303 06:58 05.05.2020
3670 Clear 5 1019 83 0 4.18 303 06:40 05.05.2020
3671 Clear 3 1014 10 0 3.5 297 06:19 05.05.2020
3672 Clear 4 1019 85 0 3.47 296 05:28 05.05.2020
3673 Clear 6 1014 86 0 3.14 305 02:46 05.05.2020
3674 Clear 7 1018 76 0 2.24 279 01:20 05.05.2020
3675 Clear 7 1018 76 0 2.24 311 00:49 05.05.2020
3676 Clear 8 1018 71 0 2.68 9 23:57 04.05.2020
3677 Clear 8 1018 74 0 2.68 231 23:38 04.05.2020
3678 Clouds 8 1018 80 0 0.45 292 23:19 04.05.2020
3679 Clouds 8 1018 79 0 0.45 310 22:55 04.05.2020
3680 Clouds 7 1018 81 0 1.99 346 22:37 04.05.2020
3681 Clear 7 1017 81 0 2.58 1 22:18 04.05.2020
3682 Clear 8 1017 81 0 2.58 1 21:52 04.05.2020
3683 Clear 8 1017 81 0 2.58 1 21:52 04.05.2020
3684 Clear 8 1017 80 0 2.58 1 21:52 04.05.2020
3685 Clear 8 1017 81 0 2.58 1 21:52 04.05.2020
3686 Clear 8 1017 81 0 2.58 1 21:52 04.05.2020
3687 Clear 8 1017 78 0 2.74 360 21:26 04.05.2020
3688 Clear 8 1017 77 0 3.2 6 21:26 04.05.2020
3689 Clear 8 1017 77 0 3.2 6 21:26 04.05.2020
3690 Clear 8 1017 77 0 3.2 6 21:26 04.05.2020
3691 Clear 8 1017 78 0 2.74 360 21:26 04.05.2020
3692 Clear 10 1017 69 0 3.2 6 20:43 04.05.2020
3693 Clear 10 1017 69 0 3.2 6 20:43 04.05.2020
3694 Clear 10 1017 69 0 3.2 6 20:43 04.05.2020
3695 Clouds 11 1017 61 0 0.45 9 20:21 04.05.2020
3696 Clouds 12 1017 59 0 0.45 321 19:59 04.05.2020
3697 Clouds 12 1017 59 0 0.45 321 19:59 04.05.2020
3698 Clouds 13 1017 55 0 3.58 310 19:40 04.05.2020
3699 Clouds 13 1016 55 0 6.26 4 19:19 04.05.2020
3700 Clouds 13 1016 56 0 2.68 14 18:54 04.05.2020
3701 Clouds 13 1016 59 0 2.68 314 18:36 04.05.2020
3702 Clouds 13 1017 55 0 4.47 359 18:18 04.05.2020
3703 Clouds 13 1016 58 0 4.02 16 17:54 04.05.2020
3704 Clouds 13 1016 59 0 4.02 289 17:36 04.05.2020
3705 Rain 14 1016 60 0 2.68 323 17:18 04.05.2020
3706 Rain 14 1017 60 0 5.36 296 16:41 04.05.2020
3707 Rain 13 1017 64 0 0.89 319 16:20 04.05.2020
3708 Rain 13 1017 67 0 2.24 317 15:45 04.05.2020
3709 Clouds 13 1012 75 0 1.55 289 15:24 04.05.2020
3710 Clouds 12 1017 74 0 2.24 283 14:56 04.05.2020
3711 Rain 12 1017 76 0 0.89 359 14:38 04.05.2020
3712 Rain 12 1017 76 0 0.89 359 14:38 04.05.2020
3713 Rain 12 1017 76 0 0.89 359 14:38 04.05.2020
3714 Rain 12 1017 76 0 0.89 359 14:38 04.05.2020
3715 Rain 12 1017 76 0 0.89 359 14:38 04.05.2020
3716 Rain 12 1012 97 0 0.99 276 13:41 04.05.2020
3717 Clouds 11 1012 10 0 0.74 356 12:45 04.05.2020
3718 Clouds 11 1012 10 0 0.74 356 12:45 04.05.2020
3719 Rain 11 1017 89 0 1.34 355 12:00 04.05.2020
3720 Rain 11 1012 10 0 1.32 28 12:00 04.05.2020
3721 Rain 11 1012 10 0 1.32 28 12:00 04.05.2020
3722 Rain 10 1017 90 0 1.79 15 09:32 04.05.2020
3723 Rain 9 1017 87 0 2.34 338 08:43 04.05.2020
3724 Rain 9 1017 87 0 2.34 338 08:42 04.05.2020
3725 Rain 9 1017 87 0 2.34 338 08:42 04.05.2020
3726 Rain 9 1017 87 0 2.34 338 08:42 04.05.2020
3727 Rain 9 1017 87 0 2.34 338 08:42 04.05.2020
3728 Rain 9 1016 88 0 2.05 343 07:43 04.05.2020
3729 Rain 9 1016 88 0 2.12 317 06:43 04.05.2020
3730 Rain 9 1016 88 0 2.12 317 06:43 04.05.2020
3731 Rain 9 1016 88 0 2.12 317 06:43 04.05.2020
3732 Rain 9 1016 88 0 2.12 317 06:43 04.05.2020
3733 Clouds 8 1016 84 0 1.66 293 04:55 04.05.2020
3734 Clouds 7 1016 83 0 1.8 260 03:18 04.05.2020
3735 Clouds 7 1016 83 0 1.8 260 03:18 04.05.2020
3736 Clouds 7 1016 83 0 1.8 260 03:18 04.05.2020
3737 Clouds 7 1017 83 0 1.8 260 02:30 04.05.2020
3738 Clouds 7 1017 85 0 1.74 272 00:38 04.05.2020
3739 Clouds 7 1017 84 0 2.02 270 23:45 03.05.2020
3740 Clouds 7 1017 83 0 2.02 272 23:24 03.05.2020
3741 Clouds 8 1017 82 0 2.02 272 22:56 03.05.2020
3742 Clouds 8 1017 82 0 2.02 272 22:56 03.05.2020
3743 Clouds 8 1017 81 0 2.02 272 22:38 03.05.2020
3744 Clouds 9 1017 79 0 2.34 268 22:19 03.05.2020
3745 Clouds 9 1017 76 0 2.34 268 21:41 03.05.2020
3746 Clouds 9 1017 76 0 2.34 268 21:41 03.05.2020
3747 Clouds 10 1016 73 0 2.78 270 21:20 03.05.2020
3748 Clouds 11 1016 69 0 2.78 270 20:47 03.05.2020
3749 Clouds 13 1016 66 0 2.63 274 20:23 03.05.2020
3750 Clouds 14 1016 60 0 2.63 274 19:55 03.05.2020
3751 Clouds 14 1016 60 0 2.63 274 19:55 03.05.2020
3752 Clouds 15 1016 56 0 2.63 274 19:36 03.05.2020
3753 Clouds 15 1016 53 0 0.45 293 19:18 03.05.2020
3754 Clouds 15 1016 48 0 3.03 277 18:39 03.05.2020
3755 Rain 16 1016 50 0 4.47 278 18:20 03.05.2020
3756 Rain 16 1016 49 0 1.79 323 17:54 03.05.2020
3757 Rain 16 1016 49 0 1.79 251 17:36 03.05.2020
3758 Rain 16 1016 46 0 4.02 292 17:18 03.05.2020
3759 Rain 17 1017 46 0 1.34 351 16:40 03.05.2020
3760 Rain 17 1017 50 0 2.24 224 16:18 03.05.2020
3761 Rain 17 1016 43 0 3.13 287 15:56 03.05.2020
3762 Rain 17 1017 47 0 1.34 259 15:38 03.05.2020
3763 Rain 16 1017 48 0 0.89 12 15:19 03.05.2020
3764 Rain 17 1017 45 0 4.78 278 14:55 03.05.2020
3765 Rain 16 1017 46 0 0.45 247 14:37 03.05.2020
3766 Rain 15 1017 50 0 0.45 275 14:18 03.05.2020
3767 Rain 14 1017 50 0 4.92 248 14:18 03.05.2020
3768 Rain 16 1016 47 0 1.34 220 13:37 03.05.2020
3769 Rain 16 1016 47 0 1.34 220 13:37 03.05.2020
3770 Rain 16 1017 47 0 0.89 307 13:37 03.05.2020
3771 Rain 16 1017 52 0 1.79 314 12:52 03.05.2020
3772 Rain 14 1015 61 0 0.89 151 12:29 03.05.2020
3773 Rain 14 1015 61 0 0.89 151 12:28 03.05.2020
3774 Rain 14 1012 62 0 5.14 280 11:58 03.05.2020
3775 Rain 14 1012 62 0 5.14 280 11:40 03.05.2020
3776 Rain 14 1012 62 0 5.14 280 11:40 03.05.2020
3777 Rain 14 1012 62 0 5.14 280 11:40 03.05.2020
3778 Rain 14 1012 62 0 5.14 280 11:40 03.05.2020
3779 Rain 15 1016 52 0 1.34 211 11:20 03.05.2020
3780 Rain 13 1015 69 0 0.89 86 10:54 03.05.2020
3781 Clouds 14 1016 56 0 4.02 248 10:25 03.05.2020
3782 Clouds 13 1011 72 0 5.27 286 09:41 03.05.2020
3783 Clouds 13 1011 72 0 5.27 286 09:41 03.05.2020
3784 Clouds 13 1011 72 0 5.27 286 09:41 03.05.2020
3785 Clouds 13 1011 72 0 5.27 286 09:41 03.05.2020
3786 Clouds 14 1016 56 0 3.13 191 09:41 03.05.2020
3787 Clear 10 1014 79 0 0.45 103 09:00 03.05.2020
3788 Clear 10 1014 78 0 0.45 103 09:00 03.05.2020
3789 Clear 9 1014 81 0 0.45 358 08:35 03.05.2020
3790 Clouds 9 1010 10 0 5.41 281 07:45 03.05.2020
3791 Clouds 9 1010 10 0 5.41 281 07:45 03.05.2020
3792 Clouds 9 1010 10 0 5.41 281 07:45 03.05.2020
3793 Clouds 9 1010 10 0 5.41 281 07:45 03.05.2020
3794 Clouds 9 1010 10 0 5.41 281 07:45 03.05.2020
3795 Clouds 9 1015 89 0 0.89 334 07:03 03.05.2020
3796 Clouds 9 1015 88 0 4.36 269 07:03 03.05.2020
3797 Clouds 9 1015 88 0 4.36 269 07:03 03.05.2020
3798 Clouds 9 1015 88 0 4.36 269 07:02 03.05.2020
3799 Clouds 9 1015 89 0 0.89 334 07:01 03.05.2020
3800 Clouds 7 1012 84 0 3.59 270 05:57 03.05.2020
3801 Clouds 7 1011 84 0 0.45 162 05:38 03.05.2020
3802 Clouds 8 1008 10 0 4.36 278 04:28 03.05.2020
3803 Clouds 8 1008 10 0 4.36 278 03:50 03.05.2020
3804 Clouds 7 1012 91 0 4.17 278 02:36 03.05.2020
3805 Clouds 7 1012 90 0 3.95 280 02:18 03.05.2020
3806 Clouds 7 1012 89 0 3.92 282 01:39 03.05.2020
3807 Clouds 7 1012 89 0 4.07 286 01:21 03.05.2020
3808 Clouds 8 1011 89 0 4.07 286 00:40 03.05.2020
3809 Clouds 8 1011 89 0 4.07 286 00:40 03.05.2020
3810 Clear 8 1011 89 0 0.45 208 00:20 03.05.2020
3811 Clear 8 1011 87 0 0.45 190 23:49 02.05.2020
3812 Clear 8 1011 87 0 4.06 290 23:30 02.05.2020
3813 Clear 9 1010 87 0 3.58 221 22:59 02.05.2020
3814 Clear 9 1010 86 0 4.24 289 22:41 02.05.2020
3815 Clear 9 1010 86 0 4.14 289 22:22 02.05.2020
3816 Clear 9 1010 85 0 1.34 316 21:54 02.05.2020
3817 Clear 9 1009 85 0 0.45 261 21:36 02.05.2020
3818 Rain 9 1009 85 0 4.66 288 21:18 02.05.2020
3819 Rain 10 1009 85 0 0.45 327 20:54 02.05.2020
3820 Rain 10 1008 87 0 4.66 288 20:36 02.05.2020
3821 Rain 10 1008 87 0 4.66 288 20:36 02.05.2020
3822 Rain 10 1008 86 0 0.45 167 20:18 02.05.2020
3823 Rain 10 1008 86 0 0.45 167 20:18 02.05.2020
3824 Rain 10 1008 86 0 4.76 280 19:39 02.05.2020
3825 Clouds 10 1008 79 0 7.6 269 19:20 02.05.2020
3826 Clouds 11 1007 65 0 1.79 103 18:59 02.05.2020
3827 Clouds 12 1007 64 0 0.45 73 18:39 02.05.2020
3828 Rain 14 1007 59 0 1.34 345 18:21 02.05.2020
3829 Rain 13 1006 58 0 2.24 237 17:57 02.05.2020
3830 Rain 13 1006 59 0 2.68 227 17:38 02.05.2020
3831 Rain 14 1006 62 0 6.71 225 17:20 02.05.2020
3832 Rain 14 1006 61 0 2.68 187 16:57 02.05.2020
3833 Rain 14 1006 61 0 3.58 300 16:38 02.05.2020
3834 Rain 16 1001 57 0 6.71 273 16:20 02.05.2020
3835 Rain 15 1001 55 0 6.71 273 15:42 02.05.2020
3836 Rain 11 1004 70 0 0.89 82 15:20 02.05.2020
3837 Rain 10 1004 73 0 0.45 280 14:46 02.05.2020
3838 Clouds 12 1000 84 0 6.53 261 14:28 02.05.2020
3839 Clouds 12 1000 84 0 6.53 261 13:59 02.05.2020
3840 Clouds 11 1000 81 0 6.53 261 13:40 02.05.2020
3841 Rain 15 999 65 0 7.24 260 13:21 02.05.2020
3842 Rain 13 999 79 0 7.24 260 12:43 02.05.2020
3843 Rain 12 999 81 0 7.43 256 12:25 02.05.2020
3844 Rain 14 1003 55 0 0.89 64 11:59 02.05.2020
3845 Rain 14 1003 55 0 0.89 264 11:40 02.05.2020
3846 Rain 14 999 66 0 6.27 257 11:22 02.05.2020
3847 Rain 12 999 80 0 6.27 257 10:57 02.05.2020
3848 Rain 13 999 71 0 6.27 257 10:38 02.05.2020
3849 Rain 12 1003 66 0 1.34 339 10:20 02.05.2020
3850 Rain 12 1003 66 0 1.34 339 10:20 02.05.2020
3851 Rain 14 1004 61 0 0.89 297 09:56 02.05.2020
3852 Rain 14 1004 61 0 2.24 251 09:37 02.05.2020
3853 Clouds 10 999 91 0 4.69 254 09:19 02.05.2020
3854 Clouds 11 1004 72 0 1.34 262 08:46 02.05.2020
3855 Clouds 11 1004 73 0 0.89 190 08:26 02.05.2020
3856 Clouds 10 1004 76 0 1.79 251 07:47 02.05.2020
3857 Rain 9 1003 76 0 0.45 230 07:28 02.05.2020
3858 Rain 7 1003 83 0 2.68 232 06:51 02.05.2020
3859 Rain 6 1002 86 0 2.52 234 05:29 02.05.2020
3860 Rain 7 1002 85 0 1.34 225 04:59 02.05.2020
3861 Clouds 6 1002 87 0 0.89 196 04:24 02.05.2020
3862 Clouds 7 1002 86 0 2.62 225 02:44 02.05.2020
3863 Clouds 7 1001 86 0 2.8 230 02:24 02.05.2020
3864 Clouds 7 1001 86 0 1.34 268 01:50 02.05.2020
3865 Clouds 8 1001 84 0 2.24 261 00:49 02.05.2020
3866 Clouds 8 1001 82 0 0.45 258 00:29 02.05.2020
3867 Clouds 8 1001 82 0 1.79 207 23:59 01.05.2020
3868 Clouds 8 1001 83 0 3.24 234 23:39 01.05.2020
3869 Clouds 9 1001 83 0 2.68 245 23:20 01.05.2020
3870 Clouds 9 1001 84 0 2.68 268 22:56 01.05.2020
3871 Clouds 9 1001 84 0 1.79 224 22:37 01.05.2020
3872 Clouds 10 1001 83 0 3.2 237 22:18 01.05.2020
3873 Clouds 10 1001 83 0 3.2 237 22:18 01.05.2020
3874 Clouds 10 1001 82 0 3.2 237 21:56 01.05.2020
3875 Clouds 11 1000 80 0 3.2 237 21:38 01.05.2020
3876 Clouds 11 1000 80 0 3.2 237 21:38 01.05.2020
3877 Clouds 11 1000 79 0 2.61 227 21:18 01.05.2020
3878 Clouds 11 1000 79 0 2.61 227 21:18 01.05.2020
3879 Clouds 11 1000 79 0 2.61 227 21:18 01.05.2020
3880 Clouds 12 1000 78 0 1.79 166 20:56 01.05.2020
3881 Clouds 12 1000 77 0 1.34 149 20:37 01.05.2020
3882 Rain 13 1000 75 0 2.68 190 20:19 01.05.2020
3883 Rain 13 1000 72 0 1.34 261 19:42 01.05.2020
3884 Rain 13 1000 73 0 1.79 191 19:22 01.05.2020
3885 Rain 15 999 68 0 5.81 223 18:58 01.05.2020
3886 Rain 16 999 44 0 3.13 187 18:40 01.05.2020
3887 Rain 17 999 42 0 0.45 231 18:21 01.05.2020
3888 Rain 17 994 46 0 4.46 234 17:58 01.05.2020
3889 Rain 17 994 46 0 4.46 234 17:39 01.05.2020
3890 Rain 18 999 46 0 1.34 256 17:21 01.05.2020
3891 Rain 18 999 44 0 1.34 182 16:56 01.05.2020
3892 Rain 18 999 43 0 0.89 128 16:38 01.05.2020
3893 Rain 17 999 44 0 3.13 180 16:19 01.05.2020
3894 Rain 18 999 42 0 1.34 206 15:55 01.05.2020
3895 Rain 17 995 41 0 5.18 220 15:37 01.05.2020
3896 Rain 18 995 41 0 4.75 222 15:18 01.05.2020
3897 Rain 17 999 44 0 2.24 90 14:42 01.05.2020
3898 Clouds 16 999 42 0 1.79 270 14:23 01.05.2020
3899 Clouds 17 1000 43 0 3.13 141 13:41 01.05.2020
3900 Clouds 18 1000 40 0 2.68 129 13:23 01.05.2020
3901 Clouds 17 1000 40 0 4.02 186 12:58 01.05.2020
3902 Clouds 17 1001 41 0 2.24 169 12:40 01.05.2020
3903 Rain 13 1002 69 0 2.24 311 12:20 01.05.2020
3904 Rain 14 996 56 0 5.06 229 11:59 01.05.2020
3905 Rain 15 1001 50 0 5.81 199 11:40 01.05.2020
3906 Clouds 15 1001 48 0 2.68 200 11:19 01.05.2020
3907 Clouds 15 1001 50 0 2.24 158 10:54 01.05.2020
3908 Clouds 14 996 55 0 4.9 231 10:36 01.05.2020
3909 Clear 15 996 56 0 4.83 239 10:18 01.05.2020
3910 Clear 13 1003 70 0 6.71 292 09:41 01.05.2020
3911 Clear 12 1003 72 0 6.26 278 09:19 01.05.2020
3912 Clear 12 1003 74 0 3.13 294 08:46 01.05.2020
3913 Clear 12 1003 74 0 3.13 294 08:46 01.05.2020
3914 Clouds 12 996 77 0 5.13 236 08:28 01.05.2020
3915 Clouds 11 996 87 0 5.13 236 07:59 01.05.2020
3916 Clouds 12 1001 74 0 1.34 189 07:39 01.05.2020
3917 Clouds 10 1001 78 0 3.85 220 07:18 01.05.2020
3918 Clouds 9 1000 84 0 4.6 218 06:27 01.05.2020
3919 Clouds 9 1000 83 0 0.45 163 05:26 01.05.2020
3920 Clouds 9 1000 82 0 0.89 141 03:45 01.05.2020
3921 Clouds 9 1001 79 0 0.89 165 02:54 01.05.2020
3922 Clouds 10 1001 77 0 5.77 213 02:35 01.05.2020
3923 Clouds 10 1001 74 0 4.02 155 01:54 01.05.2020
3924 Clouds 11 1001 75 0 3.58 177 01:27 01.05.2020
3925 Clouds 12 1000 75 0 1.34 156 00:41 01.05.2020
3926 Clouds 12 1000 75 0 1.34 352 00:41 01.05.2020
3927 Rain 12 1000 76 0 4.47 175 00:22 01.05.2020
3928 Rain 13 1000 74 0 4.02 204 23:57 30.04.2020
3929 Rain 13 1000 73 0 3.58 230 23:39 30.04.2020
3930 Rain 13 1000 72 0 5.36 210 23:21 30.04.2020
3931 Rain 13 1000 71 0 5.36 156 22:59 30.04.2020
3932 Rain 14 1000 65 0 3.13 176 22:39 30.04.2020
3933 Rain 14 1000 62 0 0.89 118 22:19 30.04.2020
3934 Rain 14 1000 62 0 2.68 152 21:55 30.04.2020
3935 Rain 14 1000 61 0 2.24 176 21:36 30.04.2020
3936 Clouds 14 1000 59 0 2.76 172 21:18 30.04.2020
3937 Clouds 14 1000 58 0 3.13 211 20:41 30.04.2020
3938 Clouds 15 1000 57 0 1.79 203 20:19 30.04.2020
3939 Clouds 15 1000 57 0 1.79 203 20:19 30.04.2020
3940 Clouds 16 1000 55 0 0.89 169 19:47 30.04.2020
3941 Clouds 16 1000 53 0 2.68 169 19:27 30.04.2020
3942 Clouds 17 1000 50 0 3.13 175 18:59 30.04.2020
3943 Clouds 17 1000 48 0 5.81 190 18:39 30.04.2020
3944 Rain 18 1000 46 0 3.58 148 18:21 30.04.2020
3945 Rain 18 1000 45 0 5.36 179 17:59 30.04.2020
3946 Rain 18 1000 46 0 4.02 173 17:40 30.04.2020
3947 Rain 19 1000 44 0 1.34 124 17:21 30.04.2020
3948 Rain 18 1003 54 0 2.24 240 16:57 30.04.2020
3949 Rain 18 1003 52 0 3.58 201 16:39 30.04.2020
3950 Clouds 18 1003 53 0 4.47 276 16:19 30.04.2020
3951 Clouds 18 1003 52 0 4.47 298 15:48 30.04.2020
3952 Rain 17 1003 57 0 4.02 308 15:25 30.04.2020
3953 Rain 17 1003 63 0 4.47 269 14:59 30.04.2020
3954 Rain 19 1002 53 0 3.13 220 14:39 30.04.2020
3955 Rain 18 1002 56 0 1.79 184 14:19 30.04.2020
3956 Rain 18 1002 55 0 1.79 215 13:56 30.04.2020
3957 Rain 17 1002 64 0 1.79 241 13:38 30.04.2020
3958 Rain 17 1002 62 0 6.4 210 13:20 30.04.2020
3959 Rain 16 1002 63 0 6.26 146 12:41 30.04.2020
3960 Rain 15 1002 66 0 0.45 108 12:21 30.04.2020
3961 Rain 15 1002 71 0 0.89 167 11:59 30.04.2020
3962 Rain 15 1002 67 0 3.13 177 11:37 30.04.2020
3963 Rain 14 1002 75 0 1.34 183 11:18 30.04.2020
3964 Rain 14 1002 74 0 3.13 172 10:54 30.04.2020
3965 Rain 14 1002 75 0 3.13 177 10:36 30.04.2020
3966 Clouds 13 1002 81 0 2.68 67 10:18 30.04.2020
3967 Clouds 12 1003 82 0 1.34 111 09:41 30.04.2020
3968 Clouds 12 1003 82 0 1.79 189 09:22 30.04.2020
3969 Clouds 11 1003 83 0 5.17 186 08:49 30.04.2020
3970 Clouds 11 1003 82 0 0.45 77 08:27 30.04.2020
3971 Clouds 10 1003 83 0 1.34 129 07:59 30.04.2020
3972 Clouds 10 1003 83 0 0.45 136 07:40 30.04.2020
3973 Rain 10 1003 84 0 1.79 173 07:22 30.04.2020
3974 Rain 10 1003 86 0 0.45 115 06:40 30.04.2020
3975 Clouds 9 1003 88 0 0.89 81 05:49 30.04.2020
3976 Clouds 8 1003 89 0 2.24 179 05:27 30.04.2020
3977 Clouds 8 1004 89 0 0.89 172 04:30 30.04.2020
3978 Clouds 8 1004 89 0 3.34 184 03:52 30.04.2020
3979 Clouds 9 1005 88 0 0.89 152 02:29 30.04.2020
3980 Clouds 9 1005 89 0 2.89 197 01:58 30.04.2020
3981 Clouds 9 1005 88 0 2.89 197 01:35 30.04.2020
3982 Clouds 10 1005 87 0 2.56 205 00:42 30.04.2020
3983 Clouds 10 1005 87 0 2.56 219 00:18 30.04.2020
3984 Clouds 10 1005 86 0 2.56 219 23:56 29.04.2020
3985 Clouds 10 1005 86 0 2.56 219 23:36 29.04.2020
3986 Clouds 10 1005 86 0 2.56 222 23:18 29.04.2020
3987 Clouds 10 1005 86 0 2.56 222 23:18 29.04.2020
3988 Clouds 11 1005 85 0 2.56 222 22:40 29.04.2020
3989 Clear 12 1005 84 0 0.89 184 22:21 29.04.2020
3990 Clear 12 1005 82 0 2.25 225 21:57 29.04.2020
3991 Clear 13 1005 81 0 2.74 227 21:36 29.04.2020
3992 Clear 13 1005 80 0 0.89 249 21:18 29.04.2020
3993 Clear 14 1004 78 0 1.34 254 20:41 29.04.2020
3994 Rain 15 1004 74 0 1.34 232 20:20 29.04.2020
3995 Rain 16 1004 72 0 2.68 265 19:59 29.04.2020
3996 Rain 17 1004 68 0 0.89 269 19:41 29.04.2020
3997 Rain 17 1004 69 0 1.79 245 19:20 29.04.2020
3998 Rain 17 1004 75 0 2.94 262 18:43 29.04.2020
3999 Rain 17 1004 75 0 0.45 211 18:25 29.04.2020
4000 Rain 17 1004 77 0 4.31 270 17:58 29.04.2020
4001 Rain 17 1004 77 0 0.45 311 17:40 29.04.2020
4002 Rain 17 1004 77 0 4.99 268 17:21 29.04.2020
4003 Rain 17 1004 75 0 5.81 286 16:39 29.04.2020
4004 Rain 18 999 58 0 4.89 257 16:20 29.04.2020
4005 Rain 20 999 53 0 4.89 257 15:58 29.04.2020
4006 Rain 20 1004 45 0 0.45 187 15:40 29.04.2020
4007 Rain 20 1004 42 0 1.79 186 15:21 29.04.2020
4008 Rain 18 1004 51 0 1.79 330 14:59 29.04.2020
4009 Rain 17 1004 46 0 4.92 237 14:41 29.04.2020
4010 Clouds 18 1004 42 0 2.24 255 14:22 29.04.2020
4011 Clouds 17 1005 68 0 3.13 226 13:55 29.04.2020
4012 Clouds 17 1005 66 0 3.13 248 13:37 29.04.2020
4013 Clouds 18 1005 61 0 0.89 306 13:18 29.04.2020
4014 Clouds 18 1005 62 0 1.34 50 12:40 29.04.2020
4015 Clouds 16 1005 69 0 5.03 278 12:19 29.04.2020
4016 Clouds 17 1005 66 0 1.34 351 11:58 29.04.2020
4017 Clouds 15 1005 67 0 1.34 6 11:36 29.04.2020
4018 Clouds 15 1005 68 0 0.89 356 11:18 29.04.2020
4019 Clouds 15 1005 72 0 0.89 300 10:38 29.04.2020
4020 Clouds 14 1005 74 0 1.34 266 10:20 29.04.2020
4021 Clouds 14 1005 74 0 0.89 293 09:59 29.04.2020
4022 Clouds 17 1003 62 0 0.45 175 09:40 29.04.2020
4023 Clouds 12 1005 83 0 1.34 37 09:19 29.04.2020
4024 Clouds 11 999 88 0 1.63 307 08:43 29.04.2020
4025 Clouds 13 1003 71 0 0.99 329 08:25 29.04.2020
4026 Clouds 12 1003 74 0 0.99 329 07:51 29.04.2020
4027 Clouds 12 1003 74 0 0.83 6 07:27 29.04.2020
4028 Clouds 11 1003 75 0 0.83 6 06:52 29.04.2020
4029 Clouds 11 1002 76 0 1.15 355 06:32 29.04.2020
4030 Clouds 10 998 95 0 1.15 355 05:43 29.04.2020
4031 Clouds 12 1002 76 0 1.6 358 05:19 29.04.2020
4032 Clouds 12 1002 79 0 2.76 346 04:19 29.04.2020
4033 Clouds 12 1002 79 0 0.89 359 02:58 29.04.2020
4034 Rain 13 1001 76 0 2.68 304 01:54 29.04.2020
4035 Rain 13 1001 77 0 2.24 310 01:28 29.04.2020
4036 Rain 13 1001 79 0 2.68 299 00:56 29.04.2020
4037 Rain 12 997 10 0 1.69 269 00:37 29.04.2020
4038 Clouds 13 997 98 0 0.97 166 00:18 29.04.2020
4039 Clouds 13 997 95 0 0.97 166 23:43 28.04.2020
4040 Clouds 13 997 95 0 0.97 166 23:43 28.04.2020
4041 Clouds 14 997 88 0 0.5 111 23:21 28.04.2020
4042 Clouds 15 997 76 0 0.5 111 22:39 28.04.2020
4043 Rain 15 997 74 0 0.58 37 22:20 28.04.2020
4044 Rain 15 997 71 0 0.58 37 21:59 28.04.2020
4045 Rain 15 1003 77 0 0.58 37 21:40 28.04.2020
4046 Clouds 16 1003 76 0 1.62 129 21:22 28.04.2020
4047 Clouds 16 1003 68 0 1.62 129 20:59 28.04.2020
4048 Clouds 13 1003 90 0 1.62 129 20:40 28.04.2020
4049 Clouds 17 1003 62 0 1.23 94 20:20 28.04.2020
4050 Clouds 17 1003 60 0 1.23 94 19:57 28.04.2020
4051 Clouds 17 1010 63 0 1.23 94 19:39 28.04.2020
4052 Clouds 18 1003 58 0 2.16 38 19:20 28.04.2020
4053 Clouds 18 1003 58 0 2.16 38 18:57 28.04.2020
4054 Clouds 18 997 55 0 2.16 38 18:37 28.04.2020
4055 Rain 20 1001 46 0 0.45 2 18:18 28.04.2020
4056 Rain 20 1001 40 0 2.68 323 17:37 28.04.2020
4057 Rain 20 1001 38 0 2.24 324 17:19 28.04.2020
4058 Rain 21 1001 33 0 2.68 310 16:58 28.04.2020
4059 Rain 22 1001 31 0 1.34 327 16:39 28.04.2020
4060 Clouds 22 1001 33 0 1.22 166 16:21 28.04.2020
4061 Clouds 22 1001 29 0 1.79 121 15:56 28.04.2020
4062 Clouds 23 1002 28 0 2.68 90 15:38 28.04.2020
4063 Clouds 22 998 34 0 1.53 150 15:20 28.04.2020
4064 Clouds 22 998 34 0 1.53 150 14:56 28.04.2020
4065 Clouds 22 1004 33 0 1.79 268 14:38 28.04.2020
4066 Clouds 22 1004 34 0 0.89 138 14:19 28.04.2020
4067 Clouds 22 1004 35 0 1.34 290 13:56 28.04.2020
4068 Clouds 21 1004 34 0 2.68 175 13:37 28.04.2020
4069 Clouds 24 998 30 0 0.63 170 13:19 28.04.2020
4070 Clouds 23 1003 29 0 0.63 170 12:43 28.04.2020
4071 Clouds 23 1003 29 0 1.79 261 12:43 28.04.2020
4072 Clouds 21 1004 33 0 1.79 246 12:23 28.04.2020
4073 Clouds 20 1005 35 0 1.79 143 11:43 28.04.2020
4074 Clouds 19 1003 42 0 0.45 90 11:24 28.04.2020
4075 Clouds 21 1004 35 0 0.45 221 10:58 28.04.2020
4076 Clouds 21 1004 35 0 1.48 315 10:38 28.04.2020
4077 Clouds 19 1005 42 0 0.45 210 10:19 28.04.2020
4078 Clouds 18 1005 42 0 0.45 267 09:55 28.04.2020
4079 Clouds 17 1005 48 0 0.45 250 09:37 28.04.2020
4080 Clouds 16 1004 67 0 1.6 298 09:19 28.04.2020
4081 Clouds 16 999 50 0 1.6 298 08:45 28.04.2020
4082 Clouds 9 999 69 0 1.02 253 08:26 28.04.2020
4083 Clouds 12 1004 53 0 1.02 253 07:44 28.04.2020
4084 Clouds 10 1004 68 0 1.34 175 07:19 28.04.2020
4085 Clouds 9 1004 71 0 0.45 190 06:44 28.04.2020
4086 Clouds 8 1004 73 0 1.32 213 06:20 28.04.2020
4087 Clouds 8 1004 73 0 0.45 208 05:40 28.04.2020
4088 Clear 8 1004 71 0 0.45 203 04:39 28.04.2020
4089 Clouds 10 1004 66 0 1.25 256 02:59 28.04.2020
4090 Clouds 9 1004 64 0 1.72 230 02:28 28.04.2020
4091 Clouds 11 1004 60 0 1.89 260 01:23 28.04.2020
4092 Clouds 11 1004 60 0 1.89 260 00:55 28.04.2020
4093 Clouds 12 1004 59 0 1.93 261 00:22 28.04.2020
4094 Clouds 12 1005 60 0 1.93 261 23:47 27.04.2020
4095 Clouds 12 1005 59 0 1.65 283 23:24 27.04.2020
4096 Clouds 14 1004 55 0 1.65 283 22:55 27.04.2020
4097 Clouds 14 1004 52 0 1.99 289 22:37 27.04.2020
4098 Clouds 14 1004 51 0 1.99 289 22:19 27.04.2020
4099 Clouds 15 1004 51 0 1.99 289 21:56 27.04.2020
4100 Clouds 15 1004 51 0 1.99 289 21:38 27.04.2020
4101 Clouds 15 1004 50 0 1.78 289 21:18 27.04.2020
4102 Clouds 17 1004 46 0 1.78 289 20:44 27.04.2020
4103 Clouds 18 1004 43 0 1 277 20:22 27.04.2020
4104 Clouds 19 1004 39 0 1 277 19:59 27.04.2020
4105 Clouds 21 1004 35 0 1 277 19:39 27.04.2020
4106 Clouds 21 1004 33 0 0.55 261 19:20 27.04.2020
4107 Clouds 21 1004 30 0 0.55 261 18:58 27.04.2020
4108 Clouds 21 1004 31 0 0.55 261 18:40 27.04.2020
4109 Clouds 22 1004 29 0 1.07 257 18:19 27.04.2020
4110 Clouds 22 1004 29 0 1.07 257 18:19 27.04.2020
4111 Clouds 23 1004 26 0 1.34 266 17:43 27.04.2020
4112 Clouds 22 1006 28 0 3.13 352 17:24 27.04.2020
4113 Clouds 22 1006 28 0 3.58 248 17:00 27.04.2020
4114 Clouds 22 1006 30 0 3.13 283 16:40 27.04.2020
4115 Clouds 22 1006 29 0 1.79 337 16:21 27.04.2020
4116 Clouds 22 1007 28 0 3.58 253 15:56 27.04.2020
4117 Clouds 22 1007 28 0 2.68 297 15:38 27.04.2020
4118 Clouds 22 1007 29 0 3.13 257 15:38 27.04.2020
4119 Clouds 22 1007 28 0 3.58 273 15:18 27.04.2020
4120 Clouds 22 1007 28 0 3.58 275 14:56 27.04.2020
4121 Clear 22 1007 30 0 3.13 257 14:37 27.04.2020
4122 Clear 21 1008 33 0 1.79 240 14:18 27.04.2020
4123 Clear 22 1007 29 0 2.24 206 13:42 27.04.2020
4124 Clear 22 1007 32 0 2.15 194 13:20 27.04.2020
4125 Clear 21 1007 33 0 1.34 180 12:57 27.04.2020
4126 Clear 21 1008 35 0 0.45 199 12:39 27.04.2020
4127 Clouds 19 1009 40 0 2.24 278 12:20 27.04.2020
4128 Clouds 19 1009 38 0 0.89 300 11:41 27.04.2020
4129 Clouds 18 1008 39 0 2.24 141 11:21 27.04.2020
4130 Clouds 17 1008 42 0 1.34 115 10:57 27.04.2020
4131 Clouds 17 1008 43 0 1.34 74 10:39 27.04.2020
4132 Clouds 17 1008 42 0 1.34 172 10:20 27.04.2020
4133 Clouds 18 1004 44 0 1.39 172 09:44 27.04.2020
4134 Clouds 18 1004 44 0 1.39 172 09:44 27.04.2020
4135 Clear 12 1010 62 0 0.89 167 09:19 27.04.2020
4136 Clear 12 1010 67 0 0.82 263 08:59 27.04.2020
4137 Clear 3 1004 93 0 0.82 263 08:41 27.04.2020
4138 Clear 5 1009 76 0 0.82 263 08:23 27.04.2020
4139 Clear 5 1009 76 0 0.82 263 07:44 27.04.2020
4140 Clear 5 1009 76 0 0.82 263 07:22 27.04.2020
4141 Clear 4 1009 76 0 0.82 263 06:56 27.04.2020
4142 Clouds 4 1009 79 0 0.65 269 06:27 27.04.2020
4143 Clouds 4 1009 79 0 0.65 269 05:50 27.04.2020
4144 Clouds 5 1009 78 0 0.65 269 04:51 27.04.2020
4145 Clouds 6 1009 75 0 0.65 269 03:59 27.04.2020
4146 Clouds 6 1009 73 0 0.45 321 03:36 27.04.2020
4147 Clear 7 1009 72 0 0.89 310 01:43 27.04.2020
4148 Clear 7 1009 70 0 0.89 239 01:18 27.04.2020
4149 Clear 8 1009 69 0 1.42 170 00:20 27.04.2020
4150 Clear 8 1009 67 0 1.42 170 23:58 26.04.2020
4151 Clear 8 1009 66 0 1.42 170 23:40 26.04.2020
4152 Clear 9 1009 65 0 1.42 170 23:21 26.04.2020
4153 Clear 9 1009 64 0 1.42 170 22:58 26.04.2020
4154 Clear 10 1009 62 0 1.42 170 22:39 26.04.2020
4155 Clear 10 1009 62 0 1.42 170 22:21 26.04.2020
4156 Clear 11 1009 58 0 1.42 170 21:58 26.04.2020
4157 Clear 11 1009 57 0 1.42 170 21:39 26.04.2020
4158 Clouds 12 1009 56 0 0.71 94 21:18 26.04.2020
4159 Clouds 13 1009 52 0 0.71 94 20:55 26.04.2020
4160 Clouds 14 1009 49 0 0.71 94 20:37 26.04.2020
4161 Clouds 14 1009 49 0 0.71 94 20:37 26.04.2020
4162 Clouds 15 1008 47 0 0.71 94 20:18 26.04.2020
4163 Clouds 16 1008 44 0 0.71 94 19:57 26.04.2020
4164 Clouds 17 1008 41 0 0.71 94 19:36 26.04.2020
4165 Clouds 17 1008 40 0 1.79 314 19:18 26.04.2020
4166 Clouds 17 1008 38 0 1.79 314 18:43 26.04.2020
4167 Clouds 15 1010 52 0 0.87 297 18:24 26.04.2020
4168 Clouds 15 1010 52 0 0.87 297 17:44 26.04.2020
4169 Clouds 15 1010 52 0 0.87 297 17:23 26.04.2020
4170 Clouds 15 1010 52 0 0.87 297 16:58 26.04.2020
4171 Clouds 18 1010 35 0 0.89 323 16:39 26.04.2020
4172 Clouds 17 1011 38 0 0.45 52 16:20 26.04.2020
4173 Clouds 18 1011 38 0 0.89 29 15:57 26.04.2020
4174 Clouds 17 1011 39 0 0.45 345 15:37 26.04.2020
4175 Clouds 17 1011 39 0 1.34 44 15:19 26.04.2020
4176 Clouds 17 1011 38 0 0.45 15 14:41 26.04.2020
4177 Clouds 17 1011 40 0 0.89 1 14:20 26.04.2020
4178 Clouds 16 1011 40 0 0.89 340 13:59 26.04.2020
4179 Clouds 16 1012 40 0 1.34 25 13:40 26.04.2020
4180 Clouds 17 1012 39 0 0.45 70 13:22 26.04.2020
4181 Clouds 18 1011 34 0 0.89 279 12:57 26.04.2020
4182 Clouds 18 1011 35 0 2.68 299 12:39 26.04.2020
4183 Clouds 16 1012 46 0 1.34 263 12:20 26.04.2020
4184 Clouds 16 1012 45 0 1.79 250 11:57 26.04.2020
4185 Clouds 16 1012 47 0 1.34 279 11:38 26.04.2020
4186 Clouds 16 1012 47 0 1.34 279 11:38 26.04.2020
4187 Clouds 16 1012 47 0 1.79 271 11:20 26.04.2020
4188 Clouds 15 1012 43 0 1.34 112 10:55 26.04.2020
4189 Clouds 15 1012 42 0 1.34 112 10:37 26.04.2020
4190 Clouds 15 1012 43 0 0.45 179 10:18 26.04.2020
4191 Clouds 11 1006 65 0 2.33 295 09:39 26.04.2020
4192 Clouds 11 1006 65 0 1.64 284 09:21 26.04.2020
4193 Clouds 11 1006 65 0 1.64 284 08:46 26.04.2020
4194 Clouds 6 1006 86 0 1.64 284 08:23 26.04.2020
4195 Clouds 8 1012 77 0 1.64 284 07:59 26.04.2020
4196 Clouds 7 1011 76 0 2.68 248 07:40 26.04.2020
4197 Clouds 5 1011 78 0 0.45 217 07:20 26.04.2020
4198 Clouds 4 1011 80 0 1.64 284 06:40 26.04.2020
4199 Clouds 4 1011 81 0 0.95 292 05:55 26.04.2020
4200 Clouds 4 1011 81 0 0.95 292 05:37 26.04.2020
4201 Clouds 4 1011 79 0 0.95 292 04:56 26.04.2020
4202 Clouds 4 1011 79 0 0.45 173 04:22 26.04.2020
4203 Clouds 6 1011 76 0 0.5 19 02:47 26.04.2020
4204 Clouds 6 1011 75 0 0.73 68 02:28 26.04.2020
4205 Clouds 7 1011 72 0 0.73 68 01:46 26.04.2020
4206 Clouds 8 1011 70 0 0.73 68 01:26 26.04.2020
4207 Clouds 7 1006 81 0 0.73 68 00:39 26.04.2020
4208 Clouds 8 1006 76 0 1.61 0 00:19 26.04.2020
4209 Clouds 9 1005 73 0 1.61 0 23:39 25.04.2020
4210 Clouds 11 1010 64 0 1.61 0 23:20 25.04.2020
4211 Clouds 11 1010 62 0 1.61 0 22:58 25.04.2020
4212 Clouds 11 1010 62 0 1.61 0 22:39 25.04.2020
4213 Clouds 11 1010 62 0 1.61 0 22:19 25.04.2020
4214 Clouds 11 1010 62 0 1.61 0 21:54 25.04.2020
4215 Clouds 12 1011 59 0 1.61 0 21:36 25.04.2020
4216 Clouds 12 1011 59 0 1.07 315 21:18 25.04.2020
4217 Clouds 13 1010 56 0 1.07 315 20:42 25.04.2020
4218 Clouds 14 1010 52 0 1.07 315 20:22 25.04.2020
4219 Clouds 14 1010 48 0 1.07 315 19:55 25.04.2020
4220 Clouds 15 1010 47 0 1.07 315 19:37 25.04.2020
4221 Clouds 15 1010 45 0 2.24 290 19:19 25.04.2020
4222 Clouds 16 1010 43 0 0.89 307 18:41 25.04.2020
4223 Clouds 16 1010 42 0 2.11 322 18:21 25.04.2020
4224 Clouds 16 1006 43 0 2.11 322 17:58 25.04.2020
4225 Clouds 16 1006 43 0 2.11 322 17:39 25.04.2020
4226 Clouds 17 1006 38 0 2.11 322 17:20 25.04.2020
4227 Clouds 16 1006 41 0 2.11 322 16:58 25.04.2020
4228 Clouds 15 1012 53 0 1.34 264 16:40 25.04.2020
4229 Clouds 17 1006 39 0 2.11 322 16:21 25.04.2020
4230 Clouds 16 1011 42 0 1.79 280 15:54 25.04.2020
4231 Clouds 16 1011 42 0 2.11 322 15:36 25.04.2020
4232 Clouds 16 1012 44 0 0.89 314 15:18 25.04.2020
4233 Clouds 16 1012 44 0 0.89 265 14:39 25.04.2020
4234 Clouds 16 1012 43 0 1.34 230 14:20 25.04.2020
4235 Clouds 16 1012 44 0 1.79 303 13:59 25.04.2020
4236 Clouds 16 1012 43 0 3.13 327 13:40 25.04.2020
4237 Clouds 14 1012 56 0 1.34 82 13:18 25.04.2020
4238 Clouds 15 1012 49 0 0.45 7 12:55 25.04.2020
4239 Clouds 14 1012 49 0 0.89 334 12:36 25.04.2020
4240 Clouds 14 1013 62 0 1.34 25 12:18 25.04.2020
4241 Clouds 13 1012 65 0 1.79 297 11:41 25.04.2020
4242 Clouds 14 1007 49 0 4.51 330 11:23 25.04.2020
4243 Clouds 13 1012 69 0 2.24 70 10:57 25.04.2020
4244 Clouds 12 1006 61 0 4.51 330 10:38 25.04.2020
4245 Clouds 12 1006 61 0 4.51 330 10:19 25.04.2020
4246 Clouds 12 1011 56 0 4.92 262 09:43 25.04.2020
4247 Clouds 11 1011 62 0 4.92 292 09:22 25.04.2020
4248 Clouds 9 1011 67 0 4.47 269 08:55 25.04.2020
4249 Clouds 9 1011 66 0 4.02 326 08:37 25.04.2020
4250 Clouds 9 1010 64 0 3.13 285 08:19 25.04.2020
4251 Clouds 8 1010 65 0 2.24 323 07:43 25.04.2020
4252 Clouds 8 1009 64 0 0.89 338 07:22 25.04.2020
4253 Clouds 8 1009 65 0 7.33 307 06:43 25.04.2020
4254 Clouds 8 1009 65 0 0.89 303 05:47 25.04.2020
4255 Clouds 8 1009 67 0 2.68 286 05:28 25.04.2020
4256 Clouds 8 1008 63 0 3.58 323 04:24 25.04.2020
4257 Clouds 8 1008 68 0 3.13 313 02:44 25.04.2020
4258 Clouds 8 1008 71 0 4.02 280 02:19 25.04.2020
4259 Clouds 8 1008 69 0 5.36 317 01:50 25.04.2020
4260 Clouds 8 1008 69 0 4.02 279 01:26 25.04.2020
4261 Clouds 9 1008 69 0 3.58 299 00:50 25.04.2020
4262 Clouds 9 1008 65 0 2.24 286 00:29 25.04.2020
4263 Clouds 10 1007 53 0 2.24 286 23:43 24.04.2020
4264 Clouds 11 1007 51 0 3.13 304 23:22 24.04.2020
4265 Clouds 11 1007 50 0 1.34 316 22:56 24.04.2020
4266 Clouds 12 1007 45 0 5.53 298 22:37 24.04.2020
4267 Clouds 12 1007 44 0 2.24 314 22:19 24.04.2020
4268 Clouds 13 1007 43 0 1.79 220 21:54 24.04.2020
4269 Clouds 14 1007 41 0 1.79 313 21:36 24.04.2020
4270 Clouds 14 1007 39 0 1.79 323 21:18 24.04.2020
4271 Clouds 15 1007 37 0 1.79 173 20:44 24.04.2020
4272 Clouds 16 1007 32 0 5.81 307 20:19 24.04.2020
4273 Clouds 17 1007 31 0 1.34 232 19:58 24.04.2020
4274 Clouds 18 1006 29 0 4.02 333 19:39 24.04.2020
4275 Clouds 19 1006 30 0 1.34 241 19:20 24.04.2020
4276 Clouds 20 1006 26 0 5.36 307 18:43 24.04.2020
4277 Rain 20 1006 25 0 2.24 359 18:25 24.04.2020
4278 Rain 21 1007 36 0 2.68 326 17:54 24.04.2020
4279 Rain 21 1007 36 0 2.68 324 17:36 24.04.2020
4280 Rain 22 1007 35 0 2.24 33 17:18 24.04.2020
4281 Rain 21 1007 35 0 3.13 33 16:56 24.04.2020
4282 Rain 22 1007 35 0 2.68 356 16:38 24.04.2020
4283 Rain 22 1007 29 0 5.36 319 16:20 24.04.2020
4284 Rain 22 1008 34 0 2.24 75 15:40 24.04.2020
4285 Clouds 22 1008 34 0 1.79 10 15:20 24.04.2020
4286 Clouds 22 1008 33 0 1.79 13 14:41 24.04.2020
4287 Clouds 21 1008 32 0 1.79 71 14:22 24.04.2020
4288 Clouds 21 1008 36 0 1.79 15 13:59 24.04.2020
4289 Clouds 21 1009 35 0 1.79 315 13:41 24.04.2020
4290 Clouds 22 1008 27 0 3.13 285 13:20 24.04.2020
4291 Clouds 21 1008 28 0 0.89 196 12:57 24.04.2020
4292 Clouds 21 1008 28 0 0.89 196 12:57 24.04.2020
4293 Clouds 21 1009 28 0 0.89 100 12:39 24.04.2020
4294 Clouds 16 1010 62 0 3.54 293 12:19 24.04.2020
4295 Clouds 18 1010 45 0 0.89 48 11:43 24.04.2020
4296 Clouds 18 1009 39 0 1.79 272 11:21 24.04.2020
4297 Clouds 18 1009 42 0 4.47 319 10:57 24.04.2020
4298 Clouds 18 1009 41 0 2.24 307 10:38 24.04.2020
4299 Clouds 17 1010 48 0 0.89 317 10:20 24.04.2020
4300 Clouds 16 1010 54 0 0.45 225 09:55 24.04.2020
4301 Clouds 14 1010 57 0 1.79 263 09:36 24.04.2020
4302 Clouds 13 1010 60 0 2.29 267 09:18 24.04.2020
4303 Clouds 11 1010 65 0 2.29 267 08:42 24.04.2020
4304 Clouds 10 1010 66 0 2.29 267 08:19 24.04.2020
4305 Clouds 9 1010 66 0 2.29 267 07:56 24.04.2020
4306 Clouds 9 1010 66 0 2.29 267 07:56 24.04.2020
4307 Clouds 9 1011 67 0 2.29 267 07:38 24.04.2020
4308 Clouds 8 1011 69 0 2.29 267 07:19 24.04.2020
4309 Clouds 8 1011 71 0 2.29 267 06:42 24.04.2020
4310 Clouds 7 1011 72 0 1.38 231 05:51 24.04.2020
4311 Clouds 8 1011 72 0 1.38 231 05:18 24.04.2020
4312 Clouds 8 1013 70 0 1.38 231 03:34 24.04.2020
4313 Clouds 8 1013 68 0 1.14 208 02:50 24.04.2020
4314 Clouds 9 1014 68 0 1.2 202 02:30 24.04.2020
4315 Clouds 7 1014 70 0 1.2 202 01:46 24.04.2020
4316 Clouds 8 1015 67 0 1.2 202 00:50 24.04.2020
4317 Clouds 9 1015 64 0 0.98 197 00:19 24.04.2020
4318 Clouds 10 1015 63 0 0.98 197 23:46 23.04.2020
4319 Clouds 10 1015 59 0 0.98 197 23:27 23.04.2020
4320 Clouds 11 1016 58 0 0.98 197 22:58 23.04.2020
4321 Clouds 11 1016 58 0 0.98 197 22:39 23.04.2020
4322 Clouds 11 1016 58 0 0.98 197 22:39 23.04.2020
4323 Clouds 12 1016 56 0 0.98 197 22:20 23.04.2020
4324 Clouds 12 1016 55 0 0.98 197 21:57 23.04.2020
4325 Clouds 12 1016 55 0 0.98 197 21:57 23.04.2020
4326 Clouds 12 1016 55 0 0.98 197 21:39 23.04.2020
4327 Clear 14 1016 52 0 1.61 173 21:20 23.04.2020
4328 Clear 13 1016 52 0 1.61 173 21:20 23.04.2020
4329 Clear 14 1016 53 0 1.61 173 20:57 23.04.2020
4330 Clear 15 1017 50 0 1.61 173 20:39 23.04.2020
4331 Clear 17 1017 45 0 1.61 173 20:19 23.04.2020
4332 Clear 18 1017 40 0 1.61 173 19:56 23.04.2020
4333 Clear 18 1017 38 0 1.61 173 19:38 23.04.2020
4334 Clear 18 1017 35 0 1.61 173 19:19 23.04.2020
4335 Clear 18 1017 35 0 1.61 173 19:19 23.04.2020
4336 Clear 20 1017 30 0 0.89 170 18:41 23.04.2020
4337 Clear 20 1018 28 0 1.34 70 18:23 23.04.2020
4338 Clear 21 1018 27 0 1.79 128 17:58 23.04.2020
4339 Clear 21 1018 24 0 0.45 19 17:39 23.04.2020
4340 Clear 22 1018 24 0 2.24 149 17:21 23.04.2020
4341 Clear 21 1019 31 0 1.34 109 16:56 23.04.2020
4342 Clear 21 1020 30 0 1.79 90 16:38 23.04.2020
4343 Clear 21 1020 31 0 1.79 114 16:18 23.04.2020
4344 Clear 21 1020 31 0 1.79 62 15:42 23.04.2020
4345 Clear 20 1021 31 0 2.24 127 15:22 23.04.2020
4346 Clear 21 1021 32 0 2.24 223 14:56 23.04.2020
4347 Clear 20 1022 32 0 1.34 131 14:37 23.04.2020
4348 Clear 19 1022 32 0 2.24 306 14:19 23.04.2020
4349 Clear 19 1022 33 0 1.79 117 13:55 23.04.2020
4350 Clear 20 1022 27 0 3.58 94 13:36 23.04.2020
4351 Clear 21 1022 27 0 2.68 165 13:18 23.04.2020
4352 Clear 19 1022 28 0 2.24 16 12:42 23.04.2020
4353 Clear 18 1024 35 0 1.79 174 12:23 23.04.2020
4354 Clear 17 1024 36 0 2.24 97 11:55 23.04.2020
4355 Clear 17 1024 36 0 1.79 152 11:36 23.04.2020
4356 Clear 17 1024 38 0 2.68 147 11:18 23.04.2020
4357 Clear 17 1024 38 0 3.58 104 10:41 23.04.2020
4358 Clear 17 1024 38 0 3.58 104 10:41 23.04.2020
4359 Clear 17 1024 39 0 0.89 131 10:20 23.04.2020
4360 Clear 15 1025 47 0 1.34 92 09:41 23.04.2020
4361 Clear 9 1025 77 0 2.03 87 09:20 23.04.2020
4362 Clear 11 1019 66 0 2.03 87 08:57 23.04.2020
4363 Clear 11 1019 66 0 2.03 87 08:39 23.04.2020
4364 Clear 11 1019 66 0 2.03 87 08:21 23.04.2020
4365 Clear 9 1024 63 0 1.79 19 07:42 23.04.2020
4366 Clear 7 1024 70 0 0.45 320 07:23 23.04.2020
4367 Clear 6 1024 74 0 1.34 319 06:47 23.04.2020
4368 Clear 5 1024 75 0 2.3 94 05:58 23.04.2020
4369 Clear 5 1024 73 0 2.3 94 05:23 23.04.2020
4370 Clear 6 1024 72 0 2.3 94 04:51 23.04.2020
4371 Clear 8 1024 64 0 0.89 5 02:24 23.04.2020
4372 Clear 9 1024 63 0 0.89 2 01:46 23.04.2020
4373 Clear 10 1024 62 0 3.19 93 01:24 23.04.2020
4374 Clear 10 1023 59 0 3.19 93 00:45 23.04.2020
4375 Clear 10 1023 59 0 3.19 93 00:45 23.04.2020
4376 Clear 11 1023 57 0 3.68 92 00:18 23.04.2020
4377 Clear 11 1023 57 0 3.68 92 00:18 23.04.2020
4378 Clear 11 1023 55 0 0.45 32 23:47 22.04.2020
4379 Clear 11 1023 51 0 1.79 303 23:23 22.04.2020
4380 Clear 11 1023 51 0 1.34 19 22:55 22.04.2020
4381 Clear 12 1023 51 0 2.24 2 22:36 22.04.2020
4382 Clear 12 1023 50 0 0.89 16 22:18 22.04.2020
4383 Clear 13 1023 49 0 0.45 348 21:55 22.04.2020
4384 Clear 13 1023 48 0 1.34 2 21:37 22.04.2020
4385 Clear 13 1023 48 0 0.89 15 21:18 22.04.2020
4386 Clear 15 1022 44 0 3.13 83 20:43 22.04.2020
4387 Clear 16 1022 42 0 0.89 80 20:19 22.04.2020
4388 Clear 17 1022 38 0 3.13 83 19:57 22.04.2020
4389 Clear 17 1022 35 0 1.79 26 19:38 22.04.2020
4390 Clear 18 1022 33 0 0.89 105 19:19 22.04.2020
4391 Clear 18 1022 31 0 2.68 115 18:58 22.04.2020
4392 Clear 18 1022 28 0 3.13 43 18:40 22.04.2020
4393 Clear 18 1022 28 0 3.13 100 18:22 22.04.2020
4394 Clear 19 1022 26 0 4.02 77 17:56 22.04.2020
4395 Clear 19 1022 26 0 2.68 108 17:37 22.04.2020
4396 Clear 20 1022 24 0 5.36 94 17:19 22.04.2020
4397 Clear 20 1023 25 0 1.79 12 16:42 22.04.2020
4398 Clear 19 1023 33 0 2.68 110 16:23 22.04.2020
4399 Clear 19 1023 34 0 3.13 75 15:43 22.04.2020
4400 Clear 19 1024 34 0 2.68 120 15:25 22.04.2020
4401 Clear 19 1024 34 0 3.13 114 14:59 22.04.2020
4402 Clear 19 1024 34 0 2.68 171 14:41 22.04.2020
4403 Clear 18 1024 34 0 2.68 77 14:20 22.04.2020
4404 Clear 18 1025 34 0 2.24 106 13:57 22.04.2020
4405 Clear 19 1024 29 0 5.81 71 13:39 22.04.2020
4406 Clear 19 1024 28 0 5.36 1 13:19 22.04.2020
4407 Clear 18 1025 30 0 4.02 77 12:42 22.04.2020
4408 Clear 17 1025 34 0 2.68 209 12:23 22.04.2020
4409 Clear 17 1025 29 0 3.58 70 11:57 22.04.2020
4410 Clear 17 1025 30 0 6.71 56 11:36 22.04.2020
4411 Clear 16 1026 37 0 3.13 132 11:18 22.04.2020
4412 Clear 16 1025 36 0 4.92 122 10:41 22.04.2020
4413 Clear 16 1025 36 0 2.68 9 10:21 22.04.2020
4414 Clear 16 1020 38 0 5.89 86 09:42 22.04.2020
4415 Clear 8 1026 73 0 4.84 81 09:23 22.04.2020
4416 Clear 11 1026 51 0 1.79 117 08:59 22.04.2020
4417 Clear 10 1021 61 0 4.84 81 08:41 22.04.2020
4418 Clear 9 1021 63 0 4.84 81 08:22 22.04.2020
4419 Clear 8 1020 68 0 4.84 81 07:54 22.04.2020
4420 Clear 7 1025 69 0 2.24 42 07:33 22.04.2020
4421 Clear 6 1025 72 0 1.34 25 06:53 22.04.2020
4422 Clear 5 1025 74 0 1.79 359 06:34 22.04.2020
4423 Clear 5 1025 71 0 3.86 68 05:39 22.04.2020
4424 Clear 6 1025 65 0 2.24 9 04:34 22.04.2020
4425 Clear 8 1025 58 0 1.79 12 02:59 22.04.2020
4426 Clear 9 1025 53 0 1.79 26 01:56 22.04.2020
4427 Clear 9 1025 51 0 2.24 16 01:38 22.04.2020
4428 Clear 10 1025 52 0 0.89 5 01:19 22.04.2020
4429 Clear 10 1025 51 0 0.45 338 00:41 22.04.2020
4430 Clear 10 1024 50 0 2.24 21 00:20 22.04.2020
4431 Clear 11 1024 48 0 1.79 16 23:44 21.04.2020
4432 Clear 11 1024 47 0 4.86 87 23:22 21.04.2020
4433 Clear 12 1024 44 0 4.47 95 22:56 21.04.2020
4434 Clear 12 1024 43 0 3.58 28 22:37 21.04.2020
4435 Clear 12 1024 43 0 1.34 49 22:19 21.04.2020
4436 Clear 13 1023 45 0 2.24 87 21:43 21.04.2020
4437 Clear 14 1023 41 0 2.24 28 21:24 21.04.2020
4438 Clear 14 1018 38 0 5.08 76 20:59 21.04.2020
4439 Clear 15 1018 37 0 4.93 77 20:40 21.04.2020
4440 Clear 15 1022 36 0 3.13 334 20:22 21.04.2020
4441 Clear 16 1022 35 0 4.47 43 19:57 21.04.2020
4442 Clear 16 1022 34 0 3.13 118 19:37 21.04.2020
4443 Clear 17 1022 33 0 4.47 111 19:18 21.04.2020
4444 Clear 17 1022 31 0 4.02 7 18:55 21.04.2020
4445 Clear 17 1022 31 0 3.58 2 18:36 21.04.2020
4446 Clear 17 1022 30 0 4.92 71 18:18 21.04.2020
4447 Clear 18 1022 29 0 4.92 107 17:39 21.04.2020
4448 Clear 18 1023 29 0 5.36 33 17:20 21.04.2020
4449 Clear 18 1023 30 0 4.47 63 16:56 21.04.2020
4450 Clear 18 1023 30 0 3.13 64 16:37 21.04.2020
4451 Clear 18 1023 30 0 3.13 8 16:18 21.04.2020
4452 Clear 18 1023 30 0 3.13 8 16:18 21.04.2020
4453 Clear 18 1023 29 0 7.15 47 15:55 21.04.2020
4454 Clear 18 1023 30 0 2.68 93 15:37 21.04.2020
4455 Clear 17 1024 35 0 3.58 112 15:18 21.04.2020
4456 Clear 17 1024 31 0 5.81 359 14:45 21.04.2020
4457 Clear 17 1024 32 0 4.47 46 14:23 21.04.2020
4458 Clear 17 1024 32 0 7.6 39 13:56 21.04.2020
4459 Clear 17 1024 33 0 7.15 101 13:37 21.04.2020
4460 Clear 17 1024 34 0 7.6 94 13:18 21.04.2020
4461 Clear 17 1024 34 0 7.6 94 13:18 21.04.2020
4462 Clear 15 1025 35 0 6.71 131 12:39 21.04.2020
4463 Clear 14 1025 37 0 4.47 71 12:19 21.04.2020
4464 Clear 14 1025 38 0 4.47 91 11:57 21.04.2020
4465 Clear 14 1025 39 0 5.36 359 11:39 21.04.2020
4466 Clear 13 1025 40 0 5.81 95 11:19 21.04.2020
4467 Clear 13 1025 41 0 9.83 98 10:59 21.04.2020
4468 Clear 13 1025 43 0 6.26 79 10:40 21.04.2020
4469 Clear 13 1025 44 0 4.02 93 10:22 21.04.2020
4470 Clear 12 1025 54 0 3.58 68 09:59 21.04.2020
4471 Clear 13 1025 42 0 4.47 81 09:37 21.04.2020
4472 Clear 9 1025 56 0 3.13 91 09:18 21.04.2020
4473 Clear 9 1020 53 0 6.1 78 08:44 21.04.2020
4474 Clear 9 1020 53 0 6.1 78 08:26 21.04.2020
4475 Clear 7 1019 59 0 6.1 78 07:55 21.04.2020
4476 Clear 7 1025 64 0 1.79 45 07:36 21.04.2020
4477 Clear 6 1025 66 0 3.13 14 07:18 21.04.2020
4478 Clear 6 1024 69 0 6.1 78 06:42 21.04.2020
4479 Clear 6 1024 71 0 4.96 75 06:18 21.04.2020
4480 Clear 5 1024 70 0 4.96 75 05:44 21.04.2020
4481 Clear 6 1024 66 0 4.96 75 03:48 21.04.2020
4482 Clear 7 1024 63 0 4.32 77 02:47 21.04.2020
4483 Clear 7 1024 56 0 4.49 77 01:33 21.04.2020
4484 Clear 8 1024 53 0 2.24 39 00:51 21.04.2020
4485 Clear 9 1024 50 0 1.79 36 00:25 21.04.2020
4486 Clear 9 1024 47 0 0.89 56 23:44 20.04.2020
4487 Clear 10 1024 46 0 4.02 71 23:23 20.04.2020
4488 Clear 10 1024 44 0 4.02 28 22:57 20.04.2020
4489 Clear 10 1024 43 0 2.24 28 22:37 20.04.2020
4490 Clear 10 1024 44 0 0.45 15 22:19 20.04.2020
4491 Clear 11 1024 41 0 1.34 76 21:55 20.04.2020
4492 Clear 11 1019 44 0 4.62 75 21:37 20.04.2020
4493 Clear 12 1024 38 0 1.34 71 21:18 20.04.2020
4494 Clear 12 1023 36 0 2.68 25 20:56 20.04.2020
4495 Clear 13 1023 35 0 1.79 43 20:37 20.04.2020
4496 Clear 13 1023 33 0 3.13 69 20:18 20.04.2020
4497 Clear 14 1023 28 0 3.58 43 19:41 20.04.2020
4498 Clear 15 1023 26 0 2.24 28 19:23 20.04.2020
4499 Clear 15 1022 25 0 4.92 88 18:59 20.04.2020
4500 Clear 15 1022 25 0 5.36 70 18:41 20.04.2020
4501 Clear 16 1022 27 0 4.02 80 18:21 20.04.2020
4502 Clear 16 1022 30 0 3.13 39 17:55 20.04.2020
4503 Clear 17 1022 29 0 6.71 52 17:37 20.04.2020
4504 Clear 17 1023 28 0 4.02 42 17:19 20.04.2020
4505 Clear 16 1023 32 0 3.13 84 16:43 20.04.2020
4506 Clear 17 1023 28 0 2.24 57 16:21 20.04.2020
4507 Clear 16 1024 31 0 2.68 147 15:58 20.04.2020
4508 Clear 17 1024 27 0 6.26 32 15:39 20.04.2020
4509 Clear 15 1024 33 0 3.58 65 15:21 20.04.2020
4510 Clear 15 1024 33 0 3.13 116 14:55 20.04.2020
4511 Clear 16 1025 29 0 0.89 22 14:36 20.04.2020
4512 Clear 16 1025 29 0 4.47 7 14:18 20.04.2020
4513 Clear 16 1025 31 0 3.13 15 13:41 20.04.2020
4514 Clear 15 1025 31 0 3.13 46 13:22 20.04.2020
4515 Clear 14 1025 33 0 6.71 0 12:54 20.04.2020
4516 Clear 14 1025 33 0 4.47 52 12:36 20.04.2020
4517 Clear 11 1025 54 0 6.22 84 12:18 20.04.2020
4518 Clear 13 1026 37 0 4.02 62 11:40 20.04.2020
4519 Clear 12 1026 39 0 3.58 87 11:21 20.04.2020
4520 Clear 12 1026 41 0 1.34 46 10:57 20.04.2020
4521 Clear 12 1026 42 0 0.89 43 10:38 20.04.2020
4522 Clear 13 1026 41 0 4.02 114 10:19 20.04.2020
4523 Clear 14 1021 35 0 6.22 84 09:55 20.04.2020
4524 Clear 13 1026 37 0 3.13 84 09:36 20.04.2020
4525 Clear 5 1026 68 0 4.52 92 09:18 20.04.2020
4526 Clear 5 1026 68 0 4.52 92 08:41 20.04.2020
4527 Clear 5 1026 68 0 4.52 92 08:22 20.04.2020
4528 Clear 6 1021 60 0 4.52 92 07:52 20.04.2020
4529 Clear 6 1020 61 0 4.52 92 07:29 20.04.2020
4530 Clear 4 1020 67 0 4.52 92 06:58 20.04.2020
4531 Clear 3 1020 70 0 4.52 92 06:36 20.04.2020
4532 Clear 3 1020 67 0 3.39 74 05:43 20.04.2020
4533 Clear 4 1020 66 0 3.39 74 04:21 20.04.2020
4534 Clear 4 1020 63 0 4 70 02:47 20.04.2020
4535 Clear 5 1020 63 0 3.82 69 01:54 20.04.2020
4536 Clear 5 1020 62 0 3.82 69 01:28 20.04.2020
4537 Clear 6 1019 59 0 3.82 69 00:39 20.04.2020
4538 Clear 6 1019 55 0 4.54 57 23:59 19.04.2020
4539 Clear 6 1019 55 0 4.54 57 23:39 19.04.2020
4540 Clear 6 1019 53 0 4.54 57 23:20 19.04.2020
4541 Clear 6 1019 47 0 4.54 57 22:44 19.04.2020
4542 Clear 7 1019 45 0 4.54 57 22:24 19.04.2020
4543 -273 0 0 0 0 0 21:59 19.04.2020
4544 Clear 7 1018 40 0 4.54 57 21:41 19.04.2020
4545 Clear 7 1018 40 0 4.54 57 21:41 19.04.2020
4546 Clear 7 1018 40 0 4.12 54 21:22 19.04.2020
4547 Clear 9 1018 37 0 4.12 54 20:56 19.04.2020
4548 Clear 10 1018 36 0 4.12 54 20:38 19.04.2020
4549 Clear 12 1017 31 0 4.12 54 20:20 19.04.2020
4550 Clear 12 1017 31 0 4.12 54 20:20 19.04.2020
4551 Clear 12 1017 30 0 4.12 54 19:55 19.04.2020
4552 Clear 13 1017 28 0 4.12 54 19:37 19.04.2020
4553 Clear 13 1023 28 0 3.13 33 19:19 19.04.2020
4554 Clear 14 1022 28 0 4.12 54 18:54 19.04.2020
4555 Clear 13 1022 28 0 3.58 335 18:36 19.04.2020
4556 Clear 14 1022 26 0 6.26 31 18:18 19.04.2020
4557 Clear 15 1022 25 0 4.92 43 17:42 19.04.2020
4558 Clear 16 1022 24 0 4.92 46 17:23 19.04.2020
4559 Clear 16 1023 25 0 8.05 86 17:00 19.04.2020
4560 Clear 16 1023 25 0 3.13 76 16:39 19.04.2020
4561 Clear 16 1023 25 0 4.47 59 16:21 19.04.2020
4562 Clear 16 1023 24 0 2.68 76 15:57 19.04.2020
4563 Clear 16 1023 25 0 4.47 80 15:39 19.04.2020
4564 Clear 13 1023 40 0 5.92 65 15:18 19.04.2020
4565 Clear 13 1023 39 0 5.7 61 14:39 19.04.2020
4566 Clear 13 1023 39 0 5.7 61 14:20 19.04.2020
4567 Clear 16 1023 26 0 1.79 357 13:56 19.04.2020
4568 Clear 15 1023 26 0 3.13 28 13:36 19.04.2020
4569 Clear 15 1023 26 0 3.58 22 13:18 19.04.2020
4570 Clear 14 1023 28 0 4.47 25 12:43 19.04.2020
4571 Clear 11 1022 47 0 5.61 68 12:24 19.04.2020
4572 Clear 13 1023 31 0 4.92 33 11:39 19.04.2020
4573 Clear 13 1023 31 0 7.6 52 11:20 19.04.2020
4574 Clear 12 1022 32 0 5.36 79 10:59 19.04.2020
4575 Clear 12 1022 33 0 5.36 56 10:41 19.04.2020
4576 Clear 12 1022 37 0 3.13 53 10:21 19.04.2020
4577 Clear 12 1022 37 0 3.13 53 10:21 19.04.2020
4578 Clear 13 1022 32 0 3.13 2 09:56 19.04.2020
4579 Clear 12 1022 36 0 1.34 45 09:38 19.04.2020
4580 Clouds 5 1022 66 0 4.18 66 09:18 19.04.2020
4581 Clouds 6 1021 65 0 4.37 65 08:40 19.04.2020
4582 Clouds 7 1015 51 0 4.37 65 08:21 19.04.2020
4583 Clouds 5 1021 55 0 1.79 352 07:48 19.04.2020
4584 Clouds 5 1021 57 0 3.13 340 07:25 19.04.2020
4585 Clouds 4 1020 58 0 1.34 350 06:57 19.04.2020
4586 Clouds 4 1020 58 0 0.89 320 06:23 19.04.2020
4587 Clouds 5 1019 56 0 2.24 358 05:34 19.04.2020
4588 Clouds 6 1019 49 0 0.89 299 03:54 19.04.2020
4589 Clouds 7 1019 47 0 0.89 16 02:49 19.04.2020
4590 Clouds 7 1019 45 0 1.34 4 02:18 19.04.2020
4591 Clouds 9 1018 43 0 3.13 14 01:22 19.04.2020
4592 Clouds 9 1018 42 0 1.79 38 00:41 19.04.2020
4593 Clouds 9 1018 42 0 1.79 38 00:41 19.04.2020
4594 Clouds 9 1018 42 0 1.79 38 00:41 19.04.2020
4595 Clouds 9 1018 41 0 3.13 11 00:20 19.04.2020
4596 Clouds 10 1018 40 0 2.68 18 23:43 18.04.2020
4597 Clouds 10 1017 40 0 4.73 59 23:20 18.04.2020
4598 Clouds 10 1017 40 0 0.89 11 22:55 18.04.2020
4599 Clouds 10 1012 41 0 4.73 59 22:37 18.04.2020
4600 Clouds 11 1017 40 0 4.73 59 22:19 18.04.2020
4601 Clouds 12 1017 39 0 1.34 344 21:55 18.04.2020
4602 Clouds 12 1011 37 0 4.89 59 21:36 18.04.2020
4603 Clear 13 1017 39 0 0.45 295 21:18 18.04.2020
4604 Clear 14 1016 39 0 4.01 51 20:40 18.04.2020
4605 Clear 14 1016 39 0 1.79 352 20:21 18.04.2020
4606 Clear 16 1016 35 0 1.34 28 19:44 18.04.2020
4607 Clear 16 1016 35 0 1.34 28 19:44 18.04.2020
4608 Clear 17 1016 33 0 1.34 87 19:25 18.04.2020
4609 Clear 17 1016 32 0 2.68 35 18:59 18.04.2020
4610 Clear 18 1016 31 0 3.58 40 18:37 18.04.2020
4611 Clear 19 1016 29 0 2.24 0 18:19 18.04.2020
4612 Clear 19 1016 27 0 3.62 54 17:41 18.04.2020
4613 Clear 20 1016 26 0 2.68 103 17:21 18.04.2020
4614 Clear 20 1016 25 0 3.58 38 16:57 18.04.2020
4615 Clear 17 1016 45 0 3.62 54 16:37 18.04.2020
4616 Clear 17 1016 45 0 3.62 54 16:19 18.04.2020
4617 Clear 20 1017 26 0 3.62 54 15:39 18.04.2020
4618 Clouds 16 1017 44 0 3.13 76 15:21 18.04.2020
4619 Clouds 19 1017 29 0 0.89 19 14:46 18.04.2020
4620 Clouds 16 1017 45 0 3.26 67 14:27 18.04.2020
4621 Clouds 19 1018 28 0 0.89 39 13:56 18.04.2020
4622 Clouds 18 1018 29 0 4.92 80 13:38 18.04.2020
4623 Clouds 18 1018 30 0 2.24 14 13:19 18.04.2020
4624 Clouds 17 1018 34 0 4.02 347 12:41 18.04.2020
4625 Clouds 13 1018 52 0 2.74 77 12:22 18.04.2020
4626 Clouds 15 1019 39 0 2.24 23 11:43 18.04.2020
4627 Clouds 14 1019 43 0 2.68 55 11:25 18.04.2020
4628 Clouds 13 1019 43 0 2.74 77 10:58 18.04.2020
4629 Clouds 13 1019 45 0 1.79 32 10:40 18.04.2020
4630 Clouds 14 1019 42 0 2.24 36 10:19 18.04.2020
4631 Clouds 13 1018 52 0 2.74 77 09:58 18.04.2020
4632 Clouds 15 1019 36 0 2.74 77 09:38 18.04.2020
4633 Clear 7 1018 68 0 2.62 72 09:20 18.04.2020
4634 Clear 7 1018 68 0 2.62 72 08:39 18.04.2020
4635 Clear 8 1013 53 0 2.62 72 08:21 18.04.2020
4636 Clear 8 1019 55 0 0.45 341 07:41 18.04.2020
4637 Clear 6 1019 63 0 0.89 310 07:19 18.04.2020
4638 Clear 4 1019 69 0 1.34 319 06:38 18.04.2020
4639 Clear 5 1018 68 0 2.14 83 05:48 18.04.2020
4640 Clear 5 1018 69 0 2.14 83 04:54 18.04.2020
4641 Clear 6 1018 67 0 2.14 83 04:29 18.04.2020
4642 Clouds 6 1018 67 0 2.61 74 02:58 18.04.2020
4643 Clouds 7 1018 66 0 0.89 316 02:40 18.04.2020
4644 Clouds 7 1018 65 0 0.89 357 02:19 18.04.2020
4645 Clouds 8 1018 62 0 2.7 73 01:36 18.04.2020
4646 Clouds 8 1018 62 0 2.7 73 00:51 18.04.2020
4647 Clouds 8 1018 60 0 2.14 65 00:24 18.04.2020
4648 Clouds 9 1018 59 0 2.14 65 23:57 17.04.2020
4649 Clouds 9 1018 59 0 2.14 65 23:57 17.04.2020
4650 Clouds 9 1018 58 0 2.14 65 23:39 17.04.2020
4651 Clouds 9 1018 58 0 2.14 65 23:19 17.04.2020
4652 Clouds 9 1018 55 0 2.14 65 22:56 17.04.2020
4653 Clouds 10 1018 52 0 2.14 65 22:38 17.04.2020
4654 Clouds 10 1017 55 0 2.14 65 22:19 17.04.2020
4655 Clouds 10 1017 51 0 2.14 65 21:56 17.04.2020
4656 Clouds 11 1017 47 0 2.14 65 21:37 17.04.2020
4657 Clouds 12 1017 46 0 2.12 47 21:18 17.04.2020
4658 Clouds 12 1017 46 0 2.12 47 20:54 17.04.2020
4659 Clouds 13 1017 46 0 2.12 47 20:36 17.04.2020
4660 Clouds 13 1017 46 0 2.12 47 20:36 17.04.2020
4661 Clouds 13 1017 46 0 2.12 47 20:36 17.04.2020
4662 Clouds 14 1016 42 0 2.12 47 20:18 17.04.2020
4663 Clouds 16 1016 39 0 2.12 47 19:42 17.04.2020
4664 Clouds 17 1016 39 0 2.12 47 19:23 17.04.2020
4665 Clouds 17 1017 38 0 2.12 47 18:47 17.04.2020
4666 Clouds 17 1017 37 0 0.45 56 18:24 17.04.2020
4667 Clouds 18 1017 35 0 1.79 2 17:58 17.04.2020
4668 Clouds 18 1017 33 0 0.89 18 17:37 17.04.2020
4669 Clouds 16 1017 49 0 1.79 32 17:19 17.04.2020
4670 Clouds 16 1017 49 0 1.79 32 16:44 17.04.2020
4671 Clouds 16 1017 49 0 1.79 32 16:23 17.04.2020
4672 Clouds 16 1017 49 0 1.79 32 15:58 17.04.2020
4673 Clouds 16 1017 49 0 1.79 32 15:37 17.04.2020
4674 Clouds 15 1018 51 0 1.58 24 15:19 17.04.2020
4675 Clouds 15 1018 51 0 1.58 24 14:40 17.04.2020
4676 Clouds 18 1019 34 0 1.34 70 14:22 17.04.2020
4677 Clouds 17 1019 37 0 1.94 14 13:58 17.04.2020
4678 Clouds 16 1019 41 0 2.68 62 13:37 17.04.2020
4679 Clouds 17 1019 42 0 1.79 319 13:18 17.04.2020
4680 Clouds 16 1019 42 0 1.94 14 12:46 17.04.2020
4681 Clouds 16 1018 54 0 0.45 50 12:26 17.04.2020
4682 Clouds 15 1019 46 0 3.13 310 11:58 17.04.2020
4683 Clouds 14 1019 46 0 4.92 324 11:37 17.04.2020
4684 Clouds 14 1019 47 0 0.89 345 11:18 17.04.2020
4685 Clouds 14 1019 51 0 1.34 359 10:39 17.04.2020
4686 Clouds 13 1020 51 0 1.58 7 10:19 17.04.2020
4687 Clouds 13 1020 45 0 1.34 256 09:55 17.04.2020
4688 Clouds 12 1019 65 0 0.89 87 09:36 17.04.2020
4689 Clouds 10 1019 70 0 1.34 58 09:18 17.04.2020
4690 Clouds 9 1019 75 0 0.89 69 08:45 17.04.2020
4691 Clouds 8 1013 75 0 1.93 342 08:26 17.04.2020
4692 Clouds 6 1013 88 0 1.93 342 07:54 17.04.2020
4693 Clouds 6 1019 75 0 1.79 311 07:36 17.04.2020
4694 Clouds 5 1019 80 0 1.79 254 07:18 17.04.2020
4695 Clouds 5 1018 82 0 1.9 344 06:28 17.04.2020
4696 Clouds 5 1018 81 0 1.9 344 05:42 17.04.2020
4697 Clouds 7 1018 76 0 2.13 358 03:22 17.04.2020
4698 Clouds 7 1018 75 0 0.89 313 02:49 17.04.2020
4699 Clouds 8 1018 72 0 1.79 313 01:30 17.04.2020
4700 Clouds 9 1017 70 0 1.34 348 00:59 17.04.2020
4701 Clouds 9 1017 66 0 5.36 307 00:20 17.04.2020
4702 Clouds 10 1017 61 0 2.68 324 23:46 16.04.2020
4703 Clouds 10 1016 60 0 1.34 306 23:24 16.04.2020
4704 Clouds 11 1016 60 0 0.45 310 22:59 16.04.2020
4705 Clouds 11 1016 60 0 0.45 310 22:59 16.04.2020
4706 Clouds 11 1016 59 0 2.78 348 22:39 16.04.2020
4707 Clouds 12 1016 58 0 2.78 348 22:20 16.04.2020
4708 Clouds 12 1016 55 0 2.78 348 21:57 16.04.2020
4709 Clouds 12 1016 53 0 2.78 348 21:39 16.04.2020
4710 Clouds 13 1015 51 0 1.71 11 21:19 16.04.2020
4711 Clouds 14 1015 46 0 1.71 11 20:42 16.04.2020
4712 Clouds 16 1015 44 0 1.71 11 20:22 16.04.2020
4713 Clouds 17 1015 39 0 1.71 11 19:59 16.04.2020
4714 Clouds 17 1015 37 0 0.89 266 19:39 16.04.2020
4715 Clouds 18 1015 32 0 1.71 11 19:19 16.04.2020
4716 Clouds 19 1015 30 0 0.89 316 18:55 16.04.2020
4717 Clouds 19 1015 30 0 1.34 283 18:36 16.04.2020
4718 Clouds 19 1015 30 0 1.79 16 18:18 16.04.2020
4719 Clouds 19 1015 38 0 0.89 18 17:42 16.04.2020
4720 Clouds 19 1015 38 0 1.34 66 17:23 16.04.2020
4721 Clouds 20 1016 30 0 0.89 263 16:55 16.04.2020
4722 Clouds 20 1016 31 0 2.63 338 16:37 16.04.2020
4723 Clouds 20 1015 37 0 0.45 29 16:18 16.04.2020
4724 Clouds 20 1016 36 0 0.89 13 15:41 16.04.2020
4725 Clouds 20 1016 35 0 0.45 1 15:19 16.04.2020
4726 Clouds 19 1016 36 0 1.34 312 14:58 16.04.2020
4727 Clouds 19 1017 36 0 0.45 20 14:38 16.04.2020
4728 Clouds 18 1017 35 0 0.89 48 14:19 16.04.2020
4729 Clouds 17 1017 36 0 0.89 36 13:56 16.04.2020
4730 Clouds 17 1017 36 0 0.89 240 13:36 16.04.2020
4731 Clouds 18 1018 32 0 0.45 2 13:18 16.04.2020
4732 Clouds 17 1018 34 0 2.24 310 12:56 16.04.2020
4733 Clouds 17 1018 36 0 1.34 350 12:37 16.04.2020
4734 Clouds 14 1015 45 0 0.45 157 12:18 16.04.2020
4735 Clouds 15 1019 40 0 0.89 327 11:41 16.04.2020
4736 Clouds 15 1019 42 0 2.73 290 11:22 16.04.2020
4737 Clouds 15 1019 42 0 2.24 263 10:57 16.04.2020
4738 Clouds 14 1019 42 0 4.92 283 10:39 16.04.2020
4739 Clouds 14 1019 39 0 1.34 196 10:19 16.04.2020
4740 Clouds 13 1019 54 0 1.34 321 09:57 16.04.2020
4741 Clouds 11 1019 56 0 0.89 224 09:38 16.04.2020
4742 Clouds 10 1019 57 0 2.25 285 09:19 16.04.2020
4743 Clouds 8 1019 64 0 2.25 285 08:42 16.04.2020
4744 Clouds 7 1013 63 0 2.25 285 08:23 16.04.2020
4745 Clouds 5 1020 63 0 2.25 285 07:46 16.04.2020
4746 Clouds 6 1020 53 0 2.25 285 07:46 16.04.2020
4747 Clouds 3 1019 72 0 0.89 215 07:27 16.04.2020
4748 Clouds 3 1020 78 0 2.17 278 06:46 16.04.2020
4749 Clear 3 1020 78 0 1.79 267 06:26 16.04.2020
4750 Clouds 3 1019 77 0 0.45 125 05:49 16.04.2020
4751 Clouds 4 1020 75 0 1.34 182 04:44 16.04.2020
4752 Clear 4 1020 73 0 1.34 177 03:24 16.04.2020
4753 Clear 3 1020 72 0 0.89 189 02:52 16.04.2020
4754 Clear 4 1020 71 0 0.89 189 02:32 16.04.2020
4755 Clear 5 1020 70 0 2.37 239 01:21 16.04.2020
4756 Clear 5 1020 69 0 2.37 239 00:38 16.04.2020
4757 Clouds 6 1021 68 0 1.79 107 00:18 16.04.2020
4758 Clouds 6 1021 65 0 2.29 256 23:43 15.04.2020
4759 Clouds 7 1021 65 0 2.29 256 23:22 15.04.2020
4760 Clouds 8 1021 63 0 0.45 101 22:58 15.04.2020
4761 Clouds 8 1021 63 0 0.89 118 22:37 15.04.2020
4762 Clouds 9 1021 60 0 0.45 145 22:19 15.04.2020
4763 Clouds 10 1021 57 0 1.79 186 21:41 15.04.2020
4764 Clouds 10 1022 55 0 3.1 284 21:23 15.04.2020
4765 Clouds 11 1022 53 0 3.1 284 20:59 15.04.2020
4766 Clouds 11 1022 51 0 0.45 86 20:41 15.04.2020
4767 Clouds 13 1015 41 0 3.1 284 20:22 15.04.2020
4768 Clouds 14 1021 41 0 3.1 284 19:59 15.04.2020
4769 Clouds 14 1021 39 0 3.1 284 19:39 15.04.2020
4770 Clouds 15 1021 36 0 2.24 303 19:18 15.04.2020
4771 Clouds 16 1022 35 0 2.68 248 18:41 15.04.2020
4772 Clouds 16 1022 33 0 2.24 300 18:22 15.04.2020
4773 Clouds 16 1022 31 0 4.47 289 17:58 15.04.2020
4774 Clouds 17 1022 31 0 0.89 322 17:38 15.04.2020
4775 Clouds 16 1022 34 0 1.79 10 17:20 15.04.2020
4776 Clouds 16 1022 34 0 1.34 338 16:56 15.04.2020
4777 Clouds 15 1022 34 0 1.79 14 16:37 15.04.2020
4778 Clouds 16 1022 34 0 1.79 319 16:19 15.04.2020
4779 Clouds 16 1022 35 0 1.79 354 15:56 15.04.2020
4780 Clouds 16 1023 36 0 1.79 304 15:38 15.04.2020
4781 Clouds 15 1023 36 0 2.24 345 15:19 15.04.2020
4782 Clouds 15 1024 34 0 4.02 227 14:55 15.04.2020
4783 Clouds 14 1023 40 0 2.24 318 14:37 15.04.2020
4784 Clouds 14 1023 41 0 2.24 114 14:19 15.04.2020
4785 Clouds 14 1024 35 0 0.89 244 13:56 15.04.2020
4786 Clouds 14 1024 38 0 4.92 309 13:37 15.04.2020
4787 Clouds 14 1024 38 0 2.24 249 13:18 15.04.2020
4788 Clouds 13 1024 44 0 4.92 278 12:42 15.04.2020
4789 Clouds 11 1024 52 0 2.24 295 12:23 15.04.2020
4790 Clouds 11 1024 52 0 2.68 55 12:23 15.04.2020
4791 Clouds 11 1024 55 0 3.13 263 11:59 15.04.2020
4792 Clouds 10 1024 57 0 2.68 284 11:40 15.04.2020
4793 Clouds 10 1025 57 0 2.24 358 11:22 15.04.2020
4794 Clouds 9 1025 50 0 4.92 269 10:40 15.04.2020
4795 Clouds 9 1025 51 0 0.89 245 10:22 15.04.2020
4796 Clouds 8 1018 56 0 6.25 280 09:58 15.04.2020
4797 Clouds 8 1025 51 0 2.24 323 09:40 15.04.2020
4798 Clouds 6 1025 64 0 1.79 283 09:22 15.04.2020
4799 Clouds 6 1025 69 0 2.68 314 08:58 15.04.2020
4800 Clouds 6 1018 76 0 5.35 275 08:40 15.04.2020
4801 Clouds 6 1025 66 0 2.68 231 08:19 15.04.2020
4802 Clouds 5 1025 73 0 0.45 263 07:53 15.04.2020
4803 Clouds 4 1025 75 0 4.02 238 07:31 15.04.2020
4804 Clouds 4 1024 79 0 1.34 259 06:33 15.04.2020
4805 Clouds 4 1024 78 0 2.24 249 05:50 15.04.2020
4806 Clouds 3 1025 79 0 0.89 278 05:19 15.04.2020
4807 Clouds 3 1024 77 0 3.82 268 04:44 15.04.2020
4808 Clouds 4 1025 75 0 1.34 184 03:34 15.04.2020
4809 Clouds 4 1025 74 0 0.45 104 02:57 15.04.2020
4810 Clouds 4 1025 72 0 2.24 242 02:30 15.04.2020
4811 Clouds 4 1025 69 0 0.45 255 01:44 15.04.2020
4812 Clouds 4 1025 68 0 1.34 263 01:19 15.04.2020
4813 Clouds 5 1025 67 0 3.54 286 00:37 15.04.2020
4814 Clouds 5 1025 66 0 0.45 258 00:18 15.04.2020
4815 Clouds 5 1025 65 0 3.54 286 23:54 14.04.2020
4816 Clouds 5 1025 64 0 3.54 286 23:36 14.04.2020
4817 Clouds 5 1025 65 0 3.54 286 23:36 14.04.2020
4818 Clouds 5 1025 64 0 0.89 303 23:18 14.04.2020
4819 Clouds 5 1025 62 0 3.54 286 22:55 14.04.2020
4820 Clouds 6 1025 61 0 1.34 207 22:36 14.04.2020
4821 Clouds 6 1025 59 0 0.45 265 22:18 14.04.2020
4822 Clouds 6 1025 57 0 3.54 286 21:55 14.04.2020
4823 Clouds 6 1025 55 0 3.54 286 21:36 14.04.2020
4824 Clouds 7 1024 54 0 0.45 272 21:18 14.04.2020
4825 Clouds 8 1024 53 0 1.34 271 20:40 14.04.2020
4826 Clouds 8 1024 51 0 3.76 290 20:22 14.04.2020
4827 Clouds 9 1024 47 0 0.89 313 19:58 14.04.2020
4828 Clouds 9 1024 46 0 4.02 299 19:39 14.04.2020
4829 Clouds 10 1024 45 0 4.47 295 19:20 14.04.2020
4830 Clouds 11 1024 46 0 4.92 268 18:55 14.04.2020
4831 Clouds 11 1024 42 0 4.47 296 18:37 14.04.2020
4832 Clear 11 1024 38 0 6.71 276 18:18 14.04.2020
4833 Clear 12 1023 36 0 0.45 359 17:55 14.04.2020
4834 Clear 12 1023 35 0 1.79 237 17:37 14.04.2020
4835 Clear 12 1024 31 0 9.39 261 17:18 14.04.2020
4836 Clear 12 1023 31 0 2.24 354 16:41 14.04.2020
4837 Clear 12 1023 32 0 2.24 308 16:23 14.04.2020
4838 Clear 11 1023 32 0 2.68 321 15:58 14.04.2020
4839 Clear 11 1024 31 0 1.79 331 15:38 14.04.2020
4840 Clear 11 1024 25 0 5.36 278 15:19 14.04.2020
4841 Clouds 11 1024 28 0 1.79 214 14:57 14.04.2020
4842 Clear 11 1024 31 0 1.34 33 14:39 14.04.2020
4843 Clear 11 1024 27 0 5.36 300 14:21 14.04.2020
4844 Clear 11 1024 27 0 3.58 290 13:55 14.04.2020
4845 Clear 11 1024 29 0 3.58 268 13:37 14.04.2020
4846 Clear 10 1025 29 0 4.76 308 13:19 14.04.2020
4847 Clear 10 1025 31 0 5.36 241 12:40 14.04.2020
4848 Clear 9 1025 35 0 4.02 280 12:20 14.04.2020
4849 Clear 8 1025 35 0 4.92 309 11:55 14.04.2020
4850 Clear 8 1025 41 0 3.58 314 11:36 14.04.2020
4851 Clear 7 1024 45 0 1.34 297 11:18 14.04.2020
4852 Clear 7 1024 54 0 2.68 286 10:43 14.04.2020
4853 Clear 7 1024 55 0 3.58 279 10:23 14.04.2020
4854 Clear 6 1024 69 0 1.34 356 09:43 14.04.2020
4855 Clouds 3 1021 71 0 0.89 249 09:25 14.04.2020
4856 Clouds 3 1023 75 0 1.34 63 08:59 14.04.2020
4857 Clouds 2 1022 84 0 4.25 305 08:40 14.04.2020
4858 Clouds 3 1017 73 0 4.25 305 08:21 14.04.2020
4859 Clouds 2 1022 84 0 4.25 305 07:53 14.04.2020
4860 Clouds 1 1023 81 0 4.47 295 07:29 14.04.2020
4861 Clouds 1 1022 82 0 3.13 269 06:48 14.04.2020
4862 Clouds 1 1022 80 0 1.79 2 05:55 14.04.2020
4863 Clouds 2 1020 71 0 4.02 306 03:52 14.04.2020
4864 Clouds 3 1020 68 0 4.02 275 02:54 14.04.2020
4865 Clouds 4 1020 60 0 4.92 290 01:39 14.04.2020
4866 Clouds 4 1020 59 0 1.34 309 01:18 14.04.2020
4867 Clouds 4 1020 56 0 5.36 306 00:38 14.04.2020
4868 Clouds 5 1020 55 0 4.92 276 00:18 14.04.2020
4869 Clouds 5 1019 54 0 1.79 300 23:44 13.04.2020
4870 Clouds 5 1019 53 0 1.79 286 23:25 13.04.2020
4871 Clouds 5 1019 49 0 5.81 296 22:57 13.04.2020
4872 Clouds 5 1019 46 0 4.47 293 22:39 13.04.2020
4873 Clouds 6 1019 44 0 4.47 278 22:20 13.04.2020
4874 Clouds 6 1019 37 0 10.28 269 21:55 13.04.2020
4875 Clouds 6 1019 34 0 3.58 304 21:37 13.04.2020
4876 Clouds 7 1018 31 0 4.47 310 21:19 13.04.2020
4877 Clouds 8 1018 31 0 4.92 272 20:42 13.04.2020
4878 Clouds 8 1018 37 0 2.24 232 20:21 13.04.2020
4879 Clouds 9 1018 36 0 5.81 300 20:00 13.04.2020
4880 Clouds 8 1018 37 0 6.26 290 20:00 13.04.2020
4881 Clouds 9 1017 35 0 3.13 296 19:38 13.04.2020
4882 Clouds 9 1017 33 0 5.81 269 19:20 13.04.2020
4883 Clouds 10 1017 30 0 2.68 268 18:59 13.04.2020
4884 Clouds 10 1017 29 0 4.02 303 18:39 13.04.2020
4885 Clouds 10 1017 28 0 6.26 287 18:20 13.04.2020
4886 Clouds 11 1016 30 0 4.47 300 17:58 13.04.2020
4887 Clouds 11 1016 30 0 4.47 300 17:58 13.04.2020
4888 Clouds 11 1016 29 0 7.15 306 17:58 13.04.2020
4889 Clouds 11 1016 30 0 5.36 296 17:38 13.04.2020
4890 Clouds 11 1016 30 0 5.36 296 17:38 13.04.2020
4891 Clouds 11 1016 29 0 12.07 330 17:19 13.04.2020
4892 Clouds 11 1017 30 0 4.92 273 16:58 13.04.2020
4893 Clouds 12 1017 31 0 5.81 295 16:40 13.04.2020
4894 Clouds 12 1018 30 0 5.81 303 16:21 13.04.2020
4895 Clouds 11 1012 31 0 5.95 334 15:58 13.04.2020
4896 Clouds 11 1017 30 0 4.92 290 15:40 13.04.2020
4897 Clouds 11 1018 34 0 5.36 331 15:21 13.04.2020
4898 Clouds 11 1018 30 0 3.58 306 14:56 13.04.2020
4899 Clouds 12 1018 35 0 12.96 272 14:38 13.04.2020
4900 Clouds 12 1018 35 0 12.96 272 14:38 13.04.2020
4901 Clouds 11 1018 34 0 3.13 359 14:20 13.04.2020
4902 Clouds 11 1018 33 0 5.36 345 13:55 13.04.2020
4903 Clouds 11 1018 35 0 7.6 310 13:37 13.04.2020
4904 Clouds 11 1018 35 0 7.6 310 13:37 13.04.2020
4905 Clouds 10 1018 35 0 7.6 299 13:18 13.04.2020
4906 Clouds 10 1018 37 0 3.13 314 12:56 13.04.2020
4907 Clouds 9 1017 39 0 10.28 269 12:38 13.04.2020
4908 Clouds 8 1017 55 0 2.68 12 12:19 13.04.2020
4909 Clouds 8 1017 46 0 5.81 282 11:43 13.04.2020
4910 Clouds 8 1017 47 0 6.26 302 11:19 13.04.2020
4911 Clouds 7 1017 48 0 6.26 359 10:56 13.04.2020
4912 Clouds 7 1017 48 0 4.92 328 10:38 13.04.2020
4913 Clouds 8 1016 50 0 7.6 287 10:19 13.04.2020
4914 Clouds 8 1016 52 0 4.47 347 09:55 13.04.2020
4915 Clouds 7 1016 55 0 4.92 333 09:36 13.04.2020
4916 Rain 8 1015 67 0 6.26 282 09:18 13.04.2020
4917 Rain 8 1015 75 0 3.13 266 08:43 13.04.2020
4918 Rain 8 1015 81 0 4.92 295 08:25 13.04.2020
4919 Rain 8 1014 71 0 3.58 306 07:42 13.04.2020
4920 Rain 8 1014 69 0 2.68 23 07:24 13.04.2020
4921 Rain 9 1013 100 0 3.58 283 06:47 13.04.2020
4922 Rain 9 1012 17 0 2.24 303 06:26 13.04.2020
4923 Rain 10 1012 76 0 3.58 28 05:38 13.04.2020
4924 Rain 10 1011 74 0 4.92 9 05:18 13.04.2020
4925 Rain 10 1011 74 0 4.73 329 04:24 13.04.2020
4926 Rain 10 1011 71 0 4.73 329 03:49 13.04.2020
4927 Rain 10 1011 65 0 2.68 312 03:00 13.04.2020
4928 Rain 10 1011 65 0 2.68 312 02:39 13.04.2020
4929 Clouds 11 1011 63 0 2.11 288 01:45 13.04.2020
4930 Clouds 12 1011 62 0 2.11 288 01:25 13.04.2020
4931 Clouds 12 1011 58 0 2.11 288 00:44 13.04.2020
4932 Rain 12 1011 53 0 0.45 302 00:22 13.04.2020
4933 Rain 13 1011 54 0 1.34 254 23:49 12.04.2020
4934 Rain 13 1011 56 0 1.87 232 23:26 12.04.2020
4935 Rain 13 1011 54 0 0.45 359 22:59 12.04.2020
4936 Rain 13 1011 53 0 0.45 242 22:38 12.04.2020
4937 Rain 13 1011 53 0 0.45 227 22:19 12.04.2020
4938 Rain 13 1011 52 0 1.87 232 21:57 12.04.2020
4939 Clouds 14 1011 50 0 2.15 273 21:36 12.04.2020
4940 Rain 15 1011 50 0 2.67 253 21:18 12.04.2020
4941 Rain 16 1011 47 0 2.67 253 20:42 12.04.2020
4942 Rain 17 1011 45 0 2.67 253 20:23 12.04.2020
4943 Rain 19 1011 40 0 2.67 253 19:57 12.04.2020
4944 Rain 20 1011 35 0 2.67 253 19:38 12.04.2020
4945 Rain 22 1011 34 0 1.79 306 19:19 12.04.2020
4946 Rain 21 1012 30 0 1.79 289 18:41 12.04.2020
4947 Clouds 23 1012 32 0 1.79 355 18:23 12.04.2020
4948 -273 0 0 0 0 0 17:59 12.04.2020
4949 Clouds 23 1012 33 0 3.13 256 17:41 12.04.2020
4950 Clouds 23 1012 32 0 4.02 231 17:23 12.04.2020
4951 Clouds 23 1012 30 0 4.02 235 16:59 12.04.2020
4952 Clouds 23 1012 29 0 4.02 246 16:39 12.04.2020
4953 Clouds 24 1012 19 0 3.13 265 16:20 12.04.2020
4954 Clouds 23 1013 29 0 3.58 216 15:49 12.04.2020
4955 Clouds 23 1013 29 0 3.58 250 15:31 12.04.2020
4956 Clear 24 1013 23 0 1.34 309 14:56 12.04.2020
4957 Clear 23 1013 23 0 1.99 273 14:37 12.04.2020
4958 Clear 23 1014 24 0 0.89 103 14:18 12.04.2020
4959 Clear 23 1014 27 0 2.68 167 13:42 12.04.2020
4960 Clear 23 1014 27 0 3.58 210 13:24 12.04.2020
4961 Clear 22 1015 32 0 2.73 274 12:55 12.04.2020
4962 Clear 21 1015 32 0 2.73 274 12:37 12.04.2020
4963 Clear 16 1016 38 0 1.34 252 12:19 12.04.2020
4964 Clear 17 1016 37 0 1.34 177 11:57 12.04.2020
4965 Clear 17 1016 39 0 3.13 26 11:36 12.04.2020
4966 Clear 16 998 45 0 2.68 136 11:18 12.04.2020
4967 Clear 17 998 45 0 2.68 136 10:55 12.04.2020
4968 Clear 17 1017 45 0 0.89 136 10:55 12.04.2020
4969 Clear 16 1016 44 0 1.92 202 10:37 12.04.2020
4970 Clear 15 1017 44 0 1.34 131 10:18 12.04.2020
4971 Clear 15 1017 31 0 2.68 186 09:54 12.04.2020
4972 Clear 13 1017 36 0 1.34 155 09:36 12.04.2020
4973 Clouds 9 1018 62 0 0.45 238 09:18 12.04.2020
4974 Clouds 9 1018 62 0 0.45 238 09:18 12.04.2020
4975 Clouds 9 1012 55 0 2.25 175 08:46 12.04.2020
4976 Clouds 7 1012 62 0 2.25 175 08:27 12.04.2020
4977 Clouds 6 1019 59 0 2.68 169 07:45 12.04.2020
4978 Clouds 4 1019 72 0 0.89 172 07:19 12.04.2020
4979 Clouds 4 1019 77 0 2.25 175 06:36 12.04.2020
4980 Clouds 4 1019 76 0 2.77 171 05:58 12.04.2020
4981 Clouds 5 1019 75 0 2.77 171 05:37 12.04.2020
4982 Clouds 5 1020 72 0 2.77 171 03:48 12.04.2020
4983 Clouds 6 1021 72 0 0.45 111 03:25 12.04.2020
4984 Clouds 5 1021 68 0 2.45 160 02:35 12.04.2020
4985 Clouds 5 1022 67 0 2.65 159 01:53 12.04.2020
4986 Clouds 5 1022 65 0 2.65 159 01:21 12.04.2020
4987 Clouds 5 1022 64 0 2.65 159 00:42 12.04.2020
4988 Clouds 6 1022 64 0 2.62 163 00:20 12.04.2020
4989 Clouds 7 1023 63 0 2.62 163 23:47 11.04.2020
4990 Clouds 7 1023 62 0 2.62 163 23:26 11.04.2020
4991 Clouds 7 1023 61 0 2.62 163 22:58 11.04.2020
4992 Clouds 8 1023 58 0 2.62 163 22:37 11.04.2020
4993 Clouds 8 1023 58 0 2.62 163 22:18 11.04.2020
4994 Clouds 9 1024 56 0 2.62 163 21:55 11.04.2020
4995 Clouds 10 1024 55 0 2.54 158 21:36 11.04.2020
4996 Clouds 10 1024 54 0 2.13 133 21:18 11.04.2020
4997 Clouds 11 1024 53 0 2.13 133 20:55 11.04.2020
4998 Clouds 11 1024 51 0 2.13 133 20:37 11.04.2020
4999 Clouds 11 1024 51 0 2.13 133 20:37 11.04.2020
5000 Clouds 13 1018 43 0 2.13 133 20:19 11.04.2020
5001 Clouds 14 1024 43 0 2.13 133 19:56 11.04.2020
5002 Clouds 14 1024 43 0 2.13 133 19:56 11.04.2020
5003 Clouds 14 1024 41 0 2.13 133 19:37 11.04.2020
5004 Clouds 14 1024 41 0 2.13 133 19:37 11.04.2020
5005 Clouds 15 1024 39 0 0.45 143 19:18 11.04.2020
5006 Clouds 16 1024 36 0 1.79 159 18:55 11.04.2020
5007 Clouds 16 1024 32 0 1.34 156 18:37 11.04.2020
5008 Clouds 16 1024 29 0 1.79 145 18:18 11.04.2020
5009 Clouds 17 1024 27 0 2.24 152 17:57 11.04.2020
5010 Clouds 17 1024 27 0 2.24 152 17:57 11.04.2020
5011 Clouds 17 1025 27 0 2.24 93 17:37 11.04.2020
5012 Clouds 17 1025 27 0 0.45 274 17:37 11.04.2020
5013 Clouds 16 1025 28 0 0.45 126 17:19 11.04.2020
5014 Clouds 17 1025 29 0 0.89 66 16:42 11.04.2020
5015 Clouds 16 1026 31 0 1.34 79 16:21 11.04.2020
5016 Clouds 16 1026 29 0 0.89 153 15:42 11.04.2020
5017 Clouds 16 1026 33 0 1.34 256 15:21 11.04.2020
5018 Clouds 16 1027 32 0 0.45 118 14:59 11.04.2020
5019 Clouds 16 1027 36 0 0.45 17 14:40 11.04.2020
5020 Clouds 16 1027 37 0 1.46 115 14:22 11.04.2020
5021 Clouds 15 1027 38 0 1.46 115 13:46 11.04.2020
5022 Clouds 16 1027 40 0 3.13 23 13:26 11.04.2020
5023 Clouds 15 1028 41 0 2.24 311 12:59 11.04.2020
5024 Clouds 14 1028 44 0 2.68 326 12:38 11.04.2020
5025 Clouds 13 1028 43 0 0.89 63 12:18 11.04.2020
5026 Clouds 12 1028 49 0 0.89 281 11:55 11.04.2020
5027 Clouds 11 1028 48 0 0.89 129 11:36 11.04.2020
5028 Clouds 11 1028 49 0 0.45 162 11:18 11.04.2020
5029 Clouds 11 1028 49 0 1.79 90 10:42 11.04.2020
5030 Clouds 11 1029 46 0 0.45 115 10:22 11.04.2020
5031 Clouds 11 1022 40 0 1.49 104 09:58 11.04.2020
5032 Clouds 10 1027 69 0 1.52 109 09:39 11.04.2020
5033 Clouds 6 1027 72 0 0.9 46 09:20 11.04.2020
5034 Clouds 6 1028 70 0 0.9 46 08:46 11.04.2020
5035 Clouds 5 1022 64 0 0.9 46 08:27 11.04.2020
5036 Clouds 3 1022 83 0 0.9 46 07:50 11.04.2020
5037 Clouds 2 1028 72 0 0.9 46 07:28 11.04.2020
5038 Clouds 2 1028 76 0 0.9 46 06:49 11.04.2020
5039 Clouds 2 1027 75 0 0.45 189 06:18 11.04.2020
5040 Clouds 2 1027 75 0 0.87 2 05:24 11.04.2020
5041 Clouds 3 1027 71 0 0.87 2 03:40 11.04.2020
5042 Clear 5 1027 66 0 1.16 26 01:59 11.04.2020
5043 Clear 5 1027 64 0 1.16 26 01:24 11.04.2020
5044 Clear 6 1026 60 0 1.16 26 00:44 11.04.2020
5045 Clear 6 1026 56 0 2.28 10 00:19 11.04.2020
5046 Clear 7 1026 55 0 2.28 10 23:57 10.04.2020
5047 Clear 8 1026 53 0 0.45 303 23:38 10.04.2020
5048 Clear 8 1026 51 0 2.28 10 23:19 10.04.2020
5049 Clear 8 1021 52 0 2.28 10 22:44 10.04.2020
5050 Clear 9 1026 44 0 2.24 251 22:22 10.04.2020
5051 Clear 9 1020 43 0 2.28 10 21:58 10.04.2020
5052 Clear 10 1020 43 0 2.28 10 21:40 10.04.2020
5053 Clear 10 1020 43 0 2.28 10 21:40 10.04.2020
5054 Clouds 10 1026 37 0 3.58 330 21:20 10.04.2020
5055 Clouds 11 1020 40 0 2.72 5 20:55 10.04.2020
5056 Clouds 11 1020 37 0 2.72 5 20:37 10.04.2020
5057 Clouds 12 1025 37 0 2.72 5 20:18 10.04.2020
5058 Clouds 13 1025 33 0 2.24 359 19:41 10.04.2020
5059 Clouds 14 1025 33 0 0.89 302 19:21 10.04.2020
5060 Clouds 15 1025 31 0 2.24 306 18:58 10.04.2020
5061 Clouds 15 1025 29 0 2.68 299 18:40 10.04.2020
5062 Clouds 16 1024 27 0 2.24 314 18:22 10.04.2020
5063 Clouds 16 1024 25 0 2.68 268 17:59 10.04.2020
5064 Clouds 16 1025 27 0 1.79 271 17:40 10.04.2020
5065 Clouds 16 1024 41 0 2.24 45 17:21 10.04.2020
5066 Clouds 16 1024 41 0 1.34 45 16:59 10.04.2020
5067 Clouds 16 1025 46 0 1.79 329 16:41 10.04.2020
5068 Clouds 16 1025 47 0 1.79 30 16:21 10.04.2020
5069 Clouds 16 1025 50 0 1.34 353 15:58 10.04.2020
5070 Clouds 16 1025 48 0 1.34 324 15:38 10.04.2020
5071 Clouds 16 1025 49 0 1.34 88 15:19 10.04.2020
5072 Clouds 16 1025 47 0 1.34 18 14:58 10.04.2020
5073 Clouds 16 1026 50 0 1.34 321 14:39 10.04.2020
5074 Clouds 16 1026 48 0 1.34 8 14:19 10.04.2020
5075 Clouds 17 1026 50 0 0.89 63 13:44 10.04.2020
5076 Clouds 16 1026 53 0 0.45 56 13:22 10.04.2020
5077 Clouds 15 1027 52 0 0.89 70 12:55 10.04.2020
5078 Clouds 12 1027 63 0 0.89 18 12:36 10.04.2020
5079 Clouds 14 1027 54 0 0.45 242 12:18 10.04.2020
5080 Clouds 14 1027 51 0 0.89 226 11:42 10.04.2020
5081 Clouds 13 1027 55 0 0.45 269 11:23 10.04.2020
5082 Clouds 14 1027 59 0 0.89 18 10:56 10.04.2020
5083 Clouds 13 1027 46 0 0.89 162 10:37 10.04.2020
5084 Clouds 13 1028 47 0 0.89 18 10:19 10.04.2020
5085 Clouds 11 1028 51 0 0.45 359 09:43 10.04.2020
5086 Clouds 9 1027 71 0 0.91 17 09:21 10.04.2020
5087 Clouds 8 1028 53 0 1.79 23 08:48 10.04.2020
5088 Clouds 8 1028 54 0 0.45 351 08:27 10.04.2020
5089 Clouds 8 1028 54 0 0.45 351 08:27 10.04.2020
5090 Clouds 6 1022 78 0 1.08 20 07:55 10.04.2020
5091 Clouds 5 1022 84 0 1.08 20 07:37 10.04.2020
5092 Clouds 5 1022 87 0 1.08 20 07:19 10.04.2020
5093 Clouds 5 1022 89 0 1.08 20 06:31 10.04.2020
5094 Clouds 5 1022 89 0 1.08 20 06:31 10.04.2020
5095 Clouds 5 1021 91 0 1.18 27 05:59 10.04.2020
5096 Clouds 6 1021 90 0 1.18 27 05:29 10.04.2020
5097 Clouds 6 1021 94 0 1.18 27 04:54 10.04.2020
5098 Clouds 7 1027 76 0 1.18 27 03:35 10.04.2020
5099 Clouds 8 1027 80 0 0.86 16 02:51 10.04.2020
5100 Clouds 8 1027 79 0 0.92 3 02:33 10.04.2020
5101 Clouds 9 1027 77 0 0.92 3 01:47 10.04.2020
5102 Clouds 9 1027 76 0 0.92 3 01:27 10.04.2020
5103 Clouds 9 1027 74 0 0.92 3 00:46 10.04.2020
5104 Clouds 10 1026 72 0 2.12 34 00:20 10.04.2020
5105 Clouds 9 1021 85 0 2.12 34 23:42 09.04.2020
5106 Clouds 11 1026 68 0 2.12 34 23:24 09.04.2020
5107 Clouds 10 1021 80 0 2.12 34 22:57 09.04.2020
5108 Clouds 9 1020 79 0 2.12 34 22:39 09.04.2020
5109 Clouds 9 1020 79 0 2.12 34 22:39 09.04.2020
5110 Clouds 12 1020 72 0 2.12 34 22:21 09.04.2020
5111 Clouds 13 1025 52 0 1.79 316 21:40 09.04.2020
5112 Clouds 14 1025 50 0 2.24 5 21:21 09.04.2020
5113 Clouds 14 1025 50 0 0.89 19 20:55 09.04.2020
5114 Clouds 15 1025 48 0 3.22 350 20:37 09.04.2020
5115 Clouds 16 1024 46 0 1.34 304 20:18 09.04.2020
5116 Clouds 16 1024 45 0 1.34 341 19:40 09.04.2020
5117 Clouds 18 1024 43 0 2.24 311 19:22 09.04.2020
5118 Clouds 18 1024 39 0 2.68 314 18:42 09.04.2020
5119 Clouds 18 1024 39 0 3.13 307 18:42 09.04.2020
5120 Clear 19 1024 39 0 1.79 293 18:21 09.04.2020
5121 Clear 18 1024 44 0 2.24 54 17:58 09.04.2020
5122 Clear 18 1024 44 0 1.79 33 17:39 09.04.2020
5123 Clear 18 1024 44 0 1.79 33 17:39 09.04.2020
5124 Clear 18 1024 43 0 1.79 15 17:19 09.04.2020
5125 Clear 19 1024 41 0 1.79 359 16:40 09.04.2020
5126 Clear 19 1024 34 0 6.71 327 16:20 09.04.2020
5127 Clear 19 1024 34 0 3.13 328 15:57 09.04.2020
5128 Clear 20 1024 34 0 2.68 290 15:39 09.04.2020
5129 Clouds 19 1024 34 0 1.79 302 15:20 09.04.2020
5130 Clouds 19 1024 33 0 4.47 310 14:59 09.04.2020
5131 Clouds 19 1024 35 0 2.68 279 14:38 09.04.2020
5132 Clouds 19 1025 36 0 1.79 300 14:20 09.04.2020
5133 Clouds 19 1024 37 0 7.15 268 13:42 09.04.2020
5134 Clouds 18 1025 39 0 4.92 324 13:24 09.04.2020
5135 Clouds 18 1025 39 0 1.34 14 12:59 09.04.2020
5136 Clouds 18 1025 41 0 2.24 307 12:39 09.04.2020
5137 Clear 16 1021 49 0 0.89 332 12:20 09.04.2020
5138 Clear 16 1025 49 0 1.79 15 12:20 09.04.2020
5139 Clear 16 1025 43 0 0.45 244 11:55 09.04.2020
5140 Clear 16 1025 44 0 2.68 282 11:36 09.04.2020
5141 Clear 15 1025 46 0 5.36 359 11:18 09.04.2020
5142 Clear 15 1025 46 0 3.13 23 10:41 09.04.2020
5143 Clear 15 1025 47 0 4.47 321 10:22 09.04.2020
5144 Clear 14 1025 41 0 3.13 320 09:58 09.04.2020
5145 Clear 14 1025 44 0 2.24 16 09:40 09.04.2020
5146 Clouds 11 1024 68 0 1.34 6 09:21 09.04.2020
5147 Clouds 10 1024 71 0 0.45 9 08:57 09.04.2020
5148 Clouds 10 1024 72 0 0.45 43 08:39 09.04.2020
5149 Clouds 8 1017 87 0 3.08 321 08:21 09.04.2020
5150 Clouds 8 1017 87 0 3.08 321 07:46 09.04.2020
5151 Clouds 9 1023 69 0 2.68 282 07:21 09.04.2020
5152 Clouds 8 1023 73 0 2.68 304 06:48 09.04.2020
5153 Clouds 8 1022 69 0 1.79 316 05:49 09.04.2020
5154 Clouds 9 1022 69 0 1.34 300 05:26 09.04.2020
5155 Clear 8 1022 64 0 1.96 261 02:36 09.04.2020
5156 Clear 9 1022 65 0 1.96 261 01:57 09.04.2020
5157 Clear 9 1022 65 0 1.96 261 01:37 09.04.2020
5158 Clear 9 1022 65 0 0.45 151 01:19 09.04.2020
5159 Clear 10 1022 64 0 1.34 200 00:38 09.04.2020
5160 Clear 10 1022 64 0 2.1 202 00:18 09.04.2020
5161 Clear 9 1022 63 0 0.45 204 23:42 08.04.2020
5162 Clear 10 1022 60 0 1.34 199 23:24 08.04.2020
5163 Clear 11 1023 56 0 2.1 202 22:57 08.04.2020
5164 Clear 11 1023 56 0 0.45 165 22:39 08.04.2020
5165 Clear 12 1023 54 0 0.45 200 22:21 08.04.2020
5166 Clear 13 1023 51 0 2.1 202 21:55 08.04.2020
5167 Clear 13 1023 53 0 1.34 189 21:37 08.04.2020
5168 Clear 14 1023 50 0 2.05 145 21:19 08.04.2020
5169 Clear 15 1023 47 0 2.05 145 20:41 08.04.2020
5170 Clear 17 1023 44 0 2.05 145 20:22 08.04.2020
5171 Clear 17 1023 42 0 2.05 145 19:59 08.04.2020
5172 Clear 18 1023 40 0 2.05 145 19:41 08.04.2020
5173 Clear 20 1023 35 0 2.05 145 19:21 08.04.2020
5174 Clear 21 1023 31 0 0.45 149 18:55 08.04.2020
5175 Clear 21 1023 29 0 0.45 175 18:37 08.04.2020
5176 Clear 22 1023 28 0 1.34 172 18:19 08.04.2020
5177 Clear 21 1023 27 0 2.41 152 18:19 08.04.2020
5178 Clear 22 1023 24 0 0.45 175 17:42 08.04.2020
5179 Clear 23 1024 23 0 3.58 128 17:22 08.04.2020
5180 Clear 23 1024 21 0 2.41 152 16:57 08.04.2020
5181 Clear 23 1024 21 0 2.41 152 16:39 08.04.2020
5182 Clear 23 1025 21 0 0.45 56 16:20 08.04.2020
5183 Clear 23 1025 22 0 1.79 148 15:39 08.04.2020
5184 Clear 22 1025 30 0 1.79 168 15:21 08.04.2020
5185 Clear 22 1025 33 0 1.34 49 14:59 08.04.2020
5186 Clear 22 1026 25 0 3.13 170 14:40 08.04.2020
5187 Clear 22 1026 29 0 4.92 156 14:22 08.04.2020
5188 Clear 22 1026 35 0 2.24 39 13:44 08.04.2020
5189 Clear 21 1027 40 0 2.68 175 13:21 08.04.2020
5190 Clear 20 1027 43 0 2.68 141 12:58 08.04.2020
5191 Clear 20 1027 46 0 2.68 153 12:39 08.04.2020
5192 Clear 16 1028 52 0 0.45 72 12:18 08.04.2020
5193 Clear 16 1028 52 0 1.34 134 11:42 08.04.2020
5194 Clear 16 1028 52 0 1.34 134 11:42 08.04.2020
5195 Clear 16 1028 54 0 3.58 125 11:23 08.04.2020
5196 Clear 15 1028 54 0 3.13 69 10:59 08.04.2020
5197 Clear 15 1029 53 0 2.68 100 10:41 08.04.2020
5198 Clear 14 1029 55 0 1.79 128 10:21 08.04.2020
5199 Clear 14 1029 41 0 3.13 111 09:59 08.04.2020
5200 Clear 14 1029 41 0 2.24 141 09:41 08.04.2020
5201 Clear 10 1029 66 0 1.79 83 09:19 08.04.2020
5202 Clear 9 1029 66 0 2.24 148 08:58 08.04.2020
5203 Clear 10 1029 67 0 1.79 120 08:39 08.04.2020
5204 Clear 9 1030 68 0 2.24 146 08:21 08.04.2020
5205 Clear 9 1030 55 0 2.96 116 07:43 08.04.2020
5206 Clear 7 1030 71 0 2.96 116 07:22 08.04.2020
5207 Clear 7 1030 71 0 2.96 116 06:32 08.04.2020
5208 Clear 8 1030 69 0 2.89 98 05:22 08.04.2020
5209 Clear 9 1031 64 0 2.68 99 02:51 08.04.2020
5210 Clear 9 1032 62 0 2.69 94 02:22 08.04.2020
5211 Clear 9 1032 59 0 2.69 94 01:56 08.04.2020
5212 Clear 10 1032 58 0 2.69 94 01:28 08.04.2020
5213 Clear 10 1032 56 0 2.69 94 00:49 08.04.2020
5214 Clear 11 1032 55 0 0.89 11 00:31 08.04.2020
5215 Clear 11 1032 55 0 3.43 68 23:57 07.04.2020
5216 Clear 12 1032 55 0 3.43 68 23:38 07.04.2020
5217 Clear 12 1032 55 0 0.45 35 23:19 07.04.2020
5218 Clear 12 1032 56 0 3.43 68 22:56 07.04.2020
5219 Clear 12 1032 56 0 3.43 68 22:38 07.04.2020
5220 Clear 12 1032 57 0 3.43 68 22:18 07.04.2020
5221 Clear 13 1032 55 0 3.43 68 21:43 07.04.2020
5222 Clouds 14 1032 54 0 1.79 358 21:23 07.04.2020
5223 Clouds 14 1032 53 0 0.45 43 20:59 07.04.2020
5224 Clouds 14 1031 51 0 0.45 12 20:41 07.04.2020
5225 Clouds 15 1031 50 0 1.34 23 20:21 07.04.2020
5226 Clouds 16 1031 49 0 1.79 38 19:58 07.04.2020
5227 Clouds 17 1031 48 0 2.68 12 19:38 07.04.2020
5228 Clouds 18 1031 46 0 3.1 50 19:20 07.04.2020
5229 Clouds 18 1031 44 0 1.34 28 18:59 07.04.2020
5230 Clouds 18 1031 43 0 3.58 25 18:40 07.04.2020
5231 Clouds 19 1031 41 0 1.79 23 18:21 07.04.2020
5232 Clouds 19 1031 40 0 2.24 28 17:55 07.04.2020
5233 Clouds 20 1031 39 0 2.24 359 17:37 07.04.2020
5234 Clouds 20 1032 38 0 1.79 32 17:19 07.04.2020
5235 Clouds 20 1032 37 0 2.66 30 16:43 07.04.2020
5236 Clouds 20 1032 37 0 1.79 21 16:25 07.04.2020
5237 Clouds 19 1031 53 0 1.34 347 15:44 07.04.2020
5238 Clouds 19 1032 56 0 1.34 43 15:26 07.04.2020
5239 Clouds 19 1032 59 0 1.34 295 14:56 07.04.2020
5240 Clouds 18 1032 59 0 1.34 345 14:38 07.04.2020
5241 Clouds 19 1032 44 0 1.79 21 14:19 07.04.2020
5242 Clouds 19 1032 44 0 2.68 9 13:42 07.04.2020
5243 Clouds 19 1032 44 0 2.68 9 13:42 07.04.2020
5244 Clouds 18 1032 48 0 3.15 356 13:19 07.04.2020
5245 Clouds 18 1032 53 0 3.58 326 12:57 07.04.2020
5246 Clouds 16 1032 70 0 1.79 51 12:39 07.04.2020
5247 Clouds 16 1032 71 0 1.34 290 12:21 07.04.2020
5248 Clouds 16 1032 72 0 1.34 317 11:58 07.04.2020
5249 Clouds 15 1033 62 0 2.68 350 11:39 07.04.2020
5250 Clouds 15 1032 64 0 3.13 289 11:19 07.04.2020
5251 Clouds 15 1032 65 0 3.58 307 10:54 07.04.2020
5252 Clouds 15 1032 65 0 2.24 258 10:36 07.04.2020
5253 Clouds 15 1032 67 0 2.68 314 10:18 07.04.2020
5254 Clouds 14 1031 68 0 3.13 330 09:40 07.04.2020
5255 Clear 12 1031 74 0 1.79 28 09:18 07.04.2020
5256 Clear 11 1028 74 0 0.89 285 08:40 07.04.2020
5257 Clear 11 1030 76 0 0.45 38 08:22 07.04.2020
5258 Clear 9 1023 78 0 4 300 07:57 07.04.2020
5259 Clear 10 1029 66 0 5.36 289 07:38 07.04.2020
5260 Clear 10 1029 76 0 3.58 280 07:20 07.04.2020
5261 Clear 9 1028 80 0 0.89 293 06:42 07.04.2020
5262 Clear 9 1028 77 0 2.24 296 06:18 07.04.2020
5263 Clear 9 1027 74 0 0.89 279 05:29 07.04.2020
5264 Clear 10 1027 66 0 0.45 208 04:35 07.04.2020
5265 Clear 9 1025 69 0 0.45 186 03:24 07.04.2020
5266 Clear 8 1025 70 0 2.57 244 02:48 07.04.2020
5267 Clear 9 1025 67 0 2.87 237 01:47 07.04.2020
5268 Clear 9 1025 64 0 2.87 237 01:23 07.04.2020
5269 Clear 10 1024 61 0 0.45 94 00:27 07.04.2020
5270 Clear 10 1024 58 0 2.97 209 23:44 06.04.2020
5271 Clear 10 1024 58 0 2.97 209 23:23 06.04.2020
5272 Clear 11 1024 57 0 0.45 190 22:58 06.04.2020
5273 Clear 12 1023 55 0 2.97 209 22:38 06.04.2020
5274 Clear 12 1023 53 0 2.97 209 22:20 06.04.2020
5275 Clear 13 1023 51 0 2.24 160 21:57 06.04.2020
5276 Clear 13 1023 50 0 2.97 209 21:38 06.04.2020
5277 Clear 14 1023 49 0 3.3 175 21:18 06.04.2020
5278 Clear 14 1023 47 0 0.89 165 20:55 06.04.2020
5279 Clear 15 1023 44 0 0.45 170 20:37 06.04.2020
5280 Clear 16 1022 43 0 0.89 186 20:18 06.04.2020
5281 Clear 18 1022 39 0 1.34 115 19:41 06.04.2020
5282 Clear 20 1022 37 0 3.3 175 19:22 06.04.2020
5283 Clear 20 1022 35 0 0.89 175 18:58 06.04.2020
5284 Clear 20 1022 35 0 1.34 141 18:39 06.04.2020
5285 Clear 21 1022 32 0 1.79 177 18:20 06.04.2020
5286 Clear 21 1022 28 0 4.47 180 17:42 06.04.2020
5287 Clear 22 1022 27 0 4.47 176 17:20 06.04.2020
5288 Clear 21 1023 27 0 3.13 135 16:50 06.04.2020
5289 Clear 21 1023 26 0 2.24 175 16:31 06.04.2020
5290 Clear 21 1023 27 0 1.34 64 15:59 06.04.2020
5291 Clear 21 1023 27 0 1.34 64 15:59 06.04.2020
5292 Clear 20 1023 30 0 2.24 288 14:28 06.04.2020
5293 Clear 20 1023 30 0 2.24 288 14:22 06.04.2020
5294 Clear 20 1023 30 0 2.24 288 14:22 06.04.2020
5295 Clear 20 1023 31 0 2.24 167 14:22 06.04.2020
5296 Clear 20 1023 31 0 2.24 167 14:21 06.04.2020
5297 Clear 20 1023 29 0 1.79 121 13:40 06.04.2020
5298 Clear 20 1023 31 0 3.13 173 13:20 06.04.2020
5299 Clear 19 1023 30 0 4.92 149 13:20 06.04.2020
5300 Clear 18 1023 35 0 4.92 108 12:25 06.04.2020
5301 Clear 18 1023 35 0 4.92 108 12:25 06.04.2020
5302 Clear 18 1023 35 0 4.92 108 12:25 06.04.2020
5303 Clear 18 1023 35 0 4.92 108 12:25 06.04.2020
5304 Clear 16 1024 35 0 3.13 326 11:55 06.04.2020
5305 Clear 16 1024 35 0 2.68 141 11:55 06.04.2020
5306 Clear 16 1020 44 0 0.89 124 11:33 06.04.2020
5307 Clear 16 1024 36 0 2.24 174 11:33 06.04.2020
5308 Clear 16 1024 36 0 2.24 174 11:33 06.04.2020
5309 Clear 16 1024 36 0 2.24 174 11:33 06.04.2020
5310 Clear 15 1024 38 0 2.24 168 11:33 06.04.2020
5311 Clear 14 1023 43 0 3.13 31 10:52 06.04.2020
5312 Clear 14 1023 44 0 4.47 169 10:52 06.04.2020
5313 Clear 14 1023 43 0 3.13 31 10:52 06.04.2020
5314 Clear 14 1023 43 0 3.13 31 10:52 06.04.2020
5315 Clear 14 1023 43 0 3.13 31 10:52 06.04.2020
5316 Clear 14 1023 45 0 4.47 170 10:22 06.04.2020
5317 Clear 12 1017 43 0 4.93 155 09:47 06.04.2020
5318 Clear 8 1021 57 0 0.89 83 09:22 06.04.2020
5319 Clear 8 1024 56 0 0.89 108 08:55 06.04.2020
5320 Clear 8 1017 59 0 4.48 146 08:33 06.04.2020
5321 Clear 6 1017 64 0 4.48 146 07:51 06.04.2020
5322 Clear 6 1017 64 0 4.48 146 07:51 06.04.2020
5323 Clear 6 1017 64 0 4.48 146 07:51 06.04.2020
5324 Clear 6 1017 64 0 4.48 146 07:51 06.04.2020
5325 Clear 4 1023 76 0 4.48 146 06:52 06.04.2020
5326 Clear 4 1023 76 0 4.48 146 06:52 06.04.2020
5327 Clear 4 1023 75 0 3.62 132 06:25 06.04.2020
5328 Clear 5 1023 69 0 0.45 128 04:32 06.04.2020
5329 Clear 6 1023 66 0 0.89 105 03:18 06.04.2020
5330 Clear 6 1023 65 0 1.34 101 02:44 06.04.2020
5331 Clear 8 1023 59 0 2.24 152 01:48 06.04.2020
5332 Clear 8 1024 55 0 4.47 81 00:46 06.04.2020
5333 Clear 9 1024 55 0 5.36 87 00:25 06.04.2020
5334 Clear 9 1024 54 0 1.34 138 23:47 05.04.2020
5335 Clear 9 1019 46 0 4.56 122 23:28 05.04.2020
5336 Clear 9 1019 46 0 4.56 122 23:28 05.04.2020
5337 Clear 9 1019 46 0 4.56 122 23:28 05.04.2020
5338 Clear 9 1019 46 0 4.56 122 23:28 05.04.2020
5339 Clear 9 1019 46 0 4.56 122 23:28 05.04.2020
5340 Clear 10 1019 45 0 4.56 122 22:56 05.04.2020
5341 Clear 10 1019 45 0 4.56 122 22:38 05.04.2020
5342 Clear 10 1019 43 0 4.56 122 22:19 05.04.2020
5343 Clear 11 1019 42 0 4.56 122 21:57 05.04.2020
5344 Clear 11 1019 42 0 4.56 122 21:39 05.04.2020
5345 Clear 11 1019 42 0 4.56 122 21:20 05.04.2020
5346 Clear 11 1019 42 0 4.56 122 21:20 05.04.2020
5347 Clear 11 1019 42 0 4.79 120 21:20 05.04.2020
5348 Clear 11 1019 42 0 4.56 122 21:20 05.04.2020
5349 Clear 11 1019 42 0 4.79 120 21:20 05.04.2020
5350 Clear 13 1019 41 0 4.18 115 20:20 05.04.2020
5351 Clear 14 1019 36 0 4.18 115 19:40 05.04.2020
5352 Clear 15 1025 29 0 6.71 81 19:22 05.04.2020
5353 Clear 15 1025 29 0 6.71 81 19:22 05.04.2020
5354 Clear 16 1025 29 0 6.71 81 18:45 05.04.2020
5355 Clear 16 1025 29 0 6.71 81 18:45 05.04.2020
5356 Clear 17 1025 29 0 6.71 81 17:58 05.04.2020
5357 Clear 17 1025 29 0 6.71 81 17:58 05.04.2020
5358 Clear 17 1025 29 0 4.47 81 17:39 05.04.2020
5359 Clear 17 1026 29 0 5.81 97 17:20 05.04.2020
5360 Clear 17 1026 29 0 4.92 131 16:44 05.04.2020
5361 Clear 17 1026 29 0 4.92 131 16:44 05.04.2020
5362 Clear 17 1026 29 0 2.68 32 16:44 05.04.2020
5363 Clear 17 1026 29 0 4.92 131 16:44 05.04.2020
5364 Clear 17 1026 29 0 4.92 131 16:44 05.04.2020
5365 Clear 17 1027 30 0 5.81 145 16:18 05.04.2020
5366 Clear 17 1027 33 0 3.13 50 15:44 05.04.2020
5367 Clear 17 1027 33 0 5.81 114 15:25 05.04.2020
5368 Clear 17 1027 33 0 5.81 114 15:25 05.04.2020
5369 Clear 17 1027 33 0 5.81 114 15:25 05.04.2020
5370 Clear 17 1028 34 0 4.47 136 14:47 05.04.2020
5371 Clear 17 1028 34 0 4.02 158 14:47 05.04.2020
5372 Clear 17 1028 34 0 4.47 136 14:47 05.04.2020
5373 Clear 17 1028 34 0 4.02 158 14:47 05.04.2020
5374 Clear 17 1028 35 0 3.58 94 14:47 05.04.2020
5375 Clear 17 1028 37 0 3.13 172 13:45 05.04.2020
5376 Clear 16 1029 38 0 4.47 107 12:56 05.04.2020
5377 Clear 13 1030 51 0 1.79 93 11:58 05.04.2020
5378 Clear 13 1030 51 0 1.79 93 11:58 05.04.2020
5379 Clear 13 1030 51 0 1.79 93 11:58 05.04.2020
5380 Clear 13 1030 51 0 1.79 93 11:58 05.04.2020
5381 Clear 13 1030 46 0 2.68 47 11:38 05.04.2020
5382 Clear 12 1030 49 0 4.02 64 11:19 05.04.2020
5383 Clear 12 1030 52 0 5.81 159 10:44 05.04.2020
5384 Clear 11 1030 54 0 1.34 189 10:19 05.04.2020
5385 Clear 10 1030 48 0 2.68 121 09:52 05.04.2020
5386 Clear 10 1030 48 0 2.68 121 09:52 05.04.2020
5387 Clear 10 1030 48 0 2.68 121 09:52 05.04.2020
5388 Clear 10 1030 48 0 2.68 121 09:52 05.04.2020
5389 Clear 10 1030 48 0 2.68 121 09:52 05.04.2020
5390 Clear 7 1031 67 0 2.24 135 09:25 05.04.2020
5391 Clear 7 1031 67 0 2.24 135 09:25 05.04.2020
5392 Clear 7 1031 67 0 2.24 135 09:25 05.04.2020
5393 Clear 7 1031 67 0 2.24 135 09:25 05.04.2020
5394 Clear 7 1031 67 0 2.24 135 09:25 05.04.2020
5395 Clear 3 1025 88 0 3.75 126 07:57 05.04.2020
5396 Clear 3 1025 88 0 3.75 126 07:57 05.04.2020
5397 Clear 2 1029 80 0 3.01 120 04:52 05.04.2020
5398 Clear 2 1029 79 0 3.01 120 03:35 05.04.2020
5399 Clear 2 1029 78 0 3.01 120 03:35 05.04.2020
5400 Clear 2 1029 78 0 3.01 120 03:35 05.04.2020
5401 Clear 2 1029 76 0 2.79 130 02:53 05.04.2020
5402 Clear 2 1029 78 0 2.74 134 01:51 05.04.2020
5403 Clear 3 1029 77 0 2.74 134 01:32 05.04.2020
5404 Clear 3 1029 74 0 2.74 134 00:48 05.04.2020
5405 Clear 3 1029 73 0 2.74 134 00:22 05.04.2020
5406 Clear 3 1029 73 0 2.74 134 00:22 05.04.2020
5407 Clear 3 1029 73 0 2.98 136 23:57 04.04.2020
5408 Clear 3 1029 73 0 2.98 136 23:38 04.04.2020
5409 Clear 4 1029 71 0 2.98 136 23:20 04.04.2020
5410 Clear 5 1028 70 0 2.98 136 22:56 04.04.2020
5411 Clear 5 1028 68 0 2.98 136 22:37 04.04.2020
5412 Clear 6 1028 66 0 2.98 136 22:19 04.04.2020
5413 Clear 6 1028 65 0 2.98 136 21:55 04.04.2020
5414 Clear 7 1028 63 0 2.98 136 21:37 04.04.2020
5415 Clear 7 1028 61 0 2.08 127 21:18 04.04.2020
5416 Clear 8 1028 59 0 2.08 127 20:43 04.04.2020
5417 Clear 9 1027 57 0 2.08 127 20:23 04.04.2020
5418 Clear 10 1027 52 0 2.08 127 19:59 04.04.2020
5419 Clear 11 1027 49 0 0.89 129 19:39 04.04.2020
5420 Clear 11 1027 46 0 0.45 114 19:20 04.04.2020
5421 Clear 12 1027 44 0 0.45 128 18:59 04.04.2020
5422 Clear 12 1027 42 0 0.89 148 18:39 04.04.2020
5423 Clear 13 1027 39 0 0.72 44 18:20 04.04.2020
5424 Clear 13 1026 36 0 1.79 111 17:58 04.04.2020
5425 Clear 13 1026 35 0 1.79 8 17:38 04.04.2020
5426 Clear 14 1026 34 0 0.47 121 17:19 04.04.2020
5427 Clear 14 1026 33 0 0.45 46 16:45 04.04.2020
5428 Clear 14 1026 32 0 0.72 44 16:27 04.04.2020
5429 Clear 14 1026 33 0 0.89 15 15:59 04.04.2020
5430 Clear 13 1027 33 0 2.24 271 15:39 04.04.2020
5431 Clouds 12 1021 36 0 1.14 287 15:19 04.04.2020
5432 Clouds 13 1027 36 0 0.89 208 14:55 04.04.2020
5433 Clouds 13 1021 36 0 1.14 287 14:37 04.04.2020
5434 Clouds 12 1027 44 0 0.45 314 14:18 04.04.2020
5435 Clouds 12 1021 38 0 1.11 265 13:42 04.04.2020
5436 Clouds 13 1021 35 0 1.11 265 13:22 04.04.2020
5437 Clouds 12 1027 35 0 0.45 271 12:58 04.04.2020
5438 Clouds 13 1027 40 0 1.34 251 12:40 04.04.2020
5439 Clouds 10 1027 52 0 0.45 352 12:21 04.04.2020
5440 Clouds 9 1027 51 0 0.89 30 11:42 04.04.2020
5441 Clouds 9 1027 51 0 0.45 44 11:23 04.04.2020
5442 Clouds 9 1027 52 0 0.45 17 10:59 04.04.2020
5443 Clouds 10 1026 47 0 1.79 152 10:41 04.04.2020
5444 Clouds 9 1026 49 0 1.97 277 10:23 04.04.2020
5445 Clouds 8 1026 58 0 1.97 277 09:57 04.04.2020
5446 Clouds 8 1026 59 0 0.45 87 09:39 04.04.2020
5447 Clouds 6 1025 60 0 0.89 84 09:21 04.04.2020
5448 Clouds 6 1025 63 0 0.45 47 08:56 04.04.2020
5449 Clouds 5 1025 64 0 0.45 53 08:37 04.04.2020
5450 Clouds 5 1019 72 0 1.08 266 08:19 04.04.2020
5451 Clouds 4 1019 84 0 1.08 266 07:40 04.04.2020
5452 Clouds 4 1024 69 0 1.08 266 07:22 04.04.2020
5453 Clouds 4 1024 69 0 1.08 266 07:22 04.04.2020
5454 Clouds 4 1023 67 0 1.08 266 06:40 04.04.2020
5455 Clouds 5 1023 63 0 1.34 310 05:57 04.04.2020
5456 Clouds 5 1023 63 0 0.47 28 05:39 04.04.2020
5457 Clouds 5 1016 68 0 0.47 28 05:21 04.04.2020
5458 Clouds 6 1022 63 0 0.47 28 04:24 04.04.2020
5459 Clouds 5 1016 70 0 0.47 28 03:45 04.04.2020
5460 Clouds 6 1015 69 0 0.93 317 02:49 04.04.2020
5461 Clouds 6 1021 58 0 0.93 317 02:30 04.04.2020
5462 Clouds 6 1021 59 0 1.43 293 01:51 04.04.2020
5463 Clouds 6 1020 61 0 1.43 293 01:22 04.04.2020
5464 Clouds 6 1020 68 0 1.43 293 00:47 04.04.2020
5465 Clouds 6 1020 66 0 1.43 293 00:27 04.04.2020
5466 Clouds 7 1019 63 0 2.76 284 23:39 03.04.2020
5467 Clouds 6 1019 63 0 2.76 284 23:21 03.04.2020
5468 Clouds 7 1019 62 0 2.76 284 22:57 03.04.2020
5469 Clouds 7 1019 63 0 2.76 284 22:39 03.04.2020
5470 Clouds 7 1019 62 0 2.76 284 22:18 03.04.2020
5471 Clouds 7 1018 60 0 2.76 284 21:43 03.04.2020
5472 Clouds 7 1018 58 0 2.76 284 21:24 03.04.2020
5473 Clouds 8 1018 58 0 0.45 259 20:57 03.04.2020
5474 Clouds 8 1018 58 0 0.45 259 20:57 03.04.2020
5475 Clouds 8 1018 57 0 2.33 278 20:37 03.04.2020
5476 Clouds 8 1017 57 0 2.33 278 20:19 03.04.2020
5477 Clouds 9 1017 54 0 2.33 278 19:57 03.04.2020
5478 Clouds 9 1017 49 0 2.33 278 19:38 03.04.2020
5479 Clouds 9 1017 48 0 2.68 282 19:20 03.04.2020
5480 Clouds 10 1016 47 0 3.13 275 18:59 03.04.2020
5481 Clouds 10 1016 44 0 3.58 289 18:41 03.04.2020
5482 Clouds 11 1016 43 0 4.47 259 18:22 03.04.2020
5483 Clouds 11 1016 41 0 1.79 303 17:55 03.04.2020
5484 Clouds 11 1016 41 0 2.24 306 17:36 03.04.2020
5485 Clouds 11 1016 39 0 6.71 272 17:18 03.04.2020
5486 Clouds 11 1016 39 0 3.13 303 16:43 03.04.2020
5487 Clouds 12 1015 38 0 4.02 287 16:21 03.04.2020
5488 Clouds 12 1015 38 0 4.47 295 15:58 03.04.2020
5489 Clouds 12 1015 37 0 6.26 261 15:39 03.04.2020
5490 Clouds 12 1015 38 0 1.79 300 15:20 03.04.2020
5491 Clouds 12 1015 38 0 4.92 265 14:56 03.04.2020
5492 Clouds 11 1015 41 0 1.79 220 14:37 03.04.2020
5493 Clouds 11 1009 38 0 6.45 287 14:19 03.04.2020
5494 Clouds 11 1015 39 0 5.36 251 13:43 03.04.2020
5495 Clouds 11 1015 37 0 3.58 266 13:25 03.04.2020
5496 Clouds 12 1015 38 0 4.92 278 12:56 03.04.2020
5497 Clouds 11 1015 42 0 3.13 210 12:37 03.04.2020
5498 Clouds 9 1014 50 0 1.34 324 12:18 03.04.2020
5499 Clouds 9 1014 54 0 1.34 276 11:54 03.04.2020
5500 Clouds 9 1014 52 0 2.24 48 11:36 03.04.2020
5501 Clouds 9 1014 55 0 1.34 268 11:18 03.04.2020
5502 Clouds 9 1014 46 0 4.02 287 10:54 03.04.2020
5503 Clouds 9 1014 49 0 2.68 252 10:36 03.04.2020
5504 Clouds 8 1014 51 0 1.79 249 10:18 03.04.2020
5505 Clouds 8 1013 52 0 3.58 265 09:40 03.04.2020
5506 Clear 6 1013 65 0 1.34 11 09:22 03.04.2020
5507 Clouds 6 1013 65 0 1.34 11 09:22 03.04.2020
5508 Clouds 5 1012 67 0 1.34 11 08:57 03.04.2020
5509 Clouds 5 1012 68 0 1.34 330 08:39 03.04.2020
5510 Clouds 5 1009 73 0 0.89 67 08:20 03.04.2020
5511 Clouds 5 1012 66 0 2.68 313 07:50 03.04.2020
5512 Clouds 5 1012 67 0 2.68 271 07:31 03.04.2020
5513 Clouds 6 1011 70 0 2.24 287 06:49 03.04.2020
5514 Clouds 6 1010 68 0 4.02 297 06:24 03.04.2020
5515 Rain 6 1010 68 0 0.45 263 05:40 03.04.2020
5516 Rain 6 1008 71 0 1.34 256 03:45 03.04.2020
5517 Clouds 6 1008 70 0 1.34 327 02:56 03.04.2020
5518 Rain 6 1008 70 0 2.68 251 02:27 03.04.2020
5519 Rain 6 1008 66 0 3.13 207 01:23 03.04.2020
5520 Rain 6 1008 63 0 2.24 180 00:37 03.04.2020
5521 Clouds 6 1008 64 0 5.36 249 00:19 03.04.2020
5522 Clouds 6 1008 67 0 0.45 165 23:42 02.04.2020
5523 Clouds 6 1008 67 0 0.89 266 23:23 02.04.2020
5524 Clouds 6 1008 66 0 1.79 176 22:58 02.04.2020
5525 Clouds 6 1008 67 0 0.89 304 22:39 02.04.2020
5526 Clouds 6 1009 69 0 3.13 275 22:20 02.04.2020
5527 Clouds 6 1009 67 0 0.45 327 21:54 02.04.2020
5528 Clouds 6 1009 66 0 0.45 245 21:36 02.04.2020
5529 Clouds 7 1009 64 0 3.58 224 21:18 02.04.2020
5530 Clouds 7 1009 62 0 4.92 255 20:42 02.04.2020
5531 Clouds 7 1009 60 0 2.68 303 20:22 02.04.2020
5532 Clouds 8 1009 56 0 3.13 290 19:45 02.04.2020
5533 Clouds 9 1009 54 0 3.13 261 19:21 02.04.2020
5534 Clouds 9 1009 51 0 1.79 254 19:00 02.04.2020
5535 Clouds 10 1009 48 0 4.02 237 18:41 02.04.2020
5536 Clouds 10 1009 46 0 4.02 304 18:21 02.04.2020
5537 Clouds 10 1009 46 0 5.36 279 18:21 02.04.2020
5538 Clouds 10 1009 43 0 3.13 306 17:57 02.04.2020
5539 Clouds 11 1009 42 0 2.68 261 17:39 02.04.2020
5540 Clouds 11 1009 41 0 4.47 252 17:20 02.04.2020
5541 Clouds 11 1010 41 0 4.47 289 16:56 02.04.2020
5542 Clouds 11 1010 40 0 1.34 232 16:38 02.04.2020
5543 Clouds 10 1005 46 0 6.39 267 16:20 02.04.2020
5544 Clouds 10 1005 47 0 6.39 267 15:55 02.04.2020
5545 Clouds 10 1005 45 0 6.39 267 15:37 02.04.2020
5546 Clouds 10 1005 44 0 4.7 258 15:18 02.04.2020
5547 Clouds 10 1005 42 0 4.7 258 14:40 02.04.2020
5548 Clouds 10 1006 42 0 4.74 257 14:21 02.04.2020
5549 Clouds 10 1006 42 0 4.74 257 13:59 02.04.2020
5550 Clouds 10 1006 42 0 4.74 257 13:40 02.04.2020
5551 Clouds 10 1007 43 0 4.74 257 13:21 02.04.2020
5552 Clouds 10 1007 43 0 4.74 257 12:57 02.04.2020
5553 Clouds 10 1007 44 0 4.74 257 12:39 02.04.2020
5554 Clouds 9 1007 44 0 4.4 269 12:19 02.04.2020
5555 Clouds 9 1007 44 0 4.4 269 12:19 02.04.2020
5556 Clouds 9 1007 44 0 4.4 269 12:19 02.04.2020
5557 Clouds 10 1013 50 0 0.89 282 11:57 02.04.2020
5558 Clouds 9 1014 51 0 1.34 11 11:38 02.04.2020
5559 Clouds 10 1014 45 0 2.68 292 11:19 02.04.2020
5560 Clouds 10 1014 45 0 2.68 292 11:19 02.04.2020
5561 Clouds 10 1014 45 0 2.68 292 11:19 02.04.2020
5562 Clouds 9 1014 47 0 2.68 278 10:55 02.04.2020
5563 Clouds 9 1014 51 0 0.45 245 10:37 02.04.2020
5564 Clouds 9 1014 51 0 3.13 163 10:19 02.04.2020
5565 Clouds 8 1014 58 0 3.58 249 09:56 02.04.2020
5566 Clouds 7 1014 63 0 4.02 235 09:38 02.04.2020
5567 Clouds 2 1014 85 0 3.28 252 09:19 02.04.2020
5568 Clouds 3 1015 80 0 1.34 262 08:46 02.04.2020
5569 Clouds 2 1015 81 0 1.79 255 08:26 02.04.2020
5570 Clouds 2 1014 78 0 3.12 248 07:45 02.04.2020
5571 Clouds 1 1014 78 0 1.79 177 07:21 02.04.2020
5572 Clouds 1 1015 79 0 1.79 193 06:58 02.04.2020
5573 Clouds -1 1015 84 0 0.45 297 06:22 02.04.2020
5574 Clouds 0 1015 79 0 2.24 235 05:45 02.04.2020
5575 Clouds 0 1015 79 0 3.13 242 04:35 02.04.2020
5576 Clear 1 1016 75 0 2.24 239 01:52 02.04.2020
5577 Clear 1 1016 77 0 0.89 252 00:50 02.04.2020
5578 Clear 1 1016 78 0 3.58 248 00:29 02.04.2020
5579 Clear 1 1016 77 0 3.16 269 23:57 01.04.2020
5580 Clear 2 1017 75 0 0.45 93 23:37 01.04.2020
5581 Clear 2 1017 75 0 3.16 269 23:18 01.04.2020
5582 Clear 3 1017 73 0 3.16 269 22:41 01.04.2020
5583 Clear 3 1017 71 0 3.16 269 22:22 01.04.2020
5584 Clear 3 1017 71 0 3.16 269 21:58 01.04.2020
5585 Clouds 4 1017 70 0 3.6 270 21:39 01.04.2020
5586 Clouds 4 1017 68 0 2.47 279 21:19 01.04.2020
5587 Clouds 6 1017 65 0 3.06 273 20:55 01.04.2020
5588 Clouds 6 1017 64 0 3.06 273 20:37 01.04.2020
5589 Clouds 7 1017 60 0 3.06 273 20:18 01.04.2020
5590 Clouds 7 1017 56 0 3.06 273 19:55 01.04.2020
5591 Clouds 7 1017 53 0 3.13 299 19:37 01.04.2020
5592 Clouds 8 1017 50 0 3.13 28 19:19 01.04.2020
5593 Clouds 9 1018 48 0 3.58 303 18:41 01.04.2020
5594 Clouds 9 1018 47 0 4.02 279 18:21 01.04.2020
5595 Clouds 10 1018 44 0 2.24 135 17:56 01.04.2020
5596 Clouds 10 1018 40 0 0.45 110 17:37 01.04.2020
5597 Clouds 11 1018 36 0 3.13 290 17:18 01.04.2020
5598 Clouds 11 1018 36 0 5.36 204 16:56 01.04.2020
5599 Clouds 11 1018 36 0 3.58 8 16:38 01.04.2020
5600 Clouds 9 1019 38 0 1.34 52 16:19 01.04.2020
5601 Clouds 9 1019 39 0 2.24 38 15:42 01.04.2020
5602 Clouds 10 1020 36 0 5.81 269 15:22 01.04.2020
5603 Clear 8 1030 39 0 4.38 280 14:59 01.04.2020
5604 Clear 8 1030 39 0 4.38 280 14:39 01.04.2020
5605 Clear 8 1030 39 0 4.38 280 14:21 01.04.2020
5606 Clouds 8 1030 39 0 4.22 280 13:59 01.04.2020
5607 Clouds 8 1030 39 0 4.22 280 13:39 01.04.2020
5608 Clouds 9 1030 39 0 4.22 280 13:20 01.04.2020
5609 Clouds 9 1030 39 0 4.22 280 12:57 01.04.2020
5610 Clouds 9 1030 39 0 4.22 280 12:37 01.04.2020
5611 Clear 7 1030 39 0 3.65 275 12:19 01.04.2020
5612 Clear 7 1030 39 0 3.65 275 11:56 01.04.2020
5613 Clear 6 1030 39 0 3.65 275 11:37 01.04.2020
5614 Clear 6 1030 39 0 3.65 275 11:18 01.04.2020
5615 Clear 6 1030 39 0 3.65 275 10:39 01.04.2020
5616 Clear 6 1030 39 0 3.65 275 10:21 01.04.2020
5617 Clear 5 1030 39 0 3.65 275 09:59 01.04.2020
5618 Clear 5 1030 39 0 3.65 275 09:59 01.04.2020
5619 Clear 4 1030 39 0 3.65 275 09:40 01.04.2020
5620 Clear 1 1024 61 0 1.34 304 09:20 01.04.2020
5621 Clear 1 1018 58 0 2.57 251 08:44 01.04.2020
5622 Clear 1 1018 58 0 2.57 251 08:44 01.04.2020
5623 Clear -1 1018 71 0 2.57 251 08:20 01.04.2020
5624 Clear -2 1018 81 0 2.57 251 07:58 01.04.2020
5625 Clear -3 1018 87 0 2.57 251 07:40 01.04.2020
5626 Clear -3 1025 88 0 2.57 251 07:19 01.04.2020
5627 Clear -3 1021 69 0 2.57 251 06:42 01.04.2020
5628 Clear -3 1021 68 0 0.45 98 06:20 01.04.2020
5629 Clear -5 1021 69 0 2.75 235 05:28 01.04.2020
5630 Clear -4 1026 83 0 2.75 235 03:40 01.04.2020
5631 Clear -4 1023 69 0 2.4 233 02:59 01.04.2020
5632 Clear -4 1027 81 0 2.4 233 02:36 01.04.2020
5633 Clear -4 1021 86 0 2.39 233 01:50 01.04.2020
5634 Clear -3 1027 79 0 2.39 233 01:25 01.04.2020
5635 Clear -3 1022 86 0 2.39 233 00:47 01.04.2020
5636 Clear -3 1028 75 0 2.39 233 00:23 01.04.2020
5637 Clear -2 1023 84 0 1.69 246 23:59 31.03.2020
5638 Clear -2 1023 83 0 1.69 246 23:40 31.03.2020
5639 Clear -2 1023 82 0 1.69 246 23:21 31.03.2020
5640 Clear -1 1023 80 0 1.69 246 22:41 31.03.2020
5641 Clear -1 1023 80 0 1.69 246 22:22 31.03.2020
5642 Clear -1 1023 80 0 1.69 246 21:58 31.03.2020
5643 Clear -1 1023 80 0 1.69 246 21:58 31.03.2020
5644 Clear 0 1023 77 0 1.69 246 21:40 31.03.2020
5645 Clouds 0 1023 73 0 0.79 247 21:21 31.03.2020
5646 Clouds 1 1023 75 0 1.31 285 20:58 31.03.2020
5647 Clouds 1 1023 75 0 1.31 285 20:57 31.03.2020
5648 Clouds 1 1024 73 0 1.31 285 20:37 31.03.2020
5649 Clouds 2 1024 69 0 1.31 285 20:19 31.03.2020
5650 Clouds 3 1024 62 0 1.31 285 19:57 31.03.2020
5651 Clouds 4 1024 50 0 1.31 285 19:38 31.03.2020
5652 Clouds 5 1030 39 0 1.31 285 19:19 31.03.2020
5653 Clouds 6 1030 39 0 1.31 285 18:46 31.03.2020
5654 Clouds 6 1030 39 0 1.31 285 18:21 31.03.2020
5655 Clouds 6 1029 39 0 1.34 337 17:58 31.03.2020
5656 Clouds 6 1030 41 0 2.68 19 17:40 31.03.2020
5657 Clouds 6 1030 41 0 1.34 282 17:21 31.03.2020
5658 Clouds 6 1030 39 0 1.34 53 17:21 31.03.2020
5659 Clouds 7 1030 39 0 2.68 352 16:57 31.03.2020
5660 Clouds 6 1025 39 0 2.14 344 16:37 31.03.2020
5661 Clouds 7 1031 42 0 1.79 11 16:18 31.03.2020
5662 Clouds 7 1031 40 0 1.34 296 15:56 31.03.2020
5663 Clouds 7 1031 40 0 1.34 296 15:56 31.03.2020
5664 Clouds 7 1025 41 0 2.14 344 15:37 31.03.2020
5665 Clouds 7 1025 41 0 2.14 344 15:37 31.03.2020
5666 Clouds 7 1031 39 0 0.89 4 15:18 31.03.2020
5667 Clouds 7 1031 39 0 4.02 302 14:56 31.03.2020
5668 Clouds 7 1031 39 0 1.34 317 14:37 31.03.2020
5669 Clouds 6 1031 39 0 1.79 36 14:18 31.03.2020
5670 Clouds 7 1032 39 0 0.89 25 13:41 31.03.2020
5671 Clouds 7 1026 39 0 2.59 43 13:19 31.03.2020
5672 Clouds 6 1032 39 0 3.13 43 12:54 31.03.2020
5673 Clouds 6 1032 40 0 2.24 91 12:36 31.03.2020
5674 Clear 5 1032 40 0 1.34 330 12:18 31.03.2020
5675 Clear 5 1032 40 0 2.24 9 11:38 31.03.2020
5676 Clear 5 1032 43 0 3.58 14 11:19 31.03.2020
5677 Clear 4 1032 52 0 0.89 118 10:57 31.03.2020
5678 Clear 4 1032 61 0 3.13 94 10:39 31.03.2020
5679 Clear 4 1032 63 0 3.13 98 10:21 31.03.2020
5680 Clear 4 1032 66 0 0.89 323 09:56 31.03.2020
5681 Clear 3 1032 65 0 0.89 93 09:37 31.03.2020
5682 Clouds 3 1032 64 0 2.24 42 09:37 31.03.2020
5683 Clouds 3 1032 64 0 2.24 42 09:37 31.03.2020
5684 Clouds 3 1032 64 0 2.24 42 09:37 31.03.2020
5685 Clear -1 1031 95 0 2.23 26 09:19 31.03.2020
5686 Clear 1 1031 84 0 0.45 63 08:56 31.03.2020
5687 Clear 1 1031 84 0 0.45 63 08:56 31.03.2020
5688 Clear 1 1031 84 0 0.45 63 08:56 31.03.2020
5689 Clear 1 1026 96 0 2.23 26 08:37 31.03.2020
5690 Clear 0 1026 99 0 2.23 26 08:19 31.03.2020
5691 Clear -1 1026 10 0 2.23 26 07:54 31.03.2020
5692 Clear -1 1031 84 0 1.34 313 07:36 31.03.2020
5693 Clear -1 1031 89 0 1.34 319 07:18 31.03.2020
5694 Clear -1 1030 89 0 2.23 26 06:42 31.03.2020
5695 Clear -1 1030 89 0 0.45 81 05:57 31.03.2020
5696 Clear -1 1030 89 0 1.34 38 05:38 31.03.2020
5697 Clear 0 1029 90 0 1.79 21 03:27 31.03.2020
5698 Clouds 0 1028 90 0 1.34 317 01:52 31.03.2020
5699 Clouds 0 1028 90 0 3.03 29 01:33 31.03.2020
5700 Clouds 0 1028 89 0 3.03 29 00:46 31.03.2020
5701 Clouds 1 1028 88 0 3.03 29 00:24 31.03.2020
5702 Clouds 1 1027 86 0 1.93 347 23:41 30.03.2020
5703 Clouds 1 1027 85 0 1.93 347 23:20 30.03.2020
5704 Clouds 1 1027 84 0 1.93 347 22:58 30.03.2020
5705 Clouds 2 1027 83 0 1.93 347 22:39 30.03.2020
5706 Clouds 2 1027 82 0 1.93 347 22:20 30.03.2020
5707 Clouds 2 1027 82 0 1.93 347 21:58 30.03.2020
5708 Clouds 2 1027 82 0 1.34 261 21:39 30.03.2020
5709 Rain 2 1026 81 0 2.24 343 21:21 30.03.2020
5710 Rain 2 1021 89 0 3.09 317 20:59 30.03.2020
5711 Rain 3 1026 82 0 0.89 323 20:39 30.03.2020
5712 Rain 3 1026 81 0 2.24 293 20:20 30.03.2020
5713 Rain 3 1026 80 0 3.09 317 19:57 30.03.2020
5714 Rain 3 1026 79 0 3.09 317 19:39 30.03.2020
5715 Rain 3 1026 90 0 0.45 269 19:20 30.03.2020
5716 Rain 4 1025 76 0 1.34 283 18:56 30.03.2020
5717 Rain 4 1025 76 0 1.79 309 18:36 30.03.2020
5718 Rain 4 1025 75 0 4.47 287 18:18 30.03.2020
5719 Rain 4 1025 74 0 3.13 273 17:55 30.03.2020
5720 Rain 4 1025 73 0 2.68 326 17:36 30.03.2020
5721 Rain 4 1025 71 0 1.79 271 17:18 30.03.2020
5722 Rain 4 1026 76 0 1.79 286 16:41 30.03.2020
5723 Rain 4 1026 75 0 1.34 186 16:21 30.03.2020
5724 Rain 4 1026 72 0 2.68 242 16:21 30.03.2020
5725 Rain 4 1026 66 0 1.34 289 15:56 30.03.2020
5726 Rain 5 1026 65 0 2.24 314 15:38 30.03.2020
5727 Clouds 5 1026 64 0 1.34 299 15:20 30.03.2020
5728 Clouds 5 1026 61 0 1.79 297 14:58 30.03.2020
5729 Clouds 5 1026 61 0 4.47 242 14:38 30.03.2020
5730 Clouds 5 1026 59 0 5.36 287 14:19 30.03.2020
5731 Clouds 5 1026 53 0 3.58 251 13:58 30.03.2020
5732 Clouds 5 1027 52 0 0.89 230 13:39 30.03.2020
5733 Clouds 4 1027 52 0 3.13 256 13:20 30.03.2020
5734 Clouds 4 1027 48 0 5.36 223 12:45 30.03.2020
5735 Clouds 3 1028 54 0 5.36 227 12:22 30.03.2020
5736 Clouds 4 1028 47 0 0.89 149 11:59 30.03.2020
5737 Clouds 4 1028 47 0 2.24 145 11:59 30.03.2020
5738 Clouds 4 1028 48 0 3.58 359 11:41 30.03.2020
5739 Clouds 3 1029 45 0 5.07 274 11:22 30.03.2020
5740 Clouds 3 1029 46 0 1.34 256 10:57 30.03.2020
5741 Clouds 3 1029 51 0 1.34 276 10:37 30.03.2020
5742 Clouds 2 1029 52 0 1.34 238 10:19 30.03.2020
5743 Clouds 2 1029 53 0 4.02 251 09:41 30.03.2020
5744 Clouds 2 1029 53 0 4.02 251 09:41 30.03.2020
5745 Clear 0 1029 68 0 1.34 6 09:20 30.03.2020
5746 Clear 0 1023 62 0 3.41 271 08:58 30.03.2020
5747 Clear -1 1023 64 0 3.41 271 08:38 30.03.2020
5748 Clear -2 1024 73 0 3.41 271 08:20 30.03.2020
5749 Clear -3 1024 73 0 3.41 271 07:44 30.03.2020
5750 Clear -3 1030 66 0 3.41 271 07:23 30.03.2020
5751 Clear -4 1030 80 0 0.89 177 06:47 30.03.2020
5752 Clear -4 1030 79 0 3.41 271 06:25 30.03.2020
5753 Clear -4 1030 79 0 2.54 308 05:44 30.03.2020
5754 Clear -4 1031 76 0 2.54 308 04:37 30.03.2020
5755 Clear -4 1031 74 0 0.45 269 04:18 30.03.2020
5756 Clouds -3 1031 68 0 0.45 265 02:45 30.03.2020
5757 Clear -2 1032 66 0 0.89 314 01:58 30.03.2020
5758 Clear -2 1032 67 0 1.34 326 01:18 30.03.2020
5759 Clear -1 1032 66 0 0.89 289 00:29 30.03.2020
5760 Clear -1 1032 66 0 0.45 300 23:57 29.03.2020
5761 Clear -1 1032 66 0 0.45 300 23:57 29.03.2020
5762 Clear -1 1032 66 0 0.45 297 23:39 29.03.2020
5763 Clear 0 1032 67 0 3.39 7 23:20 29.03.2020
5764 Clear 0 1031 64 0 3.39 7 22:55 29.03.2020
5765 Clear 1 1031 61 0 1.79 314 22:37 29.03.2020
5766 Clear 1 1031 62 0 2.24 328 22:18 29.03.2020
5767 Clouds 1 1031 65 0 2.68 348 21:39 29.03.2020
5768 Snow 2 1031 64 0 0.89 345 21:20 29.03.2020
5769 Snow 2 1031 62 0 4.92 310 20:56 29.03.2020
5770 Snow 2 1030 61 0 5.81 359 20:37 29.03.2020
5771 Snow 2 1030 59 0 2.68 25 20:19 29.03.2020
5772 Snow 3 1029 58 0 3.58 352 19:59 29.03.2020
5773 Snow 3 1029 57 0 4.47 19 19:41 29.03.2020
5774 Snow 3 1029 62 0 5.36 23 19:23 29.03.2020
5775 Snow 4 1028 62 0 2.68 338 18:57 29.03.2020
5776 Snow 4 1028 63 0 4.47 348 18:38 29.03.2020
5777 Snow 4 1028 63 0 6.26 25 18:20 29.03.2020
5778 Snow 4 1027 69 0 6.26 359 17:56 29.03.2020
5779 Snow 4 1027 68 0 8.05 9 17:38 29.03.2020
5780 Snow 4 1027 67 0 10.73 316 17:19 29.03.2020
5781 Snow 5 1027 71 0 4.02 359 16:57 29.03.2020
5782 Snow 4 1026 74 0 5.36 28 16:38 29.03.2020
5783 Snow 4 1026 69 0 8.49 357 16:38 29.03.2020
5784 Snow 4 1026 77 0 6.26 359 16:19 29.03.2020
5785 Snow 5 1026 74 0 6.26 19 15:43 29.03.2020
5786 Snow 5 1026 74 0 6.26 19 15:43 29.03.2020
5787 Snow 5 1026 66 0 3.58 45 15:25 29.03.2020
5788 Snow 5 1025 70 0 7.6 327 14:59 29.03.2020
5789 Snow 5 1025 79 0 8.05 359 14:40 29.03.2020
5790 Snow 5 1025 83 0 4.02 300 14:20 29.03.2020
5791 Snow 5 1025 83 0 0.89 295 13:59 29.03.2020
5792 Snow 5 1024 87 0 4.02 323 13:41 29.03.2020
5793 Snow 5 1024 86 0 4.47 29 13:21 29.03.2020
5794 Snow 5 1024 82 0 9.39 352 12:57 29.03.2020
5795 Snow 5 1024 84 0 4.02 5 12:38 29.03.2020
5796 Rain 5 1023 86 0 4.02 341 12:19 29.03.2020
5797 Rain 5 1023 87 0 8.05 314 11:57 29.03.2020
5798 Rain 5 1023 86 0 6.26 345 11:57 29.03.2020
5799 Rain 5 1023 83 0 4.47 358 11:37 29.03.2020
5800 Rain 5 1022 78 0 3.58 306 11:19 29.03.2020
5801 Rain 5 1022 72 0 4.92 300 10:39 29.03.2020
5802 Rain 5 1022 74 0 2.24 355 10:20 29.03.2020
5803 Rain 5 1021 70 0 1.79 321 09:55 29.03.2020
5804 Rain 5 1021 70 0 4.47 328 09:37 29.03.2020
5805 Clouds 5 1021 70 0 4.47 279 09:18 29.03.2020
5806 Clouds 5 1021 69 0 4.02 296 08:43 29.03.2020
5807 Clouds 4 1021 70 0 5.36 307 08:24 29.03.2020
5808 Clouds 4 1021 72 0 2.24 316 07:47 29.03.2020
5809 Clouds 4 1020 72 0 2.68 287 07:23 29.03.2020
5810 Clouds 4 1020 76 0 4.47 304 06:34 29.03.2020
5811 Clouds 4 1020 73 0 0.89 254 04:56 29.03.2020
5812 Clouds 4 1014 75 0 4.2 314 03:41 29.03.2020
5813 Clouds 4 1014 72 0 3.7 310 03:20 29.03.2020
5814 Clouds 4 1020 69 0 1.79 323 01:40 29.03.2020
5815 Clouds 4 1020 74 0 3.7 310 01:21 29.03.2020
5816 Clouds 5 1020 68 0 4.45 296 00:40 29.03.2020
5817 Clouds 5 1020 68 0 3.13 278 00:19 29.03.2020
5818 Clouds 5 1020 67 0 3.13 273 23:41 28.03.2020
5819 Clouds 5 1020 66 0 2.24 276 23:22 28.03.2020
5820 Clouds 5 1020 62 0 0.89 241 22:46 28.03.2020
5821 Clouds 6 1020 60 0 1.34 309 22:23 28.03.2020
5822 Clouds 6 1020 57 0 0.89 290 21:59 28.03.2020
5823 Clouds 7 1020 54 0 1.34 320 21:40 28.03.2020
5824 Clouds 7 1020 53 0 3.13 345 21:21 28.03.2020
5825 Clouds 7 1020 54 0 1.79 316 20:58 28.03.2020
5826 Clouds 7 1020 57 0 0.89 324 20:38 28.03.2020
5827 Clear 8 1020 58 0 2.95 353 20:20 28.03.2020
5828 Clear 8 1013 55 0 0.45 0 19:56 28.03.2020
5829 Clear 9 1019 51 0 1.34 303 19:36 28.03.2020
5830 Clear 10 1019 50 0 2.24 323 19:18 28.03.2020
5831 Clear 11 1019 49 0 1.79 321 18:47 28.03.2020
5832 Clear 11 1019 49 0 3.13 328 18:22 28.03.2020
5833 Clear 13 1018 47 0 1.79 357 17:58 28.03.2020
5834 Clear 13 1018 45 0 1.79 19 17:38 28.03.2020
5835 Clear 13 1018 43 0 4.47 300 17:19 28.03.2020
5836 Clear 14 1019 37 0 3.58 287 16:42 28.03.2020
5837 Clear 14 1019 35 0 2.68 313 16:20 28.03.2020
5838 Clear 14 1019 35 0 3.13 335 15:56 28.03.2020
5839 Clear 14 1019 34 0 3.13 310 15:37 28.03.2020
5840 Clear 14 1019 33 0 3.13 307 15:18 28.03.2020
5841 Clear 13 1019 38 0 2.68 314 14:42 28.03.2020
5842 Clear 14 1020 31 0 5.36 327 14:22 28.03.2020
5843 Clouds 14 1019 37 0 1.79 39 13:57 28.03.2020
5844 Clouds 14 1020 32 0 4.47 359 13:37 28.03.2020
5845 Clear 14 1020 31 0 3.58 306 13:18 28.03.2020
5846 Clear 13 1021 33 0 1.34 310 12:38 28.03.2020
5847 Clear 13 1021 33 0 4.02 317 12:19 28.03.2020
5848 Clear 13 1021 37 0 7.15 323 11:42 28.03.2020
5849 Clear 12 1021 52 0 0.89 60 11:21 28.03.2020
5850 Clouds 11 1022 45 0 3.13 287 10:56 28.03.2020
5851 Clouds 10 1022 48 0 2.68 326 10:37 28.03.2020
5852 Clouds 9 1022 49 0 1.79 330 10:18 28.03.2020
5853 Clouds 8 1022 54 0 3.13 302 09:41 28.03.2020
5854 Clouds 8 1022 56 0 0.89 317 09:22 28.03.2020
5855 Clouds 7 1022 51 0 4.47 245 08:45 28.03.2020
5856 Clouds 7 1022 50 0 0.89 276 08:27 28.03.2020
5857 Clouds 3 1021 86 0 0.45 58 07:59 28.03.2020
5858 Clouds 3 1021 86 0 0.45 346 07:41 28.03.2020
5859 Clouds 2 1016 84 0 3.23 347 06:55 28.03.2020
5860 Clouds 1 1016 87 0 3.23 347 06:32 28.03.2020
5861 Clouds 1 1022 81 0 3.23 347 05:41 28.03.2020
5862 Clear 2 1022 80 0 1.34 317 05:19 28.03.2020
5863 Clear 2 1021 79 0 3.13 313 04:40 28.03.2020
5864 Clear 3 1021 74 0 2.24 331 03:21 28.03.2020
5865 Clear 5 1022 67 0 0.89 319 01:49 28.03.2020
5866 Clear 5 1022 67 0 0.89 290 01:25 28.03.2020
5867 Clear 6 1022 65 0 2.24 323 00:56 28.03.2020
5868 Clear 6 1022 65 0 1.34 343 00:35 28.03.2020
5869 Clear 7 1022 65 0 1.34 306 23:55 27.03.2020
5870 Clear 7 1022 65 0 0.89 316 23:37 27.03.2020
5871 Clear 7 1022 63 0 0.45 292 23:18 27.03.2020
5872 Clear 7 1022 61 0 1.34 355 22:55 27.03.2020
5873 Clear 8 1022 60 0 1.34 320 22:37 27.03.2020
5874 Clear 8 1022 58 0 0.89 326 22:18 27.03.2020
5875 Clear 9 1022 55 0 1.79 359 21:42 27.03.2020
5876 Clear 10 1022 53 0 3.34 43 21:24 27.03.2020
5877 Clear 10 1022 53 0 0.89 345 20:58 27.03.2020
5878 Clear 10 1022 53 0 0.89 345 20:58 27.03.2020
5879 Clear 10 1022 51 0 3.34 43 20:39 27.03.2020
5880 Clouds 11 1022 51 0 3.87 44 20:20 27.03.2020
5881 Clouds 10 1021 49 0 1.34 18 19:57 27.03.2020
5882 Clouds 11 1021 50 0 0.45 19 19:38 27.03.2020
5883 Clouds 12 1021 48 0 3.87 44 19:20 27.03.2020
5884 Clouds 13 1021 45 0 0.45 11 18:44 27.03.2020
5885 Clouds 14 1021 43 0 0.45 84 18:24 27.03.2020
5886 Clouds 14 1021 40 0 2.68 358 17:58 27.03.2020
5887 Clouds 15 1020 38 0 1.79 18 17:39 27.03.2020
5888 Clouds 15 1020 35 0 4.02 52 17:19 27.03.2020
5889 Clouds 16 1021 33 0 3.58 33 16:44 27.03.2020
5890 Clouds 16 1021 33 0 4.47 57 16:25 27.03.2020
5891 Clouds 16 1021 33 0 2.24 359 15:56 27.03.2020
5892 Clouds 16 1021 33 0 3.58 1 15:38 27.03.2020
5893 Clouds 17 1021 34 0 2.24 14 15:19 27.03.2020
5894 Clouds 18 1021 31 0 4.02 359 14:43 27.03.2020
5895 Clouds 14 1020 54 0 5 62 14:24 27.03.2020
5896 Clear 14 1022 52 0 4.94 75 13:55 27.03.2020
5897 Clear 17 1022 29 0 3.58 14 13:36 27.03.2020
5898 Clear 17 1022 30 0 3.13 83 13:18 27.03.2020
5899 Clear 17 1022 31 0 4.02 56 12:43 27.03.2020
5900 Clear 16 1023 32 0 1.79 39 12:19 27.03.2020
5901 Clear 16 1023 33 0 7.15 1 11:57 27.03.2020
5902 Clear 15 1023 33 0 3.13 14 11:39 27.03.2020
5903 Clear 10 1023 64 0 4.61 78 11:21 27.03.2020
5904 Clear 10 1023 64 0 4.61 78 10:54 27.03.2020
5905 Clear 12 1023 41 0 3.13 2 10:36 27.03.2020
5906 Clear 11 1024 44 0 1.79 43 10:18 27.03.2020
5907 Clear 10 1024 46 0 1.79 19 09:54 27.03.2020
5908 Clear 9 1024 47 0 3.58 8 09:36 27.03.2020
5909 Clear 9 1024 47 0 1.34 28 09:18 27.03.2020
5910 Clear 9 1014 47 0 1.34 1 08:54 27.03.2020
5911 Clear 9 1024 43 0 2.68 55 08:36 27.03.2020
5912 Clouds 2 1024 83 0 3.35 63 08:18 27.03.2020
5913 Clear 2 1024 85 0 3.49 62 07:41 27.03.2020
5914 Clear 2 1024 85 0 3.49 62 07:21 27.03.2020
5915 Clear 4 1024 61 0 0.89 22 06:41 27.03.2020
5916 Clear 3 1023 66 0 0.89 8 05:57 27.03.2020
5917 Clear 3 1024 65 0 0.89 8 03:34 27.03.2020
5918 Clouds 3 1024 63 0 1.79 358 02:19 27.03.2020
5919 Clouds 4 1024 60 0 1.79 28 01:19 27.03.2020
5920 Clear 4 1024 59 0 0.89 0 00:43 27.03.2020
5921 Clear 4 1024 60 0 0.45 348 00:20 27.03.2020
5922 Clear 5 1024 58 0 3.62 60 23:42 26.03.2020
5923 Clear 5 1025 57 0 3.73 73 23:19 26.03.2020
5924 Clear 5 1025 56 0 0.89 22 22:57 26.03.2020
5925 Clear 6 1025 56 0 0.89 350 22:36 26.03.2020
5926 Clear 6 1025 56 0 3.73 73 22:18 26.03.2020
5927 Clear 6 1025 54 0 0.45 7 21:40 26.03.2020
5928 Clear 6 1025 53 0 0.89 352 21:22 26.03.2020
5929 Clear 6 1025 50 0 3.73 73 20:59 26.03.2020
5930 Clear 7 1025 49 0 1.79 29 20:40 26.03.2020
5931 Clear 7 1025 48 0 1.79 60 20:22 26.03.2020
5932 Clear 7 1025 46 0 1.79 50 19:58 26.03.2020
5933 Clear 8 1025 45 0 1.79 86 19:40 26.03.2020
5934 Clear 8 1025 44 0 2.24 8 19:22 26.03.2020
5935 Clear 9 1025 43 0 1.34 50 18:59 26.03.2020
5936 Clear 9 1025 41 0 0.89 111 18:41 26.03.2020
5937 Clear 9 1025 41 0 3.13 108 18:23 26.03.2020
5938 Clear 11 1025 39 0 4.02 107 17:45 26.03.2020
5939 Clear 11 1025 37 0 4.47 95 17:20 26.03.2020
5940 Clear 11 1025 37 0 4.47 95 17:20 26.03.2020
5941 Clear 12 1025 34 0 4.92 107 16:59 26.03.2020
5942 Clear 12 1025 33 0 4.02 86 16:38 26.03.2020
5943 Clear 12 1025 32 0 5.36 107 16:20 26.03.2020
5944 Clear 12 1025 32 0 4.02 42 15:56 26.03.2020
5945 Clear 12 1025 31 0 2.24 94 15:38 26.03.2020
5946 Clear 12 1026 31 0 8.49 87 15:19 26.03.2020
5947 Clear 12 1026 30 0 3.13 114 14:43 26.03.2020
5948 Clear 12 1026 32 0 3.58 46 14:25 26.03.2020
5949 Clear 12 1026 32 0 3.58 46 14:25 26.03.2020
5950 Clear 12 1026 32 0 7.6 70 13:59 26.03.2020
5951 Clear 12 1026 31 0 0.45 26 13:40 26.03.2020
5952 Clear 11 1027 31 0 8.94 64 13:21 26.03.2020
5953 Clear 11 1027 31 0 8.94 64 13:21 26.03.2020
5954 Clear 11 1027 32 0 3.13 35 12:54 26.03.2020
5955 Clear 11 1027 32 0 1.79 57 12:36 26.03.2020
5956 Clear 10 1027 34 0 2.24 115 12:18 26.03.2020
5957 Clear 10 1027 35 0 8.05 95 11:43 26.03.2020
5958 Clear 5 1027 63 0 4.8 96 11:19 26.03.2020
5959 Clear 8 1028 40 0 4.47 59 10:42 26.03.2020
5960 Clear 8 1028 39 0 2.24 98 10:42 26.03.2020
5961 Clear 7 1028 42 0 3.13 93 10:20 26.03.2020
5962 Clear 6 1028 45 0 1.34 26 09:55 26.03.2020
5963 Clear 6 1028 44 0 1.79 49 09:55 26.03.2020
5964 Clear 6 1028 45 0 0.89 64 09:37 26.03.2020
5965 Clear 4 1028 47 0 3.13 47 09:19 26.03.2020
5966 Clear 6 1029 40 0 3.58 334 08:42 26.03.2020
5967 Clear 6 1029 40 0 4.8 96 08:24 26.03.2020
5968 Clear -2 1028 90 0 3.56 86 07:57 26.03.2020
5969 Clear -2 1028 90 0 3.56 86 07:38 26.03.2020
5970 Clear -2 1028 90 0 3.56 86 07:19 26.03.2020
5971 Clear 0 1028 62 0 3.56 86 06:35 26.03.2020
5972 Clear -2 1027 66 0 1.79 7 05:51 26.03.2020
5973 Clear -1 1027 63 0 3.27 90 03:47 26.03.2020
5974 Clear -1 1027 62 0 3.27 90 03:26 26.03.2020
5975 Clear 0 1027 59 0 3.27 90 02:52 26.03.2020
5976 Clear 1 1028 54 0 3.77 90 01:19 26.03.2020
5977 Clear 1 1028 52 0 1.79 64 00:33 26.03.2020
5978 Clear 2 1029 48 0 3.77 90 23:44 25.03.2020
5979 Clear 2 1029 48 0 3.77 90 23:26 25.03.2020
5980 Clear 3 1029 45 0 0.45 40 22:56 25.03.2020
5981 Clear 3 1029 44 0 4.52 95 22:38 25.03.2020
5982 Clear 3 1029 43 0 1.34 84 22:19 25.03.2020
5983 Clear 3 1029 43 0 4.52 95 22:19 25.03.2020
5984 Clear 3 1029 42 0 4.52 95 21:54 25.03.2020
5985 Clear 3 1029 41 0 1.79 90 21:36 25.03.2020
5986 Clear 4 1029 41 0 4.52 95 21:18 25.03.2020
5987 Clear 4 1029 38 0 4.52 95 20:39 25.03.2020
5988 Clouds 5 1029 37 0 1.79 23 20:20 25.03.2020
5989 Clouds 2 1029 75 0 4.28 79 19:57 25.03.2020
5990 Clouds 2 1029 75 0 4.28 79 19:38 25.03.2020
5991 Clouds 6 1029 32 0 3.58 47 19:20 25.03.2020
5992 Clouds 7 1028 31 0 2.68 124 18:54 25.03.2020
5993 Clouds 7 1028 31 0 2.24 26 18:36 25.03.2020
5994 Clouds 8 1028 31 0 1.34 87 18:18 25.03.2020
5995 Clouds 9 1028 27 0 1.79 351 17:41 25.03.2020
5996 Clouds 9 1028 26 0 0.45 66 17:22 25.03.2020
5997 Clouds 9 1029 26 0 3.13 93 17:22 25.03.2020
5998 Clouds 9 1029 26 0 2.68 62 16:59 25.03.2020
5999 Clouds 10 1029 25 0 3.58 105 16:39 25.03.2020
6000 Clouds 10 1029 25 0 2.24 71 16:21 25.03.2020
6001 Clouds 10 1029 25 0 2.24 71 16:21 25.03.2020
6002 Clouds 10 1030 24 0 5.81 77 15:44 25.03.2020
6003 Clouds 11 1030 24 0 5.36 66 15:21 25.03.2020
6004 Clouds 11 1030 25 0 1.34 117 14:59 25.03.2020
6005 Clouds 11 1031 25 0 4.02 98 14:40 25.03.2020
6006 Clouds 7 1031 52 0 6.18 100 14:20 25.03.2020
6007 Clouds 10 1031 26 0 4.02 67 13:46 25.03.2020
6008 Clouds 9 1031 27 0 2.68 79 13:25 25.03.2020
6009 Clouds 10 1032 27 0 2.68 45 12:55 25.03.2020
6010 Clouds 9 1032 27 0 2.68 162 12:37 25.03.2020
6011 Clouds 9 1032 28 0 6.26 176 12:18 25.03.2020
6012 Clouds 8 1033 29 0 4.02 107 11:41 25.03.2020
6013 Clouds 7 1033 31 0 4.47 162 11:21 25.03.2020
6014 Clear 6 1033 33 0 7.6 104 10:59 25.03.2020
6015 Clear 6 1033 35 0 6.26 93 10:40 25.03.2020
6016 Clear 5 1033 35 0 6.71 66 10:19 25.03.2020
6017 Clear 5 1033 40 0 5.36 90 09:59 25.03.2020
6018 Clear 4 1033 42 0 2.68 359 09:40 25.03.2020
6019 Clear 4 1033 42 0 1.34 60 09:21 25.03.2020
6020 Clear 4 1033 43 0 0.45 21 08:43 25.03.2020
6021 Clear 6 1034 38 0 2.24 90 08:25 25.03.2020
6022 Clear -2 1033 88 0 3.31 106 07:59 25.03.2020
6023 Clear -1 1028 51 0 3.31 106 07:39 25.03.2020
6024 Clear -1 1028 51 0 3.31 106 07:19 25.03.2020
6025 Clear -2 1028 59 0 3.31 106 06:45 25.03.2020
6026 Clear -2 1033 67 0 3.31 106 06:25 25.03.2020
6027 Clear -3 1033 71 0 3.31 106 05:50 25.03.2020
6028 Clear -4 1033 69 0 2.78 116 04:59 25.03.2020
6029 Clear -3 1033 68 0 2.78 116 04:36 25.03.2020
6030 Clear -3 1034 67 0 2.78 116 03:34 25.03.2020
6031 Clear -2 1034 60 0 3.17 113 01:57 25.03.2020
6032 Clear -2 1034 60 0 3.17 113 01:20 25.03.2020
6033 Clear -2 1034 63 0 1.79 111 00:47 25.03.2020
6034 Clear -2 1034 66 0 3.12 112 00:19 25.03.2020
6035 Clear -1 1034 64 0 3.12 112 23:44 24.03.2020
6036 Clear -1 1035 62 0 3.12 112 23:25 24.03.2020
6037 Clear 0 1035 58 0 3.52 111 22:55 24.03.2020
6038 Clear 0 1035 57 0 3.52 111 22:37 24.03.2020
6039 Clear 0 1035 54 0 3.52 111 22:19 24.03.2020
6040 Clear 0 1035 51 0 3.52 111 21:55 24.03.2020
6041 Clear 1 1035 55 0 3.52 111 21:36 24.03.2020
6042 Clear 1 1035 52 0 3.52 111 21:18 24.03.2020
6043 Clear 1 1034 48 0 3.52 111 20:43 24.03.2020
6044 Clear 2 1034 45 0 0.45 111 20:24 24.03.2020
6045 Clear 3 1034 43 0 0.89 94 19:57 24.03.2020
6046 Clear 4 1034 43 0 1.34 47 19:39 24.03.2020
6047 Clear 5 1034 41 0 1.79 73 19:18 24.03.2020
6048 Clear 5 1034 38 0 2.68 40 18:55 24.03.2020
6049 Clear 5 1034 38 0 2.68 50 18:55 24.03.2020
6050 Clear 5 1034 35 0 2.68 87 18:36 24.03.2020
6051 Clear 6 1034 32 0 1.34 81 18:18 24.03.2020
6052 Clear 7 1034 28 0 3.13 95 17:42 24.03.2020
6053 Clear 8 1034 28 0 3.13 112 17:22 24.03.2020
6054 Clear 8 1034 26 0 3.13 90 16:58 24.03.2020
6055 Clear 8 1034 26 0 2.68 119 16:39 24.03.2020
6056 Clear 8 1035 24 0 2.24 138 16:21 24.03.2020
6057 Clear 8 1035 25 0 1.79 131 15:58 24.03.2020
6058 Clear 8 1035 25 0 3.58 163 15:37 24.03.2020
6059 Clear 8 1035 26 0 5.36 71 15:19 24.03.2020
6060 Clear 8 1035 26 0 4.47 119 14:43 24.03.2020
6061 Clear 9 1036 25 0 6.71 138 14:19 24.03.2020
6062 Clear 9 1036 28 0 3.58 138 13:44 24.03.2020
6063 Clear 9 1037 26 0 4.02 56 13:24 24.03.2020
6064 Clear 8 1037 25 0 1.34 91 12:58 24.03.2020
6065 Clear 8 1037 28 0 6.71 91 12:38 24.03.2020
6066 Clear 8 1037 28 0 6.71 91 12:38 24.03.2020
6067 Clear 7 1038 29 0 3.58 88 12:20 24.03.2020
6068 Clear 7 1038 31 0 3.58 162 11:40 24.03.2020
6069 Clear 5 1038 34 0 4.02 163 11:20 24.03.2020
6070 Clear 5 1038 34 0 5.81 93 10:54 24.03.2020
6071 Clear 5 1038 35 0 4.47 71 10:36 24.03.2020
6072 Clear 5 1039 37 0 4.92 134 10:18 24.03.2020
6073 Clear 4 1038 47 0 1.79 118 09:42 24.03.2020
6074 Clear 4 1038 49 0 2.68 125 09:24 24.03.2020
6075 Clear 3 1033 39 0 3.98 125 08:40 24.03.2020
6076 Clear -1 1039 59 0 1.34 126 08:21 24.03.2020
6077 Clear -1 1038 61 0 1.79 228 07:52 24.03.2020
6078 Clear -2 1038 64 0 1.34 113 07:25 24.03.2020
6079 Clear -4 1033 77 0 3.13 120 06:59 24.03.2020
6080 Clear -4 1037 69 0 0.45 45 06:34 24.03.2020
6081 Clear -4 1037 71 0 3.13 120 05:30 24.03.2020
6082 Clear -4 1037 69 0 3.06 131 04:49 24.03.2020
6083 Clear -3 1036 69 0 3.06 131 03:19 24.03.2020
6084 Clear -3 1036 68 0 3.02 127 02:25 24.03.2020
6085 Clear -2 1037 66 0 2.97 124 00:53 24.03.2020
6086 Clear -2 1037 62 0 2.97 124 00:26 24.03.2020
6087 Clear -2 1037 67 0 2.97 124 23:55 23.03.2020
6088 Clear -2 1037 68 0 2.97 124 23:37 23.03.2020
6089 Clear -2 1037 67 0 2.96 117 23:19 23.03.2020
6090 Clear -1 1037 65 0 2.96 117 22:43 23.03.2020
6091 Clear -1 1037 63 0 2.96 117 22:22 23.03.2020
6092 Clear -1 1037 61 0 2.96 117 21:55 23.03.2020
6093 Clear -1 1037 62 0 2.96 117 21:37 23.03.2020
6094 Clear -1 1037 61 0 2.96 117 21:18 23.03.2020
6095 Clear 0 1032 51 0 2.96 117 20:42 23.03.2020
6096 Clear 1 1037 51 0 3.47 118 20:24 23.03.2020
6097 Clear 1 1037 46 0 0.45 112 19:56 23.03.2020
6098 Clear 2 1037 45 0 3 108 19:37 23.03.2020
6099 Clear 2 1037 43 0 1.34 104 19:19 23.03.2020
6100 Clear 3 1037 43 0 1.79 52 18:54 23.03.2020
6101 Clear 3 1037 44 0 0.45 76 18:36 23.03.2020
6102 Clear 5 1036 39 0 0.89 57 18:18 23.03.2020
6103 Clear 5 1036 34 0 0.89 114 17:41 23.03.2020
6104 Clear 6 1036 34 0 1.34 95 17:20 23.03.2020
6105 Clear 6 1036 30 0 2.24 118 16:55 23.03.2020
6106 Clear 6 1036 28 0 3.58 97 16:36 23.03.2020
6107 Clear 6 1036 29 0 3.13 104 16:18 23.03.2020
6108 Clear 7 1037 30 0 3.58 71 15:40 23.03.2020
6109 Clear 7 1037 29 0 2.68 46 15:19 23.03.2020
6110 Clear 7 1038 31 0 2.68 132 14:38 23.03.2020
6111 Clear 6 1038 31 0 4.02 182 14:19 23.03.2020
6112 Clear 6 1038 31 0 3.58 87 13:57 23.03.2020
6113 Clear 6 1038 32 0 1.34 211 13:38 23.03.2020
6114 Clear 6 1038 30 0 4.02 98 13:38 23.03.2020
6115 Clear 6 1038 31 0 2.24 67 13:20 23.03.2020
6116 Clear 6 1039 33 0 2.24 149 12:44 23.03.2020
6117 Clear 6 1039 32 0 2.24 149 12:25 23.03.2020
6118 Clear 6 1039 32 0 4.47 39 11:58 23.03.2020
6119 Clear 6 1039 34 0 2.24 146 11:38 23.03.2020
6120 Clear 4 1039 34 0 5.36 98 11:19 23.03.2020
6121 Clear 4 1039 35 0 4.02 76 10:56 23.03.2020
6122 Clear 4 1040 36 0 6.26 98 10:37 23.03.2020
6123 Clear 4 1040 37 0 4.47 52 10:19 23.03.2020
6124 Clear 3 1040 44 0 4.47 86 09:44 23.03.2020
6125 Clear 3 1040 47 0 2.24 73 09:21 23.03.2020
6126 Clear 2 1040 50 0 3.58 115 08:56 23.03.2020
6127 Clear 2 1040 39 0 2.68 52 08:36 23.03.2020
6128 Clear -1 1041 58 0 0.89 84 08:18 23.03.2020
6129 Clear -2 1035 65 0 3.13 103 07:42 23.03.2020
6130 Clear -2 1035 69 0 3.13 103 07:21 23.03.2020
6131 Clear -4 1035 75 0 3.13 103 06:49 23.03.2020
6132 Clear -5 1039 73 0 3.13 103 05:51 23.03.2020
6133 Clear -4 1039 73 0 2.77 116 04:58 23.03.2020
6134 Clear -4 1034 66 0 2.77 116 03:26 23.03.2020
6135 Clear -3 1039 66 0 2.89 116 01:51 23.03.2020
6136 Clear -3 1039 67 0 2.89 116 01:32 23.03.2020
6137 Clear -2 1039 63 0 3.1 110 00:36 23.03.2020
6138 Clear -2 1038 55 0 3.1 110 23:47 22.03.2020
6139 Clear -2 1038 53 0 3.1 110 23:26 22.03.2020
6140 Clear -1 1038 53 0 4.13 106 22:45 22.03.2020
6141 Clear -1 1038 49 0 4.13 106 22:24 22.03.2020
6142 Clear 0 1038 53 0 4.13 106 21:56 22.03.2020
6143 Clear 0 1038 50 0 1.34 112 21:37 22.03.2020
6144 Clear 1 1038 49 0 1.34 95 21:19 22.03.2020
6145 Clear 1 1037 56 0 4.13 106 20:46 22.03.2020
6146 Clear 1 1037 55 0 3.95 107 20:25 22.03.2020
6147 Clear 2 1037 47 0 4.68 78 19:58 22.03.2020
6148 Clear 2 1037 44 0 1.34 94 19:40 22.03.2020
6149 Clear 2 1037 45 0 1.34 60 19:40 22.03.2020
6150 Clear 2 1037 44 0 0.45 86 19:20 22.03.2020
6151 Clear 3 1037 42 0 1.34 97 18:59 22.03.2020
6152 Clear 4 1036 40 0 2.24 119 18:41 22.03.2020
6153 Clear 4 1036 39 0 0.89 50 18:22 22.03.2020
6154 Clear 5 1036 38 0 0.89 110 17:59 22.03.2020
6155 Clear 5 1036 34 0 4.02 40 17:39 22.03.2020
6156 Clear 5 1036 34 0 4.02 40 17:39 22.03.2020
6157 Clear 6 1035 32 0 1.79 57 17:21 22.03.2020
6158 Clear 6 1035 32 0 6.04 84 16:59 22.03.2020
6159 Clear 6 1035 31 0 4.47 73 16:41 22.03.2020
6160 Clear 6 1035 33 0 3.13 77 16:21 22.03.2020
6161 Clear 7 1035 32 0 2.68 74 15:58 22.03.2020
6162 Clear 7 1035 31 0 2.24 50 15:39 22.03.2020
6163 Clear 7 1035 30 0 5.36 101 14:47 22.03.2020
6164 Clear 7 1036 33 0 4.02 57 14:19 22.03.2020
6165 Clear 6 1036 33 0 4.92 79 13:58 22.03.2020
6166 Clear 6 1036 34 0 2.24 36 13:40 22.03.2020
6167 Clear 7 1036 36 0 2.68 18 13:19 22.03.2020
6168 Clear 6 1036 40 0 3.58 36 12:44 22.03.2020
6169 Clear 7 1036 40 0 5.81 1 12:21 22.03.2020
6170 Clear 6 1036 44 0 2.68 93 11:58 22.03.2020
6171 Clear 6 1036 46 0 4.02 56 11:39 22.03.2020
6172 Clear 5 1036 46 0 3.58 21 11:20 22.03.2020
6173 Clear 4 1036 48 0 0.89 42 10:43 22.03.2020
6174 Clear 4 1036 49 0 4.92 52 10:24 22.03.2020
6175 Clear 4 1036 51 0 6.26 87 09:59 22.03.2020
6176 Clear 4 1037 53 0 4.47 94 09:40 22.03.2020
6177 Clear 4 1036 55 0 4.02 8 09:19 22.03.2020
6178 Clear 3 1031 57 0 6.3 81 08:42 22.03.2020
6179 Clear 2 1036 67 0 1.79 47 08:23 22.03.2020
6180 Clear 1 1036 70 0 1.34 31 07:50 22.03.2020
6181 Clear 0 1036 72 0 0.89 27 07:22 22.03.2020
6182 Clear -2 1035 80 0 1.34 343 05:57 22.03.2020
6183 Clear -2 1035 81 0 4.87 67 05:31 22.03.2020
6184 Clear -1 1034 80 0 1.34 359 03:25 22.03.2020
6185 Clear 0 1033 75 0 1.79 40 01:26 22.03.2020
6186 Clear 0 1033 73 0 2.68 33 00:47 22.03.2020
6187 Clear 0 1033 73 0 2.68 38 00:25 22.03.2020
6188 Clear 1 1033 72 0 3.13 63 23:42 21.03.2020
6189 Clear 1 1033 71 0 1.79 359 23:19 21.03.2020
6190 Clear 1 1033 71 0 2.68 359 22:55 21.03.2020
6191 Clear 1 1033 70 0 1.34 55 22:36 21.03.2020
6192 Clear 1 1033 69 0 2.68 55 22:18 21.03.2020
6193 Clear 1 1032 66 0 3.58 50 21:41 21.03.2020
6194 Clear 2 1032 65 0 0.89 359 21:23 21.03.2020
6195 Clear 2 1032 61 0 1.34 12 20:59 21.03.2020
6196 Clear 2 1032 61 0 3.58 9 20:41 21.03.2020
6197 Clouds 3 1032 60 0 1.79 11 20:19 21.03.2020
6198 Clouds 3 1031 59 0 0.45 12 19:44 21.03.2020
6199 Clouds 3 1031 60 0 2.24 7 19:25 21.03.2020
6200 Clouds 4 1031 61 0 4.91 52 18:58 21.03.2020
6201 Clouds 4 1031 57 0 1.34 43 18:39 21.03.2020
6202 Clouds 5 1031 53 0 0.89 28 18:20 21.03.2020
6203 Clouds 6 1030 50 0 2.24 35 17:57 21.03.2020
6204 Clouds 7 1030 49 0 6.71 355 17:39 21.03.2020
6205 Clouds 7 1030 47 0 0.89 56 17:20 21.03.2020
6206 Clouds 7 1030 47 0 3.13 9 16:41 21.03.2020
6207 Clouds 7 1030 46 0 8.05 39 16:22 21.03.2020
6208 Clouds 8 1030 40 0 6.26 38 15:57 21.03.2020
6209 Clouds 7 1030 44 0 2.68 49 15:39 21.03.2020
6210 Clouds 7 1030 44 0 2.68 49 15:39 21.03.2020
6211 Clouds 7 1030 42 0 5.36 15 15:20 21.03.2020
6212 Clouds 7 1030 39 0 4.02 127 14:55 21.03.2020
6213 Clouds 7 1030 40 0 5.81 50 14:37 21.03.2020
6214 Clouds 7 1030 40 0 4.47 84 14:18 21.03.2020
6215 Clouds 7 1031 45 0 5.36 50 13:57 21.03.2020
6216 Clouds 6 1031 43 0 4.92 9 13:38 21.03.2020
6217 Clouds 7 1031 48 0 0.89 11 13:19 21.03.2020
6218 Clouds 7 1031 46 0 3.58 320 12:41 21.03.2020
6219 Clouds 7 1031 50 0 3.13 77 12:20 21.03.2020
6220 Clouds 6 1031 50 0 6.26 36 11:59 21.03.2020
6221 Clouds 6 1030 53 0 6.26 4 11:39 21.03.2020
6222 Clear 6 1030 53 0 6.26 4 11:20 21.03.2020
6223 Clear 6 1030 53 0 6.26 4 10:58 21.03.2020
6224 Clear 6 1030 53 0 6.26 4 10:40 21.03.2020
6225 Clear 6 1030 53 0 6.26 4 10:22 21.03.2020
6226 Clear 6 1030 53 0 6.26 4 09:59 21.03.2020
6227 Clear 6 1030 58 0 6.26 35 09:39 21.03.2020
6228 Clear 6 1030 56 0 7.15 359 09:39 21.03.2020
6229 Clear 6 1030 60 0 3.13 26 09:20 21.03.2020
6230 Clear 6 1030 67 0 5.36 4 08:55 21.03.2020
6231 Clear 6 1030 60 0 2.24 46 08:37 21.03.2020
6232 Clouds 4 1030 74 0 2.68 56 08:19 21.03.2020
6233 Clouds 4 1025 86 0 5.45 49 07:39 21.03.2020
6234 Clouds 3 1025 89 0 5.45 49 07:20 21.03.2020
6235 Clouds 3 1029 83 0 4.02 21 06:44 21.03.2020
6236 Clouds 3 1029 87 0 2.24 22 06:25 21.03.2020
6237 Clouds 3 1029 86 0 0.89 36 05:41 21.03.2020
6238 Clouds 3 1028 83 0 4.47 352 04:34 21.03.2020
6239 Clouds 4 1028 79 0 4.47 40 02:38 21.03.2020
6240 Clouds 5 1027 83 0 2.68 359 01:54 21.03.2020
6241 Clouds 5 1027 82 0 2.68 359 01:28 21.03.2020
6242 Clouds 6 1027 81 0 4.47 300 00:43 21.03.2020
6243 Clouds 6 1027 81 0 4.47 300 00:43 21.03.2020
6244 Clouds 6 1027 80 0 4.47 355 00:24 21.03.2020
6245 Clouds 6 1027 79 0 4.02 359 23:45 20.03.2020
6246 Clouds 6 1027 78 0 4.47 340 23:23 20.03.2020
6247 Clouds 6 1027 77 0 3.58 334 22:44 20.03.2020
6248 Clouds 6 1027 76 0 2.68 9 22:25 20.03.2020
6249 Clouds 6 1027 73 0 3.13 306 21:59 20.03.2020
6250 Clouds 6 1027 73 0 4.92 358 21:41 20.03.2020
6251 Clouds 6 1027 71 0 4.92 359 21:20 20.03.2020
6252 Clouds 6 1027 71 0 4.92 359 21:20 20.03.2020
6253 Clouds 6 1027 70 0 4.02 307 20:59 20.03.2020
6254 Clouds 7 1027 69 0 3.58 14 20:41 20.03.2020
6255 Clouds 7 1026 70 0 3.13 359 20:21 20.03.2020
6256 Rain 7 1026 71 0 2.68 18 19:58 20.03.2020
6257 Rain 7 1026 71 0 4.92 359 19:40 20.03.2020
6258 Rain 7 1026 68 0 1.84 55 19:18 20.03.2020
6259 Rain 7 1026 67 0 0.45 341 18:39 20.03.2020
6260 Rain 7 1026 67 0 0.45 341 18:39 20.03.2020
6261 Rain 7 1026 66 0 1.84 55 18:20 20.03.2020
6262 Rain 8 1026 64 0 0.89 18 17:57 20.03.2020
6263 Rain 8 1026 63 0 0.89 23 17:39 20.03.2020
6264 Clouds 8 1026 66 0 1.79 307 17:20 20.03.2020
6265 Clouds 9 1025 69 0 2.24 335 16:43 20.03.2020
6266 Clouds 9 1025 69 0 1.79 4 16:22 20.03.2020
6267 Clouds 9 1025 68 0 0.45 313 15:59 20.03.2020
6268 Clouds 9 1026 74 0 3.98 8 15:41 20.03.2020
6269 Clouds 9 1026 75 0 1.79 358 15:21 20.03.2020
6270 Clouds 9 1026 75 0 0.89 333 14:54 20.03.2020
6271 Clouds 8 1026 77 0 3.13 359 14:36 20.03.2020
6272 Rain 8 1026 73 0 0.89 16 14:18 20.03.2020
6273 Rain 8 1026 73 0 1.79 316 13:40 20.03.2020
6274 Rain 8 1026 77 0 1.34 235 13:19 20.03.2020
6275 Rain 8 1026 79 0 2.24 297 12:39 20.03.2020
6276 Rain 8 1026 84 0 0.45 297 12:20 20.03.2020
6277 Rain 8 1026 85 0 1.34 22 11:57 20.03.2020
6278 Rain 8 1026 85 0 1.79 344 11:38 20.03.2020
6279 Rain 8 1026 86 0 0.45 355 11:19 20.03.2020
6280 Rain 8 1026 89 0 4.38 39 10:41 20.03.2020
6281 Rain 8 1026 90 0 0.89 38 10:21 20.03.2020
6282 Rain 8 1025 91 0 2.68 16 09:57 20.03.2020
6283 Rain 8 1026 91 0 1.34 358 09:39 20.03.2020
6284 Rain 7 1026 91 0 3.58 331 09:19 20.03.2020
6285 Rain 7 1025 92 0 3.13 21 08:42 20.03.2020
6286 Rain 8 1025 92 0 1.79 358 08:22 20.03.2020
6287 Rain 7 1025 92 0 0.89 1 07:54 20.03.2020
6288 Rain 7 1025 92 0 2.68 12 07:36 20.03.2020
6289 Rain 8 1025 91 0 2.68 14 07:18 20.03.2020
6290 Rain 7 1025 87 0 1.34 311 06:41 20.03.2020
6291 Rain 8 1024 83 0 3.96 35 06:41 20.03.2020
6292 Clouds 8 1024 80 0 1.34 297 04:52 20.03.2020
6293 Clouds 8 1025 80 0 3.09 39 03:40 20.03.2020
6294 Clouds 8 1025 80 0 4.02 344 02:20 20.03.2020
6295 Clouds 8 1025 80 0 1.34 354 01:33 20.03.2020
6296 Clouds 8 1025 80 0 0.89 314 00:33 20.03.2020
6297 Clouds 9 1025 82 0 1.79 359 23:49 19.03.2020
6298 Clouds 9 1025 81 0 0.45 345 23:30 19.03.2020
6299 Clouds 9 1025 81 0 2.24 358 22:58 19.03.2020
6300 Clouds 9 1025 81 0 0.89 321 22:38 19.03.2020
6301 Clouds 9 1025 80 0 1.34 317 22:20 19.03.2020
6302 Clouds 9 1025 80 0 0.89 345 21:56 19.03.2020
6303 Clouds 10 1025 80 0 1.34 350 21:37 19.03.2020
6304 Clouds 10 1025 80 0 1.79 300 21:18 19.03.2020
6305 Clouds 10 1025 80 0 0.89 7 20:42 19.03.2020
6306 Clouds 10 1025 80 0 2.68 292 20:23 19.03.2020
6307 Rain 10 1025 79 0 2.24 324 19:57 19.03.2020
6308 Rain 10 1025 78 0 4.02 71 19:38 19.03.2020
6309 Rain 11 1025 77 0 2.24 358 19:20 19.03.2020
6310 Rain 11 1025 75 0 1.34 320 18:56 19.03.2020
6311 Rain 11 1025 74 0 1.79 357 18:38 19.03.2020
6312 Rain 12 1025 73 0 1.34 21 18:19 19.03.2020
6313 Rain 13 1024 72 0 3.58 359 17:42 19.03.2020
6314 Rain 14 1024 69 0 1.34 52 17:19 19.03.2020
6315 Rain 13 1024 68 0 0.45 310 16:55 19.03.2020
6316 Rain 14 1024 67 0 1.79 321 16:37 19.03.2020
6317 Rain 14 1024 66 0 2.68 4 16:19 19.03.2020
6318 Rain 14 1024 65 0 3.13 359 15:41 19.03.2020
6319 Rain 15 1024 63 0 2.68 15 15:22 19.03.2020
6320 Rain 15 1019 66 0 2.52 3 14:43 19.03.2020
6321 Rain 15 1025 50 0 0.89 30 14:21 19.03.2020
6322 Rain 15 1024 55 0 4.17 334 13:56 19.03.2020
6323 Rain 15 1019 65 0 4.17 334 13:37 19.03.2020
6324 Rain 15 1025 54 0 0.89 46 13:18 19.03.2020
6325 Rain 15 1025 48 0 4.02 239 12:40 19.03.2020
6326 Rain 15 1025 61 0 1.34 35 12:22 19.03.2020
6327 Rain 15 1025 50 0 4.02 313 11:57 19.03.2020
6328 Rain 15 1025 52 0 2.68 343 11:38 19.03.2020
6329 Clouds 14 1026 61 0 1.34 30 11:19 19.03.2020
6330 Clouds 15 1026 62 0 0.45 274 10:41 19.03.2020
6331 Clouds 13 1026 66 0 2.54 278 10:20 19.03.2020
6332 Clouds 13 1025 58 0 0.89 46 09:57 19.03.2020
6333 Clouds 12 1025 61 0 2.24 248 09:37 19.03.2020
6334 Clouds 11 1025 65 0 3.13 275 09:18 19.03.2020
6335 Clouds 11 1024 68 0 0.45 149 08:42 19.03.2020
6336 Clouds 9 1024 71 0 0.45 230 08:21 19.03.2020
6337 Clouds 10 1024 76 0 1.34 186 07:46 19.03.2020
6338 Clouds 9 1024 77 0 2.29 266 07:28 19.03.2020
6339 Clouds 10 1024 79 0 2.29 266 06:43 19.03.2020
6340 Clouds 9 1024 79 0 2.29 266 05:49 19.03.2020
6341 Clouds 9 1024 79 0 1.92 246 04:58 19.03.2020
6342 Clouds 10 1024 79 0 1.92 246 04:40 19.03.2020
6343 Clouds 9 1024 82 0 1.92 246 02:50 19.03.2020
6344 Clear 9 1024 79 0 2.49 245 01:25 19.03.2020
6345 Clear 7 1024 79 0 0.45 158 00:32 19.03.2020
6346 Clear 7 1024 78 0 2.59 240 23:57 18.03.2020
6347 Clear 7 1024 77 0 2.59 240 23:31 18.03.2020
6348 Clear 7 1024 78 0 1.79 248 22:58 18.03.2020
6349 Clear 7 1024 77 0 2.52 245 22:40 18.03.2020
6350 Clear 8 1024 75 0 1.34 153 22:21 18.03.2020
6351 Clear 8 1024 74 0 2.52 245 21:54 18.03.2020
6352 Clear 9 1024 72 0 2.52 245 21:36 18.03.2020
6353 Clear 9 1024 70 0 2.52 245 21:18 18.03.2020
6354 Clear 10 1024 67 0 0.89 153 20:41 18.03.2020
6355 Clear 10 1024 65 0 2.65 238 20:21 18.03.2020
6356 Clouds 11 1024 63 0 2.62 281 19:59 18.03.2020
6357 Clouds 12 1024 62 0 2.62 281 19:40 18.03.2020
6358 Clouds 12 1024 62 0 0.45 179 19:21 18.03.2020
6359 Clouds 13 1024 60 0 2.62 281 18:56 18.03.2020
6360 Clouds 14 1023 59 0 2.62 281 18:37 18.03.2020
6361 Clouds 15 1023 54 0 2.62 281 18:18 18.03.2020
6362 Clouds 16 1023 46 0 0.45 289 17:41 18.03.2020
6363 Clouds 17 1023 43 0 0.45 211 17:22 18.03.2020
6364 Clouds 17 1023 41 0 4.02 237 16:59 18.03.2020
6365 Clouds 17 1023 41 0 4.02 237 16:59 18.03.2020
6366 Clouds 17 1023 40 0 1.34 306 16:40 18.03.2020
6367 Clouds 17 1023 38 0 1.34 292 16:20 18.03.2020
6368 Clouds 17 1024 37 0 2.24 182 15:56 18.03.2020
6369 Clouds 18 1024 35 0 1.79 0 15:37 18.03.2020
6370 Clouds 18 1024 34 0 2.68 241 15:18 18.03.2020
6371 Clouds 17 1024 30 0 0.89 160 14:42 18.03.2020
6372 Clouds 17 1025 30 0 4.47 293 14:21 18.03.2020
6373 Clouds 17 1025 33 0 2.24 256 13:40 18.03.2020
6374 Clouds 16 1025 38 0 0.89 234 13:19 18.03.2020
6375 Clouds 17 1026 38 0 1.79 196 12:43 18.03.2020
6376 Clouds 16 1026 38 0 2.24 239 12:21 18.03.2020
6377 Clouds 16 1026 42 0 1.34 272 11:59 18.03.2020
6378 Clouds 16 1026 47 0 1.79 182 11:37 18.03.2020
6379 Clouds 16 1026 47 0 1.79 182 11:37 18.03.2020
6380 Clouds 14 1026 45 0 4.16 238 11:18 18.03.2020
6381 Clouds 14 1026 45 0 2.24 227 10:56 18.03.2020
6382 Clouds 14 1026 44 0 1.79 186 10:56 18.03.2020
6383 Clouds 14 1026 48 0 3.13 143 10:36 18.03.2020
6384 Clouds 14 1026 51 0 4.16 238 10:18 18.03.2020
6385 Clouds 12 1027 59 0 2.24 132 09:42 18.03.2020
6386 Clouds 11 1027 61 0 0.89 166 09:23 18.03.2020
6387 Clouds 9 1027 66 0 1.79 128 08:55 18.03.2020
6388 Clouds 9 1027 69 0 0.89 160 08:36 18.03.2020
6389 Clouds 8 1027 69 0 0.89 248 08:18 18.03.2020
6390 Clouds 6 1027 69 0 0.89 131 07:40 18.03.2020
6391 Clouds 6 1027 67 0 0.89 103 07:22 18.03.2020
6392 Clouds 5 1027 78 0 0.89 193 06:42 18.03.2020
6393 Clouds 4 1027 80 0 3.6 221 05:47 18.03.2020
6394 Clouds 4 1027 79 0 2.71 210 05:19 18.03.2020
6395 Clouds 4 1027 81 0 2.71 210 03:53 18.03.2020
6396 Clouds 5 1027 79 0 2.71 210 02:37 18.03.2020
6397 Clouds 6 1027 79 0 2.39 219 01:46 18.03.2020
6398 Clouds 6 1027 78 0 2.39 219 01:21 18.03.2020
6399 Clouds 6 1028 76 0 0.89 196 00:23 18.03.2020
6400 Clouds 7 1028 75 0 2.42 220 23:47 17.03.2020
6401 Clouds 7 1028 74 0 2.42 220 23:26 17.03.2020
6402 Clouds 8 1028 72 0 0.45 200 22:47 17.03.2020
6403 Clouds 8 1028 71 0 2.58 217 22:29 17.03.2020
6404 Clouds 9 1028 68 0 2.58 217 21:59 17.03.2020
6405 Clouds 9 1028 67 0 0.89 151 21:39 17.03.2020
6406 Clouds 9 1028 65 0 2.45 228 21:20 17.03.2020
6407 Clouds 10 1028 65 0 2.58 217 20:39 17.03.2020
6408 Clouds 10 1028 65 0 0.89 167 20:21 17.03.2020
6409 Clouds 10 1028 64 0 2.22 287 19:56 17.03.2020
6410 Clouds 10 1028 64 0 2.22 287 19:38 17.03.2020
6411 Clouds 11 1028 60 0 2.22 287 19:18 17.03.2020
6412 Clouds 11 1027 56 0 2.22 287 18:55 17.03.2020
6413 Clouds 12 1027 55 0 2.22 287 18:37 17.03.2020
6414 Clouds 12 1027 53 0 2.22 287 18:19 17.03.2020
6415 Clouds 14 1027 45 0 2.22 287 17:40 17.03.2020
6416 Clouds 14 1027 40 0 0.89 278 17:21 17.03.2020
6417 Clouds 14 1027 37 0 1.34 276 16:54 17.03.2020
6418 Clouds 15 1027 38 0 1.79 320 16:36 17.03.2020
6419 Clouds 15 1027 35 0 3.13 273 16:18 17.03.2020
6420 Clouds 15 1028 35 0 1.34 262 15:41 17.03.2020
6421 Clouds 15 1028 39 0 1.34 230 15:19 17.03.2020
6422 Clouds 15 1028 41 0 2.24 234 14:42 17.03.2020
6423 Clouds 15 1028 38 0 2.68 249 14:21 17.03.2020
6424 Clouds 15 1028 44 0 1.79 237 13:44 17.03.2020
6425 Clouds 15 1028 45 0 2.68 289 13:26 17.03.2020
6426 Clouds 15 1028 49 0 2.24 224 12:58 17.03.2020
6427 Clouds 14 1028 49 0 4.02 242 12:40 17.03.2020
6428 Clouds 14 1028 50 0 2.68 293 12:21 17.03.2020
6429 Clouds 13 1028 58 0 2.24 261 11:46 17.03.2020
6430 Clouds 12 1028 61 0 3.13 302 11:27 17.03.2020
6431 Clouds 11 1028 63 0 2.68 273 10:58 17.03.2020
6432 Clouds 10 1011 77 0 4.25 293 10:38 17.03.2020
6433 Clouds 9 1011 77 0 4.25 293 10:20 17.03.2020
6434 Clouds 9 1011 77 0 4.25 293 09:57 17.03.2020
6435 Clouds 9 1011 77 0 4.25 293 09:39 17.03.2020
6436 Clouds 10 1011 77 0 4.25 293 09:18 17.03.2020
6437 Clouds 9 1011 77 0 4.25 293 08:43 17.03.2020
6438 Rain 8 1027 86 0 1.08 245 08:21 17.03.2020
6439 Rain 7 1027 86 0 1.08 245 07:50 17.03.2020
6440 Rain 7 1026 86 0 1.08 245 07:26 17.03.2020
6441 Rain 7 1026 85 0 1.08 245 06:58 17.03.2020
6442 Rain 7 1026 84 0 1.08 245 06:33 17.03.2020
6443 Rain 6 1025 83 0 1.08 245 05:49 17.03.2020
6444 Clouds 6 1025 83 0 0.55 272 03:40 17.03.2020
6445 Clouds 5 1024 86 0 0.55 272 02:46 17.03.2020
6446 Clouds 5 1024 86 0 0.94 232 01:43 17.03.2020
6447 Clouds 5 1024 86 0 0.45 180 01:24 17.03.2020
6448 Clouds 5 1024 84 0 0.72 246 00:38 17.03.2020
6449 Clouds 6 1024 84 0 0.45 208 23:45 16.03.2020
6450 Clouds 6 1024 83 0 0.45 189 23:27 16.03.2020
6451 Clouds 7 1024 81 0 1.24 298 22:41 16.03.2020
6452 Clouds 7 1024 81 0 1.24 298 22:23 16.03.2020
6453 Clouds 7 1024 80 0 1.24 298 21:58 16.03.2020
6454 Clouds 8 1023 79 0 0.89 213 21:40 16.03.2020
6455 Clouds 8 1023 78 0 0.89 189 21:21 16.03.2020
6456 Clouds 8 1023 78 0 1.24 298 20:56 16.03.2020
6457 Clouds 9 1023 76 0 1.24 298 20:37 16.03.2020
6458 Clouds 9 1023 75 0 0.89 199 20:19 16.03.2020
6459 Clouds 10 1022 72 0 2.12 330 19:41 16.03.2020
6460 Clouds 11 1022 69 0 2.12 330 19:21 16.03.2020
6461 Clouds 12 1022 67 0 2.12 330 18:56 16.03.2020
6462 Clouds 13 1021 64 0 2.12 330 18:37 16.03.2020
6463 Clouds 14 1021 61 0 2.12 330 18:18 16.03.2020
6464 Clouds 15 1020 53 0 1.34 293 17:42 16.03.2020
6465 Clouds 16 1020 49 0 0.89 26 17:22 16.03.2020
6466 Clouds 16 1020 46 0 3.13 256 16:46 16.03.2020
6467 Clouds 16 1020 43 0 4.02 265 16:27 16.03.2020
6468 Clouds 17 1020 42 0 3.52 299 15:56 16.03.2020
6469 Clouds 17 1020 39 0 3.13 272 15:37 16.03.2020
6470 Clouds 17 1020 40 0 2.68 244 15:18 16.03.2020
6471 Clouds 17 1019 38 0 2.68 247 14:42 16.03.2020
6472 Clouds 17 1019 37 0 2.24 309 14:19 16.03.2020
6473 Clouds 17 1019 39 0 0.89 215 13:42 16.03.2020
6474 Clouds 16 1019 40 0 0.45 176 13:23 16.03.2020
6475 Clouds 16 1019 41 0 1.79 208 12:46 16.03.2020
6476 Clouds 16 1019 40 0 1.34 285 12:26 16.03.2020
6477 Clouds 16 1019 43 0 1.34 290 11:59 16.03.2020
6478 Clouds 15 1019 45 0 1.79 302 11:41 16.03.2020
6479 Clouds 14 1018 47 0 1.79 258 11:18 16.03.2020
6480 Clouds 13 1018 50 0 0.45 234 10:42 16.03.2020
6481 Clouds 12 1018 53 0 0.89 179 10:24 16.03.2020
6482 Clouds 11 1018 59 0 1.34 145 09:45 16.03.2020
6483 Clouds 10 1018 60 0 0.89 232 09:27 16.03.2020
6484 Clouds 9 1017 59 0 2.39 259 08:56 16.03.2020
6485 Clouds 6 1012 64 0 2.78 201 08:26 16.03.2020
6486 Clouds 4 1012 72 0 2.78 201 07:50 16.03.2020
6487 Clouds 3 1016 64 0 0.89 141 07:28 16.03.2020
6488 Clouds 2 1017 75 0 2.78 201 06:54 16.03.2020
6489 Clouds 2 1017 75 0 2.78 201 06:54 16.03.2020
6490 Clouds 2 1016 77 0 2.78 201 06:27 16.03.2020
6491 Clouds 2 1016 75 0 2.78 201 05:54 16.03.2020
6492 Clouds 3 1015 68 0 1.34 152 02:46 16.03.2020
6493 Clouds 4 1015 68 0 1.79 143 01:20 16.03.2020
6494 Clouds 4 1015 69 0 1.34 127 00:42 16.03.2020
6495 Clouds 4 1015 70 0 0.89 139 23:49 15.03.2020
6496 Clouds 4 1015 70 0 0.89 127 23:21 15.03.2020
6497 Clouds 5 1015 70 0 0.89 167 22:58 15.03.2020
6498 Clouds 6 1015 69 0 0.89 114 22:37 15.03.2020
6499 Clouds 6 1015 68 0 0.89 176 22:19 15.03.2020
6500 Clouds 6 1015 67 0 0.89 179 21:39 15.03.2020
6501 Clouds 6 1015 65 0 3.7 181 21:19 15.03.2020
6502 Clouds 7 1015 61 0 1.34 122 20:44 15.03.2020
6503 Clouds 7 1015 60 0 3.58 136 20:22 15.03.2020
6504 Clouds 8 1015 59 0 2.68 134 19:59 15.03.2020
6505 Clouds 8 1015 59 0 1.79 128 19:41 15.03.2020
6506 Clouds 9 1015 57 0 1.34 117 19:23 15.03.2020
6507 Clouds 9 1015 57 0 0.45 117 18:58 15.03.2020
6508 Clouds 10 1015 55 0 2.68 128 18:39 15.03.2020
6509 Clouds 10 1015 55 0 1.79 165 18:21 15.03.2020
6510 Clouds 11 1015 52 0 4.92 139 17:54 15.03.2020
6511 Clouds 12 1015 49 0 1.34 146 17:36 15.03.2020
6512 Clouds 13 1015 45 0 1.79 125 17:18 15.03.2020
6513 Clouds 13 1015 40 0 4.02 175 16:42 15.03.2020
6514 Clouds 14 1015 40 0 3.58 160 16:24 15.03.2020
6515 Clouds 14 1016 41 0 4.02 208 15:58 15.03.2020
6516 Clouds 13 1018 32 0 2.68 352 15:40 15.03.2020
6517 Clouds 13 1017 42 0 2.24 184 15:19 15.03.2020
6518 Clouds 13 1017 42 0 4.92 138 14:46 15.03.2020
6519 Clouds 13 1017 44 0 3.13 158 14:24 15.03.2020
6520 Clouds 13 1019 42 0 3.58 178 13:58 15.03.2020
6521 Clouds 13 1019 42 0 3.13 212 13:38 15.03.2020
6522 Clouds 13 1019 42 0 3.13 212 13:38 15.03.2020
6523 Clouds 13 1019 42 0 3.13 212 13:38 15.03.2020
6524 Clouds 13 1018 42 0 7.6 193 13:20 15.03.2020
6525 Clouds 13 1019 44 0 2.68 175 12:44 15.03.2020
6526 Clouds 13 1019 46 0 6.71 153 12:26 15.03.2020
6527 Clouds 12 1019 48 0 3.13 152 11:57 15.03.2020
6528 Clouds 12 1020 49 0 6.71 156 11:39 15.03.2020
6529 Clouds 10 1021 51 0 3.58 217 11:20 15.03.2020
6530 Clouds 10 1020 55 0 3.58 167 10:56 15.03.2020
6531 Clouds 10 1020 56 0 6.26 91 10:36 15.03.2020
6532 Clouds 10 1020 56 0 3.13 127 10:18 15.03.2020
6533 Clouds 8 1020 62 0 3.58 160 09:40 15.03.2020
6534 Clouds 7 1020 62 0 3.58 64 09:21 15.03.2020
6535 Clouds 6 1020 60 0 3.13 153 08:42 15.03.2020
6536 Clouds 4 1015 67 0 4.85 171 08:20 15.03.2020
6537 Clouds 3 1015 71 0 4.85 171 07:51 15.03.2020
6538 Clouds 2 1015 74 0 4.85 171 07:31 15.03.2020
6539 Clouds 1 1021 75 0 4.85 171 06:53 15.03.2020
6540 Clouds 1 1022 84 0 3.58 155 05:50 15.03.2020
6541 Clouds 0 1022 83 0 4.47 186 05:19 15.03.2020
6542 Clouds 0 1022 84 0 5.81 165 04:43 15.03.2020
6543 Clouds 0 1022 84 0 3.58 128 04:24 15.03.2020
6544 Clouds 0 1023 84 0 1.79 135 03:48 15.03.2020
6545 Clouds 0 1023 82 0 1.34 122 02:44 15.03.2020
6546 Clear 0 1023 79 0 0.45 159 01:35 15.03.2020
6547 Clear 1 1023 75 0 4.02 112 00:46 15.03.2020
6548 Clear 1 1024 74 0 1.79 149 00:27 15.03.2020
6549 Clear 1 1024 73 0 3.58 103 23:56 14.03.2020
6550 Clear 1 1024 73 0 2.68 158 23:37 14.03.2020
6551 Clear 1 1024 73 0 3.58 100 23:18 14.03.2020
6552 Clear 2 1024 72 0 3.58 131 22:44 14.03.2020
6553 Clear 1 1024 73 0 1.34 155 22:26 14.03.2020
6554 Clear 2 1025 73 0 0.89 132 21:57 14.03.2020
6555 Clear 2 1025 72 0 0.45 59 21:36 14.03.2020
6556 Clear 2 1024 71 0 1.79 146 21:18 14.03.2020
6557 Clear 3 1025 72 0 3.13 138 20:59 14.03.2020
6558 Clear 3 1025 72 0 0.89 115 20:40 14.03.2020
6559 Clouds 3 1025 69 0 0.89 107 20:19 14.03.2020
6560 Clouds 3 1025 68 0 1.34 119 19:56 14.03.2020
6561 Clouds 4 1025 68 0 1.34 155 19:38 14.03.2020
6562 Clouds 4 1025 67 0 0.45 31 19:19 14.03.2020
6563 Clouds 5 1024 64 0 4.17 125 18:37 14.03.2020
6564 Clouds 6 1024 62 0 4.17 125 18:19 14.03.2020
6565 Clouds 6 1024 62 0 4.17 125 18:19 14.03.2020
6566 Clouds 8 1024 56 0 1.34 118 17:39 14.03.2020
6567 -273 0 0 0 0 0 17:21 14.03.2020
6568 Clouds 9 1024 51 0 1.79 127 16:41 14.03.2020
6569 Clouds 9 1024 49 0 2.68 179 16:23 14.03.2020
6570 Clouds 9 1024 47 0 3.13 199 15:59 14.03.2020
6571 Clouds 9 1025 48 0 0.45 158 15:27 14.03.2020
6572 Clouds 9 1025 47 0 3.58 87 14:59 14.03.2020
6573 Clouds 9 1025 46 0 2.24 177 14:38 14.03.2020
6574 Clear 8 1025 49 0 1.34 102 14:20 14.03.2020
6575 Clear 9 1025 49 0 2.24 84 13:56 14.03.2020
6576 Clear 8 1025 49 0 4.92 131 13:38 14.03.2020
6577 Clear 8 1025 52 0 4.02 90 13:19 14.03.2020
6578 Clear 8 1025 52 0 4.47 105 12:43 14.03.2020
6579 Clear 7 1026 50 0 4.02 112 12:25 14.03.2020
6580 Clear 8 1026 59 0 0.45 79 11:44 14.03.2020
6581 Clear 6 1026 65 0 1.34 193 11:25 14.03.2020
6582 Clear 6 1026 67 0 1.79 135 10:54 14.03.2020
6583 Clear 6 1026 67 0 0.89 172 10:36 14.03.2020
6584 Clear 6 1026 71 0 2.94 136 10:18 14.03.2020
6585 Clear 5 1026 74 0 2.24 153 09:41 14.03.2020
6586 Clear 6 1026 73 0 3.13 86 09:22 14.03.2020
6587 Clear 4 1025 70 0 1.34 160 08:47 14.03.2020
6588 Clear 1 1025 88 0 0.45 97 08:27 14.03.2020
6589 Clear 0 1019 98 0 0.45 97 07:48 14.03.2020
6590 Clear -1 1019 10 0 0.45 97 07:23 14.03.2020
6591 Clear -2 1018 10 0 0.45 97 06:59 14.03.2020
6592 Clear -2 1023 90 0 0.45 97 06:39 14.03.2020
6593 Clear -1 1023 89 0 2.18 301 05:19 14.03.2020
6594 Clear 1 1022 85 0 0.45 204 03:42 14.03.2020
6595 Clear 1 1022 85 0 0.89 225 03:23 14.03.2020
6596 Clouds 2 1022 86 0 3.18 292 02:20 14.03.2020
6597 Clouds 3 1021 84 0 0.45 306 00:42 14.03.2020
6598 Clouds 4 1021 80 0 4.02 282 23:45 13.03.2020
6599 Clouds 4 1021 80 0 3.58 283 23:27 13.03.2020
6600 Clouds 5 1020 77 0 1.34 299 22:49 13.03.2020
6601 Clouds 5 1020 75 0 3.58 289 22:26 13.03.2020
6602 Clouds 5 1019 80 0 6.26 289 21:44 13.03.2020
6603 Clouds 5 1018 87 0 4.79 300 21:21 13.03.2020
6604 Clouds 5 1018 88 0 4.79 300 20:58 13.03.2020
6605 Clouds 6 1018 90 0 0.45 220 20:39 13.03.2020
6606 Clouds 6 1018 88 0 0.89 302 20:20 13.03.2020
6607 Clouds 6 1017 86 0 1.79 211 19:47 13.03.2020
6608 Clouds 6 1017 87 0 1.34 242 19:28 13.03.2020
6609 Clouds 6 1016 87 0 0.89 303 18:47 13.03.2020
6610 Clouds 7 1016 89 0 4.02 220 18:29 13.03.2020
6611 Clouds 7 1015 85 0 1.34 254 17:57 13.03.2020
6612 Clouds 8 1015 83 0 1.79 311 17:38 13.03.2020
6613 Rain 8 1015 80 0 2.68 306 17:20 13.03.2020
6614 Rain 8 1014 77 0 2.68 273 16:42 13.03.2020
6615 Rain 8 1014 78 0 5.81 316 16:24 13.03.2020
6616 Rain 8 1014 82 0 3.58 242 15:58 13.03.2020
6617 Rain 8 1014 82 0 4.02 278 15:38 13.03.2020
6618 Rain 8 1014 82 0 2.68 227 15:20 13.03.2020
6619 Rain 9 1014 85 0 5.36 278 14:41 13.03.2020
6620 Rain 9 1013 71 0 4.47 210 14:22 13.03.2020
6621 Rain 9 1006 83 0 13.04 272 13:57 13.03.2020
6622 Rain 9 1006 75 0 13.04 272 13:39 13.03.2020
6623 Rain 9 1013 59 0 5.36 352 13:19 13.03.2020
6624 Rain 9 1012 59 0 5.36 324 12:55 13.03.2020
6625 Rain 9 1012 59 0 4.47 303 12:36 13.03.2020
6626 Rain 10 1011 57 0 6.26 280 12:18 13.03.2020
6627 Rain 9 1011 60 0 4.92 262 11:42 13.03.2020
6628 Rain 9 1011 61 0 6.26 210 11:24 13.03.2020
6629 Clouds 9 1011 64 0 8.94 207 10:57 13.03.2020
6630 Clouds 9 1011 70 0 1.34 333 10:39 13.03.2020
6631 Clouds 9 1011 68 0 3.13 317 10:21 13.03.2020
6632 Clouds 9 1010 57 0 5.36 183 09:44 13.03.2020
6633 Clouds 8 1010 59 0 10.73 223 09:25 13.03.2020
6634 Clouds 7 1010 67 0 1.34 151 08:47 13.03.2020
6635 Clear 6 1010 73 0 0.89 234 08:23 13.03.2020
6636 Clear 6 1010 74 0 1.79 117 07:58 13.03.2020
6637 Clear 6 1010 76 0 1.34 172 07:38 13.03.2020
6638 Clear 5 1010 79 0 1.34 42 07:19 13.03.2020
6639 Clear 5 1010 80 0 1.34 186 06:44 13.03.2020
6640 Clear 5 1010 81 0 2.68 200 06:44 13.03.2020
6641 Clear 5 1010 80 0 0.45 194 05:56 13.03.2020
6642 Clear 5 1010 78 0 0.89 203 05:37 13.03.2020
6643 Clear 4 1010 85 0 4.54 235 04:38 13.03.2020
6644 Clear 3 1010 82 0 4.54 235 03:50 13.03.2020
6645 Clouds 4 1010 79 0 4.02 237 01:48 13.03.2020
6646 Clouds 4 1010 81 0 0.89 193 01:19 13.03.2020
6647 Clouds 4 1010 82 0 0.45 11 00:56 13.03.2020
6648 Clouds 4 1010 82 0 4.88 240 00:38 13.03.2020
6649 Clouds 4 1010 81 0 4.88 240 00:18 13.03.2020
6650 Clouds 5 1010 80 0 4.88 240 23:37 12.03.2020
6651 Clouds 5 1011 80 0 1.34 258 23:18 12.03.2020
6652 Clouds 6 1011 78 0 0.89 244 22:41 12.03.2020
6653 Clouds 5 1010 76 0 3.13 228 22:23 12.03.2020
6654 Clouds 5 1010 68 0 2.68 293 21:54 12.03.2020
6655 Clouds 5 1010 67 0 1.79 273 21:36 12.03.2020
6656 Clouds 4 1009 68 0 5.4 251 21:18 12.03.2020
6657 Clouds 5 1009 70 0 0.89 221 20:42 12.03.2020
6658 Clear 5 1009 68 0 3.87 237 20:20 12.03.2020
6659 Clear 6 1009 66 0 3.87 237 19:42 12.03.2020
6660 Clear 6 1009 63 0 3.87 237 19:21 12.03.2020
6661 Clear 7 1009 60 0 3.87 237 18:58 12.03.2020
6662 Clear 8 1010 54 0 0.89 237 18:39 12.03.2020
6663 Clear 9 1010 50 0 1.34 259 18:21 12.03.2020
6664 Clear 10 1009 41 0 3.13 280 17:41 12.03.2020
6665 Clear 11 1009 41 0 3.13 280 17:22 12.03.2020
6666 Clear 10 1009 42 0 5.36 208 16:58 12.03.2020
6667 Clear 11 1009 40 0 4.02 237 16:40 12.03.2020
6668 Clear 11 1009 40 0 6.26 272 16:21 12.03.2020
6669 Clear 11 1009 36 0 6.26 300 15:48 12.03.2020
6670 Clear 11 1009 36 0 7.6 275 15:28 12.03.2020
6671 Clear 11 1009 36 0 7.6 275 15:28 12.03.2020
6672 Clear 11 1009 38 0 4.02 255 14:55 12.03.2020
6673 Clear 11 1009 39 0 6.71 276 14:37 12.03.2020
6674 Rain 11 1009 37 0 4.92 292 14:18 12.03.2020
6675 Rain 11 1008 37 0 9.39 287 13:38 12.03.2020
6676 Rain 11 1008 45 0 6.26 249 13:20 12.03.2020
6677 Rain 11 1008 48 0 6.71 290 12:55 12.03.2020
6678 Rain 11 1008 49 0 6.26 302 12:37 12.03.2020
6679 Rain 11 1008 49 0 12.52 280 12:18 12.03.2020
6680 Rain 11 1007 50 0 5.81 313 11:55 12.03.2020
6681 Rain 11 1006 50 0 3.58 211 11:36 12.03.2020
6682 Rain 11 1006 55 0 7.15 276 11:18 12.03.2020
6683 Rain 12 1005 66 0 3.13 323 10:43 12.03.2020
6684 Rain 11 1005 67 0 5.36 304 10:23 12.03.2020
6685 Rain 11 1004 66 0 6.71 197 09:59 12.03.2020
6686 Rain 13 1004 72 0 4.47 263 09:40 12.03.2020
6687 Rain 13 1004 77 0 8.94 251 09:22 12.03.2020
6688 Rain 12 1004 83 0 7.6 189 08:39 12.03.2020
6689 Clouds 12 1004 79 0 4.92 287 08:18 12.03.2020
6690 Clouds 12 1002 70 0 3.13 38 07:47 12.03.2020
6691 Clouds 13 1002 71 0 2.24 107 07:22 12.03.2020
6692 Clouds 12 1003 75 0 1.79 204 06:26 12.03.2020
6693 Clouds 13 1003 77 0 2.68 108 05:35 12.03.2020
6694 Clouds 12 1005 81 0 2.68 223 03:45 12.03.2020
6695 Clouds 12 1006 85 0 4.02 136 02:21 12.03.2020
6696 Rain 11 1007 88 0 4.47 136 01:29 12.03.2020
6697 Clouds 11 1008 87 0 0.89 81 00:42 12.03.2020
6698 Clouds 11 1008 84 0 2.24 100 23:59 11.03.2020
6699 Clouds 11 1008 84 0 3.58 107 23:40 11.03.2020
6700 Clouds 10 1009 84 0 2.24 74 23:22 11.03.2020
6701 Clouds 10 1009 85 0 4.67 210 22:45 11.03.2020
6702 Clouds 10 1009 85 0 2.24 166 22:25 11.03.2020
6703 Clouds 10 1010 84 0 1.34 129 21:58 11.03.2020
6704 Clouds 10 1010 84 0 1.79 191 21:40 11.03.2020
6705 Clouds 10 1010 84 0 3.58 199 21:22 11.03.2020
6706 Clouds 10 1011 82 0 0.89 231 20:58 11.03.2020
6707 Clouds 10 1011 80 0 2.24 183 20:39 11.03.2020
6708 Rain 10 1011 80 0 0.89 119 20:19 11.03.2020
6709 Rain 10 1011 81 0 1.79 173 19:43 11.03.2020
6710 Rain 10 1006 83 0 2.87 230 19:25 11.03.2020
6711 Rain 10 1011 80 0 2.87 230 18:58 11.03.2020
6712 Rain 10 1011 80 0 2.87 230 18:39 11.03.2020
6713 Rain 11 1011 80 0 0.89 129 18:21 11.03.2020
6714 Rain 11 1011 77 0 0.89 239 17:57 11.03.2020
6715 Rain 12 1011 73 0 2.87 230 17:39 11.03.2020
6716 Clouds 12 1011 70 0 2.24 196 17:20 11.03.2020
6717 Clouds 13 1011 64 0 3.13 170 16:46 11.03.2020
6718 Clouds 13 1011 63 0 3.58 183 16:22 11.03.2020
6719 Clouds 13 1011 59 0 5.81 259 15:46 11.03.2020
6720 Clouds 13 1012 62 0 1.34 307 15:24 11.03.2020
6721 Clouds 13 1012 61 0 4.02 255 14:59 11.03.2020
6722 Clouds 13 1012 62 0 2.68 327 14:41 11.03.2020
6723 Clouds 14 1012 58 0 4.47 207 14:22 11.03.2020
6724 Clouds 13 1012 59 0 5.81 299 13:45 11.03.2020
6725 Clouds 13 1011 58 0 2.68 211 13:27 11.03.2020
6726 Clouds 14 1011 54 0 7.15 259 12:58 11.03.2020
6727 Clouds 13 1011 57 0 4.47 266 12:40 11.03.2020
6728 Clouds 13 1011 57 0 3.58 271 12:19 11.03.2020
6729 Clouds 13 1011 58 0 6.71 170 11:55 11.03.2020
6730 Clouds 12 1011 59 0 3.58 231 11:36 11.03.2020
6731 Clouds 11 1011 63 0 1.34 172 11:18 11.03.2020
6732 Clouds 11 1011 66 0 2.24 214 10:42 11.03.2020
6733 Clouds 11 1010 69 0 2.24 319 10:18 11.03.2020
6734 Clouds 10 1010 72 0 4.47 206 09:43 11.03.2020
6735 Clouds 10 1010 73 0 1.34 237 09:25 11.03.2020
6736 Clouds 10 1010 75 0 2.68 215 08:58 11.03.2020
6737 Clouds 9 1009 82 0 0.89 231 08:39 11.03.2020
6738 Rain 9 1009 82 0 0.89 231 08:18 11.03.2020
6739 Rain 9 1009 82 0 5.81 237 07:42 11.03.2020
6740 Rain 9 1008 82 0 2.24 256 07:19 11.03.2020
6741 Rain 9 1008 77 0 2.24 237 06:43 11.03.2020
6742 Rain 9 1007 86 0 3.13 238 05:36 11.03.2020
6743 Rain 9 1006 87 0 1.34 191 04:29 11.03.2020
6744 Rain 9 1004 86 0 3.58 302 02:20 11.03.2020
6745 Rain 10 1003 91 0 3.58 295 01:27 11.03.2020
6746 Rain 11 1002 83 0 6.26 297 00:46 11.03.2020
6747 Rain 11 1001 83 0 2.68 293 00:18 11.03.2020
6748 Rain 12 1001 84 0 5.36 261 23:40 10.03.2020
6749 Rain 11 1001 83 0 8.05 245 23:21 10.03.2020
6750 Rain 11 1001 83 0 4.02 207 22:39 10.03.2020
6751 Rain 11 1001 84 0 2.68 302 22:20 10.03.2020
6752 Rain 10 1001 85 0 2.68 228 21:57 10.03.2020
6753 Rain 10 1001 85 0 2.68 228 21:57 10.03.2020
6754 Rain 10 1001 86 0 2.68 200 21:39 10.03.2020
6755 Rain 10 1001 85 0 2.24 235 21:20 10.03.2020
6756 Rain 10 1001 86 0 2.24 151 20:59 10.03.2020
6757 Rain 9 1001 86 0 0.89 169 20:41 10.03.2020
6758 Rain 9 1001 86 0 1.79 238 20:18 10.03.2020
6759 Rain 9 1002 86 0 4.47 146 19:57 10.03.2020
6760 Rain 8 1002 86 0 2.24 194 19:38 10.03.2020
6761 Rain 8 1002 86 0 2.24 194 19:38 10.03.2020
6762 Rain 8 1002 87 0 1.79 170 19:20 10.03.2020
6763 Rain 8 1002 88 0 3.13 129 18:45 10.03.2020
6764 Rain 8 1002 88 0 0.89 145 18:26 10.03.2020
6765 Rain 8 1002 87 0 3.58 197 17:58 10.03.2020
6766 Rain 8 1002 87 0 2.24 213 17:40 10.03.2020
6767 Rain 8 1003 86 0 4.92 200 17:21 10.03.2020
6768 Rain 9 1003 86 0 2.24 204 16:39 10.03.2020
6769 Rain 9 1003 85 0 2.68 193 16:20 10.03.2020
6770 Rain 9 1004 84 0 4.47 128 15:57 10.03.2020
6771 Rain 10 1004 82 0 1.79 142 15:39 10.03.2020
6772 Rain 10 1004 80 0 5.36 163 15:19 10.03.2020
6773 Rain 9 1004 79 0 1.34 218 14:54 10.03.2020
6774 Rain 10 1004 76 0 4.47 200 14:36 10.03.2020
6775 Rain 9 1004 73 0 2.68 286 14:18 10.03.2020
6776 Rain 9 1004 72 0 3.58 179 13:42 10.03.2020
6777 Rain 9 1004 71 0 4.92 234 13:24 10.03.2020
6778 Rain 7 1005 85 0 5.81 236 12:42 10.03.2020
6779 Rain 7 1006 87 0 3.58 228 12:21 10.03.2020
6780 Rain 7 1005 76 0 3.58 207 11:59 10.03.2020
6781 Rain 8 1005 75 0 5.36 184 11:41 10.03.2020
6782 Rain 7 1005 76 0 4.47 213 11:22 10.03.2020
6783 Rain 7 1005 77 0 2.24 187 10:54 10.03.2020
6784 Rain 7 1005 78 0 5.36 180 10:36 10.03.2020
6785 Rain 7 1005 79 0 2.68 145 10:18 10.03.2020
6786 Rain 6 1006 84 0 5.81 143 09:42 10.03.2020
6787 Rain 6 1006 82 0 6.26 124 09:19 10.03.2020
6788 Rain 6 1000 92 0 8.42 208 08:53 10.03.2020
6789 Rain 6 1007 84 0 4.02 136 08:33 10.03.2020
6790 Clouds 5 1007 84 0 3.58 131 07:53 10.03.2020
6791 Clouds 5 1008 83 0 5.85 195 07:34 10.03.2020
6792 Clouds 5 1009 82 0 3.58 172 06:50 10.03.2020
6793 Clouds 5 1009 82 0 2.68 119 06:31 10.03.2020
6794 Clouds 4 1010 82 0 6.71 200 05:42 10.03.2020
6795 Clouds 4 1011 84 0 1.79 153 04:56 10.03.2020
6796 Clouds 4 1011 84 0 2.24 170 04:25 10.03.2020
6797 Clouds 3 1013 88 0 1.34 152 02:46 10.03.2020
6798 Clear 3 1013 88 0 0.45 159 01:31 10.03.2020
6799 Clear 3 1014 88 0 2.24 175 00:50 10.03.2020
6800 Clear 4 1013 88 0 0.45 182 00:27 10.03.2020
6801 Clear 4 1014 87 0 0.45 203 23:41 09.03.2020
6802 Clear 4 1015 86 0 0.45 189 23:22 09.03.2020
6803 Clear 4 1015 86 0 0.45 114 22:57 09.03.2020
6804 Clear 4 1015 86 0 3.51 230 22:37 09.03.2020
6805 Clear 4 1015 86 0 3.51 230 22:18 09.03.2020
6806 Clear 4 1015 86 0 3.51 230 21:43 09.03.2020
6807 Clear 4 1015 86 0 3.51 230 21:22 09.03.2020
6808 Clear 5 1015 86 0 3.51 230 20:58 09.03.2020
6809 Clear 5 1015 85 0 0.45 201 20:40 09.03.2020
6810 Rain 6 1015 85 0 0.89 173 20:20 09.03.2020
6811 Rain 7 1015 83 0 2.56 256 19:45 09.03.2020
6812 Rain 7 1015 82 0 2.56 256 19:26 09.03.2020
6813 Rain 8 1015 80 0 2.56 256 18:59 09.03.2020
6814 Rain 8 1014 79 0 2.56 256 18:40 09.03.2020
6815 Rain 9 1014 75 0 1.34 262 18:21 09.03.2020
6816 Rain 10 1014 69 0 1.79 254 17:59 09.03.2020
6817 Rain 10 1014 64 0 1.79 359 17:39 09.03.2020
6818 Rain 10 1014 63 0 2.68